<?xml version="1.0" encoding="UTF-8"?>
<gpx xmlns="http://www.topografix.com/GPX/1/1" version="1.1" creator="GPSBabel - http://www.gpsbabel.org">
	<metadata>
		<author>
			<name>Lykun</name>
		</author>
	</metadata>
	<wpt lat="33.287857" lon="103.835449">
		<ele>2919.000000</ele>
		<time>2024-01-14T17:26:57Z</time>
		<name><![CDATA[SP1(海子)距离18.4 海拔2451]]></name>
	</wpt>
	<wpt lat="33.250675" lon="103.825554">
		<ele>2936.000000</ele>
		<time>2024-01-18T09:23:30Z</time>
		<name><![CDATA[CP2距离10.7KM /CP3距离18.9KM(二平台)海拔2937M]]></name>
	</wpt>
	<wpt lat="33.269711" lon="103.814903">
		<ele>2528.000000</ele>
		<time>2024-01-18T09:32:10Z</time>
		<name><![CDATA[CP1(七号营地)距离5.8KM，海拔2537M]]></name>
		<desc><![CDATA[CP1(七号营地)距离5.7KM，海拔2550M
裁判：
站长：
到达时间：
功能：补给、医疗、收容、计时、安保、天气观察、分路指标。]]></desc>
	</wpt>
	<wpt lat="33.269711" lon="103.814903">
		<ele>2528.000000</ele>
		<time>2024-01-18T09:32:10Z</time>
		<name><![CDATA[CP1(七号营地)距离5.8KM，海拔2537M]]></name>
		<desc><![CDATA[CP1(七号营地)距离5.7KM，海拔2550M
裁判：
站长：
到达时间：
功能：补给、医疗、收容、计时、安保、天气观察、分路指标。]]></desc>
	</wpt>
	<wpt lat="33.228672" lon="103.832047">
		<ele>3609.000000</ele>
		<time>2024-03-11T14:17:49Z</time>
		<name><![CDATA[计时点]]></name>
	</wpt>
	<wpt lat="33.287857" lon="103.835449">
		<ele>2919.000000</ele>
		<time>2024-01-14T17:26:57Z</time>
		<name><![CDATA[SP1(海子)距离18.4 海拔2451]]></name>
	</wpt>
	<wpt lat="33.250275" lon="103.825516">
		<ele>2936.000000</ele>
		<time>2024-01-18T09:23:30Z</time>
		<name><![CDATA[CP2距离10.7KM /CP3距离18.9KM(二平台)海拔2937M]]></name>
	</wpt>
	<wpt lat="33.269711" lon="103.814903">
		<ele>2528.000000</ele>
		<time>2024-01-18T09:32:10Z</time>
		<name><![CDATA[CP1(七号营地)距离5.8KM，海拔2537M]]></name>
		<desc><![CDATA[CP1(七号营地)距离5.7KM，海拔2550M
裁判：
站长：
到达时间：
功能：补给、医疗、收容、计时、安保、天气观察、分路指标。]]></desc>
	</wpt>
	<trk>
		<trkseg>
			<trkpt lat="33.307030" lon="103.819153">
				<ele>2191.000000</ele>
				<time>2024-04-10T04:24:23Z</time>
			</trkpt>
			<trkpt lat="33.306839" lon="103.819160">
				<ele>2191.000000</ele>
				<time>2024-04-10T04:24:23Z</time>
			</trkpt>
			<trkpt lat="33.306694" lon="103.819130">
				<ele>2197.000000</ele>
				<time>2024-04-10T04:24:23Z</time>
			</trkpt>
			<trkpt lat="33.306572" lon="103.818985">
				<ele>2191.000000</ele>
				<time>2024-04-10T04:24:23Z</time>
			</trkpt>
			<trkpt lat="33.306499" lon="103.818832">
				<ele>2201.000000</ele>
				<time>2024-04-10T04:24:23Z</time>
			</trkpt>
			<trkpt lat="33.306416" lon="103.818634">
				<ele>2198.000000</ele>
				<time>2024-04-10T04:24:23Z</time>
			</trkpt>
			<trkpt lat="33.306309" lon="103.818359">
				<ele>2196.000000</ele>
				<time>2024-04-10T04:24:23Z</time>
			</trkpt>
			<trkpt lat="33.306229" lon="103.818153">
				<ele>2208.000000</ele>
				<time>2024-04-10T04:24:23Z</time>
			</trkpt>
			<trkpt lat="33.306118" lon="103.817947">
				<ele>2208.000000</ele>
				<time>2024-04-10T04:24:23Z</time>
			</trkpt>
			<trkpt lat="33.306023" lon="103.817726">
				<ele>2209.000000</ele>
				<time>2024-04-10T04:24:23Z</time>
			</trkpt>
			<trkpt lat="33.306007" lon="103.817337">
				<ele>2208.000000</ele>
				<time>2024-04-10T04:24:23Z</time>
			</trkpt>
			<trkpt lat="33.306087" lon="103.816887">
				<ele>2208.000000</ele>
				<time>2024-04-10T04:24:23Z</time>
			</trkpt>
			<trkpt lat="33.306084" lon="103.816460">
				<ele>2209.000000</ele>
				<time>2024-04-10T04:24:23Z</time>
			</trkpt>
			<trkpt lat="33.306190" lon="103.815880">
				<ele>2208.000000</ele>
				<time>2024-04-10T04:24:23Z</time>
			</trkpt>
			<trkpt lat="33.306488" lon="103.815224">
				<ele>2203.000000</ele>
				<time>2024-04-10T04:24:23Z</time>
			</trkpt>
			<trkpt lat="33.306538" lon="103.814934">
				<ele>2204.000000</ele>
				<time>2024-04-10T04:24:23Z</time>
			</trkpt>
			<trkpt lat="33.306446" lon="103.814629">
				<ele>2204.000000</ele>
				<time>2024-04-10T04:24:23Z</time>
			</trkpt>
			<trkpt lat="33.306293" lon="103.814598">
				<ele>2204.000000</ele>
				<time>2024-04-10T04:24:23Z</time>
			</trkpt>
			<trkpt lat="33.306065" lon="103.814583">
				<ele>2207.000000</ele>
				<time>2024-04-10T04:24:23Z</time>
			</trkpt>
			<trkpt lat="33.305969" lon="103.814575">
				<ele>2214.000000</ele>
				<time>2024-04-10T04:24:23Z</time>
			</trkpt>
			<trkpt lat="33.305866" lon="103.814575">
				<ele>2214.000000</ele>
				<time>2024-04-10T04:24:23Z</time>
			</trkpt>
			<trkpt lat="33.305748" lon="103.814583">
				<ele>2214.000000</ele>
				<time>2024-04-10T04:24:23Z</time>
			</trkpt>
			<trkpt lat="33.305611" lon="103.814590">
				<ele>2205.000000</ele>
				<time>2024-04-10T04:24:23Z</time>
			</trkpt>
			<trkpt lat="33.305462" lon="103.814606">
				<ele>2205.000000</ele>
				<time>2024-04-10T04:24:23Z</time>
			</trkpt>
			<trkpt lat="33.305298" lon="103.814613">
				<ele>2209.000000</ele>
				<time>2024-04-10T04:24:23Z</time>
			</trkpt>
			<trkpt lat="33.305138" lon="103.814629">
				<ele>2214.000000</ele>
				<time>2024-04-10T04:24:23Z</time>
			</trkpt>
			<trkpt lat="33.304989" lon="103.814636">
				<ele>2214.000000</ele>
				<time>2024-04-10T04:24:23Z</time>
			</trkpt>
			<trkpt lat="33.304844" lon="103.814644">
				<ele>2217.000000</ele>
				<time>2024-04-10T04:24:23Z</time>
			</trkpt>
			<trkpt lat="33.304703" lon="103.814651">
				<ele>2217.000000</ele>
				<time>2024-04-10T04:24:23Z</time>
			</trkpt>
			<trkpt lat="33.304550" lon="103.814667">
				<ele>2214.000000</ele>
				<time>2024-04-10T04:24:23Z</time>
			</trkpt>
			<trkpt lat="33.304401" lon="103.814674">
				<ele>2214.000000</ele>
				<time>2024-04-10T04:24:23Z</time>
			</trkpt>
			<trkpt lat="33.304249" lon="103.814682">
				<ele>2215.000000</ele>
				<time>2024-04-10T04:24:23Z</time>
			</trkpt>
			<trkpt lat="33.304085" lon="103.814690">
				<ele>2215.000000</ele>
				<time>2024-04-10T04:24:23Z</time>
			</trkpt>
			<trkpt lat="33.303917" lon="103.814674">
				<ele>2213.000000</ele>
				<time>2024-04-10T04:24:23Z</time>
			</trkpt>
			<trkpt lat="33.303757" lon="103.814682">
				<ele>2213.000000</ele>
				<time>2024-04-10T04:24:23Z</time>
			</trkpt>
			<trkpt lat="33.303623" lon="103.814697">
				<ele>2218.000000</ele>
				<time>2024-04-10T04:24:23Z</time>
			</trkpt>
			<trkpt lat="33.303509" lon="103.814751">
				<ele>2218.000000</ele>
				<time>2024-04-10T04:24:23Z</time>
			</trkpt>
			<trkpt lat="33.303421" lon="103.814781">
				<ele>2231.000000</ele>
				<time>2024-04-10T04:24:23Z</time>
			</trkpt>
			<trkpt lat="33.303333" lon="103.814812">
				<ele>2231.000000</ele>
				<time>2024-04-10T04:24:23Z</time>
			</trkpt>
			<trkpt lat="33.303246" lon="103.814842">
				<ele>2231.000000</ele>
				<time>2024-04-10T04:24:23Z</time>
			</trkpt>
			<trkpt lat="33.303143" lon="103.814880">
				<ele>2229.000000</ele>
				<time>2024-04-10T04:24:23Z</time>
			</trkpt>
			<trkpt lat="33.302994" lon="103.814934">
				<ele>2229.000000</ele>
				<time>2024-04-10T04:24:23Z</time>
			</trkpt>
			<trkpt lat="33.302849" lon="103.814987">
				<ele>2236.000000</ele>
				<time>2024-04-10T04:24:23Z</time>
			</trkpt>
			<trkpt lat="33.302681" lon="103.815048">
				<ele>2236.000000</ele>
				<time>2024-04-10T04:24:23Z</time>
			</trkpt>
			<trkpt lat="33.302589" lon="103.815071">
				<ele>2242.000000</ele>
				<time>2024-04-10T04:24:23Z</time>
			</trkpt>
			<trkpt lat="33.302498" lon="103.815071">
				<ele>2242.000000</ele>
				<time>2024-04-10T04:24:23Z</time>
			</trkpt>
			<trkpt lat="33.302391" lon="103.815063">
				<ele>2242.000000</ele>
				<time>2024-04-10T04:24:23Z</time>
			</trkpt>
			<trkpt lat="33.302299" lon="103.815048">
				<ele>2249.000000</ele>
				<time>2024-04-10T04:24:23Z</time>
			</trkpt>
			<trkpt lat="33.302208" lon="103.815041">
				<ele>2249.000000</ele>
				<time>2024-04-10T04:24:23Z</time>
			</trkpt>
			<trkpt lat="33.302116" lon="103.815025">
				<ele>2249.000000</ele>
				<time>2024-04-10T04:24:23Z</time>
			</trkpt>
			<trkpt lat="33.302025" lon="103.815010">
				<ele>2253.000000</ele>
				<time>2024-04-10T04:24:23Z</time>
			</trkpt>
			<trkpt lat="33.301929" lon="103.815002">
				<ele>2253.000000</ele>
				<time>2024-04-10T04:24:23Z</time>
			</trkpt>
			<trkpt lat="33.301834" lon="103.814987">
				<ele>2253.000000</ele>
				<time>2024-04-10T04:24:23Z</time>
			</trkpt>
			<trkpt lat="33.301739" lon="103.814972">
				<ele>2258.000000</ele>
				<time>2024-04-10T04:24:23Z</time>
			</trkpt>
			<trkpt lat="33.301640" lon="103.814972">
				<ele>2258.000000</ele>
				<time>2024-04-10T04:24:23Z</time>
			</trkpt>
			<trkpt lat="33.301544" lon="103.814957">
				<ele>2258.000000</ele>
				<time>2024-04-10T04:24:23Z</time>
			</trkpt>
			<trkpt lat="33.301437" lon="103.814941">
				<ele>2251.000000</ele>
				<time>2024-04-10T04:24:23Z</time>
			</trkpt>
			<trkpt lat="33.301346" lon="103.814919">
				<ele>2251.000000</ele>
				<time>2024-04-10T04:24:23Z</time>
			</trkpt>
			<trkpt lat="33.301254" lon="103.814903">
				<ele>2251.000000</ele>
				<time>2024-04-10T04:24:23Z</time>
			</trkpt>
			<trkpt lat="33.301098" lon="103.814873">
				<ele>2245.000000</ele>
				<time>2024-04-10T04:24:23Z</time>
			</trkpt>
			<trkpt lat="33.300964" lon="103.814865">
				<ele>2255.000000</ele>
				<time>2024-04-10T04:24:23Z</time>
			</trkpt>
			<trkpt lat="33.300861" lon="103.814804">
				<ele>2261.000000</ele>
				<time>2024-04-10T04:24:23Z</time>
			</trkpt>
			<trkpt lat="33.300861" lon="103.814804">
				<ele>2261.000000</ele>
				<time>2024-04-10T04:24:23Z</time>
			</trkpt>
			<trkpt lat="33.300812" lon="103.814713">
				<ele>2261.000000</ele>
				<time>2024-04-10T04:24:23Z</time>
			</trkpt>
			<trkpt lat="33.300781" lon="103.814606">
				<ele>2261.000000</ele>
				<time>2024-04-10T04:24:23Z</time>
			</trkpt>
			<trkpt lat="33.300728" lon="103.814507">
				<ele>2268.000000</ele>
				<time>2024-04-10T04:24:23Z</time>
			</trkpt>
			<trkpt lat="33.300701" lon="103.814400">
				<ele>2268.000000</ele>
				<time>2024-04-10T04:24:23Z</time>
			</trkpt>
			<trkpt lat="33.300716" lon="103.814293">
				<ele>2278.000000</ele>
				<time>2024-04-10T04:24:23Z</time>
			</trkpt>
			<trkpt lat="33.300728" lon="103.814178">
				<ele>2278.000000</ele>
				<time>2024-04-10T04:24:23Z</time>
			</trkpt>
			<trkpt lat="33.300724" lon="103.814064">
				<ele>2278.000000</ele>
				<time>2024-04-10T04:24:23Z</time>
			</trkpt>
			<trkpt lat="33.300686" lon="103.813965">
				<ele>2281.000000</ele>
				<time>2024-04-10T04:24:23Z</time>
			</trkpt>
			<trkpt lat="33.300652" lon="103.813866">
				<ele>2281.000000</ele>
				<time>2024-04-10T04:24:23Z</time>
			</trkpt>
			<trkpt lat="33.300564" lon="103.813835">
				<ele>2281.000000</ele>
				<time>2024-04-10T04:24:23Z</time>
			</trkpt>
			<trkpt lat="33.300465" lon="103.813820">
				<ele>2281.000000</ele>
				<time>2024-04-10T04:24:23Z</time>
			</trkpt>
			<trkpt lat="33.300369" lon="103.813820">
				<ele>2285.000000</ele>
				<time>2024-04-10T04:24:23Z</time>
			</trkpt>
			<trkpt lat="33.300278" lon="103.813820">
				<ele>2285.000000</ele>
				<time>2024-04-10T04:24:23Z</time>
			</trkpt>
			<trkpt lat="33.300201" lon="103.813759">
				<ele>2285.000000</ele>
				<time>2024-04-10T04:24:23Z</time>
			</trkpt>
			<trkpt lat="33.300201" lon="103.813652">
				<ele>2291.000000</ele>
				<time>2024-04-10T04:24:23Z</time>
			</trkpt>
			<trkpt lat="33.300140" lon="103.813560">
				<ele>2291.000000</ele>
				<time>2024-04-10T04:24:23Z</time>
			</trkpt>
			<trkpt lat="33.300083" lon="103.813446">
				<ele>2307.000000</ele>
				<time>2024-04-10T04:24:23Z</time>
			</trkpt>
			<trkpt lat="33.300060" lon="103.813293">
				<ele>2307.000000</ele>
				<time>2024-04-10T04:24:23Z</time>
			</trkpt>
			<trkpt lat="33.299995" lon="103.813110">
				<ele>2313.000000</ele>
				<time>2024-04-10T04:24:23Z</time>
			</trkpt>
			<trkpt lat="33.299976" lon="103.812996">
				<ele>2313.000000</ele>
				<time>2024-04-10T04:24:23Z</time>
			</trkpt>
			<trkpt lat="33.299908" lon="103.812912">
				<ele>2322.000000</ele>
				<time>2024-04-10T04:24:23Z</time>
			</trkpt>
			<trkpt lat="33.299843" lon="103.812828">
				<ele>2325.000000</ele>
				<time>2024-04-10T04:24:23Z</time>
			</trkpt>
			<trkpt lat="33.299778" lon="103.812752">
				<ele>2325.000000</ele>
				<time>2024-04-10T04:24:23Z</time>
			</trkpt>
			<trkpt lat="33.299728" lon="103.812653">
				<ele>2325.000000</ele>
				<time>2024-04-10T04:24:23Z</time>
			</trkpt>
			<trkpt lat="33.299709" lon="103.812546">
				<ele>2335.000000</ele>
				<time>2024-04-10T04:24:23Z</time>
			</trkpt>
			<trkpt lat="33.299698" lon="103.812439">
				<ele>2335.000000</ele>
				<time>2024-04-10T04:24:23Z</time>
			</trkpt>
			<trkpt lat="33.299683" lon="103.812332">
				<ele>2348.000000</ele>
				<time>2024-04-10T04:24:23Z</time>
			</trkpt>
			<trkpt lat="33.299644" lon="103.812225">
				<ele>2348.000000</ele>
				<time>2024-04-10T04:24:23Z</time>
			</trkpt>
			<trkpt lat="33.299625" lon="103.812119">
				<ele>2348.000000</ele>
				<time>2024-04-10T04:24:23Z</time>
			</trkpt>
			<trkpt lat="33.299637" lon="103.812012">
				<ele>2360.000000</ele>
				<time>2024-04-10T04:24:23Z</time>
			</trkpt>
			<trkpt lat="33.299549" lon="103.811974">
				<ele>2361.000000</ele>
				<time>2024-04-10T04:24:23Z</time>
			</trkpt>
			<trkpt lat="33.299553" lon="103.811859">
				<ele>2361.000000</ele>
				<time>2024-04-10T04:24:23Z</time>
			</trkpt>
			<trkpt lat="33.299549" lon="103.811745">
				<ele>2371.000000</ele>
				<time>2024-04-10T04:24:23Z</time>
			</trkpt>
			<trkpt lat="33.299526" lon="103.811638">
				<ele>2371.000000</ele>
				<time>2024-04-10T04:24:23Z</time>
			</trkpt>
			<trkpt lat="33.299488" lon="103.811539">
				<ele>2371.000000</ele>
				<time>2024-04-10T04:24:23Z</time>
			</trkpt>
			<trkpt lat="33.299438" lon="103.811447">
				<ele>2381.000000</ele>
				<time>2024-04-10T04:24:23Z</time>
			</trkpt>
			<trkpt lat="33.299492" lon="103.811356">
				<ele>2381.000000</ele>
				<time>2024-04-10T04:24:23Z</time>
			</trkpt>
			<trkpt lat="33.299500" lon="103.811241">
				<ele>2389.000000</ele>
				<time>2024-04-10T04:24:23Z</time>
			</trkpt>
			<trkpt lat="33.299500" lon="103.811134">
				<ele>2389.000000</ele>
				<time>2024-04-10T04:24:23Z</time>
			</trkpt>
			<trkpt lat="33.299446" lon="103.811043">
				<ele>2389.000000</ele>
				<time>2024-04-10T04:24:23Z</time>
			</trkpt>
			<trkpt lat="33.299397" lon="103.810944">
				<ele>2400.000000</ele>
				<time>2024-04-10T04:24:23Z</time>
			</trkpt>
			<trkpt lat="33.299343" lon="103.810852">
				<ele>2400.000000</ele>
				<time>2024-04-10T04:24:23Z</time>
			</trkpt>
			<trkpt lat="33.299278" lon="103.810768">
				<ele>2405.000000</ele>
				<time>2024-04-10T04:24:23Z</time>
			</trkpt>
			<trkpt lat="33.299248" lon="103.810661">
				<ele>2416.000000</ele>
				<time>2024-04-10T04:24:23Z</time>
			</trkpt>
			<trkpt lat="33.299175" lon="103.810600">
				<ele>2416.000000</ele>
				<time>2024-04-10T04:24:23Z</time>
			</trkpt>
			<trkpt lat="33.299103" lon="103.810585">
				<ele>2416.000000</ele>
				<time>2024-04-10T04:24:23Z</time>
			</trkpt>
			<trkpt lat="33.299103" lon="103.810585">
				<ele>2416.000000</ele>
				<time>2024-04-10T04:24:23Z</time>
			</trkpt>
			<trkpt lat="33.299103" lon="103.810585">
				<ele>2416.000000</ele>
				<time>2024-04-10T04:24:23Z</time>
			</trkpt>
			<trkpt lat="33.299000" lon="103.810616">
				<ele>2421.000000</ele>
				<time>2024-04-10T04:24:23Z</time>
			</trkpt>
			<trkpt lat="33.298901" lon="103.810661">
				<ele>2421.000000</ele>
				<time>2024-04-10T04:24:23Z</time>
			</trkpt>
			<trkpt lat="33.298817" lon="103.810738">
				<ele>2413.000000</ele>
				<time>2024-04-10T04:24:23Z</time>
			</trkpt>
			<trkpt lat="33.298721" lon="103.810791">
				<ele>2422.000000</ele>
				<time>2024-04-10T04:24:23Z</time>
			</trkpt>
			<trkpt lat="33.298630" lon="103.810852">
				<ele>2422.000000</ele>
				<time>2024-04-10T04:24:23Z</time>
			</trkpt>
			<trkpt lat="33.298519" lon="103.810837">
				<ele>2422.000000</ele>
				<time>2024-04-10T04:24:23Z</time>
			</trkpt>
			<trkpt lat="33.298424" lon="103.810814">
				<ele>2430.000000</ele>
				<time>2024-04-10T04:24:23Z</time>
			</trkpt>
			<trkpt lat="33.298332" lon="103.810776">
				<ele>2430.000000</ele>
				<time>2024-04-10T04:24:23Z</time>
			</trkpt>
			<trkpt lat="33.298244" lon="103.810707">
				<ele>2430.000000</ele>
				<time>2024-04-10T04:24:23Z</time>
			</trkpt>
			<trkpt lat="33.298168" lon="103.810646">
				<ele>2439.000000</ele>
				<time>2024-04-10T04:24:23Z</time>
			</trkpt>
			<trkpt lat="33.298088" lon="103.810577">
				<ele>2439.000000</ele>
				<time>2024-04-10T04:24:23Z</time>
			</trkpt>
			<trkpt lat="33.297993" lon="103.810577">
				<ele>2439.000000</ele>
				<time>2024-04-10T04:24:23Z</time>
			</trkpt>
			<trkpt lat="33.297905" lon="103.810631">
				<ele>2438.000000</ele>
				<time>2024-04-10T04:24:23Z</time>
			</trkpt>
			<trkpt lat="33.297821" lon="103.810684">
				<ele>2438.000000</ele>
				<time>2024-04-10T04:24:23Z</time>
			</trkpt>
			<trkpt lat="33.297729" lon="103.810699">
				<ele>2427.000000</ele>
				<time>2024-04-10T04:24:23Z</time>
			</trkpt>
			<trkpt lat="33.297630" lon="103.810677">
				<ele>2435.000000</ele>
				<time>2024-04-10T04:24:23Z</time>
			</trkpt>
			<trkpt lat="33.297531" lon="103.810654">
				<ele>2435.000000</ele>
				<time>2024-04-10T04:24:23Z</time>
			</trkpt>
			<trkpt lat="33.297459" lon="103.810623">
				<ele>2435.000000</ele>
				<time>2024-04-10T04:24:23Z</time>
			</trkpt>
			<trkpt lat="33.297367" lon="103.810593">
				<ele>2435.000000</ele>
				<time>2024-04-10T04:24:23Z</time>
			</trkpt>
			<trkpt lat="33.297279" lon="103.810555">
				<ele>2435.000000</ele>
				<time>2024-04-10T04:24:23Z</time>
			</trkpt>
			<trkpt lat="33.297195" lon="103.810501">
				<ele>2435.000000</ele>
				<time>2024-04-10T04:24:23Z</time>
			</trkpt>
			<trkpt lat="33.297089" lon="103.810471">
				<ele>2435.000000</ele>
				<time>2024-04-10T04:24:23Z</time>
			</trkpt>
			<trkpt lat="33.296993" lon="103.810463">
				<ele>2439.000000</ele>
				<time>2024-04-10T04:24:23Z</time>
			</trkpt>
			<trkpt lat="33.296890" lon="103.810486">
				<ele>2439.000000</ele>
				<time>2024-04-10T04:24:23Z</time>
			</trkpt>
			<trkpt lat="33.296795" lon="103.810516">
				<ele>2434.000000</ele>
				<time>2024-04-10T04:24:23Z</time>
			</trkpt>
			<trkpt lat="33.296703" lon="103.810555">
				<ele>2434.000000</ele>
				<time>2024-04-10T04:24:23Z</time>
			</trkpt>
			<trkpt lat="33.296604" lon="103.810577">
				<ele>2434.000000</ele>
				<time>2024-04-10T04:24:23Z</time>
			</trkpt>
			<trkpt lat="33.296509" lon="103.810608">
				<ele>2428.000000</ele>
				<time>2024-04-10T04:24:23Z</time>
			</trkpt>
			<trkpt lat="33.296406" lon="103.810654">
				<ele>2428.000000</ele>
				<time>2024-04-10T04:24:23Z</time>
			</trkpt>
			<trkpt lat="33.296314" lon="103.810684">
				<ele>2428.000000</ele>
				<time>2024-04-10T04:24:23Z</time>
			</trkpt>
			<trkpt lat="33.296219" lon="103.810730">
				<ele>2429.000000</ele>
				<time>2024-04-10T04:24:23Z</time>
			</trkpt>
			<trkpt lat="33.296124" lon="103.810753">
				<ele>2429.000000</ele>
				<time>2024-04-10T04:24:23Z</time>
			</trkpt>
			<trkpt lat="33.296028" lon="103.810760">
				<ele>2429.000000</ele>
				<time>2024-04-10T04:24:23Z</time>
			</trkpt>
			<trkpt lat="33.295933" lon="103.810768">
				<ele>2431.000000</ele>
				<time>2024-04-10T04:24:23Z</time>
			</trkpt>
			<trkpt lat="33.295837" lon="103.810760">
				<ele>2431.000000</ele>
				<time>2024-04-10T04:24:23Z</time>
			</trkpt>
			<trkpt lat="33.295746" lon="103.810745">
				<ele>2431.000000</ele>
				<time>2024-04-10T04:24:23Z</time>
			</trkpt>
			<trkpt lat="33.295769" lon="103.810638">
				<ele>2441.000000</ele>
				<time>2024-04-10T04:24:23Z</time>
			</trkpt>
			<trkpt lat="33.295715" lon="103.810539">
				<ele>2441.000000</ele>
				<time>2024-04-10T04:24:23Z</time>
			</trkpt>
			<trkpt lat="33.295658" lon="103.810471">
				<ele>2444.000000</ele>
				<time>2024-04-10T04:24:23Z</time>
			</trkpt>
			<trkpt lat="33.295704" lon="103.810349">
				<ele>2450.000000</ele>
				<time>2024-04-10T04:24:23Z</time>
			</trkpt>
			<trkpt lat="33.295757" lon="103.810249">
				<ele>2450.000000</ele>
				<time>2024-04-10T04:24:23Z</time>
			</trkpt>
			<trkpt lat="33.295757" lon="103.810249">
				<ele>2450.000000</ele>
				<time>2024-04-10T04:24:23Z</time>
			</trkpt>
			<trkpt lat="33.295845" lon="103.810196">
				<ele>2450.000000</ele>
				<time>2024-04-10T04:24:23Z</time>
			</trkpt>
			<trkpt lat="33.295845" lon="103.810196">
				<ele>2450.000000</ele>
				<time>2024-04-10T04:24:23Z</time>
			</trkpt>
			<trkpt lat="33.295818" lon="103.810081">
				<ele>2457.000000</ele>
				<time>2024-04-10T04:24:23Z</time>
			</trkpt>
			<trkpt lat="33.295784" lon="103.809982">
				<ele>2457.000000</ele>
				<time>2024-04-10T04:24:23Z</time>
			</trkpt>
			<trkpt lat="33.295704" lon="103.809914">
				<ele>2457.000000</ele>
				<time>2024-04-10T04:24:23Z</time>
			</trkpt>
			<trkpt lat="33.295616" lon="103.809860">
				<ele>2476.000000</ele>
				<time>2024-04-10T04:24:23Z</time>
			</trkpt>
			<trkpt lat="33.295540" lon="103.809792">
				<ele>2476.000000</ele>
				<time>2024-04-10T04:24:23Z</time>
			</trkpt>
			<trkpt lat="33.295441" lon="103.809746">
				<ele>2476.000000</ele>
				<time>2024-04-10T04:24:23Z</time>
			</trkpt>
			<trkpt lat="33.295372" lon="103.809677">
				<ele>2488.000000</ele>
				<time>2024-04-10T04:24:23Z</time>
			</trkpt>
			<trkpt lat="33.295349" lon="103.809555">
				<ele>2499.000000</ele>
				<time>2024-04-10T04:24:23Z</time>
			</trkpt>
			<trkpt lat="33.295353" lon="103.809517">
				<ele>2499.000000</ele>
				<time>2024-04-10T04:24:23Z</time>
			</trkpt>
			<trkpt lat="33.295258" lon="103.809502">
				<ele>2499.000000</ele>
				<time>2024-04-10T04:24:23Z</time>
			</trkpt>
			<trkpt lat="33.295162" lon="103.809502">
				<ele>2499.000000</ele>
				<time>2024-04-10T04:24:23Z</time>
			</trkpt>
			<trkpt lat="33.295063" lon="103.809540">
				<ele>2503.000000</ele>
				<time>2024-04-10T04:24:23Z</time>
			</trkpt>
			<trkpt lat="33.294964" lon="103.809570">
				<ele>2503.000000</ele>
				<time>2024-04-10T04:24:23Z</time>
			</trkpt>
			<trkpt lat="33.294880" lon="103.809631">
				<ele>2494.000000</ele>
				<time>2024-04-10T04:24:23Z</time>
			</trkpt>
			<trkpt lat="33.294815" lon="103.809662">
				<ele>2496.000000</ele>
				<time>2024-04-10T04:24:23Z</time>
			</trkpt>
			<trkpt lat="33.294785" lon="103.809631">
				<ele>2496.000000</ele>
				<time>2024-04-10T04:24:23Z</time>
			</trkpt>
			<trkpt lat="33.294731" lon="103.809639">
				<ele>2496.000000</ele>
				<time>2024-04-10T04:24:23Z</time>
			</trkpt>
			<trkpt lat="33.294640" lon="103.809669">
				<ele>2496.000000</ele>
				<time>2024-04-10T04:24:23Z</time>
			</trkpt>
			<trkpt lat="33.294617" lon="103.809669">
				<ele>2496.000000</ele>
				<time>2024-04-10T04:24:23Z</time>
			</trkpt>
			<trkpt lat="33.294544" lon="103.809753">
				<ele>2504.000000</ele>
				<time>2024-04-10T04:24:23Z</time>
			</trkpt>
			<trkpt lat="33.294456" lon="103.809837">
				<ele>2504.000000</ele>
				<time>2024-04-10T04:24:23Z</time>
			</trkpt>
			<trkpt lat="33.294373" lon="103.809914">
				<ele>2490.000000</ele>
				<time>2024-04-10T04:24:23Z</time>
			</trkpt>
			<trkpt lat="33.294292" lon="103.809921">
				<ele>2495.000000</ele>
				<time>2024-04-10T04:24:23Z</time>
			</trkpt>
			<trkpt lat="33.294239" lon="103.809853">
				<ele>2509.000000</ele>
				<time>2024-04-10T04:24:23Z</time>
			</trkpt>
			<trkpt lat="33.294216" lon="103.809799">
				<ele>2509.000000</ele>
				<time>2024-04-10T04:24:23Z</time>
			</trkpt>
			<trkpt lat="33.294167" lon="103.809685">
				<ele>2509.000000</ele>
				<time>2024-04-10T04:24:23Z</time>
			</trkpt>
			<trkpt lat="33.294106" lon="103.809593">
				<ele>2509.000000</ele>
				<time>2024-04-10T04:24:23Z</time>
			</trkpt>
			<trkpt lat="33.294044" lon="103.809502">
				<ele>2519.000000</ele>
				<time>2024-04-10T04:24:23Z</time>
			</trkpt>
			<trkpt lat="33.293980" lon="103.809410">
				<ele>2507.000000</ele>
				<time>2024-04-10T04:24:23Z</time>
			</trkpt>
			<trkpt lat="33.293880" lon="103.809341">
				<ele>2507.000000</ele>
				<time>2024-04-10T04:24:23Z</time>
			</trkpt>
			<trkpt lat="33.293770" lon="103.809319">
				<ele>2507.000000</ele>
				<time>2024-04-10T04:24:23Z</time>
			</trkpt>
			<trkpt lat="33.293663" lon="103.809319">
				<ele>2502.000000</ele>
				<time>2024-04-10T04:24:23Z</time>
			</trkpt>
			<trkpt lat="33.293560" lon="103.809319">
				<ele>2502.000000</ele>
				<time>2024-04-10T04:24:23Z</time>
			</trkpt>
			<trkpt lat="33.293472" lon="103.809326">
				<ele>2502.000000</ele>
				<time>2024-04-10T04:24:23Z</time>
			</trkpt>
			<trkpt lat="33.293415" lon="103.809280">
				<ele>2501.000000</ele>
				<time>2024-04-10T04:24:23Z</time>
			</trkpt>
			<trkpt lat="33.293427" lon="103.809181">
				<ele>2501.000000</ele>
				<time>2024-04-10T04:24:23Z</time>
			</trkpt>
			<trkpt lat="33.293339" lon="103.809120">
				<ele>2501.000000</ele>
				<time>2024-04-10T04:24:23Z</time>
			</trkpt>
			<trkpt lat="33.293240" lon="103.809120">
				<ele>2501.000000</ele>
				<time>2024-04-10T04:24:23Z</time>
			</trkpt>
			<trkpt lat="33.293140" lon="103.809151">
				<ele>2503.000000</ele>
				<time>2024-04-10T04:24:23Z</time>
			</trkpt>
			<trkpt lat="33.293053" lon="103.809219">
				<ele>2503.000000</ele>
				<time>2024-04-10T04:24:23Z</time>
			</trkpt>
			<trkpt lat="33.292953" lon="103.809219">
				<ele>2503.000000</ele>
				<time>2024-04-10T04:24:23Z</time>
			</trkpt>
			<trkpt lat="33.292881" lon="103.809166">
				<ele>2505.000000</ele>
				<time>2024-04-10T04:24:23Z</time>
			</trkpt>
			<trkpt lat="33.292885" lon="103.809128">
				<ele>2505.000000</ele>
				<time>2024-04-10T04:24:23Z</time>
			</trkpt>
			<trkpt lat="33.292904" lon="103.809097">
				<ele>2505.000000</ele>
				<time>2024-04-10T04:24:23Z</time>
			</trkpt>
			<trkpt lat="33.292984" lon="103.809029">
				<ele>2503.000000</ele>
				<time>2024-04-10T04:24:23Z</time>
			</trkpt>
			<trkpt lat="33.293007" lon="103.808945">
				<ele>2511.000000</ele>
				<time>2024-04-10T04:24:23Z</time>
			</trkpt>
			<trkpt lat="33.292976" lon="103.808861">
				<ele>2511.000000</ele>
				<time>2024-04-10T04:24:23Z</time>
			</trkpt>
			<trkpt lat="33.292942" lon="103.808762">
				<ele>2511.000000</ele>
				<time>2024-04-10T04:24:23Z</time>
			</trkpt>
			<trkpt lat="33.292904" lon="103.808662">
				<ele>2519.000000</ele>
				<time>2024-04-10T04:24:23Z</time>
			</trkpt>
			<trkpt lat="33.292862" lon="103.808556">
				<ele>2519.000000</ele>
				<time>2024-04-10T04:24:23Z</time>
			</trkpt>
			<trkpt lat="33.292805" lon="103.808449">
				<ele>2524.000000</ele>
				<time>2024-04-10T04:24:23Z</time>
			</trkpt>
			<trkpt lat="33.292789" lon="103.808319">
				<ele>2524.000000</ele>
				<time>2024-04-10T04:24:23Z</time>
			</trkpt>
			<trkpt lat="33.292767" lon="103.808205">
				<ele>2524.000000</ele>
				<time>2024-04-10T04:24:23Z</time>
			</trkpt>
			<trkpt lat="33.292793" lon="103.808090">
				<ele>2529.000000</ele>
				<time>2024-04-10T04:24:23Z</time>
			</trkpt>
			<trkpt lat="33.292858" lon="103.807991">
				<ele>2529.000000</ele>
				<time>2024-04-10T04:24:23Z</time>
			</trkpt>
			<trkpt lat="33.292946" lon="103.807953">
				<ele>2528.000000</ele>
				<time>2024-04-10T04:24:23Z</time>
			</trkpt>
			<trkpt lat="33.292992" lon="103.807877">
				<ele>2539.000000</ele>
				<time>2024-04-10T04:24:23Z</time>
			</trkpt>
			<trkpt lat="33.292980" lon="103.807770">
				<ele>2539.000000</ele>
				<time>2024-04-10T04:24:23Z</time>
			</trkpt>
			<trkpt lat="33.293026" lon="103.807648">
				<ele>2539.000000</ele>
				<time>2024-04-10T04:24:23Z</time>
			</trkpt>
			<trkpt lat="33.292976" lon="103.807549">
				<ele>2553.000000</ele>
				<time>2024-04-10T04:24:23Z</time>
			</trkpt>
			<trkpt lat="33.292892" lon="103.807495">
				<ele>2564.000000</ele>
				<time>2024-04-10T04:24:23Z</time>
			</trkpt>
			<trkpt lat="33.292801" lon="103.807480">
				<ele>2564.000000</ele>
				<time>2024-04-10T04:24:23Z</time>
			</trkpt>
			<trkpt lat="33.292709" lon="103.807426">
				<ele>2564.000000</ele>
				<time>2024-04-10T04:24:23Z</time>
			</trkpt>
			<trkpt lat="33.292618" lon="103.807381">
				<ele>2561.000000</ele>
				<time>2024-04-10T04:24:23Z</time>
			</trkpt>
			<trkpt lat="33.292534" lon="103.807335">
				<ele>2571.000000</ele>
				<time>2024-04-10T04:24:23Z</time>
			</trkpt>
			<trkpt lat="33.292465" lon="103.807251">
				<ele>2571.000000</ele>
				<time>2024-04-10T04:24:23Z</time>
			</trkpt>
			<trkpt lat="33.292397" lon="103.807175">
				<ele>2571.000000</ele>
				<time>2024-04-10T04:24:23Z</time>
			</trkpt>
			<trkpt lat="33.292332" lon="103.807091">
				<ele>2574.000000</ele>
				<time>2024-04-10T04:24:23Z</time>
			</trkpt>
			<trkpt lat="33.292244" lon="103.807060">
				<ele>2585.000000</ele>
				<time>2024-04-10T04:24:23Z</time>
			</trkpt>
			<trkpt lat="33.292160" lon="103.807014">
				<ele>2585.000000</ele>
				<time>2024-04-10T04:24:23Z</time>
			</trkpt>
			<trkpt lat="33.292080" lon="103.806953">
				<ele>2585.000000</ele>
				<time>2024-04-10T04:24:23Z</time>
			</trkpt>
			<trkpt lat="33.292080" lon="103.806953">
				<ele>2585.000000</ele>
				<time>2024-04-10T04:24:23Z</time>
			</trkpt>
			<trkpt lat="33.292080" lon="103.806953">
				<ele>2585.000000</ele>
				<time>2024-04-10T04:24:23Z</time>
			</trkpt>
			<trkpt lat="33.291969" lon="103.806915">
				<ele>2585.000000</ele>
				<time>2024-04-10T04:24:23Z</time>
			</trkpt>
			<trkpt lat="33.291862" lon="103.806953">
				<ele>2585.000000</ele>
				<time>2024-04-10T04:24:23Z</time>
			</trkpt>
			<trkpt lat="33.291782" lon="103.806999">
				<ele>2585.000000</ele>
				<time>2024-04-10T04:24:23Z</time>
			</trkpt>
			<trkpt lat="33.291698" lon="103.807060">
				<ele>2585.000000</ele>
				<time>2024-04-10T04:24:23Z</time>
			</trkpt>
			<trkpt lat="33.291611" lon="103.807121">
				<ele>2578.000000</ele>
				<time>2024-04-10T04:24:23Z</time>
			</trkpt>
			<trkpt lat="33.291531" lon="103.807175">
				<ele>2578.000000</ele>
				<time>2024-04-10T04:24:23Z</time>
			</trkpt>
			<trkpt lat="33.291443" lon="103.807228">
				<ele>2580.000000</ele>
				<time>2024-04-10T04:24:23Z</time>
			</trkpt>
			<trkpt lat="33.291355" lon="103.807259">
				<ele>2580.000000</ele>
				<time>2024-04-10T04:24:23Z</time>
			</trkpt>
			<trkpt lat="33.291260" lon="103.807281">
				<ele>2580.000000</ele>
				<time>2024-04-10T04:24:23Z</time>
			</trkpt>
			<trkpt lat="33.291176" lon="103.807327">
				<ele>2585.000000</ele>
				<time>2024-04-10T04:24:23Z</time>
			</trkpt>
			<trkpt lat="33.291084" lon="103.807365">
				<ele>2574.000000</ele>
				<time>2024-04-10T04:24:23Z</time>
			</trkpt>
			<trkpt lat="33.291008" lon="103.807419">
				<ele>2574.000000</ele>
				<time>2024-04-10T04:24:23Z</time>
			</trkpt>
			<trkpt lat="33.290920" lon="103.807457">
				<ele>2575.000000</ele>
				<time>2024-04-10T04:24:23Z</time>
			</trkpt>
			<trkpt lat="33.290825" lon="103.807495">
				<ele>2575.000000</ele>
				<time>2024-04-10T04:24:23Z</time>
			</trkpt>
			<trkpt lat="33.290737" lon="103.807541">
				<ele>2575.000000</ele>
				<time>2024-04-10T04:24:23Z</time>
			</trkpt>
			<trkpt lat="33.290646" lon="103.807564">
				<ele>2575.000000</ele>
				<time>2024-04-10T04:24:23Z</time>
			</trkpt>
			<trkpt lat="33.290562" lon="103.807602">
				<ele>2575.000000</ele>
				<time>2024-04-10T04:24:23Z</time>
			</trkpt>
			<trkpt lat="33.290474" lon="103.807640">
				<ele>2568.000000</ele>
				<time>2024-04-10T04:24:23Z</time>
			</trkpt>
			<trkpt lat="33.290382" lon="103.807671">
				<ele>2574.000000</ele>
				<time>2024-04-10T04:24:23Z</time>
			</trkpt>
			<trkpt lat="33.290291" lon="103.807709">
				<ele>2574.000000</ele>
				<time>2024-04-10T04:24:23Z</time>
			</trkpt>
			<trkpt lat="33.290203" lon="103.807777">
				<ele>2574.000000</ele>
				<time>2024-04-10T04:24:23Z</time>
			</trkpt>
			<trkpt lat="33.290108" lon="103.807785">
				<ele>2576.000000</ele>
				<time>2024-04-10T04:24:23Z</time>
			</trkpt>
			<trkpt lat="33.290028" lon="103.807716">
				<ele>2576.000000</ele>
				<time>2024-04-10T04:24:23Z</time>
			</trkpt>
			<trkpt lat="33.289928" lon="103.807686">
				<ele>2576.000000</ele>
				<time>2024-04-10T04:24:23Z</time>
			</trkpt>
			<trkpt lat="33.289852" lon="103.807617">
				<ele>2576.000000</ele>
				<time>2024-04-10T04:24:23Z</time>
			</trkpt>
			<trkpt lat="33.289787" lon="103.807541">
				<ele>2576.000000</ele>
				<time>2024-04-10T04:24:23Z</time>
			</trkpt>
			<trkpt lat="33.289719" lon="103.807457">
				<ele>2576.000000</ele>
				<time>2024-04-10T04:24:23Z</time>
			</trkpt>
			<trkpt lat="33.289669" lon="103.807373">
				<ele>2576.000000</ele>
				<time>2024-04-10T04:24:23Z</time>
			</trkpt>
			<trkpt lat="33.289612" lon="103.807274">
				<ele>2577.000000</ele>
				<time>2024-04-10T04:24:23Z</time>
			</trkpt>
			<trkpt lat="33.289555" lon="103.807190">
				<ele>2584.000000</ele>
				<time>2024-04-10T04:24:23Z</time>
			</trkpt>
			<trkpt lat="33.289490" lon="103.807106">
				<ele>2584.000000</ele>
				<time>2024-04-10T04:24:23Z</time>
			</trkpt>
			<trkpt lat="33.289429" lon="103.807014">
				<ele>2588.000000</ele>
				<time>2024-04-10T04:24:23Z</time>
			</trkpt>
			<trkpt lat="33.289410" lon="103.806892">
				<ele>2588.000000</ele>
				<time>2024-04-10T04:24:23Z</time>
			</trkpt>
			<trkpt lat="33.289417" lon="103.806747">
				<ele>2596.000000</ele>
				<time>2024-04-10T04:24:23Z</time>
			</trkpt>
			<trkpt lat="33.289368" lon="103.806656">
				<ele>2596.000000</ele>
				<time>2024-04-10T04:24:23Z</time>
			</trkpt>
			<trkpt lat="33.289272" lon="103.806686">
				<ele>2599.000000</ele>
				<time>2024-04-10T04:24:23Z</time>
			</trkpt>
			<trkpt lat="33.289230" lon="103.806793">
				<ele>2599.000000</ele>
				<time>2024-04-10T04:24:23Z</time>
			</trkpt>
			<trkpt lat="33.289211" lon="103.806900">
				<ele>2595.000000</ele>
				<time>2024-04-10T04:24:23Z</time>
			</trkpt>
			<trkpt lat="33.289169" lon="103.807007">
				<ele>2595.000000</ele>
				<time>2024-04-10T04:24:23Z</time>
			</trkpt>
			<trkpt lat="33.289135" lon="103.807106">
				<ele>2593.000000</ele>
				<time>2024-04-10T04:24:23Z</time>
			</trkpt>
			<trkpt lat="33.289066" lon="103.807182">
				<ele>2593.000000</ele>
				<time>2024-04-10T04:24:23Z</time>
			</trkpt>
			<trkpt lat="33.288990" lon="103.807251">
				<ele>2594.000000</ele>
				<time>2024-04-10T04:24:23Z</time>
			</trkpt>
			<trkpt lat="33.288906" lon="103.807320">
				<ele>2594.000000</ele>
				<time>2024-04-10T04:24:23Z</time>
			</trkpt>
			<trkpt lat="33.288845" lon="103.807404">
				<ele>2589.000000</ele>
				<time>2024-04-10T04:24:23Z</time>
			</trkpt>
			<trkpt lat="33.288769" lon="103.807472">
				<ele>2589.000000</ele>
				<time>2024-04-10T04:24:23Z</time>
			</trkpt>
			<trkpt lat="33.288681" lon="103.807533">
				<ele>2588.000000</ele>
				<time>2024-04-10T04:24:23Z</time>
			</trkpt>
			<trkpt lat="33.288601" lon="103.807587">
				<ele>2588.000000</ele>
				<time>2024-04-10T04:24:23Z</time>
			</trkpt>
			<trkpt lat="33.288513" lon="103.807625">
				<ele>2588.000000</ele>
				<time>2024-04-10T04:24:23Z</time>
			</trkpt>
			<trkpt lat="33.288452" lon="103.807716">
				<ele>2596.000000</ele>
				<time>2024-04-10T04:24:23Z</time>
			</trkpt>
			<trkpt lat="33.288387" lon="103.807800">
				<ele>2596.000000</ele>
				<time>2024-04-10T04:24:23Z</time>
			</trkpt>
			<trkpt lat="33.288338" lon="103.807892">
				<ele>2596.000000</ele>
				<time>2024-04-10T04:24:23Z</time>
			</trkpt>
			<trkpt lat="33.288315" lon="103.808006">
				<ele>2594.000000</ele>
				<time>2024-04-10T04:24:23Z</time>
			</trkpt>
			<trkpt lat="33.288265" lon="103.808105">
				<ele>2594.000000</ele>
				<time>2024-04-10T04:24:23Z</time>
			</trkpt>
			<trkpt lat="33.288219" lon="103.808205">
				<ele>2597.000000</ele>
				<time>2024-04-10T04:24:23Z</time>
			</trkpt>
			<trkpt lat="33.288147" lon="103.808266">
				<ele>2603.000000</ele>
				<time>2024-04-10T04:24:23Z</time>
			</trkpt>
			<trkpt lat="33.288071" lon="103.808334">
				<ele>2603.000000</ele>
				<time>2024-04-10T04:24:23Z</time>
			</trkpt>
			<trkpt lat="33.287983" lon="103.808365">
				<ele>2603.000000</ele>
				<time>2024-04-10T04:24:23Z</time>
			</trkpt>
			<trkpt lat="33.287899" lon="103.808403">
				<ele>2609.000000</ele>
				<time>2024-04-10T04:24:23Z</time>
			</trkpt>
			<trkpt lat="33.287811" lon="103.808464">
				<ele>2609.000000</ele>
				<time>2024-04-10T04:24:23Z</time>
			</trkpt>
			<trkpt lat="33.287731" lon="103.808517">
				<ele>2603.000000</ele>
				<time>2024-04-10T04:24:23Z</time>
			</trkpt>
			<trkpt lat="33.287640" lon="103.808556">
				<ele>2603.000000</ele>
				<time>2024-04-10T04:24:23Z</time>
			</trkpt>
			<trkpt lat="33.287552" lon="103.808578">
				<ele>2612.000000</ele>
				<time>2024-04-10T04:24:23Z</time>
			</trkpt>
			<trkpt lat="33.287457" lon="103.808594">
				<ele>2612.000000</ele>
				<time>2024-04-10T04:24:23Z</time>
			</trkpt>
			<trkpt lat="33.287361" lon="103.808594">
				<ele>2612.000000</ele>
				<time>2024-04-10T04:24:23Z</time>
			</trkpt>
			<trkpt lat="33.287277" lon="103.808640">
				<ele>2621.000000</ele>
				<time>2024-04-10T04:24:23Z</time>
			</trkpt>
			<trkpt lat="33.287182" lon="103.808662">
				<ele>2621.000000</ele>
				<time>2024-04-10T04:24:23Z</time>
			</trkpt>
			<trkpt lat="33.287090" lon="103.808708">
				<ele>2621.000000</ele>
				<time>2024-04-10T04:24:23Z</time>
			</trkpt>
			<trkpt lat="33.286995" lon="103.808762">
				<ele>2607.000000</ele>
				<time>2024-04-10T04:24:23Z</time>
			</trkpt>
			<trkpt lat="33.286915" lon="103.808815">
				<ele>2607.000000</ele>
				<time>2024-04-10T04:24:23Z</time>
			</trkpt>
			<trkpt lat="33.286831" lon="103.808861">
				<ele>2607.000000</ele>
				<time>2024-04-10T04:24:23Z</time>
			</trkpt>
			<trkpt lat="33.286739" lon="103.808899">
				<ele>2613.000000</ele>
				<time>2024-04-10T04:24:23Z</time>
			</trkpt>
			<trkpt lat="33.286652" lon="103.808929">
				<ele>2613.000000</ele>
				<time>2024-04-10T04:24:23Z</time>
			</trkpt>
			<trkpt lat="33.286564" lon="103.808960">
				<ele>2613.000000</ele>
				<time>2024-04-10T04:24:23Z</time>
			</trkpt>
			<trkpt lat="33.286469" lon="103.808990">
				<ele>2623.000000</ele>
				<time>2024-04-10T04:24:23Z</time>
			</trkpt>
			<trkpt lat="33.286369" lon="103.809013">
				<ele>2623.000000</ele>
				<time>2024-04-10T04:24:23Z</time>
			</trkpt>
			<trkpt lat="33.286278" lon="103.809029">
				<ele>2614.000000</ele>
				<time>2024-04-10T04:24:23Z</time>
			</trkpt>
			<trkpt lat="33.286186" lon="103.809036">
				<ele>2626.000000</ele>
				<time>2024-04-10T04:24:23Z</time>
			</trkpt>
			<trkpt lat="33.286102" lon="103.809090">
				<ele>2626.000000</ele>
				<time>2024-04-10T04:24:23Z</time>
			</trkpt>
			<trkpt lat="33.286037" lon="103.809174">
				<ele>2626.000000</ele>
				<time>2024-04-10T04:24:23Z</time>
			</trkpt>
			<trkpt lat="33.285984" lon="103.809273">
				<ele>2626.000000</ele>
				<time>2024-04-10T04:24:23Z</time>
			</trkpt>
			<trkpt lat="33.285912" lon="103.809349">
				<ele>2622.000000</ele>
				<time>2024-04-10T04:24:23Z</time>
			</trkpt>
			<trkpt lat="33.285831" lon="103.809402">
				<ele>2622.000000</ele>
				<time>2024-04-10T04:24:23Z</time>
			</trkpt>
			<trkpt lat="33.285736" lon="103.809410">
				<ele>2622.000000</ele>
				<time>2024-04-10T04:24:23Z</time>
			</trkpt>
			<trkpt lat="33.285645" lon="103.809441">
				<ele>2621.000000</ele>
				<time>2024-04-10T04:24:23Z</time>
			</trkpt>
			<trkpt lat="33.285553" lon="103.809456">
				<ele>2621.000000</ele>
				<time>2024-04-10T04:24:23Z</time>
			</trkpt>
			<trkpt lat="33.285465" lon="103.809479">
				<ele>2621.000000</ele>
				<time>2024-04-10T04:24:23Z</time>
			</trkpt>
			<trkpt lat="33.285408" lon="103.809570">
				<ele>2620.000000</ele>
				<time>2024-04-10T04:24:23Z</time>
			</trkpt>
			<trkpt lat="33.285343" lon="103.809654">
				<ele>2615.000000</ele>
				<time>2024-04-10T04:24:23Z</time>
			</trkpt>
			<trkpt lat="33.285290" lon="103.809738">
				<ele>2615.000000</ele>
				<time>2024-04-10T04:24:23Z</time>
			</trkpt>
			<trkpt lat="33.285206" lon="103.809845">
				<ele>2615.000000</ele>
				<time>2024-04-10T04:24:23Z</time>
			</trkpt>
			<trkpt lat="33.285206" lon="103.809845">
				<ele>2615.000000</ele>
				<time>2024-04-10T04:24:23Z</time>
			</trkpt>
			<trkpt lat="33.285130" lon="103.809929">
				<ele>2612.000000</ele>
				<time>2024-04-10T04:24:23Z</time>
			</trkpt>
			<trkpt lat="33.285061" lon="103.810005">
				<ele>2612.000000</ele>
				<time>2024-04-10T04:24:23Z</time>
			</trkpt>
			<trkpt lat="33.284988" lon="103.810074">
				<ele>2612.000000</ele>
				<time>2024-04-10T04:24:23Z</time>
			</trkpt>
			<trkpt lat="33.284897" lon="103.810097">
				<ele>2612.000000</ele>
				<time>2024-04-10T04:24:23Z</time>
			</trkpt>
			<trkpt lat="33.284801" lon="103.810173">
				<ele>2599.000000</ele>
				<time>2024-04-10T04:24:23Z</time>
			</trkpt>
			<trkpt lat="33.284801" lon="103.810173">
				<ele>2599.000000</ele>
				<time>2024-04-10T04:24:23Z</time>
			</trkpt>
			<trkpt lat="33.284698" lon="103.810226">
				<ele>2599.000000</ele>
				<time>2024-04-10T04:24:23Z</time>
			</trkpt>
			<trkpt lat="33.284595" lon="103.810287">
				<ele>2599.000000</ele>
				<time>2024-04-10T04:24:23Z</time>
			</trkpt>
			<trkpt lat="33.284481" lon="103.810310">
				<ele>2587.000000</ele>
				<time>2024-04-10T04:24:23Z</time>
			</trkpt>
			<trkpt lat="33.284389" lon="103.810333">
				<ele>2587.000000</ele>
				<time>2024-04-10T04:24:23Z</time>
			</trkpt>
			<trkpt lat="33.284309" lon="103.810394">
				<ele>2587.000000</ele>
				<time>2024-04-10T04:24:23Z</time>
			</trkpt>
			<trkpt lat="33.284241" lon="103.810471">
				<ele>2576.000000</ele>
				<time>2024-04-10T04:24:23Z</time>
			</trkpt>
			<trkpt lat="33.284153" lon="103.810562">
				<ele>2576.000000</ele>
				<time>2024-04-10T04:24:23Z</time>
			</trkpt>
			<trkpt lat="33.284069" lon="103.810661">
				<ele>2576.000000</ele>
				<time>2024-04-10T04:24:23Z</time>
			</trkpt>
			<trkpt lat="33.283997" lon="103.810730">
				<ele>2574.000000</ele>
				<time>2024-04-10T04:24:23Z</time>
			</trkpt>
			<trkpt lat="33.283913" lon="103.810791">
				<ele>2574.000000</ele>
				<time>2024-04-10T04:24:23Z</time>
			</trkpt>
			<trkpt lat="33.283821" lon="103.810837">
				<ele>2574.000000</ele>
				<time>2024-04-10T04:24:23Z</time>
			</trkpt>
			<trkpt lat="33.283733" lon="103.810875">
				<ele>2570.000000</ele>
				<time>2024-04-10T04:24:23Z</time>
			</trkpt>
			<trkpt lat="33.283638" lon="103.810913">
				<ele>2570.000000</ele>
				<time>2024-04-10T04:24:23Z</time>
			</trkpt>
			<trkpt lat="33.283543" lon="103.810928">
				<ele>2570.000000</ele>
				<time>2024-04-10T04:24:23Z</time>
			</trkpt>
			<trkpt lat="33.283447" lon="103.810944">
				<ele>2571.000000</ele>
				<time>2024-04-10T04:24:23Z</time>
			</trkpt>
			<trkpt lat="33.283337" lon="103.810936">
				<ele>2571.000000</ele>
				<time>2024-04-10T04:24:23Z</time>
			</trkpt>
			<trkpt lat="33.283241" lon="103.810944">
				<ele>2571.000000</ele>
				<time>2024-04-10T04:24:23Z</time>
			</trkpt>
			<trkpt lat="33.283169" lon="103.810875">
				<ele>2559.000000</ele>
				<time>2024-04-10T04:24:23Z</time>
			</trkpt>
			<trkpt lat="33.283089" lon="103.810799">
				<ele>2559.000000</ele>
				<time>2024-04-10T04:24:23Z</time>
			</trkpt>
			<trkpt lat="33.283009" lon="103.810745">
				<ele>2559.000000</ele>
				<time>2024-04-10T04:24:23Z</time>
			</trkpt>
			<trkpt lat="33.282906" lon="103.810684">
				<ele>2557.000000</ele>
				<time>2024-04-10T04:24:23Z</time>
			</trkpt>
			<trkpt lat="33.282860" lon="103.810577">
				<ele>2557.000000</ele>
				<time>2024-04-10T04:24:23Z</time>
			</trkpt>
			<trkpt lat="33.282772" lon="103.810623">
				<ele>2557.000000</ele>
				<time>2024-04-10T04:24:23Z</time>
			</trkpt>
			<trkpt lat="33.282681" lon="103.810638">
				<ele>2557.000000</ele>
				<time>2024-04-10T04:24:23Z</time>
			</trkpt>
			<trkpt lat="33.282585" lon="103.810616">
				<ele>2553.000000</ele>
				<time>2024-04-10T04:24:23Z</time>
			</trkpt>
			<trkpt lat="33.282497" lon="103.810616">
				<ele>2553.000000</ele>
				<time>2024-04-10T04:24:23Z</time>
			</trkpt>
			<trkpt lat="33.282394" lon="103.810616">
				<ele>2553.000000</ele>
				<time>2024-04-10T04:24:23Z</time>
			</trkpt>
			<trkpt lat="33.282307" lon="103.810654">
				<ele>2546.000000</ele>
				<time>2024-04-10T04:24:23Z</time>
			</trkpt>
			<trkpt lat="33.282223" lon="103.810715">
				<ele>2541.000000</ele>
				<time>2024-04-10T04:24:23Z</time>
			</trkpt>
			<trkpt lat="33.282143" lon="103.810654">
				<ele>2546.000000</ele>
				<time>2024-04-10T04:24:23Z</time>
			</trkpt>
			<trkpt lat="33.282047" lon="103.810631">
				<ele>2542.000000</ele>
				<time>2024-04-10T04:24:23Z</time>
			</trkpt>
			<trkpt lat="33.281956" lon="103.810570">
				<ele>2542.000000</ele>
				<time>2024-04-10T04:24:23Z</time>
			</trkpt>
			<trkpt lat="33.281849" lon="103.810623">
				<ele>2542.000000</ele>
				<time>2024-04-10T04:24:23Z</time>
			</trkpt>
			<trkpt lat="33.281773" lon="103.810692">
				<ele>2544.000000</ele>
				<time>2024-04-10T04:24:23Z</time>
			</trkpt>
			<trkpt lat="33.281727" lon="103.810791">
				<ele>2536.000000</ele>
				<time>2024-04-10T04:24:23Z</time>
			</trkpt>
			<trkpt lat="33.281712" lon="103.810898">
				<ele>2536.000000</ele>
				<time>2024-04-10T04:24:23Z</time>
			</trkpt>
			<trkpt lat="33.281612" lon="103.810936">
				<ele>2536.000000</ele>
				<time>2024-04-10T04:24:23Z</time>
			</trkpt>
			<trkpt lat="33.281513" lon="103.810913">
				<ele>2530.000000</ele>
				<time>2024-04-10T04:24:23Z</time>
			</trkpt>
			<trkpt lat="33.281433" lon="103.810852">
				<ele>2530.000000</ele>
				<time>2024-04-10T04:24:23Z</time>
			</trkpt>
			<trkpt lat="33.281357" lon="103.810791">
				<ele>2530.000000</ele>
				<time>2024-04-10T04:24:23Z</time>
			</trkpt>
			<trkpt lat="33.281273" lon="103.810745">
				<ele>2530.000000</ele>
				<time>2024-04-10T04:24:23Z</time>
			</trkpt>
			<trkpt lat="33.281178" lon="103.810745">
				<ele>2526.000000</ele>
				<time>2024-04-10T04:24:23Z</time>
			</trkpt>
			<trkpt lat="33.281090" lon="103.810783">
				<ele>2526.000000</ele>
				<time>2024-04-10T04:24:23Z</time>
			</trkpt>
			<trkpt lat="33.280998" lon="103.810783">
				<ele>2526.000000</ele>
				<time>2024-04-10T04:24:23Z</time>
			</trkpt>
			<trkpt lat="33.280910" lon="103.810822">
				<ele>2527.000000</ele>
				<time>2024-04-10T04:24:23Z</time>
			</trkpt>
			<trkpt lat="33.280819" lon="103.810844">
				<ele>2527.000000</ele>
				<time>2024-04-10T04:24:23Z</time>
			</trkpt>
			<trkpt lat="33.280727" lon="103.810844">
				<ele>2527.000000</ele>
				<time>2024-04-10T04:24:23Z</time>
			</trkpt>
			<trkpt lat="33.280636" lon="103.810883">
				<ele>2526.000000</ele>
				<time>2024-04-10T04:24:23Z</time>
			</trkpt>
			<trkpt lat="33.280533" lon="103.810875">
				<ele>2526.000000</ele>
				<time>2024-04-10T04:24:23Z</time>
			</trkpt>
			<trkpt lat="33.280434" lon="103.810860">
				<ele>2526.000000</ele>
				<time>2024-04-10T04:24:23Z</time>
			</trkpt>
			<trkpt lat="33.280346" lon="103.810822">
				<ele>2524.000000</ele>
				<time>2024-04-10T04:24:23Z</time>
			</trkpt>
			<trkpt lat="33.280258" lon="103.810753">
				<ele>2524.000000</ele>
				<time>2024-04-10T04:24:23Z</time>
			</trkpt>
			<trkpt lat="33.280174" lon="103.810715">
				<ele>2524.000000</ele>
				<time>2024-04-10T04:24:23Z</time>
			</trkpt>
			<trkpt lat="33.280090" lon="103.810669">
				<ele>2542.000000</ele>
				<time>2024-04-10T04:24:23Z</time>
			</trkpt>
			<trkpt lat="33.279995" lon="103.810684">
				<ele>2542.000000</ele>
				<time>2024-04-10T04:24:23Z</time>
			</trkpt>
			<trkpt lat="33.279892" lon="103.810661">
				<ele>2542.000000</ele>
				<time>2024-04-10T04:24:23Z</time>
			</trkpt>
			<trkpt lat="33.279785" lon="103.810661">
				<ele>2544.000000</ele>
				<time>2024-04-10T04:24:23Z</time>
			</trkpt>
			<trkpt lat="33.279682" lon="103.810684">
				<ele>2544.000000</ele>
				<time>2024-04-10T04:24:23Z</time>
			</trkpt>
			<trkpt lat="33.279598" lon="103.810738">
				<ele>2532.000000</ele>
				<time>2024-04-10T04:24:23Z</time>
			</trkpt>
			<trkpt lat="33.279510" lon="103.810783">
				<ele>2538.000000</ele>
				<time>2024-04-10T04:24:23Z</time>
			</trkpt>
			<trkpt lat="33.279411" lon="103.810822">
				<ele>2538.000000</ele>
				<time>2024-04-10T04:24:23Z</time>
			</trkpt>
			<trkpt lat="33.279324" lon="103.810860">
				<ele>2538.000000</ele>
				<time>2024-04-10T04:24:23Z</time>
			</trkpt>
			<trkpt lat="33.279221" lon="103.810860">
				<ele>2540.000000</ele>
				<time>2024-04-10T04:24:23Z</time>
			</trkpt>
			<trkpt lat="33.279129" lon="103.810905">
				<ele>2540.000000</ele>
				<time>2024-04-10T04:24:23Z</time>
			</trkpt>
			<trkpt lat="33.279045" lon="103.810944">
				<ele>2540.000000</ele>
				<time>2024-04-10T04:24:23Z</time>
			</trkpt>
			<trkpt lat="33.278961" lon="103.810997">
				<ele>2538.000000</ele>
				<time>2024-04-10T04:24:23Z</time>
			</trkpt>
			<trkpt lat="33.278866" lon="103.811043">
				<ele>2538.000000</ele>
				<time>2024-04-10T04:24:23Z</time>
			</trkpt>
			<trkpt lat="33.278774" lon="103.811050">
				<ele>2538.000000</ele>
				<time>2024-04-10T04:24:23Z</time>
			</trkpt>
			<trkpt lat="33.278694" lon="103.811111">
				<ele>2546.000000</ele>
				<time>2024-04-10T04:24:23Z</time>
			</trkpt>
			<trkpt lat="33.278618" lon="103.811180">
				<ele>2546.000000</ele>
				<time>2024-04-10T04:24:23Z</time>
			</trkpt>
			<trkpt lat="33.278530" lon="103.811249">
				<ele>2546.000000</ele>
				<time>2024-04-10T04:24:23Z</time>
			</trkpt>
			<trkpt lat="33.278450" lon="103.811302">
				<ele>2544.000000</ele>
				<time>2024-04-10T04:24:23Z</time>
			</trkpt>
			<trkpt lat="33.278389" lon="103.811401">
				<ele>2544.000000</ele>
				<time>2024-04-10T04:24:23Z</time>
			</trkpt>
			<trkpt lat="33.278328" lon="103.811485">
				<ele>2544.000000</ele>
				<time>2024-04-10T04:24:23Z</time>
			</trkpt>
			<trkpt lat="33.278278" lon="103.811584">
				<ele>2538.000000</ele>
				<time>2024-04-10T04:24:23Z</time>
			</trkpt>
			<trkpt lat="33.278240" lon="103.811691">
				<ele>2538.000000</ele>
				<time>2024-04-10T04:24:23Z</time>
			</trkpt>
			<trkpt lat="33.278168" lon="103.811768">
				<ele>2544.000000</ele>
				<time>2024-04-10T04:24:23Z</time>
			</trkpt>
			<trkpt lat="33.278069" lon="103.811813">
				<ele>2537.000000</ele>
				<time>2024-04-10T04:24:23Z</time>
			</trkpt>
			<trkpt lat="33.277981" lon="103.811859">
				<ele>2537.000000</ele>
				<time>2024-04-10T04:24:23Z</time>
			</trkpt>
			<trkpt lat="33.277897" lon="103.811913">
				<ele>2529.000000</ele>
				<time>2024-04-10T04:24:23Z</time>
			</trkpt>
			<trkpt lat="33.277802" lon="103.811935">
				<ele>2529.000000</ele>
				<time>2024-04-10T04:24:23Z</time>
			</trkpt>
			<trkpt lat="33.277714" lon="103.811935">
				<ele>2529.000000</ele>
				<time>2024-04-10T04:24:23Z</time>
			</trkpt>
			<trkpt lat="33.277618" lon="103.811905">
				<ele>2527.000000</ele>
				<time>2024-04-10T04:24:23Z</time>
			</trkpt>
			<trkpt lat="33.277527" lon="103.811859">
				<ele>2527.000000</ele>
				<time>2024-04-10T04:24:23Z</time>
			</trkpt>
			<trkpt lat="33.277428" lon="103.811836">
				<ele>2527.000000</ele>
				<time>2024-04-10T04:24:23Z</time>
			</trkpt>
			<trkpt lat="33.277332" lon="103.811852">
				<ele>2527.000000</ele>
				<time>2024-04-10T04:24:23Z</time>
			</trkpt>
			<trkpt lat="33.277241" lon="103.811813">
				<ele>2527.000000</ele>
				<time>2024-04-10T04:24:23Z</time>
			</trkpt>
			<trkpt lat="33.277161" lon="103.811752">
				<ele>2542.000000</ele>
				<time>2024-04-10T04:24:23Z</time>
			</trkpt>
			<trkpt lat="33.277073" lon="103.811699">
				<ele>2534.000000</ele>
				<time>2024-04-10T04:24:23Z</time>
			</trkpt>
			<trkpt lat="33.276974" lon="103.811691">
				<ele>2534.000000</ele>
				<time>2024-04-10T04:24:23Z</time>
			</trkpt>
			<trkpt lat="33.276878" lon="103.811714">
				<ele>2534.000000</ele>
				<time>2024-04-10T04:24:23Z</time>
			</trkpt>
			<trkpt lat="33.276783" lon="103.811752">
				<ele>2537.000000</ele>
				<time>2024-04-10T04:24:23Z</time>
			</trkpt>
			<trkpt lat="33.276688" lon="103.811790">
				<ele>2537.000000</ele>
				<time>2024-04-10T04:24:23Z</time>
			</trkpt>
			<trkpt lat="33.276600" lon="103.811829">
				<ele>2529.000000</ele>
				<time>2024-04-10T04:24:23Z</time>
			</trkpt>
			<trkpt lat="33.276508" lon="103.811859">
				<ele>2532.000000</ele>
				<time>2024-04-10T04:24:23Z</time>
			</trkpt>
			<trkpt lat="33.276417" lon="103.811867">
				<ele>2532.000000</ele>
				<time>2024-04-10T04:24:23Z</time>
			</trkpt>
			<trkpt lat="33.276325" lon="103.811905">
				<ele>2532.000000</ele>
				<time>2024-04-10T04:24:23Z</time>
			</trkpt>
			<trkpt lat="33.276226" lon="103.811935">
				<ele>2531.000000</ele>
				<time>2024-04-10T04:24:23Z</time>
			</trkpt>
			<trkpt lat="33.276138" lon="103.811989">
				<ele>2531.000000</ele>
				<time>2024-04-10T04:24:23Z</time>
			</trkpt>
			<trkpt lat="33.276058" lon="103.812065">
				<ele>2531.000000</ele>
				<time>2024-04-10T04:24:23Z</time>
			</trkpt>
			<trkpt lat="33.275974" lon="103.812134">
				<ele>2532.000000</ele>
				<time>2024-04-10T04:24:23Z</time>
			</trkpt>
			<trkpt lat="33.275890" lon="103.812187">
				<ele>2529.000000</ele>
				<time>2024-04-10T04:24:23Z</time>
			</trkpt>
			<trkpt lat="33.275803" lon="103.812210">
				<ele>2529.000000</ele>
				<time>2024-04-10T04:24:23Z</time>
			</trkpt>
			<trkpt lat="33.275715" lon="103.812248">
				<ele>2529.000000</ele>
				<time>2024-04-10T04:24:23Z</time>
			</trkpt>
			<trkpt lat="33.275600" lon="103.812279">
				<ele>2526.000000</ele>
				<time>2024-04-10T04:24:23Z</time>
			</trkpt>
			<trkpt lat="33.275475" lon="103.812302">
				<ele>2526.000000</ele>
				<time>2024-04-10T04:24:23Z</time>
			</trkpt>
			<trkpt lat="33.275379" lon="103.812347">
				<ele>2522.000000</ele>
				<time>2024-04-10T04:24:23Z</time>
			</trkpt>
			<trkpt lat="33.275276" lon="103.812393">
				<ele>2517.000000</ele>
				<time>2024-04-10T04:24:23Z</time>
			</trkpt>
			<trkpt lat="33.275181" lon="103.812447">
				<ele>2517.000000</ele>
				<time>2024-04-10T04:24:23Z</time>
			</trkpt>
			<trkpt lat="33.275070" lon="103.812485">
				<ele>2520.000000</ele>
				<time>2024-04-10T04:24:23Z</time>
			</trkpt>
			<trkpt lat="33.274975" lon="103.812576">
				<ele>2520.000000</ele>
				<time>2024-04-10T04:24:23Z</time>
			</trkpt>
			<trkpt lat="33.274899" lon="103.812660">
				<ele>2515.000000</ele>
				<time>2024-04-10T04:24:23Z</time>
			</trkpt>
			<trkpt lat="33.274811" lon="103.812706">
				<ele>2522.000000</ele>
				<time>2024-04-10T04:24:23Z</time>
			</trkpt>
			<trkpt lat="33.274738" lon="103.812782">
				<ele>2522.000000</ele>
				<time>2024-04-10T04:24:23Z</time>
			</trkpt>
			<trkpt lat="33.274658" lon="103.812843">
				<ele>2522.000000</ele>
				<time>2024-04-10T04:24:23Z</time>
			</trkpt>
			<trkpt lat="33.274574" lon="103.812889">
				<ele>2528.000000</ele>
				<time>2024-04-10T04:24:23Z</time>
			</trkpt>
			<trkpt lat="33.274487" lon="103.812927">
				<ele>2517.000000</ele>
				<time>2024-04-10T04:24:23Z</time>
			</trkpt>
			<trkpt lat="33.274426" lon="103.813026">
				<ele>2517.000000</ele>
				<time>2024-04-10T04:24:23Z</time>
			</trkpt>
			<trkpt lat="33.274384" lon="103.813133">
				<ele>2517.000000</ele>
				<time>2024-04-10T04:24:23Z</time>
			</trkpt>
			<trkpt lat="33.274323" lon="103.813232">
				<ele>2507.000000</ele>
				<time>2024-04-10T04:24:23Z</time>
			</trkpt>
			<trkpt lat="33.274261" lon="103.813316">
				<ele>2512.000000</ele>
				<time>2024-04-10T04:24:23Z</time>
			</trkpt>
			<trkpt lat="33.274185" lon="103.813385">
				<ele>2512.000000</ele>
				<time>2024-04-10T04:24:23Z</time>
			</trkpt>
			<trkpt lat="33.274155" lon="103.813492">
				<ele>2506.000000</ele>
				<time>2024-04-10T04:24:23Z</time>
			</trkpt>
			<trkpt lat="33.274109" lon="103.813599">
				<ele>2506.000000</ele>
				<time>2024-04-10T04:24:23Z</time>
			</trkpt>
			<trkpt lat="33.274059" lon="103.813690">
				<ele>2506.000000</ele>
				<time>2024-04-10T04:24:23Z</time>
			</trkpt>
			<trkpt lat="33.273998" lon="103.813789">
				<ele>2503.000000</ele>
				<time>2024-04-10T04:24:23Z</time>
			</trkpt>
			<trkpt lat="33.273952" lon="103.813896">
				<ele>2503.000000</ele>
				<time>2024-04-10T04:24:23Z</time>
			</trkpt>
			<trkpt lat="33.273876" lon="103.813957">
				<ele>2503.000000</ele>
				<time>2024-04-10T04:24:23Z</time>
			</trkpt>
			<trkpt lat="33.273785" lon="103.813995">
				<ele>2503.000000</ele>
				<time>2024-04-10T04:24:23Z</time>
			</trkpt>
			<trkpt lat="33.273697" lon="103.814018">
				<ele>2510.000000</ele>
				<time>2024-04-10T04:24:23Z</time>
			</trkpt>
			<trkpt lat="33.273605" lon="103.814041">
				<ele>2499.000000</ele>
				<time>2024-04-10T04:24:23Z</time>
			</trkpt>
			<trkpt lat="33.273518" lon="103.814056">
				<ele>2499.000000</ele>
				<time>2024-04-10T04:24:23Z</time>
			</trkpt>
			<trkpt lat="33.273426" lon="103.814102">
				<ele>2505.000000</ele>
				<time>2024-04-10T04:24:23Z</time>
			</trkpt>
			<trkpt lat="33.273342" lon="103.814163">
				<ele>2505.000000</ele>
				<time>2024-04-10T04:24:23Z</time>
			</trkpt>
			<trkpt lat="33.273266" lon="103.814232">
				<ele>2505.000000</ele>
				<time>2024-04-10T04:24:23Z</time>
			</trkpt>
			<trkpt lat="33.273178" lon="103.814278">
				<ele>2514.000000</ele>
				<time>2024-04-10T04:24:23Z</time>
			</trkpt>
			<trkpt lat="33.273094" lon="103.814331">
				<ele>2499.000000</ele>
				<time>2024-04-10T04:24:23Z</time>
			</trkpt>
			<trkpt lat="33.272999" lon="103.814346">
				<ele>2499.000000</ele>
				<time>2024-04-10T04:24:23Z</time>
			</trkpt>
			<trkpt lat="33.272896" lon="103.814354">
				<ele>2511.000000</ele>
				<time>2024-04-10T04:24:23Z</time>
			</trkpt>
			<trkpt lat="33.272804" lon="103.814369">
				<ele>2511.000000</ele>
				<time>2024-04-10T04:24:23Z</time>
			</trkpt>
			<trkpt lat="33.272713" lon="103.814400">
				<ele>2511.000000</ele>
				<time>2024-04-10T04:24:23Z</time>
			</trkpt>
			<trkpt lat="33.272614" lon="103.814415">
				<ele>2515.000000</ele>
				<time>2024-04-10T04:24:23Z</time>
			</trkpt>
			<trkpt lat="33.272522" lon="103.814445">
				<ele>2515.000000</ele>
				<time>2024-04-10T04:24:23Z</time>
			</trkpt>
			<trkpt lat="33.272427" lon="103.814491">
				<ele>2515.000000</ele>
				<time>2024-04-10T04:24:23Z</time>
			</trkpt>
			<trkpt lat="33.272339" lon="103.814529">
				<ele>2515.000000</ele>
				<time>2024-04-10T04:24:23Z</time>
			</trkpt>
			<trkpt lat="33.272259" lon="103.814598">
				<ele>2515.000000</ele>
				<time>2024-04-10T04:24:23Z</time>
			</trkpt>
			<trkpt lat="33.272182" lon="103.814674">
				<ele>2515.000000</ele>
				<time>2024-04-10T04:24:23Z</time>
			</trkpt>
			<trkpt lat="33.272099" lon="103.814713">
				<ele>2515.000000</ele>
				<time>2024-04-10T04:24:23Z</time>
			</trkpt>
			<trkpt lat="33.271999" lon="103.814735">
				<ele>2516.000000</ele>
				<time>2024-04-10T04:24:23Z</time>
			</trkpt>
			<trkpt lat="33.271904" lon="103.814758">
				<ele>2516.000000</ele>
				<time>2024-04-10T04:24:23Z</time>
			</trkpt>
			<trkpt lat="33.271812" lon="103.814781">
				<ele>2516.000000</ele>
				<time>2024-04-10T04:24:23Z</time>
			</trkpt>
			<trkpt lat="33.271740" lon="103.814850">
				<ele>2513.000000</ele>
				<time>2024-04-10T04:24:23Z</time>
			</trkpt>
			<trkpt lat="33.271698" lon="103.814934">
				<ele>2513.000000</ele>
				<time>2024-04-10T04:24:23Z</time>
			</trkpt>
			<trkpt lat="33.271599" lon="103.815002">
				<ele>2513.000000</ele>
				<time>2024-04-10T04:24:23Z</time>
			</trkpt>
			<trkpt lat="33.271503" lon="103.815025">
				<ele>2520.000000</ele>
				<time>2024-04-10T04:24:23Z</time>
			</trkpt>
			<trkpt lat="33.271408" lon="103.815071">
				<ele>2520.000000</ele>
				<time>2024-04-10T04:24:23Z</time>
			</trkpt>
			<trkpt lat="33.271320" lon="103.815109">
				<ele>2520.000000</ele>
				<time>2024-04-10T04:24:23Z</time>
			</trkpt>
			<trkpt lat="33.271240" lon="103.815163">
				<ele>2522.000000</ele>
				<time>2024-04-10T04:24:23Z</time>
			</trkpt>
			<trkpt lat="33.271145" lon="103.815155">
				<ele>2522.000000</ele>
				<time>2024-04-10T04:24:23Z</time>
			</trkpt>
			<trkpt lat="33.271057" lon="103.815117">
				<ele>2525.000000</ele>
				<time>2024-04-10T04:24:23Z</time>
			</trkpt>
			<trkpt lat="33.270977" lon="103.815063">
				<ele>2525.000000</ele>
				<time>2024-04-10T04:24:23Z</time>
			</trkpt>
			<trkpt lat="33.270882" lon="103.815025">
				<ele>2529.000000</ele>
				<time>2024-04-10T04:24:23Z</time>
			</trkpt>
			<trkpt lat="33.270790" lon="103.815002">
				<ele>2529.000000</ele>
				<time>2024-04-10T04:24:23Z</time>
			</trkpt>
			<trkpt lat="33.270695" lon="103.814987">
				<ele>2529.000000</ele>
				<time>2024-04-10T04:24:23Z</time>
			</trkpt>
			<trkpt lat="33.270596" lon="103.814972">
				<ele>2526.000000</ele>
				<time>2024-04-10T04:24:23Z</time>
			</trkpt>
			<trkpt lat="33.270493" lon="103.814980">
				<ele>2526.000000</ele>
				<time>2024-04-10T04:24:23Z</time>
			</trkpt>
			<trkpt lat="33.270393" lon="103.814987">
				<ele>2525.000000</ele>
				<time>2024-04-10T04:24:23Z</time>
			</trkpt>
			<trkpt lat="33.270302" lon="103.814995">
				<ele>2525.000000</ele>
				<time>2024-04-10T04:24:23Z</time>
			</trkpt>
			<trkpt lat="33.270203" lon="103.814995">
				<ele>2525.000000</ele>
				<time>2024-04-10T04:24:23Z</time>
			</trkpt>
			<trkpt lat="33.270107" lon="103.814972">
				<ele>2528.000000</ele>
				<time>2024-04-10T04:24:23Z</time>
			</trkpt>
			<trkpt lat="33.270016" lon="103.814941">
				<ele>2528.000000</ele>
				<time>2024-04-10T04:24:23Z</time>
			</trkpt>
			<trkpt lat="33.269928" lon="103.814919">
				<ele>2528.000000</ele>
				<time>2024-04-10T04:24:23Z</time>
			</trkpt>
			<trkpt lat="33.269833" lon="103.814957">
				<ele>2528.000000</ele>
				<time>2024-04-10T04:24:23Z</time>
			</trkpt>
			<trkpt lat="33.269833" lon="103.814957">
				<ele>2528.000000</ele>
				<time>2024-04-10T04:24:23Z</time>
			</trkpt>
			<trkpt lat="33.269791" lon="103.814804">
				<ele>2539.000000</ele>
				<time>2024-04-10T04:24:23Z</time>
			</trkpt>
			<trkpt lat="33.269760" lon="103.814667">
				<ele>2539.000000</ele>
				<time>2024-04-10T04:24:23Z</time>
			</trkpt>
			<trkpt lat="33.269684" lon="103.814606">
				<ele>2539.000000</ele>
				<time>2024-04-10T04:24:23Z</time>
			</trkpt>
			<trkpt lat="33.269588" lon="103.814590">
				<ele>2539.000000</ele>
				<time>2024-04-10T04:24:23Z</time>
			</trkpt>
			<trkpt lat="33.269501" lon="103.814529">
				<ele>2548.000000</ele>
				<time>2024-04-10T04:24:23Z</time>
			</trkpt>
			<trkpt lat="33.269421" lon="103.814522">
				<ele>2548.000000</ele>
				<time>2024-04-10T04:24:23Z</time>
			</trkpt>
			<trkpt lat="33.269329" lon="103.814476">
				<ele>2548.000000</ele>
				<time>2024-04-10T04:24:23Z</time>
			</trkpt>
			<trkpt lat="33.269238" lon="103.814484">
				<ele>2547.000000</ele>
				<time>2024-04-10T04:24:23Z</time>
			</trkpt>
			<trkpt lat="33.269146" lon="103.814491">
				<ele>2547.000000</ele>
				<time>2024-04-10T04:24:23Z</time>
			</trkpt>
			<trkpt lat="33.269054" lon="103.814468">
				<ele>2547.000000</ele>
				<time>2024-04-10T04:24:23Z</time>
			</trkpt>
			<trkpt lat="33.268963" lon="103.814461">
				<ele>2548.000000</ele>
				<time>2024-04-10T04:24:23Z</time>
			</trkpt>
			<trkpt lat="33.268879" lon="103.814507">
				<ele>2548.000000</ele>
				<time>2024-04-10T04:24:23Z</time>
			</trkpt>
			<trkpt lat="33.268787" lon="103.814537">
				<ele>2548.000000</ele>
				<time>2024-04-10T04:24:23Z</time>
			</trkpt>
			<trkpt lat="33.268696" lon="103.814552">
				<ele>2546.000000</ele>
				<time>2024-04-10T04:24:23Z</time>
			</trkpt>
			<trkpt lat="33.268600" lon="103.814552">
				<ele>2546.000000</ele>
				<time>2024-04-10T04:24:23Z</time>
			</trkpt>
			<trkpt lat="33.268497" lon="103.814583">
				<ele>2546.000000</ele>
				<time>2024-04-10T04:24:23Z</time>
			</trkpt>
			<trkpt lat="33.268406" lon="103.814606">
				<ele>2549.000000</ele>
				<time>2024-04-10T04:24:23Z</time>
			</trkpt>
			<trkpt lat="33.268303" lon="103.814613">
				<ele>2549.000000</ele>
				<time>2024-04-10T04:24:23Z</time>
			</trkpt>
			<trkpt lat="33.268219" lon="103.814568">
				<ele>2551.000000</ele>
				<time>2024-04-10T04:24:23Z</time>
			</trkpt>
			<trkpt lat="33.268127" lon="103.814598">
				<ele>2559.000000</ele>
				<time>2024-04-10T04:24:23Z</time>
			</trkpt>
			<trkpt lat="33.268040" lon="103.814545">
				<ele>2558.000000</ele>
				<time>2024-04-10T04:24:23Z</time>
			</trkpt>
			<trkpt lat="33.267948" lon="103.814568">
				<ele>2558.000000</ele>
				<time>2024-04-10T04:24:23Z</time>
			</trkpt>
			<trkpt lat="33.267860" lon="103.814598">
				<ele>2561.000000</ele>
				<time>2024-04-10T04:24:23Z</time>
			</trkpt>
			<trkpt lat="33.267773" lon="103.814621">
				<ele>2561.000000</ele>
				<time>2024-04-10T04:24:23Z</time>
			</trkpt>
			<trkpt lat="33.267708" lon="103.814545">
				<ele>2564.000000</ele>
				<time>2024-04-10T04:24:23Z</time>
			</trkpt>
			<trkpt lat="33.267632" lon="103.814484">
				<ele>2567.000000</ele>
				<time>2024-04-10T04:24:23Z</time>
			</trkpt>
			<trkpt lat="33.267590" lon="103.814384">
				<ele>2567.000000</ele>
				<time>2024-04-10T04:24:23Z</time>
			</trkpt>
			<trkpt lat="33.267525" lon="103.814308">
				<ele>2567.000000</ele>
				<time>2024-04-10T04:24:23Z</time>
			</trkpt>
			<trkpt lat="33.267475" lon="103.814201">
				<ele>2567.000000</ele>
				<time>2024-04-10T04:24:23Z</time>
			</trkpt>
			<trkpt lat="33.267441" lon="103.814095">
				<ele>2567.000000</ele>
				<time>2024-04-10T04:24:23Z</time>
			</trkpt>
			<trkpt lat="33.267365" lon="103.814034">
				<ele>2567.000000</ele>
				<time>2024-04-10T04:24:23Z</time>
			</trkpt>
			<trkpt lat="33.267284" lon="103.813995">
				<ele>2587.000000</ele>
				<time>2024-04-10T04:24:23Z</time>
			</trkpt>
			<trkpt lat="33.267181" lon="103.814034">
				<ele>2575.000000</ele>
				<time>2024-04-10T04:24:23Z</time>
			</trkpt>
			<trkpt lat="33.267101" lon="103.814079">
				<ele>2575.000000</ele>
				<time>2024-04-10T04:24:23Z</time>
			</trkpt>
			<trkpt lat="33.267017" lon="103.814148">
				<ele>2592.000000</ele>
				<time>2024-04-10T04:24:23Z</time>
			</trkpt>
			<trkpt lat="33.266930" lon="103.814186">
				<ele>2592.000000</ele>
				<time>2024-04-10T04:24:23Z</time>
			</trkpt>
			<trkpt lat="33.266846" lon="103.814224">
				<ele>2592.000000</ele>
				<time>2024-04-10T04:24:23Z</time>
			</trkpt>
			<trkpt lat="33.266766" lon="103.814285">
				<ele>2586.000000</ele>
				<time>2024-04-10T04:24:23Z</time>
			</trkpt>
			<trkpt lat="33.266663" lon="103.814316">
				<ele>2583.000000</ele>
				<time>2024-04-10T04:24:23Z</time>
			</trkpt>
			<trkpt lat="33.266579" lon="103.814362">
				<ele>2583.000000</ele>
				<time>2024-04-10T04:24:23Z</time>
			</trkpt>
			<trkpt lat="33.266487" lon="103.814377">
				<ele>2588.000000</ele>
				<time>2024-04-10T04:24:23Z</time>
			</trkpt>
			<trkpt lat="33.266422" lon="103.814453">
				<ele>2588.000000</ele>
				<time>2024-04-10T04:24:23Z</time>
			</trkpt>
			<trkpt lat="33.266331" lon="103.814491">
				<ele>2588.000000</ele>
				<time>2024-04-10T04:24:23Z</time>
			</trkpt>
			<trkpt lat="33.266273" lon="103.814484">
				<ele>2588.000000</ele>
				<time>2024-04-10T04:24:23Z</time>
			</trkpt>
			<trkpt lat="33.266277" lon="103.814484">
				<ele>2588.000000</ele>
				<time>2024-04-10T04:24:23Z</time>
			</trkpt>
			<trkpt lat="33.266228" lon="103.814384">
				<ele>2602.000000</ele>
				<time>2024-04-10T04:24:23Z</time>
			</trkpt>
			<trkpt lat="33.266132" lon="103.814384">
				<ele>2602.000000</ele>
				<time>2024-04-10T04:24:23Z</time>
			</trkpt>
			<trkpt lat="33.266132" lon="103.814384">
				<ele>2602.000000</ele>
				<time>2024-04-10T04:24:23Z</time>
			</trkpt>
			<trkpt lat="33.265865" lon="103.814362">
				<ele>2608.000000</ele>
				<time>2024-04-10T04:24:23Z</time>
			</trkpt>
			<trkpt lat="33.265560" lon="103.814377">
				<ele>2613.000000</ele>
				<time>2024-04-10T04:24:23Z</time>
			</trkpt>
			<trkpt lat="33.265358" lon="103.814362">
				<ele>2623.000000</ele>
				<time>2024-04-10T04:24:23Z</time>
			</trkpt>
			<trkpt lat="33.265259" lon="103.814407">
				<ele>2623.000000</ele>
				<time>2024-04-10T04:24:23Z</time>
			</trkpt>
			<trkpt lat="33.265259" lon="103.814407">
				<ele>2623.000000</ele>
				<time>2024-04-10T04:24:23Z</time>
			</trkpt>
			<trkpt lat="33.265118" lon="103.814491">
				<ele>2630.000000</ele>
				<time>2024-04-10T04:24:23Z</time>
			</trkpt>
			<trkpt lat="33.264999" lon="103.814568">
				<ele>2630.000000</ele>
				<time>2024-04-10T04:24:23Z</time>
			</trkpt>
			<trkpt lat="33.264908" lon="103.814705">
				<ele>2626.000000</ele>
				<time>2024-04-10T04:24:23Z</time>
			</trkpt>
			<trkpt lat="33.264828" lon="103.814842">
				<ele>2642.000000</ele>
				<time>2024-04-10T04:24:23Z</time>
			</trkpt>
			<trkpt lat="33.264736" lon="103.814980">
				<ele>2636.000000</ele>
				<time>2024-04-10T04:24:23Z</time>
			</trkpt>
			<trkpt lat="33.264629" lon="103.815102">
				<ele>2636.000000</ele>
				<time>2024-04-10T04:24:23Z</time>
			</trkpt>
			<trkpt lat="33.264507" lon="103.815208">
				<ele>2629.000000</ele>
				<time>2024-04-10T04:24:23Z</time>
			</trkpt>
			<trkpt lat="33.264374" lon="103.815323">
				<ele>2629.000000</ele>
				<time>2024-04-10T04:24:23Z</time>
			</trkpt>
			<trkpt lat="33.264252" lon="103.815437">
				<ele>2636.000000</ele>
				<time>2024-04-10T04:24:23Z</time>
			</trkpt>
			<trkpt lat="33.264145" lon="103.815529">
				<ele>2636.000000</ele>
				<time>2024-04-10T04:24:23Z</time>
			</trkpt>
			<trkpt lat="33.264034" lon="103.815620">
				<ele>2636.000000</ele>
				<time>2024-04-10T04:24:23Z</time>
			</trkpt>
			<trkpt lat="33.263924" lon="103.815689">
				<ele>2638.000000</ele>
				<time>2024-04-10T04:24:23Z</time>
			</trkpt>
			<trkpt lat="33.263824" lon="103.815750">
				<ele>2631.000000</ele>
				<time>2024-04-10T04:24:23Z</time>
			</trkpt>
			<trkpt lat="33.263737" lon="103.815811">
				<ele>2636.000000</ele>
				<time>2024-04-10T04:24:23Z</time>
			</trkpt>
			<trkpt lat="33.263645" lon="103.815880">
				<ele>2636.000000</ele>
				<time>2024-04-10T04:24:23Z</time>
			</trkpt>
			<trkpt lat="33.263542" lon="103.815926">
				<ele>2636.000000</ele>
				<time>2024-04-10T04:24:23Z</time>
			</trkpt>
			<trkpt lat="33.263443" lon="103.815826">
				<ele>2639.000000</ele>
				<time>2024-04-10T04:24:23Z</time>
			</trkpt>
			<trkpt lat="33.263454" lon="103.815674">
				<ele>2642.000000</ele>
				<time>2024-04-10T04:24:23Z</time>
			</trkpt>
			<trkpt lat="33.263519" lon="103.815521">
				<ele>2641.000000</ele>
				<time>2024-04-10T04:24:23Z</time>
			</trkpt>
			<trkpt lat="33.263588" lon="103.815361">
				<ele>2643.000000</ele>
				<time>2024-04-10T04:24:23Z</time>
			</trkpt>
			<trkpt lat="33.263649" lon="103.815208">
				<ele>2643.000000</ele>
				<time>2024-04-10T04:24:23Z</time>
			</trkpt>
			<trkpt lat="33.263714" lon="103.815071">
				<ele>2646.000000</ele>
				<time>2024-04-10T04:24:23Z</time>
			</trkpt>
			<trkpt lat="33.263783" lon="103.814941">
				<ele>2643.000000</ele>
				<time>2024-04-10T04:24:23Z</time>
			</trkpt>
			<trkpt lat="33.263836" lon="103.814796">
				<ele>2646.000000</ele>
				<time>2024-04-10T04:24:23Z</time>
			</trkpt>
			<trkpt lat="33.263855" lon="103.814667">
				<ele>2646.000000</ele>
				<time>2024-04-10T04:24:23Z</time>
			</trkpt>
			<trkpt lat="33.263813" lon="103.814507">
				<ele>2658.000000</ele>
				<time>2024-04-10T04:24:23Z</time>
			</trkpt>
			<trkpt lat="33.263718" lon="103.814461">
				<ele>2652.000000</ele>
				<time>2024-04-10T04:24:23Z</time>
			</trkpt>
			<trkpt lat="33.263607" lon="103.814522">
				<ele>2652.000000</ele>
				<time>2024-04-10T04:24:23Z</time>
			</trkpt>
			<trkpt lat="33.263508" lon="103.814613">
				<ele>2649.000000</ele>
				<time>2024-04-10T04:24:23Z</time>
			</trkpt>
			<trkpt lat="33.263409" lon="103.814713">
				<ele>2654.000000</ele>
				<time>2024-04-10T04:24:23Z</time>
			</trkpt>
			<trkpt lat="33.263317" lon="103.814774">
				<ele>2654.000000</ele>
				<time>2024-04-10T04:24:23Z</time>
			</trkpt>
			<trkpt lat="33.263206" lon="103.814842">
				<ele>2654.000000</ele>
				<time>2024-04-10T04:24:23Z</time>
			</trkpt>
			<trkpt lat="33.263096" lon="103.814919">
				<ele>2653.000000</ele>
				<time>2024-04-10T04:24:23Z</time>
			</trkpt>
			<trkpt lat="33.262978" lon="103.814995">
				<ele>2653.000000</ele>
				<time>2024-04-10T04:24:23Z</time>
			</trkpt>
			<trkpt lat="33.262852" lon="103.815056">
				<ele>2665.000000</ele>
				<time>2024-04-10T04:24:23Z</time>
			</trkpt>
			<trkpt lat="33.262726" lon="103.815147">
				<ele>2657.000000</ele>
				<time>2024-04-10T04:24:23Z</time>
			</trkpt>
			<trkpt lat="33.262615" lon="103.815262">
				<ele>2669.000000</ele>
				<time>2024-04-10T04:24:23Z</time>
			</trkpt>
			<trkpt lat="33.262543" lon="103.815353">
				<ele>2669.000000</ele>
				<time>2024-04-10T04:24:23Z</time>
			</trkpt>
			<trkpt lat="33.262466" lon="103.815445">
				<ele>2665.000000</ele>
				<time>2024-04-10T04:24:23Z</time>
			</trkpt>
			<trkpt lat="33.262379" lon="103.815536">
				<ele>2665.000000</ele>
				<time>2024-04-10T04:24:23Z</time>
			</trkpt>
			<trkpt lat="33.262287" lon="103.815628">
				<ele>2670.000000</ele>
				<time>2024-04-10T04:24:23Z</time>
			</trkpt>
			<trkpt lat="33.262199" lon="103.815704">
				<ele>2666.000000</ele>
				<time>2024-04-10T04:24:23Z</time>
			</trkpt>
			<trkpt lat="33.262100" lon="103.815773">
				<ele>2666.000000</ele>
				<time>2024-04-10T04:24:23Z</time>
			</trkpt>
			<trkpt lat="33.262001" lon="103.815857">
				<ele>2668.000000</ele>
				<time>2024-04-10T04:24:23Z</time>
			</trkpt>
			<trkpt lat="33.261921" lon="103.815979">
				<ele>2669.000000</ele>
				<time>2024-04-10T04:24:23Z</time>
			</trkpt>
			<trkpt lat="33.261871" lon="103.816147">
				<ele>2669.000000</ele>
				<time>2024-04-10T04:24:23Z</time>
			</trkpt>
			<trkpt lat="33.261852" lon="103.816307">
				<ele>2670.000000</ele>
				<time>2024-04-10T04:24:23Z</time>
			</trkpt>
			<trkpt lat="33.261822" lon="103.816460">
				<ele>2670.000000</ele>
				<time>2024-04-10T04:24:23Z</time>
			</trkpt>
			<trkpt lat="33.261753" lon="103.816566">
				<ele>2677.000000</ele>
				<time>2024-04-10T04:24:23Z</time>
			</trkpt>
			<trkpt lat="33.261608" lon="103.816536">
				<ele>2677.000000</ele>
				<time>2024-04-10T04:24:23Z</time>
			</trkpt>
			<trkpt lat="33.261536" lon="103.816383">
				<ele>2674.000000</ele>
				<time>2024-04-10T04:24:23Z</time>
			</trkpt>
			<trkpt lat="33.261497" lon="103.816200">
				<ele>2680.000000</ele>
				<time>2024-04-10T04:24:23Z</time>
			</trkpt>
			<trkpt lat="33.261459" lon="103.816017">
				<ele>2680.000000</ele>
				<time>2024-04-10T04:24:23Z</time>
			</trkpt>
			<trkpt lat="33.261414" lon="103.815842">
				<ele>2681.000000</ele>
				<time>2024-04-10T04:24:23Z</time>
			</trkpt>
			<trkpt lat="33.261356" lon="103.815689">
				<ele>2686.000000</ele>
				<time>2024-04-10T04:24:23Z</time>
			</trkpt>
			<trkpt lat="33.261303" lon="103.815559">
				<ele>2686.000000</ele>
				<time>2024-04-10T04:24:23Z</time>
			</trkpt>
			<trkpt lat="33.261242" lon="103.815475">
				<ele>2693.000000</ele>
				<time>2024-04-10T04:24:23Z</time>
			</trkpt>
			<trkpt lat="33.261135" lon="103.815445">
				<ele>2693.000000</ele>
				<time>2024-04-10T04:24:23Z</time>
			</trkpt>
			<trkpt lat="33.261017" lon="103.815514">
				<ele>2693.000000</ele>
				<time>2024-04-10T04:24:23Z</time>
			</trkpt>
			<trkpt lat="33.260941" lon="103.815689">
				<ele>2702.000000</ele>
				<time>2024-04-10T04:24:23Z</time>
			</trkpt>
			<trkpt lat="33.260929" lon="103.815887">
				<ele>2695.000000</ele>
				<time>2024-04-10T04:24:23Z</time>
			</trkpt>
			<trkpt lat="33.260948" lon="103.816093">
				<ele>2694.000000</ele>
				<time>2024-04-10T04:24:23Z</time>
			</trkpt>
			<trkpt lat="33.260975" lon="103.816292">
				<ele>2684.000000</ele>
				<time>2024-04-10T04:24:23Z</time>
			</trkpt>
			<trkpt lat="33.260998" lon="103.816483">
				<ele>2684.000000</ele>
				<time>2024-04-10T04:24:23Z</time>
			</trkpt>
			<trkpt lat="33.261024" lon="103.816650">
				<ele>2689.000000</ele>
				<time>2024-04-10T04:24:23Z</time>
			</trkpt>
			<trkpt lat="33.261059" lon="103.816811">
				<ele>2690.000000</ele>
				<time>2024-04-10T04:24:23Z</time>
			</trkpt>
			<trkpt lat="33.261082" lon="103.816963">
				<ele>2690.000000</ele>
				<time>2024-04-10T04:24:23Z</time>
			</trkpt>
			<trkpt lat="33.261078" lon="103.817116">
				<ele>2693.000000</ele>
				<time>2024-04-10T04:24:23Z</time>
			</trkpt>
			<trkpt lat="33.261036" lon="103.817268">
				<ele>2693.000000</ele>
				<time>2024-04-10T04:24:23Z</time>
			</trkpt>
			<trkpt lat="33.260963" lon="103.817406">
				<ele>2691.000000</ele>
				<time>2024-04-10T04:24:23Z</time>
			</trkpt>
			<trkpt lat="33.260891" lon="103.817520">
				<ele>2691.000000</ele>
				<time>2024-04-10T04:24:23Z</time>
			</trkpt>
			<trkpt lat="33.260872" lon="103.817703">
				<ele>2699.000000</ele>
				<time>2024-04-10T04:24:23Z</time>
			</trkpt>
			<trkpt lat="33.260948" lon="103.817856">
				<ele>2699.000000</ele>
				<time>2024-04-10T04:24:23Z</time>
			</trkpt>
			<trkpt lat="33.261078" lon="103.817924">
				<ele>2711.000000</ele>
				<time>2024-04-10T04:24:23Z</time>
			</trkpt>
			<trkpt lat="33.261227" lon="103.817947">
				<ele>2711.000000</ele>
				<time>2024-04-10T04:24:23Z</time>
			</trkpt>
			<trkpt lat="33.261360" lon="103.817978">
				<ele>2709.000000</ele>
				<time>2024-04-10T04:24:23Z</time>
			</trkpt>
			<trkpt lat="33.261478" lon="103.818024">
				<ele>2709.000000</ele>
				<time>2024-04-10T04:24:23Z</time>
			</trkpt>
			<trkpt lat="33.261597" lon="103.818062">
				<ele>2710.000000</ele>
				<time>2024-04-10T04:24:23Z</time>
			</trkpt>
			<trkpt lat="33.261719" lon="103.818062">
				<ele>2710.000000</ele>
				<time>2024-04-10T04:24:23Z</time>
			</trkpt>
			<trkpt lat="33.261837" lon="103.818047">
				<ele>2709.000000</ele>
				<time>2024-04-10T04:24:23Z</time>
			</trkpt>
			<trkpt lat="33.261955" lon="103.818031">
				<ele>2709.000000</ele>
				<time>2024-04-10T04:24:23Z</time>
			</trkpt>
			<trkpt lat="33.262066" lon="103.818054">
				<ele>2709.000000</ele>
				<time>2024-04-10T04:24:23Z</time>
			</trkpt>
			<trkpt lat="33.262142" lon="103.818130">
				<ele>2705.000000</ele>
				<time>2024-04-10T04:24:23Z</time>
			</trkpt>
			<trkpt lat="33.262150" lon="103.818245">
				<ele>2707.000000</ele>
				<time>2024-04-10T04:24:23Z</time>
			</trkpt>
			<trkpt lat="33.262077" lon="103.818367">
				<ele>2713.000000</ele>
				<time>2024-04-10T04:24:23Z</time>
			</trkpt>
			<trkpt lat="33.261967" lon="103.818436">
				<ele>2713.000000</ele>
				<time>2024-04-10T04:24:23Z</time>
			</trkpt>
			<trkpt lat="33.261837" lon="103.818459">
				<ele>2713.000000</ele>
				<time>2024-04-10T04:24:23Z</time>
			</trkpt>
			<trkpt lat="33.261707" lon="103.818466">
				<ele>2713.000000</ele>
				<time>2024-04-10T04:24:23Z</time>
			</trkpt>
			<trkpt lat="33.261585" lon="103.818489">
				<ele>2715.000000</ele>
				<time>2024-04-10T04:24:23Z</time>
			</trkpt>
			<trkpt lat="33.261433" lon="103.818535">
				<ele>2709.000000</ele>
				<time>2024-04-10T04:24:23Z</time>
			</trkpt>
			<trkpt lat="33.261276" lon="103.818611">
				<ele>2709.000000</ele>
				<time>2024-04-10T04:24:23Z</time>
			</trkpt>
			<trkpt lat="33.261162" lon="103.818634">
				<ele>2711.000000</ele>
				<time>2024-04-10T04:24:23Z</time>
			</trkpt>
			<trkpt lat="33.261047" lon="103.818626">
				<ele>2711.000000</ele>
				<time>2024-04-10T04:24:23Z</time>
			</trkpt>
			<trkpt lat="33.260929" lon="103.818604">
				<ele>2712.000000</ele>
				<time>2024-04-10T04:24:23Z</time>
			</trkpt>
			<trkpt lat="33.260815" lon="103.818604">
				<ele>2712.000000</ele>
				<time>2024-04-10T04:24:23Z</time>
			</trkpt>
			<trkpt lat="33.260700" lon="103.818642">
				<ele>2712.000000</ele>
				<time>2024-04-10T04:24:23Z</time>
			</trkpt>
			<trkpt lat="33.260590" lon="103.818718">
				<ele>2715.000000</ele>
				<time>2024-04-10T04:24:23Z</time>
			</trkpt>
			<trkpt lat="33.260487" lon="103.818832">
				<ele>2722.000000</ele>
				<time>2024-04-10T04:24:23Z</time>
			</trkpt>
			<trkpt lat="33.260391" lon="103.818962">
				<ele>2723.000000</ele>
				<time>2024-04-10T04:24:23Z</time>
			</trkpt>
			<trkpt lat="33.260303" lon="103.819077">
				<ele>2730.000000</ele>
				<time>2024-04-10T04:24:23Z</time>
			</trkpt>
			<trkpt lat="33.260235" lon="103.819191">
				<ele>2730.000000</ele>
				<time>2024-04-10T04:24:23Z</time>
			</trkpt>
			<trkpt lat="33.260178" lon="103.819305">
				<ele>2730.000000</ele>
				<time>2024-04-10T04:24:23Z</time>
			</trkpt>
			<trkpt lat="33.260098" lon="103.819405">
				<ele>2740.000000</ele>
				<time>2024-04-10T04:24:23Z</time>
			</trkpt>
			<trkpt lat="33.259995" lon="103.819473">
				<ele>2740.000000</ele>
				<time>2024-04-10T04:24:23Z</time>
			</trkpt>
			<trkpt lat="33.259884" lon="103.819527">
				<ele>2740.000000</ele>
				<time>2024-04-10T04:24:23Z</time>
			</trkpt>
			<trkpt lat="33.259773" lon="103.819580">
				<ele>2737.000000</ele>
				<time>2024-04-10T04:24:23Z</time>
			</trkpt>
			<trkpt lat="33.259666" lon="103.819633">
				<ele>2751.000000</ele>
				<time>2024-04-10T04:24:23Z</time>
			</trkpt>
			<trkpt lat="33.259560" lon="103.819695">
				<ele>2738.000000</ele>
				<time>2024-04-10T04:24:23Z</time>
			</trkpt>
			<trkpt lat="33.259453" lon="103.819748">
				<ele>2738.000000</ele>
				<time>2024-04-10T04:24:23Z</time>
			</trkpt>
			<trkpt lat="33.259342" lon="103.819801">
				<ele>2738.000000</ele>
				<time>2024-04-10T04:24:23Z</time>
			</trkpt>
			<trkpt lat="33.259232" lon="103.819862">
				<ele>2742.000000</ele>
				<time>2024-04-10T04:24:23Z</time>
			</trkpt>
			<trkpt lat="33.259121" lon="103.819931">
				<ele>2742.000000</ele>
				<time>2024-04-10T04:24:23Z</time>
			</trkpt>
			<trkpt lat="33.259010" lon="103.819984">
				<ele>2747.000000</ele>
				<time>2024-04-10T04:24:23Z</time>
			</trkpt>
			<trkpt lat="33.258904" lon="103.820030">
				<ele>2747.000000</ele>
				<time>2024-04-10T04:24:23Z</time>
			</trkpt>
			<trkpt lat="33.258801" lon="103.820053">
				<ele>2747.000000</ele>
				<time>2024-04-10T04:24:23Z</time>
			</trkpt>
			<trkpt lat="33.258713" lon="103.820061">
				<ele>2750.000000</ele>
				<time>2024-04-10T04:24:23Z</time>
			</trkpt>
			<trkpt lat="33.258614" lon="103.820053">
				<ele>2750.000000</ele>
				<time>2024-04-10T04:24:23Z</time>
			</trkpt>
			<trkpt lat="33.258514" lon="103.820015">
				<ele>2750.000000</ele>
				<time>2024-04-10T04:24:23Z</time>
			</trkpt>
			<trkpt lat="33.258408" lon="103.819954">
				<ele>2756.000000</ele>
				<time>2024-04-10T04:24:23Z</time>
			</trkpt>
			<trkpt lat="33.258293" lon="103.819870">
				<ele>2756.000000</ele>
				<time>2024-04-10T04:24:23Z</time>
			</trkpt>
			<trkpt lat="33.258179" lon="103.819778">
				<ele>2755.000000</ele>
				<time>2024-04-10T04:24:23Z</time>
			</trkpt>
			<trkpt lat="33.258080" lon="103.819679">
				<ele>2755.000000</ele>
				<time>2024-04-10T04:24:23Z</time>
			</trkpt>
			<trkpt lat="33.258003" lon="103.819595">
				<ele>2755.000000</ele>
				<time>2024-04-10T04:24:23Z</time>
			</trkpt>
			<trkpt lat="33.257969" lon="103.819427">
				<ele>2752.000000</ele>
				<time>2024-04-10T04:24:23Z</time>
			</trkpt>
			<trkpt lat="33.257988" lon="103.819283">
				<ele>2750.000000</ele>
				<time>2024-04-10T04:24:23Z</time>
			</trkpt>
			<trkpt lat="33.258034" lon="103.819145">
				<ele>2750.000000</ele>
				<time>2024-04-10T04:24:23Z</time>
			</trkpt>
			<trkpt lat="33.258102" lon="103.819016">
				<ele>2750.000000</ele>
				<time>2024-04-10T04:24:23Z</time>
			</trkpt>
			<trkpt lat="33.258183" lon="103.818909">
				<ele>2750.000000</ele>
				<time>2024-04-10T04:24:23Z</time>
			</trkpt>
			<trkpt lat="33.258282" lon="103.818825">
				<ele>2746.000000</ele>
				<time>2024-04-10T04:24:23Z</time>
			</trkpt>
			<trkpt lat="33.258369" lon="103.818733">
				<ele>2747.000000</ele>
				<time>2024-04-10T04:24:23Z</time>
			</trkpt>
			<trkpt lat="33.258411" lon="103.818626">
				<ele>2747.000000</ele>
				<time>2024-04-10T04:24:23Z</time>
			</trkpt>
			<trkpt lat="33.258396" lon="103.818497">
				<ele>2747.000000</ele>
				<time>2024-04-10T04:24:23Z</time>
			</trkpt>
			<trkpt lat="33.258350" lon="103.818344">
				<ele>2752.000000</ele>
				<time>2024-04-10T04:24:23Z</time>
			</trkpt>
			<trkpt lat="33.258289" lon="103.818176">
				<ele>2757.000000</ele>
				<time>2024-04-10T04:24:23Z</time>
			</trkpt>
			<trkpt lat="33.258228" lon="103.818016">
				<ele>2757.000000</ele>
				<time>2024-04-10T04:24:23Z</time>
			</trkpt>
			<trkpt lat="33.258183" lon="103.817879">
				<ele>2762.000000</ele>
				<time>2024-04-10T04:24:23Z</time>
			</trkpt>
			<trkpt lat="33.258144" lon="103.817749">
				<ele>2762.000000</ele>
				<time>2024-04-10T04:24:23Z</time>
			</trkpt>
			<trkpt lat="33.258114" lon="103.817619">
				<ele>2764.000000</ele>
				<time>2024-04-10T04:24:23Z</time>
			</trkpt>
			<trkpt lat="33.258095" lon="103.817474">
				<ele>2764.000000</ele>
				<time>2024-04-10T04:24:23Z</time>
			</trkpt>
			<trkpt lat="33.258083" lon="103.817337">
				<ele>2763.000000</ele>
				<time>2024-04-10T04:24:23Z</time>
			</trkpt>
			<trkpt lat="33.258072" lon="103.817215">
				<ele>2763.000000</ele>
				<time>2024-04-10T04:24:23Z</time>
			</trkpt>
			<trkpt lat="33.257969" lon="103.817192">
				<ele>2763.000000</ele>
				<time>2024-04-10T04:24:23Z</time>
			</trkpt>
			<trkpt lat="33.257908" lon="103.817307">
				<ele>2769.000000</ele>
				<time>2024-04-10T04:24:23Z</time>
			</trkpt>
			<trkpt lat="33.257908" lon="103.817467">
				<ele>2767.000000</ele>
				<time>2024-04-10T04:24:23Z</time>
			</trkpt>
			<trkpt lat="33.257919" lon="103.817642">
				<ele>2762.000000</ele>
				<time>2024-04-10T04:24:23Z</time>
			</trkpt>
			<trkpt lat="33.257900" lon="103.817802">
				<ele>2768.000000</ele>
				<time>2024-04-10T04:24:23Z</time>
			</trkpt>
			<trkpt lat="33.257839" lon="103.817963">
				<ele>2769.000000</ele>
				<time>2024-04-10T04:24:23Z</time>
			</trkpt>
			<trkpt lat="33.257778" lon="103.818115">
				<ele>2769.000000</ele>
				<time>2024-04-10T04:24:23Z</time>
			</trkpt>
			<trkpt lat="33.257732" lon="103.818283">
				<ele>2769.000000</ele>
				<time>2024-04-10T04:24:23Z</time>
			</trkpt>
			<trkpt lat="33.257690" lon="103.818436">
				<ele>2769.000000</ele>
				<time>2024-04-10T04:24:23Z</time>
			</trkpt>
			<trkpt lat="33.257622" lon="103.818558">
				<ele>2767.000000</ele>
				<time>2024-04-10T04:24:23Z</time>
			</trkpt>
			<trkpt lat="33.257500" lon="103.818657">
				<ele>2767.000000</ele>
				<time>2024-04-10T04:24:23Z</time>
			</trkpt>
			<trkpt lat="33.257370" lon="103.818748">
				<ele>2767.000000</ele>
				<time>2024-04-10T04:24:23Z</time>
			</trkpt>
			<trkpt lat="33.257256" lon="103.818840">
				<ele>2771.000000</ele>
				<time>2024-04-10T04:24:23Z</time>
			</trkpt>
			<trkpt lat="33.257149" lon="103.818924">
				<ele>2771.000000</ele>
				<time>2024-04-10T04:24:23Z</time>
			</trkpt>
			<trkpt lat="33.257038" lon="103.818985">
				<ele>2774.000000</ele>
				<time>2024-04-10T04:24:23Z</time>
			</trkpt>
			<trkpt lat="33.256920" lon="103.819038">
				<ele>2777.000000</ele>
				<time>2024-04-10T04:24:23Z</time>
			</trkpt>
			<trkpt lat="33.256821" lon="103.819115">
				<ele>2777.000000</ele>
				<time>2024-04-10T04:24:23Z</time>
			</trkpt>
			<trkpt lat="33.256737" lon="103.819214">
				<ele>2781.000000</ele>
				<time>2024-04-10T04:24:23Z</time>
			</trkpt>
			<trkpt lat="33.256653" lon="103.819328">
				<ele>2776.000000</ele>
				<time>2024-04-10T04:24:23Z</time>
			</trkpt>
			<trkpt lat="33.256573" lon="103.819435">
				<ele>2776.000000</ele>
				<time>2024-04-10T04:24:23Z</time>
			</trkpt>
			<trkpt lat="33.256489" lon="103.819542">
				<ele>2779.000000</ele>
				<time>2024-04-10T04:24:23Z</time>
			</trkpt>
			<trkpt lat="33.256413" lon="103.819626">
				<ele>2772.000000</ele>
				<time>2024-04-10T04:24:23Z</time>
			</trkpt>
			<trkpt lat="33.256329" lon="103.819695">
				<ele>2772.000000</ele>
				<time>2024-04-10T04:24:23Z</time>
			</trkpt>
			<trkpt lat="33.256237" lon="103.819748">
				<ele>2790.000000</ele>
				<time>2024-04-10T04:24:23Z</time>
			</trkpt>
			<trkpt lat="33.256130" lon="103.819771">
				<ele>2790.000000</ele>
				<time>2024-04-10T04:24:23Z</time>
			</trkpt>
			<trkpt lat="33.256023" lon="103.819801">
				<ele>2790.000000</ele>
				<time>2024-04-10T04:24:23Z</time>
			</trkpt>
			<trkpt lat="33.255917" lon="103.819878">
				<ele>2793.000000</ele>
				<time>2024-04-10T04:24:23Z</time>
			</trkpt>
			<trkpt lat="33.255833" lon="103.819992">
				<ele>2793.000000</ele>
				<time>2024-04-10T04:24:23Z</time>
			</trkpt>
			<trkpt lat="33.255760" lon="103.820099">
				<ele>2793.000000</ele>
				<time>2024-04-10T04:24:23Z</time>
			</trkpt>
			<trkpt lat="33.255676" lon="103.820053">
				<ele>2803.000000</ele>
				<time>2024-04-10T04:24:23Z</time>
			</trkpt>
			<trkpt lat="33.255692" lon="103.819916">
				<ele>2803.000000</ele>
				<time>2024-04-10T04:24:23Z</time>
			</trkpt>
			<trkpt lat="33.255787" lon="103.819778">
				<ele>2796.000000</ele>
				<time>2024-04-10T04:24:23Z</time>
			</trkpt>
			<trkpt lat="33.255924" lon="103.819664">
				<ele>2796.000000</ele>
				<time>2024-04-10T04:24:23Z</time>
			</trkpt>
			<trkpt lat="33.256069" lon="103.819588">
				<ele>2790.000000</ele>
				<time>2024-04-10T04:24:23Z</time>
			</trkpt>
			<trkpt lat="33.256203" lon="103.819527">
				<ele>2793.000000</ele>
				<time>2024-04-10T04:24:23Z</time>
			</trkpt>
			<trkpt lat="33.256313" lon="103.819458">
				<ele>2779.000000</ele>
				<time>2024-04-10T04:24:23Z</time>
			</trkpt>
			<trkpt lat="33.256397" lon="103.819389">
				<ele>2779.000000</ele>
				<time>2024-04-10T04:24:23Z</time>
			</trkpt>
			<trkpt lat="33.256439" lon="103.819290">
				<ele>2791.000000</ele>
				<time>2024-04-10T04:24:23Z</time>
			</trkpt>
			<trkpt lat="33.256424" lon="103.819183">
				<ele>2791.000000</ele>
				<time>2024-04-10T04:24:23Z</time>
			</trkpt>
			<trkpt lat="33.256359" lon="103.819069">
				<ele>2791.000000</ele>
				<time>2024-04-10T04:24:23Z</time>
			</trkpt>
			<trkpt lat="33.256294" lon="103.818939">
				<ele>2795.000000</ele>
				<time>2024-04-10T04:24:23Z</time>
			</trkpt>
			<trkpt lat="33.256268" lon="103.818794">
				<ele>2795.000000</ele>
				<time>2024-04-10T04:24:23Z</time>
			</trkpt>
			<trkpt lat="33.256279" lon="103.818672">
				<ele>2801.000000</ele>
				<time>2024-04-10T04:24:23Z</time>
			</trkpt>
			<trkpt lat="33.256332" lon="103.818565">
				<ele>2801.000000</ele>
				<time>2024-04-10T04:24:23Z</time>
			</trkpt>
			<trkpt lat="33.256413" lon="103.818466">
				<ele>2796.000000</ele>
				<time>2024-04-10T04:24:23Z</time>
			</trkpt>
			<trkpt lat="33.256493" lon="103.818367">
				<ele>2796.000000</ele>
				<time>2024-04-10T04:24:23Z</time>
			</trkpt>
			<trkpt lat="33.256561" lon="103.818260">
				<ele>2779.000000</ele>
				<time>2024-04-10T04:24:23Z</time>
			</trkpt>
			<trkpt lat="33.256599" lon="103.818161">
				<ele>2778.000000</ele>
				<time>2024-04-10T04:24:23Z</time>
			</trkpt>
			<trkpt lat="33.256565" lon="103.817993">
				<ele>2778.000000</ele>
				<time>2024-04-10T04:24:23Z</time>
			</trkpt>
			<trkpt lat="33.256512" lon="103.817818">
				<ele>2800.000000</ele>
				<time>2024-04-10T04:24:23Z</time>
			</trkpt>
			<trkpt lat="33.256477" lon="103.817673">
				<ele>2800.000000</ele>
				<time>2024-04-10T04:24:23Z</time>
			</trkpt>
			<trkpt lat="33.256454" lon="103.817543">
				<ele>2800.000000</ele>
				<time>2024-04-10T04:24:23Z</time>
			</trkpt>
			<trkpt lat="33.256439" lon="103.817368">
				<ele>2800.000000</ele>
				<time>2024-04-10T04:24:23Z</time>
			</trkpt>
			<trkpt lat="33.256432" lon="103.817169">
				<ele>2798.000000</ele>
				<time>2024-04-10T04:24:23Z</time>
			</trkpt>
			<trkpt lat="33.256416" lon="103.817017">
				<ele>2801.000000</ele>
				<time>2024-04-10T04:24:23Z</time>
			</trkpt>
			<trkpt lat="33.256344" lon="103.816948">
				<ele>2801.000000</ele>
				<time>2024-04-10T04:24:23Z</time>
			</trkpt>
			<trkpt lat="33.256245" lon="103.816963">
				<ele>2809.000000</ele>
				<time>2024-04-10T04:24:23Z</time>
			</trkpt>
			<trkpt lat="33.256168" lon="103.817062">
				<ele>2809.000000</ele>
				<time>2024-04-10T04:24:23Z</time>
			</trkpt>
			<trkpt lat="33.256123" lon="103.817200">
				<ele>2807.000000</ele>
				<time>2024-04-10T04:24:23Z</time>
			</trkpt>
			<trkpt lat="33.256081" lon="103.817337">
				<ele>2807.000000</ele>
				<time>2024-04-10T04:24:23Z</time>
			</trkpt>
			<trkpt lat="33.256001" lon="103.817451">
				<ele>2809.000000</ele>
				<time>2024-04-10T04:24:23Z</time>
			</trkpt>
			<trkpt lat="33.255894" lon="103.817543">
				<ele>2814.000000</ele>
				<time>2024-04-10T04:24:23Z</time>
			</trkpt>
			<trkpt lat="33.255810" lon="103.817627">
				<ele>2814.000000</ele>
				<time>2024-04-10T04:24:23Z</time>
			</trkpt>
			<trkpt lat="33.255753" lon="103.817719">
				<ele>2815.000000</ele>
				<time>2024-04-10T04:24:23Z</time>
			</trkpt>
			<trkpt lat="33.255646" lon="103.817833">
				<ele>2830.000000</ele>
				<time>2024-04-10T04:24:23Z</time>
			</trkpt>
			<trkpt lat="33.255547" lon="103.817749">
				<ele>2830.000000</ele>
				<time>2024-04-10T04:24:23Z</time>
			</trkpt>
			<trkpt lat="33.255566" lon="103.817612">
				<ele>2827.000000</ele>
				<time>2024-04-10T04:24:23Z</time>
			</trkpt>
			<trkpt lat="33.255650" lon="103.817474">
				<ele>2827.000000</ele>
				<time>2024-04-10T04:24:23Z</time>
			</trkpt>
			<trkpt lat="33.255753" lon="103.817329">
				<ele>2811.000000</ele>
				<time>2024-04-10T04:24:23Z</time>
			</trkpt>
			<trkpt lat="33.255836" lon="103.817177">
				<ele>2811.000000</ele>
				<time>2024-04-10T04:24:23Z</time>
			</trkpt>
			<trkpt lat="33.255878" lon="103.817055">
				<ele>2817.000000</ele>
				<time>2024-04-10T04:24:23Z</time>
			</trkpt>
			<trkpt lat="33.255844" lon="103.816948">
				<ele>2817.000000</ele>
				<time>2024-04-10T04:24:23Z</time>
			</trkpt>
			<trkpt lat="33.255749" lon="103.816917">
				<ele>2817.000000</ele>
				<time>2024-04-10T04:24:23Z</time>
			</trkpt>
			<trkpt lat="33.255653" lon="103.817017">
				<ele>2829.000000</ele>
				<time>2024-04-10T04:24:23Z</time>
			</trkpt>
			<trkpt lat="33.255486" lon="103.817284">
				<ele>2825.000000</ele>
				<time>2024-04-10T04:24:23Z</time>
			</trkpt>
			<trkpt lat="33.255337" lon="103.817451">
				<ele>2835.000000</ele>
				<time>2024-04-10T04:24:23Z</time>
			</trkpt>
			<trkpt lat="33.255203" lon="103.817581">
				<ele>2835.000000</ele>
				<time>2024-04-10T04:24:23Z</time>
			</trkpt>
			<trkpt lat="33.255100" lon="103.817703">
				<ele>2847.000000</ele>
				<time>2024-04-10T04:24:23Z</time>
			</trkpt>
			<trkpt lat="33.255024" lon="103.817810">
				<ele>2847.000000</ele>
				<time>2024-04-10T04:24:23Z</time>
			</trkpt>
			<trkpt lat="33.254951" lon="103.817741">
				<ele>2847.000000</ele>
				<time>2024-04-10T04:24:23Z</time>
			</trkpt>
			<trkpt lat="33.254982" lon="103.817619">
				<ele>2844.000000</ele>
				<time>2024-04-10T04:24:23Z</time>
			</trkpt>
			<trkpt lat="33.255054" lon="103.817482">
				<ele>2844.000000</ele>
				<time>2024-04-10T04:24:23Z</time>
			</trkpt>
			<trkpt lat="33.255146" lon="103.817337">
				<ele>2836.000000</ele>
				<time>2024-04-10T04:24:23Z</time>
			</trkpt>
			<trkpt lat="33.255230" lon="103.817200">
				<ele>2836.000000</ele>
				<time>2024-04-10T04:24:23Z</time>
			</trkpt>
			<trkpt lat="33.255264" lon="103.817078">
				<ele>2840.000000</ele>
				<time>2024-04-10T04:24:23Z</time>
			</trkpt>
			<trkpt lat="33.255211" lon="103.817009">
				<ele>2840.000000</ele>
				<time>2024-04-10T04:24:23Z</time>
			</trkpt>
			<trkpt lat="33.255108" lon="103.816994">
				<ele>2851.000000</ele>
				<time>2024-04-10T04:24:23Z</time>
			</trkpt>
			<trkpt lat="33.255001" lon="103.817055">
				<ele>2851.000000</ele>
				<time>2024-04-10T04:24:23Z</time>
			</trkpt>
			<trkpt lat="33.254929" lon="103.817184">
				<ele>2846.000000</ele>
				<time>2024-04-10T04:24:23Z</time>
			</trkpt>
			<trkpt lat="33.254883" lon="103.817337">
				<ele>2846.000000</ele>
				<time>2024-04-10T04:24:23Z</time>
			</trkpt>
			<trkpt lat="33.254848" lon="103.817497">
				<ele>2857.000000</ele>
				<time>2024-04-10T04:24:23Z</time>
			</trkpt>
			<trkpt lat="33.254814" lon="103.817627">
				<ele>2857.000000</ele>
				<time>2024-04-10T04:24:23Z</time>
			</trkpt>
			<trkpt lat="33.254772" lon="103.817741">
				<ele>2865.000000</ele>
				<time>2024-04-10T04:24:23Z</time>
			</trkpt>
			<trkpt lat="33.254761" lon="103.817863">
				<ele>2865.000000</ele>
				<time>2024-04-10T04:24:23Z</time>
			</trkpt>
			<trkpt lat="33.254826" lon="103.818001">
				<ele>2871.000000</ele>
				<time>2024-04-10T04:24:23Z</time>
			</trkpt>
			<trkpt lat="33.254932" lon="103.818130">
				<ele>2859.000000</ele>
				<time>2024-04-10T04:24:23Z</time>
			</trkpt>
			<trkpt lat="33.255054" lon="103.818237">
				<ele>2855.000000</ele>
				<time>2024-04-10T04:24:23Z</time>
			</trkpt>
			<trkpt lat="33.255165" lon="103.818321">
				<ele>2854.000000</ele>
				<time>2024-04-10T04:24:23Z</time>
			</trkpt>
			<trkpt lat="33.255272" lon="103.818413">
				<ele>2854.000000</ele>
				<time>2024-04-10T04:24:23Z</time>
			</trkpt>
			<trkpt lat="33.255379" lon="103.818481">
				<ele>2850.000000</ele>
				<time>2024-04-10T04:24:23Z</time>
			</trkpt>
			<trkpt lat="33.255447" lon="103.818634">
				<ele>2842.000000</ele>
				<time>2024-04-10T04:24:23Z</time>
			</trkpt>
			<trkpt lat="33.255390" lon="103.818771">
				<ele>2845.000000</ele>
				<time>2024-04-10T04:24:23Z</time>
			</trkpt>
			<trkpt lat="33.255264" lon="103.818878">
				<ele>2845.000000</ele>
				<time>2024-04-10T04:24:23Z</time>
			</trkpt>
			<trkpt lat="33.255127" lon="103.818939">
				<ele>2851.000000</ele>
				<time>2024-04-10T04:24:23Z</time>
			</trkpt>
			<trkpt lat="33.255013" lon="103.819000">
				<ele>2851.000000</ele>
				<time>2024-04-10T04:24:23Z</time>
			</trkpt>
			<trkpt lat="33.254898" lon="103.819046">
				<ele>2843.000000</ele>
				<time>2024-04-10T04:24:23Z</time>
			</trkpt>
			<trkpt lat="33.254768" lon="103.819092">
				<ele>2852.000000</ele>
				<time>2024-04-10T04:24:23Z</time>
			</trkpt>
			<trkpt lat="33.254639" lon="103.819168">
				<ele>2852.000000</ele>
				<time>2024-04-10T04:24:23Z</time>
			</trkpt>
			<trkpt lat="33.254517" lon="103.819252">
				<ele>2860.000000</ele>
				<time>2024-04-10T04:24:23Z</time>
			</trkpt>
			<trkpt lat="33.254406" lon="103.819336">
				<ele>2855.000000</ele>
				<time>2024-04-10T04:24:23Z</time>
			</trkpt>
			<trkpt lat="33.254299" lon="103.819405">
				<ele>2860.000000</ele>
				<time>2024-04-10T04:24:23Z</time>
			</trkpt>
			<trkpt lat="33.254204" lon="103.819458">
				<ele>2860.000000</ele>
				<time>2024-04-10T04:24:23Z</time>
			</trkpt>
			<trkpt lat="33.254066" lon="103.819420">
				<ele>2860.000000</ele>
				<time>2024-04-10T04:24:23Z</time>
			</trkpt>
			<trkpt lat="33.254040" lon="103.819283">
				<ele>2866.000000</ele>
				<time>2024-04-10T04:24:23Z</time>
			</trkpt>
			<trkpt lat="33.254108" lon="103.819145">
				<ele>2866.000000</ele>
				<time>2024-04-10T04:24:23Z</time>
			</trkpt>
			<trkpt lat="33.254230" lon="103.819023">
				<ele>2876.000000</ele>
				<time>2024-04-10T04:24:23Z</time>
			</trkpt>
			<trkpt lat="33.254333" lon="103.818886">
				<ele>2865.000000</ele>
				<time>2024-04-10T04:24:23Z</time>
			</trkpt>
			<trkpt lat="33.254398" lon="103.818733">
				<ele>2869.000000</ele>
				<time>2024-04-10T04:24:23Z</time>
			</trkpt>
			<trkpt lat="33.254444" lon="103.818588">
				<ele>2869.000000</ele>
				<time>2024-04-10T04:24:23Z</time>
			</trkpt>
			<trkpt lat="33.254478" lon="103.818466">
				<ele>2874.000000</ele>
				<time>2024-04-10T04:24:23Z</time>
			</trkpt>
			<trkpt lat="33.254490" lon="103.818344">
				<ele>2874.000000</ele>
				<time>2024-04-10T04:24:23Z</time>
			</trkpt>
			<trkpt lat="33.254459" lon="103.818222">
				<ele>2874.000000</ele>
				<time>2024-04-10T04:24:23Z</time>
			</trkpt>
			<trkpt lat="33.254398" lon="103.818108">
				<ele>2876.000000</ele>
				<time>2024-04-10T04:24:23Z</time>
			</trkpt>
			<trkpt lat="33.254314" lon="103.818001">
				<ele>2876.000000</ele>
				<time>2024-04-10T04:24:23Z</time>
			</trkpt>
			<trkpt lat="33.254238" lon="103.817894">
				<ele>2876.000000</ele>
				<time>2024-04-10T04:24:23Z</time>
			</trkpt>
			<trkpt lat="33.254173" lon="103.817772">
				<ele>2876.000000</ele>
				<time>2024-04-10T04:24:23Z</time>
			</trkpt>
			<trkpt lat="33.254128" lon="103.817642">
				<ele>2876.000000</ele>
				<time>2024-04-10T04:24:23Z</time>
			</trkpt>
			<trkpt lat="33.254074" lon="103.817535">
				<ele>2873.000000</ele>
				<time>2024-04-10T04:24:23Z</time>
			</trkpt>
			<trkpt lat="33.253990" lon="103.817467">
				<ele>2878.000000</ele>
				<time>2024-04-10T04:24:23Z</time>
			</trkpt>
			<trkpt lat="33.253876" lon="103.817444">
				<ele>2878.000000</ele>
				<time>2024-04-10T04:24:23Z</time>
			</trkpt>
			<trkpt lat="33.253742" lon="103.817451">
				<ele>2880.000000</ele>
				<time>2024-04-10T04:24:23Z</time>
			</trkpt>
			<trkpt lat="33.253624" lon="103.817474">
				<ele>2880.000000</ele>
				<time>2024-04-10T04:24:23Z</time>
			</trkpt>
			<trkpt lat="33.253525" lon="103.817513">
				<ele>2880.000000</ele>
				<time>2024-04-10T04:24:23Z</time>
			</trkpt>
			<trkpt lat="33.253407" lon="103.817551">
				<ele>2884.000000</ele>
				<time>2024-04-10T04:24:23Z</time>
			</trkpt>
			<trkpt lat="33.253277" lon="103.817612">
				<ele>2884.000000</ele>
				<time>2024-04-10T04:24:23Z</time>
			</trkpt>
			<trkpt lat="33.253174" lon="103.817680">
				<ele>2886.000000</ele>
				<time>2024-04-10T04:24:23Z</time>
			</trkpt>
			<trkpt lat="33.253082" lon="103.817757">
				<ele>2886.000000</ele>
				<time>2024-04-10T04:24:23Z</time>
			</trkpt>
			<trkpt lat="33.253014" lon="103.817856">
				<ele>2886.000000</ele>
				<time>2024-04-10T04:24:23Z</time>
			</trkpt>
			<trkpt lat="33.252964" lon="103.817978">
				<ele>2887.000000</ele>
				<time>2024-04-10T04:24:23Z</time>
			</trkpt>
			<trkpt lat="33.252926" lon="103.818115">
				<ele>2887.000000</ele>
				<time>2024-04-10T04:24:23Z</time>
			</trkpt>
			<trkpt lat="33.252884" lon="103.818253">
				<ele>2886.000000</ele>
				<time>2024-04-10T04:24:23Z</time>
			</trkpt>
			<trkpt lat="33.252838" lon="103.818367">
				<ele>2886.000000</ele>
				<time>2024-04-10T04:24:23Z</time>
			</trkpt>
			<trkpt lat="33.253067" lon="103.818802">
				<ele>2892.000000</ele>
				<time>2024-04-10T04:24:23Z</time>
			</trkpt>
			<trkpt lat="33.253113" lon="103.819054">
				<ele>2885.000000</ele>
				<time>2024-04-10T04:24:23Z</time>
			</trkpt>
			<trkpt lat="33.252914" lon="103.819397">
				<ele>2893.000000</ele>
				<time>2024-04-10T04:24:23Z</time>
			</trkpt>
			<trkpt lat="33.252781" lon="103.819458">
				<ele>2893.000000</ele>
				<time>2024-04-10T04:24:23Z</time>
			</trkpt>
			<trkpt lat="33.252274" lon="103.819878">
				<ele>2893.000000</ele>
				<time>2024-04-10T04:24:23Z</time>
			</trkpt>
			<trkpt lat="33.251762" lon="103.820366">
				<ele>2899.000000</ele>
				<time>2024-04-10T04:24:23Z</time>
			</trkpt>
			<trkpt lat="33.251583" lon="103.820541">
				<ele>2896.000000</ele>
				<time>2024-04-10T04:24:23Z</time>
			</trkpt>
			<trkpt lat="33.251423" lon="103.820793">
				<ele>2901.000000</ele>
				<time>2024-04-10T04:24:23Z</time>
			</trkpt>
			<trkpt lat="33.251007" lon="103.821594">
				<ele>2910.000000</ele>
				<time>2024-04-10T04:24:23Z</time>
			</trkpt>
			<trkpt lat="33.250999" lon="103.821945">
				<ele>2914.000000</ele>
				<time>2024-04-10T04:24:23Z</time>
			</trkpt>
			<trkpt lat="33.251072" lon="103.822243">
				<ele>2912.000000</ele>
				<time>2024-04-10T04:24:23Z</time>
			</trkpt>
			<trkpt lat="33.251091" lon="103.822556">
				<ele>2909.000000</ele>
				<time>2024-04-10T04:24:23Z</time>
			</trkpt>
			<trkpt lat="33.250629" lon="103.823044">
				<ele>2912.000000</ele>
				<time>2024-04-10T04:24:23Z</time>
			</trkpt>
			<trkpt lat="33.250080" lon="103.823494">
				<ele>2923.000000</ele>
				<time>2024-04-10T04:24:23Z</time>
			</trkpt>
			<trkpt lat="33.249828" lon="103.823891">
				<ele>2934.000000</ele>
				<time>2024-04-10T04:24:23Z</time>
			</trkpt>
			<trkpt lat="33.249863" lon="103.824707">
				<ele>2930.000000</ele>
				<time>2024-04-10T04:24:23Z</time>
			</trkpt>
			<trkpt lat="33.249897" lon="103.824982">
				<ele>2933.000000</ele>
				<time>2024-04-10T04:24:23Z</time>
			</trkpt>
			<trkpt lat="33.250126" lon="103.825203">
				<ele>2936.000000</ele>
				<time>2024-04-10T04:24:23Z</time>
			</trkpt>
			<trkpt lat="33.250233" lon="103.825264">
				<ele>2933.000000</ele>
				<time>2024-04-10T04:24:23Z</time>
			</trkpt>
			<trkpt lat="33.250263" lon="103.825333">
				<ele>2933.000000</ele>
				<time>2024-04-10T04:24:23Z</time>
			</trkpt>
			<trkpt lat="33.250244" lon="103.825455">
				<ele>2936.000000</ele>
				<time>2024-04-10T04:24:23Z</time>
			</trkpt>
			<trkpt lat="33.249935" lon="103.825539">
				<ele>2937.000000</ele>
				<time>2024-04-10T04:24:23Z</time>
			</trkpt>
			<trkpt lat="33.248989" lon="103.826027">
				<ele>2964.000000</ele>
				<time>2024-04-10T04:24:23Z</time>
			</trkpt>
			<trkpt lat="33.247845" lon="103.826149">
				<ele>2989.000000</ele>
				<time>2024-04-10T04:24:23Z</time>
			</trkpt>
			<trkpt lat="33.247700" lon="103.826012">
				<ele>2989.000000</ele>
				<time>2024-04-10T04:24:23Z</time>
			</trkpt>
			<trkpt lat="33.247734" lon="103.825890">
				<ele>2992.000000</ele>
				<time>2024-04-10T04:24:23Z</time>
			</trkpt>
			<trkpt lat="33.247746" lon="103.825661">
				<ele>2996.000000</ele>
				<time>2024-04-10T04:24:23Z</time>
			</trkpt>
			<trkpt lat="33.247696" lon="103.825523">
				<ele>2996.000000</ele>
				<time>2024-04-10T04:24:23Z</time>
			</trkpt>
			<trkpt lat="33.247738" lon="103.825073">
				<ele>3004.000000</ele>
				<time>2024-04-10T04:24:23Z</time>
			</trkpt>
			<trkpt lat="33.247787" lon="103.824646">
				<ele>3000.000000</ele>
				<time>2024-04-10T04:24:23Z</time>
			</trkpt>
			<trkpt lat="33.247787" lon="103.824646">
				<ele>3000.000000</ele>
				<time>2024-04-10T04:24:23Z</time>
			</trkpt>
			<trkpt lat="33.247734" lon="103.824554">
				<ele>2998.000000</ele>
				<time>2024-04-10T04:24:23Z</time>
			</trkpt>
			<trkpt lat="33.247684" lon="103.824463">
				<ele>2998.000000</ele>
				<time>2024-04-10T04:24:23Z</time>
			</trkpt>
			<trkpt lat="33.247623" lon="103.824379">
				<ele>3006.000000</ele>
				<time>2024-04-10T04:24:23Z</time>
			</trkpt>
			<trkpt lat="33.247532" lon="103.824402">
				<ele>3006.000000</ele>
				<time>2024-04-10T04:24:23Z</time>
			</trkpt>
			<trkpt lat="33.247440" lon="103.824417">
				<ele>3006.000000</ele>
				<time>2024-04-10T04:24:23Z</time>
			</trkpt>
			<trkpt lat="33.247364" lon="103.824356">
				<ele>3006.000000</ele>
				<time>2024-04-10T04:24:23Z</time>
			</trkpt>
			<trkpt lat="33.247284" lon="103.824295">
				<ele>3021.000000</ele>
				<time>2024-04-10T04:24:23Z</time>
			</trkpt>
			<trkpt lat="33.247215" lon="103.824226">
				<ele>3021.000000</ele>
				<time>2024-04-10T04:24:23Z</time>
			</trkpt>
			<trkpt lat="33.247139" lon="103.824158">
				<ele>3021.000000</ele>
				<time>2024-04-10T04:24:23Z</time>
			</trkpt>
			<trkpt lat="33.247051" lon="103.824089">
				<ele>3042.000000</ele>
				<time>2024-04-10T04:24:23Z</time>
			</trkpt>
			<trkpt lat="33.247059" lon="103.823959">
				<ele>3047.000000</ele>
				<time>2024-04-10T04:24:23Z</time>
			</trkpt>
			<trkpt lat="33.247116" lon="103.823853">
				<ele>3027.000000</ele>
				<time>2024-04-10T04:24:23Z</time>
			</trkpt>
			<trkpt lat="33.247116" lon="103.823639">
				<ele>3040.000000</ele>
				<time>2024-04-10T04:24:23Z</time>
			</trkpt>
			<trkpt lat="33.247047" lon="103.823540">
				<ele>3048.000000</ele>
				<time>2024-04-10T04:24:23Z</time>
			</trkpt>
			<trkpt lat="33.246944" lon="103.823509">
				<ele>3048.000000</ele>
				<time>2024-04-10T04:24:23Z</time>
			</trkpt>
			<trkpt lat="33.246895" lon="103.823410">
				<ele>3051.000000</ele>
				<time>2024-04-10T04:24:23Z</time>
			</trkpt>
			<trkpt lat="33.246723" lon="103.823303">
				<ele>3054.000000</ele>
				<time>2024-04-10T04:24:23Z</time>
			</trkpt>
			<trkpt lat="33.246666" lon="103.823235">
				<ele>3054.000000</ele>
				<time>2024-04-10T04:24:23Z</time>
			</trkpt>
			<trkpt lat="33.246555" lon="103.823242">
				<ele>3054.000000</ele>
				<time>2024-04-10T04:24:23Z</time>
			</trkpt>
			<trkpt lat="33.246464" lon="103.823227">
				<ele>3053.000000</ele>
				<time>2024-04-10T04:24:23Z</time>
			</trkpt>
			<trkpt lat="33.246376" lon="103.823288">
				<ele>3053.000000</ele>
				<time>2024-04-10T04:24:23Z</time>
			</trkpt>
			<trkpt lat="33.246319" lon="103.823372">
				<ele>3053.000000</ele>
				<time>2024-04-10T04:24:23Z</time>
			</trkpt>
			<trkpt lat="33.246223" lon="103.823387">
				<ele>3058.000000</ele>
				<time>2024-04-10T04:24:23Z</time>
			</trkpt>
			<trkpt lat="33.246174" lon="103.823471">
				<ele>3058.000000</ele>
				<time>2024-04-10T04:24:23Z</time>
			</trkpt>
			<trkpt lat="33.246075" lon="103.823456">
				<ele>3058.000000</ele>
				<time>2024-04-10T04:24:23Z</time>
			</trkpt>
			<trkpt lat="33.245975" lon="103.823479">
				<ele>3061.000000</ele>
				<time>2024-04-10T04:24:23Z</time>
			</trkpt>
			<trkpt lat="33.245907" lon="103.823532">
				<ele>3067.000000</ele>
				<time>2024-04-10T04:24:23Z</time>
			</trkpt>
			<trkpt lat="33.245811" lon="103.823570">
				<ele>3067.000000</ele>
				<time>2024-04-10T04:24:23Z</time>
			</trkpt>
			<trkpt lat="33.245728" lon="103.823616">
				<ele>3067.000000</ele>
				<time>2024-04-10T04:24:23Z</time>
			</trkpt>
			<trkpt lat="33.245514" lon="103.823845">
				<ele>3080.000000</ele>
				<time>2024-04-10T04:24:23Z</time>
			</trkpt>
			<trkpt lat="33.245415" lon="103.823914">
				<ele>3088.000000</ele>
				<time>2024-04-10T04:24:23Z</time>
			</trkpt>
			<trkpt lat="33.245277" lon="103.824005">
				<ele>3088.000000</ele>
				<time>2024-04-10T04:24:23Z</time>
			</trkpt>
			<trkpt lat="33.245197" lon="103.824089">
				<ele>3085.000000</ele>
				<time>2024-04-10T04:24:23Z</time>
			</trkpt>
			<trkpt lat="33.245110" lon="103.824120">
				<ele>3096.000000</ele>
				<time>2024-04-10T04:24:23Z</time>
			</trkpt>
			<trkpt lat="33.245026" lon="103.824173">
				<ele>3096.000000</ele>
				<time>2024-04-10T04:24:23Z</time>
			</trkpt>
			<trkpt lat="33.244949" lon="103.824226">
				<ele>3096.000000</ele>
				<time>2024-04-10T04:24:23Z</time>
			</trkpt>
			<trkpt lat="33.244854" lon="103.824257">
				<ele>3104.000000</ele>
				<time>2024-04-10T04:24:23Z</time>
			</trkpt>
			<trkpt lat="33.244770" lon="103.824310">
				<ele>3102.000000</ele>
				<time>2024-04-10T04:24:23Z</time>
			</trkpt>
			<trkpt lat="33.244678" lon="103.824303">
				<ele>3104.000000</ele>
				<time>2024-04-10T04:24:23Z</time>
			</trkpt>
			<trkpt lat="33.244579" lon="103.824310">
				<ele>3099.000000</ele>
				<time>2024-04-10T04:24:23Z</time>
			</trkpt>
			<trkpt lat="33.244503" lon="103.824371">
				<ele>3099.000000</ele>
				<time>2024-04-10T04:24:23Z</time>
			</trkpt>
			<trkpt lat="33.244411" lon="103.824432">
				<ele>3099.000000</ele>
				<time>2024-04-10T04:24:23Z</time>
			</trkpt>
			<trkpt lat="33.244331" lon="103.824493">
				<ele>3099.000000</ele>
				<time>2024-04-10T04:24:23Z</time>
			</trkpt>
			<trkpt lat="33.244263" lon="103.824570">
				<ele>3105.000000</ele>
				<time>2024-04-10T04:24:23Z</time>
			</trkpt>
			<trkpt lat="33.244175" lon="103.824608">
				<ele>3102.000000</ele>
				<time>2024-04-10T04:24:23Z</time>
			</trkpt>
			<trkpt lat="33.244083" lon="103.824615">
				<ele>3102.000000</ele>
				<time>2024-04-10T04:24:23Z</time>
			</trkpt>
			<trkpt lat="33.243988" lon="103.824646">
				<ele>3105.000000</ele>
				<time>2024-04-10T04:24:23Z</time>
			</trkpt>
			<trkpt lat="33.243896" lon="103.824669">
				<ele>3105.000000</ele>
				<time>2024-04-10T04:24:23Z</time>
			</trkpt>
			<trkpt lat="33.243801" lon="103.824692">
				<ele>3105.000000</ele>
				<time>2024-04-10T04:24:23Z</time>
			</trkpt>
			<trkpt lat="33.243702" lon="103.824715">
				<ele>3107.000000</ele>
				<time>2024-04-10T04:24:23Z</time>
			</trkpt>
			<trkpt lat="33.243603" lon="103.824730">
				<ele>3107.000000</ele>
				<time>2024-04-10T04:24:23Z</time>
			</trkpt>
			<trkpt lat="33.243511" lon="103.824745">
				<ele>3107.000000</ele>
				<time>2024-04-10T04:24:23Z</time>
			</trkpt>
			<trkpt lat="33.243416" lon="103.824760">
				<ele>3104.000000</ele>
				<time>2024-04-10T04:24:23Z</time>
			</trkpt>
			<trkpt lat="33.243324" lon="103.824799">
				<ele>3104.000000</ele>
				<time>2024-04-10T04:24:23Z</time>
			</trkpt>
			<trkpt lat="33.243233" lon="103.824844">
				<ele>3104.000000</ele>
				<time>2024-04-10T04:24:23Z</time>
			</trkpt>
			<trkpt lat="33.243141" lon="103.824883">
				<ele>3109.000000</ele>
				<time>2024-04-10T04:24:23Z</time>
			</trkpt>
			<trkpt lat="33.243046" lon="103.824913">
				<ele>3109.000000</ele>
				<time>2024-04-10T04:24:23Z</time>
			</trkpt>
			<trkpt lat="33.242954" lon="103.824936">
				<ele>3109.000000</ele>
				<time>2024-04-10T04:24:23Z</time>
			</trkpt>
			<trkpt lat="33.242870" lon="103.824982">
				<ele>3113.000000</ele>
				<time>2024-04-10T04:24:23Z</time>
			</trkpt>
			<trkpt lat="33.242783" lon="103.825020">
				<ele>3113.000000</ele>
				<time>2024-04-10T04:24:23Z</time>
			</trkpt>
			<trkpt lat="33.242695" lon="103.825058">
				<ele>3113.000000</ele>
				<time>2024-04-10T04:24:23Z</time>
			</trkpt>
			<trkpt lat="33.242611" lon="103.825104">
				<ele>3122.000000</ele>
				<time>2024-04-10T04:24:23Z</time>
			</trkpt>
			<trkpt lat="33.242538" lon="103.825172">
				<ele>3119.000000</ele>
				<time>2024-04-10T04:24:23Z</time>
			</trkpt>
			<trkpt lat="33.242443" lon="103.825188">
				<ele>3119.000000</ele>
				<time>2024-04-10T04:24:23Z</time>
			</trkpt>
			<trkpt lat="33.242352" lon="103.825195">
				<ele>3122.000000</ele>
				<time>2024-04-10T04:24:23Z</time>
			</trkpt>
			<trkpt lat="33.242268" lon="103.825241">
				<ele>3122.000000</ele>
				<time>2024-04-10T04:24:23Z</time>
			</trkpt>
			<trkpt lat="33.242191" lon="103.825302">
				<ele>3122.000000</ele>
				<time>2024-04-10T04:24:23Z</time>
			</trkpt>
			<trkpt lat="33.242180" lon="103.825409">
				<ele>3122.000000</ele>
				<time>2024-04-10T04:24:23Z</time>
			</trkpt>
			<trkpt lat="33.242146" lon="103.825523">
				<ele>3126.000000</ele>
				<time>2024-04-10T04:24:23Z</time>
			</trkpt>
			<trkpt lat="33.242077" lon="103.825600">
				<ele>3133.000000</ele>
				<time>2024-04-10T04:24:23Z</time>
			</trkpt>
			<trkpt lat="33.242004" lon="103.825676">
				<ele>3133.000000</ele>
				<time>2024-04-10T04:24:23Z</time>
			</trkpt>
			<trkpt lat="33.241917" lon="103.825714">
				<ele>3139.000000</ele>
				<time>2024-04-10T04:24:23Z</time>
			</trkpt>
			<trkpt lat="33.241825" lon="103.825745">
				<ele>3139.000000</ele>
				<time>2024-04-10T04:24:23Z</time>
			</trkpt>
			<trkpt lat="33.241741" lon="103.825798">
				<ele>3144.000000</ele>
				<time>2024-04-10T04:24:23Z</time>
			</trkpt>
			<trkpt lat="33.241653" lon="103.825813">
				<ele>3144.000000</ele>
				<time>2024-04-10T04:24:23Z</time>
			</trkpt>
			<trkpt lat="33.241554" lon="103.825844">
				<ele>3144.000000</ele>
				<time>2024-04-10T04:24:23Z</time>
			</trkpt>
			<trkpt lat="33.241470" lon="103.825890">
				<ele>3149.000000</ele>
				<time>2024-04-10T04:24:23Z</time>
			</trkpt>
			<trkpt lat="33.241383" lon="103.825935">
				<ele>3149.000000</ele>
				<time>2024-04-10T04:24:23Z</time>
			</trkpt>
			<trkpt lat="33.241287" lon="103.825958">
				<ele>3149.000000</ele>
				<time>2024-04-10T04:24:23Z</time>
			</trkpt>
			<trkpt lat="33.241196" lon="103.825996">
				<ele>3155.000000</ele>
				<time>2024-04-10T04:24:23Z</time>
			</trkpt>
			<trkpt lat="33.241104" lon="103.826035">
				<ele>3155.000000</ele>
				<time>2024-04-10T04:24:23Z</time>
			</trkpt>
			<trkpt lat="33.241020" lon="103.826080">
				<ele>3155.000000</ele>
				<time>2024-04-10T04:24:23Z</time>
			</trkpt>
			<trkpt lat="33.240932" lon="103.826111">
				<ele>3154.000000</ele>
				<time>2024-04-10T04:24:23Z</time>
			</trkpt>
			<trkpt lat="33.240849" lon="103.826157">
				<ele>3154.000000</ele>
				<time>2024-04-10T04:24:23Z</time>
			</trkpt>
			<trkpt lat="33.240761" lon="103.826195">
				<ele>3154.000000</ele>
				<time>2024-04-10T04:24:23Z</time>
			</trkpt>
			<trkpt lat="33.240669" lon="103.826202">
				<ele>3163.000000</ele>
				<time>2024-04-10T04:24:23Z</time>
			</trkpt>
			<trkpt lat="33.240574" lon="103.826225">
				<ele>3163.000000</ele>
				<time>2024-04-10T04:24:23Z</time>
			</trkpt>
			<trkpt lat="33.240486" lon="103.826271">
				<ele>3167.000000</ele>
				<time>2024-04-10T04:24:23Z</time>
			</trkpt>
			<trkpt lat="33.240398" lon="103.826309">
				<ele>3173.000000</ele>
				<time>2024-04-10T04:24:23Z</time>
			</trkpt>
			<trkpt lat="33.240299" lon="103.826286">
				<ele>3173.000000</ele>
				<time>2024-04-10T04:24:23Z</time>
			</trkpt>
			<trkpt lat="33.240204" lon="103.826309">
				<ele>3173.000000</ele>
				<time>2024-04-10T04:24:23Z</time>
			</trkpt>
			<trkpt lat="33.240112" lon="103.826332">
				<ele>3179.000000</ele>
				<time>2024-04-10T04:24:23Z</time>
			</trkpt>
			<trkpt lat="33.240021" lon="103.826317">
				<ele>3179.000000</ele>
				<time>2024-04-10T04:24:23Z</time>
			</trkpt>
			<trkpt lat="33.239925" lon="103.826324">
				<ele>3179.000000</ele>
				<time>2024-04-10T04:24:23Z</time>
			</trkpt>
			<trkpt lat="33.239834" lon="103.826332">
				<ele>3183.000000</ele>
				<time>2024-04-10T04:24:23Z</time>
			</trkpt>
			<trkpt lat="33.239746" lon="103.826279">
				<ele>3183.000000</ele>
				<time>2024-04-10T04:24:23Z</time>
			</trkpt>
			<trkpt lat="33.239651" lon="103.826271">
				<ele>3183.000000</ele>
				<time>2024-04-10T04:24:23Z</time>
			</trkpt>
			<trkpt lat="33.239559" lon="103.826256">
				<ele>3199.000000</ele>
				<time>2024-04-10T04:24:23Z</time>
			</trkpt>
			<trkpt lat="33.239475" lon="103.826218">
				<ele>3186.000000</ele>
				<time>2024-04-10T04:24:23Z</time>
			</trkpt>
			<trkpt lat="33.239372" lon="103.826241">
				<ele>3186.000000</ele>
				<time>2024-04-10T04:24:23Z</time>
			</trkpt>
			<trkpt lat="33.239288" lon="103.826294">
				<ele>3210.000000</ele>
				<time>2024-04-10T04:24:23Z</time>
			</trkpt>
			<trkpt lat="33.239201" lon="103.826324">
				<ele>3210.000000</ele>
				<time>2024-04-10T04:24:23Z</time>
			</trkpt>
			<trkpt lat="33.239113" lon="103.826363">
				<ele>3210.000000</ele>
				<time>2024-04-10T04:24:23Z</time>
			</trkpt>
			<trkpt lat="33.239033" lon="103.826408">
				<ele>3210.000000</ele>
				<time>2024-04-10T04:24:23Z</time>
			</trkpt>
			<trkpt lat="33.238937" lon="103.826424">
				<ele>3208.000000</ele>
				<time>2024-04-10T04:24:23Z</time>
			</trkpt>
			<trkpt lat="33.238853" lon="103.826469">
				<ele>3208.000000</ele>
				<time>2024-04-10T04:24:23Z</time>
			</trkpt>
			<trkpt lat="33.238762" lon="103.826492">
				<ele>3208.000000</ele>
				<time>2024-04-10T04:24:23Z</time>
			</trkpt>
			<trkpt lat="33.238674" lon="103.826546">
				<ele>3208.000000</ele>
				<time>2024-04-10T04:24:23Z</time>
			</trkpt>
			<trkpt lat="33.238594" lon="103.826599">
				<ele>3208.000000</ele>
				<time>2024-04-10T04:24:23Z</time>
			</trkpt>
			<trkpt lat="33.238503" lon="103.826614">
				<ele>3208.000000</ele>
				<time>2024-04-10T04:24:23Z</time>
			</trkpt>
			<trkpt lat="33.238407" lon="103.826584">
				<ele>3214.000000</ele>
				<time>2024-04-10T04:24:23Z</time>
			</trkpt>
			<trkpt lat="33.238316" lon="103.826599">
				<ele>3214.000000</ele>
				<time>2024-04-10T04:24:23Z</time>
			</trkpt>
			<trkpt lat="33.238235" lon="103.826660">
				<ele>3214.000000</ele>
				<time>2024-04-10T04:24:23Z</time>
			</trkpt>
			<trkpt lat="33.238197" lon="103.826767">
				<ele>3214.000000</ele>
				<time>2024-04-10T04:24:23Z</time>
			</trkpt>
			<trkpt lat="33.238163" lon="103.826866">
				<ele>3229.000000</ele>
				<time>2024-04-10T04:24:23Z</time>
			</trkpt>
			<trkpt lat="33.238094" lon="103.826942">
				<ele>3229.000000</ele>
				<time>2024-04-10T04:24:23Z</time>
			</trkpt>
			<trkpt lat="33.238029" lon="103.827026">
				<ele>3229.000000</ele>
				<time>2024-04-10T04:24:23Z</time>
			</trkpt>
			<trkpt lat="33.237942" lon="103.827049">
				<ele>3229.000000</ele>
				<time>2024-04-10T04:24:23Z</time>
			</trkpt>
			<trkpt lat="33.237854" lon="103.827087">
				<ele>3231.000000</ele>
				<time>2024-04-10T04:24:23Z</time>
			</trkpt>
			<trkpt lat="33.237766" lon="103.827133">
				<ele>3231.000000</ele>
				<time>2024-04-10T04:24:23Z</time>
			</trkpt>
			<trkpt lat="33.237679" lon="103.827141">
				<ele>3231.000000</ele>
				<time>2024-04-10T04:24:23Z</time>
			</trkpt>
			<trkpt lat="33.237583" lon="103.827110">
				<ele>3237.000000</ele>
				<time>2024-04-10T04:24:23Z</time>
			</trkpt>
			<trkpt lat="33.237495" lon="103.827118">
				<ele>3237.000000</ele>
				<time>2024-04-10T04:24:23Z</time>
			</trkpt>
			<trkpt lat="33.237404" lon="103.827141">
				<ele>3237.000000</ele>
				<time>2024-04-10T04:24:23Z</time>
			</trkpt>
			<trkpt lat="33.237312" lon="103.827171">
				<ele>3247.000000</ele>
				<time>2024-04-10T04:24:23Z</time>
			</trkpt>
			<trkpt lat="33.237236" lon="103.827232">
				<ele>3247.000000</ele>
				<time>2024-04-10T04:24:23Z</time>
			</trkpt>
			<trkpt lat="33.237160" lon="103.827293">
				<ele>3247.000000</ele>
				<time>2024-04-10T04:24:23Z</time>
			</trkpt>
			<trkpt lat="33.237095" lon="103.827370">
				<ele>3247.000000</ele>
				<time>2024-04-10T04:24:23Z</time>
			</trkpt>
			<trkpt lat="33.237007" lon="103.827408">
				<ele>3257.000000</ele>
				<time>2024-04-10T04:24:23Z</time>
			</trkpt>
			<trkpt lat="33.236927" lon="103.827454">
				<ele>3257.000000</ele>
				<time>2024-04-10T04:24:23Z</time>
			</trkpt>
			<trkpt lat="33.236835" lon="103.827492">
				<ele>3257.000000</ele>
				<time>2024-04-10T04:24:23Z</time>
			</trkpt>
			<trkpt lat="33.236740" lon="103.827515">
				<ele>3263.000000</ele>
				<time>2024-04-10T04:24:23Z</time>
			</trkpt>
			<trkpt lat="33.236645" lon="103.827522">
				<ele>3263.000000</ele>
				<time>2024-04-10T04:24:23Z</time>
			</trkpt>
			<trkpt lat="33.236549" lon="103.827522">
				<ele>3263.000000</ele>
				<time>2024-04-10T04:24:23Z</time>
			</trkpt>
			<trkpt lat="33.236458" lon="103.827515">
				<ele>3258.000000</ele>
				<time>2024-04-10T04:24:23Z</time>
			</trkpt>
			<trkpt lat="33.236366" lon="103.827484">
				<ele>3258.000000</ele>
				<time>2024-04-10T04:24:23Z</time>
			</trkpt>
			<trkpt lat="33.236271" lon="103.827477">
				<ele>3258.000000</ele>
				<time>2024-04-10T04:24:23Z</time>
			</trkpt>
			<trkpt lat="33.236176" lon="103.827438">
				<ele>3261.000000</ele>
				<time>2024-04-10T04:24:23Z</time>
			</trkpt>
			<trkpt lat="33.236080" lon="103.827438">
				<ele>3261.000000</ele>
				<time>2024-04-10T04:24:23Z</time>
			</trkpt>
			<trkpt lat="33.235985" lon="103.827438">
				<ele>3261.000000</ele>
				<time>2024-04-10T04:24:23Z</time>
			</trkpt>
			<trkpt lat="33.235901" lon="103.827477">
				<ele>3270.000000</ele>
				<time>2024-04-10T04:24:23Z</time>
			</trkpt>
			<trkpt lat="33.235809" lon="103.827553">
				<ele>3270.000000</ele>
				<time>2024-04-10T04:24:23Z</time>
			</trkpt>
			<trkpt lat="33.235718" lon="103.827576">
				<ele>3270.000000</ele>
				<time>2024-04-10T04:24:23Z</time>
			</trkpt>
			<trkpt lat="33.235641" lon="103.827652">
				<ele>3268.000000</ele>
				<time>2024-04-10T04:24:23Z</time>
			</trkpt>
			<trkpt lat="33.235550" lon="103.827621">
				<ele>3263.000000</ele>
				<time>2024-04-10T04:24:23Z</time>
			</trkpt>
			<trkpt lat="33.235462" lon="103.827675">
				<ele>3268.000000</ele>
				<time>2024-04-10T04:24:23Z</time>
			</trkpt>
			<trkpt lat="33.235371" lon="103.827690">
				<ele>3279.000000</ele>
				<time>2024-04-10T04:24:23Z</time>
			</trkpt>
			<trkpt lat="33.235283" lon="103.827744">
				<ele>3279.000000</ele>
				<time>2024-04-10T04:24:23Z</time>
			</trkpt>
			<trkpt lat="33.235229" lon="103.827827">
				<ele>3279.000000</ele>
				<time>2024-04-10T04:24:23Z</time>
			</trkpt>
			<trkpt lat="33.235161" lon="103.827904">
				<ele>3279.000000</ele>
				<time>2024-04-10T04:24:23Z</time>
			</trkpt>
			<trkpt lat="33.235069" lon="103.827888">
				<ele>3286.000000</ele>
				<time>2024-04-10T04:24:23Z</time>
			</trkpt>
			<trkpt lat="33.234982" lon="103.827896">
				<ele>3286.000000</ele>
				<time>2024-04-10T04:24:23Z</time>
			</trkpt>
			<trkpt lat="33.234890" lon="103.827927">
				<ele>3287.000000</ele>
				<time>2024-04-10T04:24:23Z</time>
			</trkpt>
			<trkpt lat="33.234802" lon="103.827888">
				<ele>3295.000000</ele>
				<time>2024-04-10T04:24:23Z</time>
			</trkpt>
			<trkpt lat="33.234722" lon="103.827934">
				<ele>3290.000000</ele>
				<time>2024-04-10T04:24:23Z</time>
			</trkpt>
			<trkpt lat="33.234642" lon="103.827995">
				<ele>3290.000000</ele>
				<time>2024-04-10T04:24:23Z</time>
			</trkpt>
			<trkpt lat="33.234558" lon="103.828049">
				<ele>3294.000000</ele>
				<time>2024-04-10T04:24:23Z</time>
			</trkpt>
			<trkpt lat="33.234478" lon="103.828110">
				<ele>3294.000000</ele>
				<time>2024-04-10T04:24:23Z</time>
			</trkpt>
			<trkpt lat="33.234383" lon="103.828094">
				<ele>3294.000000</ele>
				<time>2024-04-10T04:24:23Z</time>
			</trkpt>
			<trkpt lat="33.234303" lon="103.828156">
				<ele>3309.000000</ele>
				<time>2024-04-10T04:24:23Z</time>
			</trkpt>
			<trkpt lat="33.234207" lon="103.828140">
				<ele>3309.000000</ele>
				<time>2024-04-10T04:24:23Z</time>
			</trkpt>
			<trkpt lat="33.234119" lon="103.828178">
				<ele>3309.000000</ele>
				<time>2024-04-10T04:24:23Z</time>
			</trkpt>
			<trkpt lat="33.234055" lon="103.828102">
				<ele>3309.000000</ele>
				<time>2024-04-10T04:24:23Z</time>
			</trkpt>
			<trkpt lat="33.233963" lon="103.828117">
				<ele>3328.000000</ele>
				<time>2024-04-10T04:24:23Z</time>
			</trkpt>
			<trkpt lat="33.233875" lon="103.828163">
				<ele>3328.000000</ele>
				<time>2024-04-10T04:24:23Z</time>
			</trkpt>
			<trkpt lat="33.233795" lon="103.828224">
				<ele>3319.000000</ele>
				<time>2024-04-10T04:24:23Z</time>
			</trkpt>
			<trkpt lat="33.233704" lon="103.828247">
				<ele>3332.000000</ele>
				<time>2024-04-10T04:24:23Z</time>
			</trkpt>
			<trkpt lat="33.233608" lon="103.828239">
				<ele>3332.000000</ele>
				<time>2024-04-10T04:24:23Z</time>
			</trkpt>
			<trkpt lat="33.233528" lon="103.828300">
				<ele>3332.000000</ele>
				<time>2024-04-10T04:24:23Z</time>
			</trkpt>
			<trkpt lat="33.233440" lon="103.828308">
				<ele>3347.000000</ele>
				<time>2024-04-10T04:24:23Z</time>
			</trkpt>
			<trkpt lat="33.233387" lon="103.828407">
				<ele>3347.000000</ele>
				<time>2024-04-10T04:24:23Z</time>
			</trkpt>
			<trkpt lat="33.233295" lon="103.828438">
				<ele>3347.000000</ele>
				<time>2024-04-10T04:24:23Z</time>
			</trkpt>
			<trkpt lat="33.233215" lon="103.828491">
				<ele>3339.000000</ele>
				<time>2024-04-10T04:24:23Z</time>
			</trkpt>
			<trkpt lat="33.233131" lon="103.828537">
				<ele>3352.000000</ele>
				<time>2024-04-10T04:24:23Z</time>
			</trkpt>
			<trkpt lat="33.233089" lon="103.828636">
				<ele>3352.000000</ele>
				<time>2024-04-10T04:24:23Z</time>
			</trkpt>
			<trkpt lat="33.233006" lon="103.828674">
				<ele>3352.000000</ele>
				<time>2024-04-10T04:24:23Z</time>
			</trkpt>
			<trkpt lat="33.232937" lon="103.828758">
				<ele>3350.000000</ele>
				<time>2024-04-10T04:24:23Z</time>
			</trkpt>
			<trkpt lat="33.232872" lon="103.828835">
				<ele>3365.000000</ele>
				<time>2024-04-10T04:24:23Z</time>
			</trkpt>
			<trkpt lat="33.232857" lon="103.828941">
				<ele>3365.000000</ele>
				<time>2024-04-10T04:24:23Z</time>
			</trkpt>
			<trkpt lat="33.232765" lon="103.828987">
				<ele>3365.000000</ele>
				<time>2024-04-10T04:24:23Z</time>
			</trkpt>
			<trkpt lat="33.232704" lon="103.829063">
				<ele>3371.000000</ele>
				<time>2024-04-10T04:24:23Z</time>
			</trkpt>
			<trkpt lat="33.232624" lon="103.829117">
				<ele>3392.000000</ele>
				<time>2024-04-10T04:24:23Z</time>
			</trkpt>
			<trkpt lat="33.232574" lon="103.829216">
				<ele>3392.000000</ele>
				<time>2024-04-10T04:24:23Z</time>
			</trkpt>
			<trkpt lat="33.232529" lon="103.829315">
				<ele>3392.000000</ele>
				<time>2024-04-10T04:24:23Z</time>
			</trkpt>
			<trkpt lat="33.232452" lon="103.829376">
				<ele>3392.000000</ele>
				<time>2024-04-10T04:24:23Z</time>
			</trkpt>
			<trkpt lat="33.232372" lon="103.829437">
				<ele>3392.000000</ele>
				<time>2024-04-10T04:24:23Z</time>
			</trkpt>
			<trkpt lat="33.232285" lon="103.829407">
				<ele>3398.000000</ele>
				<time>2024-04-10T04:24:23Z</time>
			</trkpt>
			<trkpt lat="33.232201" lon="103.829445">
				<ele>3398.000000</ele>
				<time>2024-04-10T04:24:23Z</time>
			</trkpt>
			<trkpt lat="33.232143" lon="103.829544">
				<ele>3398.000000</ele>
				<time>2024-04-10T04:24:23Z</time>
			</trkpt>
			<trkpt lat="33.232056" lon="103.829575">
				<ele>3412.000000</ele>
				<time>2024-04-10T04:24:23Z</time>
			</trkpt>
			<trkpt lat="33.231968" lon="103.829620">
				<ele>3406.000000</ele>
				<time>2024-04-10T04:24:23Z</time>
			</trkpt>
			<trkpt lat="33.231876" lon="103.829643">
				<ele>3406.000000</ele>
				<time>2024-04-10T04:24:23Z</time>
			</trkpt>
			<trkpt lat="33.231785" lon="103.829666">
				<ele>3411.000000</ele>
				<time>2024-04-10T04:24:23Z</time>
			</trkpt>
			<trkpt lat="33.231686" lon="103.829704">
				<ele>3411.000000</ele>
				<time>2024-04-10T04:24:23Z</time>
			</trkpt>
			<trkpt lat="33.231594" lon="103.829720">
				<ele>3411.000000</ele>
				<time>2024-04-10T04:24:23Z</time>
			</trkpt>
			<trkpt lat="33.231499" lon="103.829704">
				<ele>3417.000000</ele>
				<time>2024-04-10T04:24:23Z</time>
			</trkpt>
			<trkpt lat="33.231407" lon="103.829697">
				<ele>3417.000000</ele>
				<time>2024-04-10T04:24:23Z</time>
			</trkpt>
			<trkpt lat="33.231339" lon="103.829773">
				<ele>3417.000000</ele>
				<time>2024-04-10T04:24:23Z</time>
			</trkpt>
			<trkpt lat="33.231258" lon="103.829826">
				<ele>3417.000000</ele>
				<time>2024-04-10T04:24:23Z</time>
			</trkpt>
			<trkpt lat="33.231171" lon="103.829865">
				<ele>3427.000000</ele>
				<time>2024-04-10T04:24:23Z</time>
			</trkpt>
			<trkpt lat="33.231136" lon="103.829964">
				<ele>3427.000000</ele>
				<time>2024-04-10T04:24:23Z</time>
			</trkpt>
			<trkpt lat="33.231045" lon="103.829994">
				<ele>3427.000000</ele>
				<time>2024-04-10T04:24:23Z</time>
			</trkpt>
			<trkpt lat="33.230976" lon="103.830070">
				<ele>3427.000000</ele>
				<time>2024-04-10T04:24:23Z</time>
			</trkpt>
			<trkpt lat="33.230888" lon="103.830048">
				<ele>3447.000000</ele>
				<time>2024-04-10T04:24:23Z</time>
			</trkpt>
			<trkpt lat="33.230820" lon="103.830124">
				<ele>3447.000000</ele>
				<time>2024-04-10T04:24:23Z</time>
			</trkpt>
			<trkpt lat="33.230724" lon="103.830154">
				<ele>3449.000000</ele>
				<time>2024-04-10T04:24:23Z</time>
			</trkpt>
			<trkpt lat="33.230701" lon="103.830261">
				<ele>3449.000000</ele>
				<time>2024-04-10T04:24:23Z</time>
			</trkpt>
			<trkpt lat="33.230644" lon="103.830353">
				<ele>3466.000000</ele>
				<time>2024-04-10T04:24:23Z</time>
			</trkpt>
			<trkpt lat="33.230614" lon="103.830460">
				<ele>3467.000000</ele>
				<time>2024-04-10T04:24:23Z</time>
			</trkpt>
			<trkpt lat="33.230614" lon="103.830566">
				<ele>3467.000000</ele>
				<time>2024-04-10T04:24:23Z</time>
			</trkpt>
			<trkpt lat="33.230610" lon="103.830681">
				<ele>3467.000000</ele>
				<time>2024-04-10T04:24:23Z</time>
			</trkpt>
			<trkpt lat="33.230556" lon="103.830772">
				<ele>3483.000000</ele>
				<time>2024-04-10T04:24:23Z</time>
			</trkpt>
			<trkpt lat="33.230461" lon="103.830803">
				<ele>3483.000000</ele>
				<time>2024-04-10T04:24:23Z</time>
			</trkpt>
			<trkpt lat="33.230415" lon="103.830894">
				<ele>3497.000000</ele>
				<time>2024-04-10T04:24:23Z</time>
			</trkpt>
			<trkpt lat="33.230377" lon="103.830994">
				<ele>3502.000000</ele>
				<time>2024-04-10T04:24:23Z</time>
			</trkpt>
			<trkpt lat="33.230316" lon="103.831078">
				<ele>3502.000000</ele>
				<time>2024-04-10T04:24:23Z</time>
			</trkpt>
			<trkpt lat="33.230270" lon="103.831169">
				<ele>3502.000000</ele>
				<time>2024-04-10T04:24:23Z</time>
			</trkpt>
			<trkpt lat="33.230217" lon="103.831291">
				<ele>3519.000000</ele>
				<time>2024-04-10T04:24:23Z</time>
			</trkpt>
			<trkpt lat="33.230244" lon="103.831390">
				<ele>3519.000000</ele>
				<time>2024-04-10T04:24:23Z</time>
			</trkpt>
			<trkpt lat="33.230263" lon="103.831497">
				<ele>3519.000000</ele>
				<time>2024-04-10T04:24:23Z</time>
			</trkpt>
			<trkpt lat="33.230251" lon="103.831619">
				<ele>3524.000000</ele>
				<time>2024-04-10T04:24:23Z</time>
			</trkpt>
			<trkpt lat="33.230274" lon="103.831718">
				<ele>3524.000000</ele>
				<time>2024-04-10T04:24:23Z</time>
			</trkpt>
			<trkpt lat="33.230282" lon="103.831825">
				<ele>3529.000000</ele>
				<time>2024-04-10T04:24:23Z</time>
			</trkpt>
			<trkpt lat="33.230282" lon="103.831902">
				<ele>3529.000000</ele>
				<time>2024-04-10T04:24:23Z</time>
			</trkpt>
			<trkpt lat="33.230350" lon="103.831932">
				<ele>3529.000000</ele>
				<time>2024-04-10T04:24:23Z</time>
			</trkpt>
			<trkpt lat="33.230438" lon="103.831894">
				<ele>3530.000000</ele>
				<time>2024-04-10T04:24:23Z</time>
			</trkpt>
			<trkpt lat="33.230431" lon="103.832001">
				<ele>3530.000000</ele>
				<time>2024-04-10T04:24:23Z</time>
			</trkpt>
			<trkpt lat="33.230389" lon="103.832100">
				<ele>3532.000000</ele>
				<time>2024-04-10T04:24:23Z</time>
			</trkpt>
			<trkpt lat="33.230343" lon="103.832191">
				<ele>3532.000000</ele>
				<time>2024-04-10T04:24:23Z</time>
			</trkpt>
			<trkpt lat="33.230297" lon="103.832291">
				<ele>3532.000000</ele>
				<time>2024-04-10T04:24:23Z</time>
			</trkpt>
			<trkpt lat="33.230236" lon="103.832375">
				<ele>3538.000000</ele>
				<time>2024-04-10T04:24:23Z</time>
			</trkpt>
			<trkpt lat="33.230156" lon="103.832420">
				<ele>3538.000000</ele>
				<time>2024-04-10T04:24:23Z</time>
			</trkpt>
			<trkpt lat="33.230114" lon="103.832520">
				<ele>3547.000000</ele>
				<time>2024-04-10T04:24:23Z</time>
			</trkpt>
			<trkpt lat="33.230038" lon="103.832581">
				<ele>3547.000000</ele>
				<time>2024-04-10T04:24:23Z</time>
			</trkpt>
			<trkpt lat="33.229961" lon="103.832649">
				<ele>3561.000000</ele>
				<time>2024-04-10T04:24:23Z</time>
			</trkpt>
			<trkpt lat="33.229870" lon="103.832672">
				<ele>3561.000000</ele>
				<time>2024-04-10T04:24:23Z</time>
			</trkpt>
			<trkpt lat="33.229778" lon="103.832687">
				<ele>3570.000000</ele>
				<time>2024-04-10T04:24:23Z</time>
			</trkpt>
			<trkpt lat="33.229710" lon="103.832764">
				<ele>3570.000000</ele>
				<time>2024-04-10T04:24:23Z</time>
			</trkpt>
			<trkpt lat="33.229622" lon="103.832787">
				<ele>3570.000000</ele>
				<time>2024-04-10T04:24:23Z</time>
			</trkpt>
			<trkpt lat="33.229530" lon="103.832802">
				<ele>3582.000000</ele>
				<time>2024-04-10T04:24:23Z</time>
			</trkpt>
			<trkpt lat="33.229443" lon="103.832779">
				<ele>3582.000000</ele>
				<time>2024-04-10T04:24:23Z</time>
			</trkpt>
			<trkpt lat="33.229359" lon="103.832817">
				<ele>3582.000000</ele>
				<time>2024-04-10T04:24:23Z</time>
			</trkpt>
			<trkpt lat="33.229271" lon="103.832863">
				<ele>3588.000000</ele>
				<time>2024-04-10T04:24:23Z</time>
			</trkpt>
			<trkpt lat="33.229179" lon="103.832863">
				<ele>3588.000000</ele>
				<time>2024-04-10T04:24:23Z</time>
			</trkpt>
			<trkpt lat="33.229084" lon="103.832855">
				<ele>3588.000000</ele>
				<time>2024-04-10T04:24:23Z</time>
			</trkpt>
			<trkpt lat="33.228992" lon="103.832878">
				<ele>3589.000000</ele>
				<time>2024-04-10T04:24:23Z</time>
			</trkpt>
			<trkpt lat="33.228897" lon="103.832870">
				<ele>3589.000000</ele>
				<time>2024-04-10T04:24:23Z</time>
			</trkpt>
			<trkpt lat="33.228806" lon="103.832886">
				<ele>3589.000000</ele>
				<time>2024-04-10T04:24:23Z</time>
			</trkpt>
			<trkpt lat="33.228710" lon="103.832886">
				<ele>3595.000000</ele>
				<time>2024-04-10T04:24:23Z</time>
			</trkpt>
			<trkpt lat="33.228619" lon="103.832848">
				<ele>3595.000000</ele>
				<time>2024-04-10T04:24:23Z</time>
			</trkpt>
			<trkpt lat="33.228519" lon="103.832825">
				<ele>3595.000000</ele>
				<time>2024-04-10T04:24:23Z</time>
			</trkpt>
			<trkpt lat="33.228428" lon="103.832802">
				<ele>3601.000000</ele>
				<time>2024-04-10T04:24:23Z</time>
			</trkpt>
			<trkpt lat="33.228352" lon="103.832726">
				<ele>3601.000000</ele>
				<time>2024-04-10T04:24:23Z</time>
			</trkpt>
			<trkpt lat="33.228371" lon="103.832619">
				<ele>3601.000000</ele>
				<time>2024-04-10T04:24:23Z</time>
			</trkpt>
			<trkpt lat="33.228413" lon="103.832520">
				<ele>3601.000000</ele>
				<time>2024-04-10T04:24:23Z</time>
			</trkpt>
			<trkpt lat="33.228436" lon="103.832413">
				<ele>3601.000000</ele>
				<time>2024-04-10T04:24:23Z</time>
			</trkpt>
			<trkpt lat="33.228500" lon="103.832329">
				<ele>3601.000000</ele>
				<time>2024-04-10T04:24:23Z</time>
			</trkpt>
			<trkpt lat="33.228539" lon="103.832230">
				<ele>3601.000000</ele>
				<time>2024-04-10T04:24:23Z</time>
			</trkpt>
			<trkpt lat="33.228600" lon="103.832138">
				<ele>3601.000000</ele>
				<time>2024-04-10T04:24:23Z</time>
			</trkpt>
			<trkpt lat="33.228680" lon="103.832062">
				<ele>3609.000000</ele>
				<time>2024-04-10T04:24:23Z</time>
			</trkpt>
			<trkpt lat="33.228672" lon="103.832024">
				<ele>3609.000000</ele>
				<time>2024-04-10T04:24:23Z</time>
			</trkpt>
			<trkpt lat="33.228607" lon="103.832115">
				<ele>3601.000000</ele>
				<time>2024-04-10T04:24:23Z</time>
			</trkpt>
			<trkpt lat="33.228516" lon="103.832115">
				<ele>3601.000000</ele>
				<time>2024-04-10T04:24:23Z</time>
			</trkpt>
			<trkpt lat="33.228420" lon="103.832153">
				<ele>3604.000000</ele>
				<time>2024-04-10T04:24:23Z</time>
			</trkpt>
			<trkpt lat="33.228313" lon="103.832161">
				<ele>3604.000000</ele>
				<time>2024-04-10T04:24:23Z</time>
			</trkpt>
			<trkpt lat="33.228294" lon="103.832268">
				<ele>3604.000000</ele>
				<time>2024-04-10T04:24:23Z</time>
			</trkpt>
			<trkpt lat="33.228207" lon="103.832283">
				<ele>3604.000000</ele>
				<time>2024-04-10T04:24:23Z</time>
			</trkpt>
			<trkpt lat="33.228092" lon="103.832306">
				<ele>3608.000000</ele>
				<time>2024-04-10T04:24:23Z</time>
			</trkpt>
			<trkpt lat="33.228012" lon="103.832367">
				<ele>3606.000000</ele>
				<time>2024-04-10T04:24:23Z</time>
			</trkpt>
			<trkpt lat="33.227924" lon="103.832390">
				<ele>3606.000000</ele>
				<time>2024-04-10T04:24:23Z</time>
			</trkpt>
			<trkpt lat="33.227837" lon="103.832466">
				<ele>3606.000000</ele>
				<time>2024-04-10T04:24:23Z</time>
			</trkpt>
			<trkpt lat="33.227757" lon="103.832405">
				<ele>3606.000000</ele>
				<time>2024-04-10T04:24:23Z</time>
			</trkpt>
			<trkpt lat="33.227661" lon="103.832413">
				<ele>3606.000000</ele>
				<time>2024-04-10T04:24:23Z</time>
			</trkpt>
			<trkpt lat="33.227562" lon="103.832382">
				<ele>3608.000000</ele>
				<time>2024-04-10T04:24:23Z</time>
			</trkpt>
			<trkpt lat="33.227470" lon="103.832375">
				<ele>3608.000000</ele>
				<time>2024-04-10T04:24:23Z</time>
			</trkpt>
			<trkpt lat="33.227383" lon="103.832329">
				<ele>3606.000000</ele>
				<time>2024-04-10T04:24:23Z</time>
			</trkpt>
			<trkpt lat="33.227287" lon="103.832329">
				<ele>3612.000000</ele>
				<time>2024-04-10T04:24:23Z</time>
			</trkpt>
			<trkpt lat="33.227200" lon="103.832344">
				<ele>3612.000000</ele>
				<time>2024-04-10T04:24:23Z</time>
			</trkpt>
			<trkpt lat="33.227097" lon="103.832336">
				<ele>3612.000000</ele>
				<time>2024-04-10T04:24:23Z</time>
			</trkpt>
			<trkpt lat="33.227009" lon="103.832375">
				<ele>3629.000000</ele>
				<time>2024-04-10T04:24:23Z</time>
			</trkpt>
			<trkpt lat="33.226917" lon="103.832420">
				<ele>3629.000000</ele>
				<time>2024-04-10T04:24:23Z</time>
			</trkpt>
			<trkpt lat="33.226830" lon="103.832458">
				<ele>3629.000000</ele>
				<time>2024-04-10T04:24:23Z</time>
			</trkpt>
			<trkpt lat="33.226738" lon="103.832497">
				<ele>3636.000000</ele>
				<time>2024-04-10T04:24:23Z</time>
			</trkpt>
			<trkpt lat="33.226650" lon="103.832535">
				<ele>3636.000000</ele>
				<time>2024-04-10T04:24:23Z</time>
			</trkpt>
			<trkpt lat="33.226562" lon="103.832550">
				<ele>3636.000000</ele>
				<time>2024-04-10T04:24:23Z</time>
			</trkpt>
			<trkpt lat="33.226463" lon="103.832596">
				<ele>3635.000000</ele>
				<time>2024-04-10T04:24:23Z</time>
			</trkpt>
			<trkpt lat="33.226379" lon="103.832649">
				<ele>3655.000000</ele>
				<time>2024-04-10T04:24:23Z</time>
			</trkpt>
			<trkpt lat="33.226288" lon="103.832649">
				<ele>3655.000000</ele>
				<time>2024-04-10T04:24:23Z</time>
			</trkpt>
			<trkpt lat="33.226208" lon="103.832695">
				<ele>3665.000000</ele>
				<time>2024-04-10T04:24:23Z</time>
			</trkpt>
			<trkpt lat="33.226116" lon="103.832703">
				<ele>3665.000000</ele>
				<time>2024-04-10T04:24:23Z</time>
			</trkpt>
			<trkpt lat="33.226105" lon="103.832817">
				<ele>3665.000000</ele>
				<time>2024-04-10T04:24:23Z</time>
			</trkpt>
			<trkpt lat="33.226162" lon="103.832909">
				<ele>3665.000000</ele>
				<time>2024-04-10T04:24:23Z</time>
			</trkpt>
			<trkpt lat="33.226238" lon="103.832970">
				<ele>3678.000000</ele>
				<time>2024-04-10T04:24:23Z</time>
			</trkpt>
			<trkpt lat="33.226311" lon="103.833054">
				<ele>3671.000000</ele>
				<time>2024-04-10T04:24:23Z</time>
			</trkpt>
			<trkpt lat="33.226379" lon="103.833130">
				<ele>3671.000000</ele>
				<time>2024-04-10T04:24:23Z</time>
			</trkpt>
			<trkpt lat="33.226448" lon="103.833214">
				<ele>3689.000000</ele>
				<time>2024-04-10T04:24:23Z</time>
			</trkpt>
			<trkpt lat="33.226536" lon="103.833267">
				<ele>3678.000000</ele>
				<time>2024-04-10T04:24:23Z</time>
			</trkpt>
			<trkpt lat="33.226601" lon="103.833344">
				<ele>3678.000000</ele>
				<time>2024-04-10T04:24:23Z</time>
			</trkpt>
			<trkpt lat="33.226688" lon="103.833374">
				<ele>3678.000000</ele>
				<time>2024-04-10T04:24:23Z</time>
			</trkpt>
			<trkpt lat="33.226772" lon="103.833443">
				<ele>3678.000000</ele>
				<time>2024-04-10T04:24:23Z</time>
			</trkpt>
			<trkpt lat="33.226818" lon="103.833534">
				<ele>3671.000000</ele>
				<time>2024-04-10T04:24:23Z</time>
			</trkpt>
			<trkpt lat="33.226891" lon="103.833603">
				<ele>3671.000000</ele>
				<time>2024-04-10T04:24:23Z</time>
			</trkpt>
			<trkpt lat="33.226959" lon="103.833672">
				<ele>3671.000000</ele>
				<time>2024-04-10T04:24:23Z</time>
			</trkpt>
			<trkpt lat="33.227013" lon="103.833755">
				<ele>3679.000000</ele>
				<time>2024-04-10T04:24:23Z</time>
			</trkpt>
			<trkpt lat="33.227070" lon="103.833847">
				<ele>3679.000000</ele>
				<time>2024-04-10T04:24:23Z</time>
			</trkpt>
			<trkpt lat="33.227123" lon="103.833946">
				<ele>3668.000000</ele>
				<time>2024-04-10T04:24:23Z</time>
			</trkpt>
			<trkpt lat="33.227150" lon="103.834053">
				<ele>3683.000000</ele>
				<time>2024-04-10T04:24:23Z</time>
			</trkpt>
			<trkpt lat="33.227211" lon="103.834145">
				<ele>3683.000000</ele>
				<time>2024-04-10T04:24:23Z</time>
			</trkpt>
			<trkpt lat="33.227238" lon="103.834251">
				<ele>3683.000000</ele>
				<time>2024-04-10T04:24:23Z</time>
			</trkpt>
			<trkpt lat="33.227291" lon="103.834343">
				<ele>3688.000000</ele>
				<time>2024-04-10T04:24:23Z</time>
			</trkpt>
			<trkpt lat="33.227341" lon="103.834312">
				<ele>3688.000000</ele>
				<time>2024-04-10T04:24:23Z</time>
			</trkpt>
			<trkpt lat="33.227345" lon="103.834427">
				<ele>3688.000000</ele>
				<time>2024-04-10T04:24:23Z</time>
			</trkpt>
			<trkpt lat="33.227398" lon="103.834518">
				<ele>3677.000000</ele>
				<time>2024-04-10T04:24:23Z</time>
			</trkpt>
			<trkpt lat="33.227512" lon="103.834656">
				<ele>3691.000000</ele>
				<time>2024-04-10T04:24:23Z</time>
			</trkpt>
			<trkpt lat="33.227428" lon="103.834724">
				<ele>3691.000000</ele>
				<time>2024-04-10T04:24:23Z</time>
			</trkpt>
			<trkpt lat="33.227459" lon="103.834831">
				<ele>3691.000000</ele>
				<time>2024-04-10T04:24:23Z</time>
			</trkpt>
			<trkpt lat="33.227547" lon="103.834930">
				<ele>3704.000000</ele>
				<time>2024-04-10T04:24:23Z</time>
			</trkpt>
			<trkpt lat="33.227642" lon="103.834946">
				<ele>3706.000000</ele>
				<time>2024-04-10T04:24:23Z</time>
			</trkpt>
			<trkpt lat="33.227737" lon="103.834961">
				<ele>3706.000000</ele>
				<time>2024-04-10T04:24:23Z</time>
			</trkpt>
			<trkpt lat="33.227825" lon="103.834930">
				<ele>3706.000000</ele>
				<time>2024-04-10T04:24:23Z</time>
			</trkpt>
			<trkpt lat="33.227924" lon="103.834915">
				<ele>3707.000000</ele>
				<time>2024-04-10T04:24:23Z</time>
			</trkpt>
			<trkpt lat="33.228020" lon="103.834923">
				<ele>3707.000000</ele>
				<time>2024-04-10T04:24:23Z</time>
			</trkpt>
			<trkpt lat="33.228065" lon="103.835014">
				<ele>3707.000000</ele>
				<time>2024-04-10T04:24:23Z</time>
			</trkpt>
			<trkpt lat="33.228123" lon="103.835106">
				<ele>3707.000000</ele>
				<time>2024-04-10T04:24:23Z</time>
			</trkpt>
			<trkpt lat="33.228153" lon="103.835213">
				<ele>3725.000000</ele>
				<time>2024-04-10T04:24:23Z</time>
			</trkpt>
			<trkpt lat="33.228210" lon="103.835358">
				<ele>3720.000000</ele>
				<time>2024-04-10T04:24:23Z</time>
			</trkpt>
			<trkpt lat="33.228298" lon="103.835304">
				<ele>3720.000000</ele>
				<time>2024-04-10T04:24:23Z</time>
			</trkpt>
			<trkpt lat="33.228348" lon="103.835419">
				<ele>3737.000000</ele>
				<time>2024-04-10T04:24:23Z</time>
			</trkpt>
			<trkpt lat="33.228432" lon="103.835457">
				<ele>3737.000000</ele>
				<time>2024-04-10T04:24:23Z</time>
			</trkpt>
			<trkpt lat="33.228519" lon="103.835487">
				<ele>3725.000000</ele>
				<time>2024-04-10T04:24:23Z</time>
			</trkpt>
			<trkpt lat="33.228607" lon="103.835526">
				<ele>3725.000000</ele>
				<time>2024-04-10T04:24:23Z</time>
			</trkpt>
			<trkpt lat="33.228664" lon="103.835625">
				<ele>3725.000000</ele>
				<time>2024-04-10T04:24:23Z</time>
			</trkpt>
			<trkpt lat="33.228783" lon="103.835609">
				<ele>3718.000000</ele>
				<time>2024-04-10T04:24:23Z</time>
			</trkpt>
			<trkpt lat="33.228878" lon="103.835617">
				<ele>3718.000000</ele>
				<time>2024-04-10T04:24:23Z</time>
			</trkpt>
			<trkpt lat="33.228916" lon="103.835716">
				<ele>3732.000000</ele>
				<time>2024-04-10T04:24:23Z</time>
			</trkpt>
			<trkpt lat="33.228973" lon="103.835808">
				<ele>3732.000000</ele>
				<time>2024-04-10T04:24:23Z</time>
			</trkpt>
			<trkpt lat="33.228992" lon="103.835915">
				<ele>3732.000000</ele>
				<time>2024-04-10T04:24:23Z</time>
			</trkpt>
			<trkpt lat="33.229008" lon="103.836052">
				<ele>3740.000000</ele>
				<time>2024-04-10T04:24:23Z</time>
			</trkpt>
			<trkpt lat="33.229076" lon="103.836128">
				<ele>3735.000000</ele>
				<time>2024-04-10T04:24:23Z</time>
			</trkpt>
			<trkpt lat="33.229145" lon="103.836212">
				<ele>3735.000000</ele>
				<time>2024-04-10T04:24:23Z</time>
			</trkpt>
			<trkpt lat="33.229179" lon="103.836311">
				<ele>3744.000000</ele>
				<time>2024-04-10T04:24:23Z</time>
			</trkpt>
			<trkpt lat="33.229240" lon="103.836388">
				<ele>3744.000000</ele>
				<time>2024-04-10T04:24:23Z</time>
			</trkpt>
			<trkpt lat="33.229298" lon="103.836479">
				<ele>3744.000000</ele>
				<time>2024-04-10T04:24:23Z</time>
			</trkpt>
			<trkpt lat="33.229382" lon="103.836517">
				<ele>3735.000000</ele>
				<time>2024-04-10T04:24:23Z</time>
			</trkpt>
			<trkpt lat="33.229458" lon="103.836594">
				<ele>3748.000000</ele>
				<time>2024-04-10T04:24:23Z</time>
			</trkpt>
			<trkpt lat="33.229485" lon="103.836700">
				<ele>3748.000000</ele>
				<time>2024-04-10T04:24:23Z</time>
			</trkpt>
			<trkpt lat="33.229492" lon="103.836807">
				<ele>3764.000000</ele>
				<time>2024-04-10T04:24:23Z</time>
			</trkpt>
			<trkpt lat="33.229553" lon="103.836899">
				<ele>3764.000000</ele>
				<time>2024-04-10T04:24:23Z</time>
			</trkpt>
			<trkpt lat="33.229614" lon="103.836983">
				<ele>3751.000000</ele>
				<time>2024-04-10T04:24:23Z</time>
			</trkpt>
			<trkpt lat="33.229679" lon="103.837067">
				<ele>3751.000000</ele>
				<time>2024-04-10T04:24:23Z</time>
			</trkpt>
			<trkpt lat="33.229725" lon="103.837166">
				<ele>3768.000000</ele>
				<time>2024-04-10T04:24:23Z</time>
			</trkpt>
			<trkpt lat="33.229797" lon="103.837242">
				<ele>3768.000000</ele>
				<time>2024-04-10T04:24:23Z</time>
			</trkpt>
			<trkpt lat="33.229847" lon="103.837334">
				<ele>3768.000000</ele>
				<time>2024-04-10T04:24:23Z</time>
			</trkpt>
			<trkpt lat="33.229912" lon="103.837418">
				<ele>3771.000000</ele>
				<time>2024-04-10T04:24:23Z</time>
			</trkpt>
			<trkpt lat="33.229969" lon="103.837502">
				<ele>3771.000000</ele>
				<time>2024-04-10T04:24:23Z</time>
			</trkpt>
			<trkpt lat="33.230030" lon="103.837578">
				<ele>3771.000000</ele>
				<time>2024-04-10T04:24:23Z</time>
			</trkpt>
			<trkpt lat="33.230087" lon="103.837662">
				<ele>3777.000000</ele>
				<time>2024-04-10T04:24:23Z</time>
			</trkpt>
			<trkpt lat="33.230152" lon="103.837738">
				<ele>3772.000000</ele>
				<time>2024-04-10T04:24:23Z</time>
			</trkpt>
			<trkpt lat="33.230247" lon="103.837730">
				<ele>3772.000000</ele>
				<time>2024-04-10T04:24:23Z</time>
			</trkpt>
			<trkpt lat="33.230335" lon="103.837784">
				<ele>3772.000000</ele>
				<time>2024-04-10T04:24:23Z</time>
			</trkpt>
			<trkpt lat="33.230476" lon="103.837845">
				<ele>3772.000000</ele>
				<time>2024-04-10T04:24:23Z</time>
			</trkpt>
			<trkpt lat="33.230556" lon="103.837891">
				<ele>3772.000000</ele>
				<time>2024-04-10T04:24:23Z</time>
			</trkpt>
			<trkpt lat="33.230648" lon="103.837914">
				<ele>3772.000000</ele>
				<time>2024-04-10T04:24:23Z</time>
			</trkpt>
			<trkpt lat="33.230713" lon="103.837990">
				<ele>3788.000000</ele>
				<time>2024-04-10T04:24:23Z</time>
			</trkpt>
			<trkpt lat="33.230801" lon="103.838028">
				<ele>3788.000000</ele>
				<time>2024-04-10T04:24:23Z</time>
			</trkpt>
			<trkpt lat="33.230885" lon="103.838074">
				<ele>3788.000000</ele>
				<time>2024-04-10T04:24:23Z</time>
			</trkpt>
			<trkpt lat="33.230972" lon="103.838120">
				<ele>3795.000000</ele>
				<time>2024-04-10T04:24:23Z</time>
			</trkpt>
			<trkpt lat="33.231060" lon="103.838150">
				<ele>3795.000000</ele>
				<time>2024-04-10T04:24:23Z</time>
			</trkpt>
			<trkpt lat="33.231113" lon="103.838242">
				<ele>3800.000000</ele>
				<time>2024-04-10T04:24:23Z</time>
			</trkpt>
			<trkpt lat="33.231167" lon="103.838326">
				<ele>3800.000000</ele>
				<time>2024-04-10T04:24:23Z</time>
			</trkpt>
			<trkpt lat="33.231255" lon="103.838364">
				<ele>3796.000000</ele>
				<time>2024-04-10T04:24:23Z</time>
			</trkpt>
			<trkpt lat="33.231350" lon="103.838394">
				<ele>3796.000000</ele>
				<time>2024-04-10T04:24:23Z</time>
			</trkpt>
			<trkpt lat="33.231445" lon="103.838425">
				<ele>3796.000000</ele>
				<time>2024-04-10T04:24:23Z</time>
			</trkpt>
			<trkpt lat="33.231537" lon="103.838470">
				<ele>3796.000000</ele>
				<time>2024-04-10T04:24:23Z</time>
			</trkpt>
			<trkpt lat="33.231628" lon="103.838486">
				<ele>3804.000000</ele>
				<time>2024-04-10T04:24:23Z</time>
			</trkpt>
			<trkpt lat="33.231712" lon="103.838562">
				<ele>3804.000000</ele>
				<time>2024-04-10T04:24:23Z</time>
			</trkpt>
			<trkpt lat="33.231804" lon="103.838661">
				<ele>3804.000000</ele>
				<time>2024-04-10T04:24:23Z</time>
			</trkpt>
			<trkpt lat="33.231873" lon="103.838737">
				<ele>3801.000000</ele>
				<time>2024-04-10T04:24:23Z</time>
			</trkpt>
			<trkpt lat="33.231934" lon="103.838821">
				<ele>3817.000000</ele>
				<time>2024-04-10T04:24:23Z</time>
			</trkpt>
			<trkpt lat="33.231995" lon="103.838905">
				<ele>3817.000000</ele>
				<time>2024-04-10T04:24:23Z</time>
			</trkpt>
			<trkpt lat="33.232040" lon="103.838997">
				<ele>3817.000000</ele>
				<time>2024-04-10T04:24:23Z</time>
			</trkpt>
			<trkpt lat="33.232059" lon="103.839111">
				<ele>3824.000000</ele>
				<time>2024-04-10T04:24:23Z</time>
			</trkpt>
			<trkpt lat="33.232037" lon="103.839218">
				<ele>3824.000000</ele>
				<time>2024-04-10T04:24:23Z</time>
			</trkpt>
			<trkpt lat="33.231991" lon="103.839317">
				<ele>3819.000000</ele>
				<time>2024-04-10T04:24:23Z</time>
			</trkpt>
			<trkpt lat="33.231911" lon="103.839378">
				<ele>3819.000000</ele>
				<time>2024-04-10T04:24:23Z</time>
			</trkpt>
			<trkpt lat="33.231899" lon="103.839508">
				<ele>3819.000000</ele>
				<time>2024-04-10T04:24:23Z</time>
			</trkpt>
			<trkpt lat="33.231884" lon="103.839622">
				<ele>3811.000000</ele>
				<time>2024-04-10T04:24:23Z</time>
			</trkpt>
			<trkpt lat="33.231850" lon="103.839729">
				<ele>3811.000000</ele>
				<time>2024-04-10T04:24:23Z</time>
			</trkpt>
			<trkpt lat="33.231792" lon="103.839844">
				<ele>3820.000000</ele>
				<time>2024-04-10T04:24:23Z</time>
			</trkpt>
			<trkpt lat="33.231728" lon="103.839928">
				<ele>3818.000000</ele>
				<time>2024-04-10T04:24:23Z</time>
			</trkpt>
			<trkpt lat="33.231686" lon="103.840034">
				<ele>3818.000000</ele>
				<time>2024-04-10T04:24:23Z</time>
			</trkpt>
			<trkpt lat="33.231777" lon="103.840096">
				<ele>3818.000000</ele>
				<time>2024-04-10T04:24:23Z</time>
			</trkpt>
			<trkpt lat="33.231865" lon="103.840065">
				<ele>3800.000000</ele>
				<time>2024-04-10T04:24:23Z</time>
			</trkpt>
			<trkpt lat="33.231941" lon="103.840126">
				<ele>3800.000000</ele>
				<time>2024-04-10T04:24:23Z</time>
			</trkpt>
			<trkpt lat="33.231987" lon="103.840225">
				<ele>3786.000000</ele>
				<time>2024-04-10T04:24:23Z</time>
			</trkpt>
			<trkpt lat="33.232002" lon="103.840340">
				<ele>3786.000000</ele>
				<time>2024-04-10T04:24:23Z</time>
			</trkpt>
			<trkpt lat="33.232086" lon="103.840401">
				<ele>3776.000000</ele>
				<time>2024-04-10T04:24:23Z</time>
			</trkpt>
			<trkpt lat="33.232159" lon="103.840477">
				<ele>3777.000000</ele>
				<time>2024-04-10T04:24:23Z</time>
			</trkpt>
			<trkpt lat="33.232170" lon="103.840599">
				<ele>3777.000000</ele>
				<time>2024-04-10T04:24:23Z</time>
			</trkpt>
			<trkpt lat="33.232094" lon="103.840668">
				<ele>3777.000000</ele>
				<time>2024-04-10T04:24:23Z</time>
			</trkpt>
			<trkpt lat="33.232067" lon="103.840782">
				<ele>3781.000000</ele>
				<time>2024-04-10T04:24:23Z</time>
			</trkpt>
			<trkpt lat="33.232044" lon="103.840904">
				<ele>3781.000000</ele>
				<time>2024-04-10T04:24:23Z</time>
			</trkpt>
			<trkpt lat="33.232021" lon="103.841019">
				<ele>3779.000000</ele>
				<time>2024-04-10T04:24:23Z</time>
			</trkpt>
			<trkpt lat="33.232040" lon="103.841133">
				<ele>3779.000000</ele>
				<time>2024-04-10T04:24:23Z</time>
			</trkpt>
			<trkpt lat="33.232109" lon="103.841202">
				<ele>3782.000000</ele>
				<time>2024-04-10T04:24:23Z</time>
			</trkpt>
			<trkpt lat="33.232143" lon="103.841309">
				<ele>3785.000000</ele>
				<time>2024-04-10T04:24:23Z</time>
			</trkpt>
			<trkpt lat="33.232235" lon="103.841385">
				<ele>3785.000000</ele>
				<time>2024-04-10T04:24:23Z</time>
			</trkpt>
			<trkpt lat="33.232224" lon="103.841492">
				<ele>3785.000000</ele>
				<time>2024-04-10T04:24:23Z</time>
			</trkpt>
			<trkpt lat="33.232243" lon="103.841599">
				<ele>3782.000000</ele>
				<time>2024-04-10T04:24:23Z</time>
			</trkpt>
			<trkpt lat="33.232265" lon="103.841713">
				<ele>3782.000000</ele>
				<time>2024-04-10T04:24:23Z</time>
			</trkpt>
			<trkpt lat="33.232353" lon="103.841766">
				<ele>3782.000000</ele>
				<time>2024-04-10T04:24:23Z</time>
			</trkpt>
			<trkpt lat="33.232403" lon="103.841858">
				<ele>3763.000000</ele>
				<time>2024-04-10T04:24:23Z</time>
			</trkpt>
			<trkpt lat="33.232479" lon="103.841927">
				<ele>3763.000000</ele>
				<time>2024-04-10T04:24:23Z</time>
			</trkpt>
			<trkpt lat="33.232552" lon="103.842003">
				<ele>3763.000000</ele>
				<time>2024-04-10T04:24:23Z</time>
			</trkpt>
			<trkpt lat="33.232643" lon="103.841980">
				<ele>3744.000000</ele>
				<time>2024-04-10T04:24:23Z</time>
			</trkpt>
			<trkpt lat="33.232704" lon="103.842072">
				<ele>3744.000000</ele>
				<time>2024-04-10T04:24:23Z</time>
			</trkpt>
			<trkpt lat="33.232777" lon="103.842155">
				<ele>3736.000000</ele>
				<time>2024-04-10T04:24:23Z</time>
			</trkpt>
			<trkpt lat="33.232838" lon="103.842239">
				<ele>3736.000000</ele>
				<time>2024-04-10T04:24:23Z</time>
			</trkpt>
			<trkpt lat="33.232925" lon="103.842300">
				<ele>3719.000000</ele>
				<time>2024-04-10T04:24:23Z</time>
			</trkpt>
			<trkpt lat="33.233021" lon="103.842339">
				<ele>3719.000000</ele>
				<time>2024-04-10T04:24:23Z</time>
			</trkpt>
			<trkpt lat="33.233112" lon="103.842361">
				<ele>3715.000000</ele>
				<time>2024-04-10T04:24:23Z</time>
			</trkpt>
			<trkpt lat="33.233204" lon="103.842308">
				<ele>3703.000000</ele>
				<time>2024-04-10T04:24:23Z</time>
			</trkpt>
			<trkpt lat="33.233295" lon="103.842278">
				<ele>3703.000000</ele>
				<time>2024-04-10T04:24:23Z</time>
			</trkpt>
			<trkpt lat="33.233387" lon="103.842247">
				<ele>3703.000000</ele>
				<time>2024-04-10T04:24:23Z</time>
			</trkpt>
			<trkpt lat="33.233475" lon="103.842255">
				<ele>3693.000000</ele>
				<time>2024-04-10T04:24:23Z</time>
			</trkpt>
			<trkpt lat="33.233578" lon="103.842278">
				<ele>3693.000000</ele>
				<time>2024-04-10T04:24:23Z</time>
			</trkpt>
			<trkpt lat="33.233669" lon="103.842293">
				<ele>3693.000000</ele>
				<time>2024-04-10T04:24:23Z</time>
			</trkpt>
			<trkpt lat="33.233761" lon="103.842346">
				<ele>3694.000000</ele>
				<time>2024-04-10T04:24:23Z</time>
			</trkpt>
			<trkpt lat="33.233856" lon="103.842377">
				<ele>3691.000000</ele>
				<time>2024-04-10T04:24:23Z</time>
			</trkpt>
			<trkpt lat="33.233952" lon="103.842400">
				<ele>3691.000000</ele>
				<time>2024-04-10T04:24:23Z</time>
			</trkpt>
			<trkpt lat="33.234039" lon="103.842438">
				<ele>3701.000000</ele>
				<time>2024-04-10T04:24:23Z</time>
			</trkpt>
			<trkpt lat="33.234127" lon="103.842468">
				<ele>3701.000000</ele>
				<time>2024-04-10T04:24:23Z</time>
			</trkpt>
			<trkpt lat="33.234215" lon="103.842506">
				<ele>3701.000000</ele>
				<time>2024-04-10T04:24:23Z</time>
			</trkpt>
			<trkpt lat="33.234283" lon="103.842583">
				<ele>3701.000000</ele>
				<time>2024-04-10T04:24:23Z</time>
			</trkpt>
			<trkpt lat="33.234322" lon="103.842690">
				<ele>3696.000000</ele>
				<time>2024-04-10T04:24:23Z</time>
			</trkpt>
			<trkpt lat="33.234348" lon="103.842804">
				<ele>3696.000000</ele>
				<time>2024-04-10T04:24:23Z</time>
			</trkpt>
			<trkpt lat="33.234371" lon="103.842918">
				<ele>3687.000000</ele>
				<time>2024-04-10T04:24:23Z</time>
			</trkpt>
			<trkpt lat="33.234451" lon="103.842972">
				<ele>3687.000000</ele>
				<time>2024-04-10T04:24:23Z</time>
			</trkpt>
			<trkpt lat="33.234528" lon="103.843040">
				<ele>3687.000000</ele>
				<time>2024-04-10T04:24:23Z</time>
			</trkpt>
			<trkpt lat="33.234608" lon="103.843094">
				<ele>3675.000000</ele>
				<time>2024-04-10T04:24:23Z</time>
			</trkpt>
			<trkpt lat="33.234699" lon="103.843063">
				<ele>3675.000000</ele>
				<time>2024-04-10T04:24:23Z</time>
			</trkpt>
			<trkpt lat="33.234791" lon="103.843086">
				<ele>3675.000000</ele>
				<time>2024-04-10T04:24:23Z</time>
			</trkpt>
			<trkpt lat="33.234879" lon="103.843063">
				<ele>3671.000000</ele>
				<time>2024-04-10T04:24:23Z</time>
			</trkpt>
			<trkpt lat="33.234951" lon="103.843124">
				<ele>3671.000000</ele>
				<time>2024-04-10T04:24:23Z</time>
			</trkpt>
			<trkpt lat="33.235023" lon="103.843193">
				<ele>3671.000000</ele>
				<time>2024-04-10T04:24:23Z</time>
			</trkpt>
			<trkpt lat="33.235092" lon="103.843269">
				<ele>3660.000000</ele>
				<time>2024-04-10T04:24:23Z</time>
			</trkpt>
			<trkpt lat="33.235176" lon="103.843323">
				<ele>3667.000000</ele>
				<time>2024-04-10T04:24:23Z</time>
			</trkpt>
			<trkpt lat="33.235256" lon="103.843384">
				<ele>3667.000000</ele>
				<time>2024-04-10T04:24:23Z</time>
			</trkpt>
			<trkpt lat="33.235336" lon="103.843445">
				<ele>3667.000000</ele>
				<time>2024-04-10T04:24:23Z</time>
			</trkpt>
			<trkpt lat="33.235405" lon="103.843536">
				<ele>3660.000000</ele>
				<time>2024-04-10T04:24:23Z</time>
			</trkpt>
			<trkpt lat="33.235477" lon="103.843613">
				<ele>3666.000000</ele>
				<time>2024-04-10T04:24:23Z</time>
			</trkpt>
			<trkpt lat="33.235535" lon="103.843712">
				<ele>3666.000000</ele>
				<time>2024-04-10T04:24:23Z</time>
			</trkpt>
			<trkpt lat="33.235603" lon="103.843788">
				<ele>3656.000000</ele>
				<time>2024-04-10T04:24:23Z</time>
			</trkpt>
			<trkpt lat="33.235680" lon="103.843864">
				<ele>3656.000000</ele>
				<time>2024-04-10T04:24:23Z</time>
			</trkpt>
			<trkpt lat="33.235756" lon="103.843925">
				<ele>3657.000000</ele>
				<time>2024-04-10T04:24:23Z</time>
			</trkpt>
			<trkpt lat="33.235832" lon="103.843987">
				<ele>3657.000000</ele>
				<time>2024-04-10T04:24:23Z</time>
			</trkpt>
			<trkpt lat="33.235928" lon="103.844040">
				<ele>3645.000000</ele>
				<time>2024-04-10T04:24:23Z</time>
			</trkpt>
			<trkpt lat="33.236004" lon="103.844101">
				<ele>3653.000000</ele>
				<time>2024-04-10T04:24:23Z</time>
			</trkpt>
			<trkpt lat="33.236095" lon="103.844154">
				<ele>3653.000000</ele>
				<time>2024-04-10T04:24:23Z</time>
			</trkpt>
			<trkpt lat="33.236095" lon="103.844154">
				<ele>3653.000000</ele>
				<time>2024-04-10T04:24:23Z</time>
			</trkpt>
			<trkpt lat="33.236149" lon="103.844070">
				<ele>3653.000000</ele>
				<time>2024-04-10T04:24:23Z</time>
			</trkpt>
			<trkpt lat="33.236187" lon="103.843964">
				<ele>3653.000000</ele>
				<time>2024-04-10T04:24:23Z</time>
			</trkpt>
			<trkpt lat="33.236263" lon="103.843910">
				<ele>3641.000000</ele>
				<time>2024-04-10T04:24:23Z</time>
			</trkpt>
			<trkpt lat="33.236183" lon="103.843857">
				<ele>3653.000000</ele>
				<time>2024-04-10T04:24:23Z</time>
			</trkpt>
			<trkpt lat="33.236107" lon="103.843796">
				<ele>3653.000000</ele>
				<time>2024-04-10T04:24:23Z</time>
			</trkpt>
			<trkpt lat="33.236046" lon="103.843712">
				<ele>3649.000000</ele>
				<time>2024-04-10T04:24:23Z</time>
			</trkpt>
			<trkpt lat="33.236008" lon="103.843613">
				<ele>3649.000000</ele>
				<time>2024-04-10T04:24:23Z</time>
			</trkpt>
			<trkpt lat="33.236008" lon="103.843498">
				<ele>3649.000000</ele>
				<time>2024-04-10T04:24:23Z</time>
			</trkpt>
			<trkpt lat="33.236050" lon="103.843399">
				<ele>3638.000000</ele>
				<time>2024-04-10T04:24:23Z</time>
			</trkpt>
			<trkpt lat="33.236065" lon="103.843292">
				<ele>3638.000000</ele>
				<time>2024-04-10T04:24:23Z</time>
			</trkpt>
			<trkpt lat="33.236137" lon="103.843216">
				<ele>3638.000000</ele>
				<time>2024-04-10T04:24:23Z</time>
			</trkpt>
			<trkpt lat="33.236160" lon="103.843109">
				<ele>3624.000000</ele>
				<time>2024-04-10T04:24:23Z</time>
			</trkpt>
			<trkpt lat="33.236137" lon="103.843002">
				<ele>3624.000000</ele>
				<time>2024-04-10T04:24:23Z</time>
			</trkpt>
			<trkpt lat="33.236137" lon="103.842880">
				<ele>3622.000000</ele>
				<time>2024-04-10T04:24:23Z</time>
			</trkpt>
			<trkpt lat="33.236156" lon="103.842773">
				<ele>3622.000000</ele>
				<time>2024-04-10T04:24:23Z</time>
			</trkpt>
			<trkpt lat="33.236179" lon="103.842659">
				<ele>3622.000000</ele>
				<time>2024-04-10T04:24:23Z</time>
			</trkpt>
			<trkpt lat="33.236198" lon="103.842552">
				<ele>3615.000000</ele>
				<time>2024-04-10T04:24:23Z</time>
			</trkpt>
			<trkpt lat="33.236256" lon="103.842468">
				<ele>3607.000000</ele>
				<time>2024-04-10T04:24:23Z</time>
			</trkpt>
			<trkpt lat="33.236298" lon="103.842361">
				<ele>3607.000000</ele>
				<time>2024-04-10T04:24:23Z</time>
			</trkpt>
			<trkpt lat="33.236332" lon="103.842255">
				<ele>3601.000000</ele>
				<time>2024-04-10T04:24:23Z</time>
			</trkpt>
			<trkpt lat="33.236366" lon="103.842133">
				<ele>3601.000000</ele>
				<time>2024-04-10T04:24:23Z</time>
			</trkpt>
			<trkpt lat="33.236408" lon="103.842026">
				<ele>3593.000000</ele>
				<time>2024-04-10T04:24:23Z</time>
			</trkpt>
			<trkpt lat="33.236385" lon="103.841927">
				<ele>3593.000000</ele>
				<time>2024-04-10T04:24:23Z</time>
			</trkpt>
			<trkpt lat="33.236393" lon="103.841812">
				<ele>3593.000000</ele>
				<time>2024-04-10T04:24:23Z</time>
			</trkpt>
			<trkpt lat="33.236408" lon="103.841698">
				<ele>3587.000000</ele>
				<time>2024-04-10T04:24:23Z</time>
			</trkpt>
			<trkpt lat="33.236450" lon="103.841599">
				<ele>3587.000000</ele>
				<time>2024-04-10T04:24:23Z</time>
			</trkpt>
			<trkpt lat="33.236542" lon="103.841553">
				<ele>3573.000000</ele>
				<time>2024-04-10T04:24:23Z</time>
			</trkpt>
			<trkpt lat="33.236561" lon="103.841446">
				<ele>3569.000000</ele>
				<time>2024-04-10T04:24:23Z</time>
			</trkpt>
			<trkpt lat="33.236633" lon="103.841377">
				<ele>3569.000000</ele>
				<time>2024-04-10T04:24:23Z</time>
			</trkpt>
			<trkpt lat="33.236691" lon="103.841293">
				<ele>3569.000000</ele>
				<time>2024-04-10T04:24:23Z</time>
			</trkpt>
			<trkpt lat="33.236755" lon="103.841217">
				<ele>3562.000000</ele>
				<time>2024-04-10T04:24:23Z</time>
			</trkpt>
			<trkpt lat="33.236839" lon="103.841255">
				<ele>3566.000000</ele>
				<time>2024-04-10T04:24:23Z</time>
			</trkpt>
			<trkpt lat="33.236931" lon="103.841255">
				<ele>3566.000000</ele>
				<time>2024-04-10T04:24:23Z</time>
			</trkpt>
			<trkpt lat="33.237026" lon="103.841293">
				<ele>3566.000000</ele>
				<time>2024-04-10T04:24:23Z</time>
			</trkpt>
			<trkpt lat="33.237099" lon="103.841370">
				<ele>3558.000000</ele>
				<time>2024-04-10T04:24:23Z</time>
			</trkpt>
			<trkpt lat="33.237194" lon="103.841370">
				<ele>3558.000000</ele>
				<time>2024-04-10T04:24:23Z</time>
			</trkpt>
			<trkpt lat="33.237312" lon="103.841362">
				<ele>3558.000000</ele>
				<time>2024-04-10T04:24:23Z</time>
			</trkpt>
			<trkpt lat="33.237404" lon="103.841370">
				<ele>3546.000000</ele>
				<time>2024-04-10T04:24:23Z</time>
			</trkpt>
			<trkpt lat="33.237495" lon="103.841362">
				<ele>3546.000000</ele>
				<time>2024-04-10T04:24:23Z</time>
			</trkpt>
			<trkpt lat="33.237583" lon="103.841400">
				<ele>3546.000000</ele>
				<time>2024-04-10T04:24:23Z</time>
			</trkpt>
			<trkpt lat="33.237663" lon="103.841469">
				<ele>3535.000000</ele>
				<time>2024-04-10T04:24:23Z</time>
			</trkpt>
			<trkpt lat="33.237755" lon="103.841423">
				<ele>3535.000000</ele>
				<time>2024-04-10T04:24:23Z</time>
			</trkpt>
			<trkpt lat="33.237823" lon="103.841354">
				<ele>3535.000000</ele>
				<time>2024-04-10T04:24:23Z</time>
			</trkpt>
			<trkpt lat="33.237900" lon="103.841270">
				<ele>3535.000000</ele>
				<time>2024-04-10T04:24:23Z</time>
			</trkpt>
			<trkpt lat="33.237988" lon="103.841293">
				<ele>3527.000000</ele>
				<time>2024-04-10T04:24:23Z</time>
			</trkpt>
			<trkpt lat="33.238094" lon="103.841324">
				<ele>3527.000000</ele>
				<time>2024-04-10T04:24:23Z</time>
			</trkpt>
			<trkpt lat="33.238174" lon="103.841377">
				<ele>3527.000000</ele>
				<time>2024-04-10T04:24:23Z</time>
			</trkpt>
			<trkpt lat="33.238266" lon="103.841354">
				<ele>3521.000000</ele>
				<time>2024-04-10T04:24:23Z</time>
			</trkpt>
			<trkpt lat="33.238358" lon="103.841370">
				<ele>3521.000000</ele>
				<time>2024-04-10T04:24:23Z</time>
			</trkpt>
			<trkpt lat="33.238457" lon="103.841385">
				<ele>3521.000000</ele>
				<time>2024-04-10T04:24:23Z</time>
			</trkpt>
			<trkpt lat="33.238548" lon="103.841385">
				<ele>3513.000000</ele>
				<time>2024-04-10T04:24:23Z</time>
			</trkpt>
			<trkpt lat="33.238644" lon="103.841408">
				<ele>3513.000000</ele>
				<time>2024-04-10T04:24:23Z</time>
			</trkpt>
			<trkpt lat="33.238739" lon="103.841400">
				<ele>3513.000000</ele>
				<time>2024-04-10T04:24:23Z</time>
			</trkpt>
			<trkpt lat="33.238831" lon="103.841377">
				<ele>3507.000000</ele>
				<time>2024-04-10T04:24:23Z</time>
			</trkpt>
			<trkpt lat="33.238907" lon="103.841438">
				<ele>3507.000000</ele>
				<time>2024-04-10T04:24:23Z</time>
			</trkpt>
			<trkpt lat="33.238987" lon="103.841385">
				<ele>3507.000000</ele>
				<time>2024-04-10T04:24:23Z</time>
			</trkpt>
			<trkpt lat="33.239079" lon="103.841393">
				<ele>3505.000000</ele>
				<time>2024-04-10T04:24:23Z</time>
			</trkpt>
			<trkpt lat="33.239170" lon="103.841431">
				<ele>3505.000000</ele>
				<time>2024-04-10T04:24:23Z</time>
			</trkpt>
			<trkpt lat="33.239258" lon="103.841469">
				<ele>3505.000000</ele>
				<time>2024-04-10T04:24:23Z</time>
			</trkpt>
			<trkpt lat="33.239349" lon="103.841476">
				<ele>3508.000000</ele>
				<time>2024-04-10T04:24:23Z</time>
			</trkpt>
			<trkpt lat="33.239449" lon="103.841461">
				<ele>3508.000000</ele>
				<time>2024-04-10T04:24:23Z</time>
			</trkpt>
			<trkpt lat="33.239552" lon="103.841454">
				<ele>3508.000000</ele>
				<time>2024-04-10T04:24:23Z</time>
			</trkpt>
			<trkpt lat="33.239643" lon="103.841431">
				<ele>3504.000000</ele>
				<time>2024-04-10T04:24:23Z</time>
			</trkpt>
			<trkpt lat="33.239697" lon="103.841324">
				<ele>3504.000000</ele>
				<time>2024-04-10T04:24:23Z</time>
			</trkpt>
			<trkpt lat="33.239750" lon="103.841240">
				<ele>3502.000000</ele>
				<time>2024-04-10T04:24:23Z</time>
			</trkpt>
			<trkpt lat="33.239845" lon="103.841248">
				<ele>3502.000000</ele>
				<time>2024-04-10T04:24:23Z</time>
			</trkpt>
			<trkpt lat="33.239937" lon="103.841286">
				<ele>3506.000000</ele>
				<time>2024-04-10T04:24:23Z</time>
			</trkpt>
			<trkpt lat="33.240032" lon="103.841232">
				<ele>3498.000000</ele>
				<time>2024-04-10T04:24:23Z</time>
			</trkpt>
			<trkpt lat="33.240128" lon="103.841255">
				<ele>3506.000000</ele>
				<time>2024-04-10T04:24:23Z</time>
			</trkpt>
			<trkpt lat="33.240231" lon="103.841202">
				<ele>3488.000000</ele>
				<time>2024-04-10T04:24:23Z</time>
			</trkpt>
			<trkpt lat="33.240330" lon="103.841225">
				<ele>3488.000000</ele>
				<time>2024-04-10T04:24:23Z</time>
			</trkpt>
			<trkpt lat="33.240421" lon="103.841240">
				<ele>3485.000000</ele>
				<time>2024-04-10T04:24:23Z</time>
			</trkpt>
			<trkpt lat="33.240513" lon="103.841194">
				<ele>3485.000000</ele>
				<time>2024-04-10T04:24:23Z</time>
			</trkpt>
			<trkpt lat="33.240608" lon="103.841187">
				<ele>3485.000000</ele>
				<time>2024-04-10T04:24:23Z</time>
			</trkpt>
			<trkpt lat="33.240704" lon="103.841171">
				<ele>3480.000000</ele>
				<time>2024-04-10T04:24:23Z</time>
			</trkpt>
			<trkpt lat="33.240776" lon="103.841103">
				<ele>3480.000000</ele>
				<time>2024-04-10T04:24:23Z</time>
			</trkpt>
			<trkpt lat="33.240856" lon="103.841049">
				<ele>3480.000000</ele>
				<time>2024-04-10T04:24:23Z</time>
			</trkpt>
			<trkpt lat="33.240932" lon="103.840973">
				<ele>3480.000000</ele>
				<time>2024-04-10T04:24:23Z</time>
			</trkpt>
			<trkpt lat="33.240948" lon="103.840843">
				<ele>3469.000000</ele>
				<time>2024-04-10T04:24:23Z</time>
			</trkpt>
			<trkpt lat="33.240974" lon="103.840744">
				<ele>3467.000000</ele>
				<time>2024-04-10T04:24:23Z</time>
			</trkpt>
			<trkpt lat="33.240978" lon="103.840630">
				<ele>3460.000000</ele>
				<time>2024-04-10T04:24:23Z</time>
			</trkpt>
			<trkpt lat="33.241016" lon="103.840538">
				<ele>3460.000000</ele>
				<time>2024-04-10T04:24:23Z</time>
			</trkpt>
			<trkpt lat="33.241100" lon="103.840485">
				<ele>3460.000000</ele>
				<time>2024-04-10T04:24:23Z</time>
			</trkpt>
			<trkpt lat="33.241123" lon="103.840378">
				<ele>3455.000000</ele>
				<time>2024-04-10T04:24:23Z</time>
			</trkpt>
			<trkpt lat="33.241180" lon="103.840271">
				<ele>3455.000000</ele>
				<time>2024-04-10T04:24:23Z</time>
			</trkpt>
			<trkpt lat="33.241268" lon="103.840225">
				<ele>3459.000000</ele>
				<time>2024-04-10T04:24:23Z</time>
			</trkpt>
			<trkpt lat="33.241310" lon="103.840126">
				<ele>3445.000000</ele>
				<time>2024-04-10T04:24:23Z</time>
			</trkpt>
			<trkpt lat="33.241402" lon="103.840096">
				<ele>3445.000000</ele>
				<time>2024-04-10T04:24:23Z</time>
			</trkpt>
			<trkpt lat="33.241447" lon="103.840004">
				<ele>3445.000000</ele>
				<time>2024-04-10T04:24:23Z</time>
			</trkpt>
			<trkpt lat="33.241505" lon="103.839912">
				<ele>3445.000000</ele>
				<time>2024-04-10T04:24:23Z</time>
			</trkpt>
			<trkpt lat="33.241550" lon="103.839798">
				<ele>3428.000000</ele>
				<time>2024-04-10T04:24:23Z</time>
			</trkpt>
			<trkpt lat="33.241623" lon="103.839729">
				<ele>3428.000000</ele>
				<time>2024-04-10T04:24:23Z</time>
			</trkpt>
			<trkpt lat="33.241627" lon="103.839615">
				<ele>3428.000000</ele>
				<time>2024-04-10T04:24:23Z</time>
			</trkpt>
			<trkpt lat="33.241726" lon="103.839622">
				<ele>3428.000000</ele>
				<time>2024-04-10T04:24:23Z</time>
			</trkpt>
			<trkpt lat="33.241802" lon="103.839561">
				<ele>3421.000000</ele>
				<time>2024-04-10T04:24:23Z</time>
			</trkpt>
			<trkpt lat="33.241879" lon="103.839485">
				<ele>3421.000000</ele>
				<time>2024-04-10T04:24:23Z</time>
			</trkpt>
			<trkpt lat="33.241905" lon="103.839378">
				<ele>3421.000000</ele>
				<time>2024-04-10T04:24:23Z</time>
			</trkpt>
			<trkpt lat="33.242004" lon="103.839371">
				<ele>3421.000000</ele>
				<time>2024-04-10T04:24:23Z</time>
			</trkpt>
			<trkpt lat="33.242100" lon="103.839348">
				<ele>3416.000000</ele>
				<time>2024-04-10T04:24:23Z</time>
			</trkpt>
			<trkpt lat="33.242149" lon="103.839264">
				<ele>3402.000000</ele>
				<time>2024-04-10T04:24:23Z</time>
			</trkpt>
			<trkpt lat="33.242229" lon="103.839203">
				<ele>3402.000000</ele>
				<time>2024-04-10T04:24:23Z</time>
			</trkpt>
			<trkpt lat="33.242313" lon="103.839134">
				<ele>3402.000000</ele>
				<time>2024-04-10T04:24:23Z</time>
			</trkpt>
			<trkpt lat="33.242359" lon="103.839027">
				<ele>3395.000000</ele>
				<time>2024-04-10T04:24:23Z</time>
			</trkpt>
			<trkpt lat="33.242432" lon="103.838951">
				<ele>3385.000000</ele>
				<time>2024-04-10T04:24:23Z</time>
			</trkpt>
			<trkpt lat="33.242485" lon="103.838860">
				<ele>3385.000000</ele>
				<time>2024-04-10T04:24:23Z</time>
			</trkpt>
			<trkpt lat="33.242500" lon="103.838722">
				<ele>3384.000000</ele>
				<time>2024-04-10T04:24:23Z</time>
			</trkpt>
			<trkpt lat="33.242535" lon="103.838608">
				<ele>3384.000000</ele>
				<time>2024-04-10T04:24:23Z</time>
			</trkpt>
			<trkpt lat="33.242622" lon="103.838570">
				<ele>3384.000000</ele>
				<time>2024-04-10T04:24:23Z</time>
			</trkpt>
			<trkpt lat="33.242699" lon="103.838493">
				<ele>3374.000000</ele>
				<time>2024-04-10T04:24:23Z</time>
			</trkpt>
			<trkpt lat="33.242786" lon="103.838448">
				<ele>3366.000000</ele>
				<time>2024-04-10T04:24:23Z</time>
			</trkpt>
			<trkpt lat="33.242874" lon="103.838425">
				<ele>3366.000000</ele>
				<time>2024-04-10T04:24:23Z</time>
			</trkpt>
			<trkpt lat="33.242908" lon="103.838318">
				<ele>3366.000000</ele>
				<time>2024-04-10T04:24:23Z</time>
			</trkpt>
			<trkpt lat="33.242977" lon="103.838249">
				<ele>3351.000000</ele>
				<time>2024-04-10T04:24:23Z</time>
			</trkpt>
			<trkpt lat="33.243046" lon="103.838173">
				<ele>3353.000000</ele>
				<time>2024-04-10T04:24:23Z</time>
			</trkpt>
			<trkpt lat="33.243141" lon="103.838158">
				<ele>3353.000000</ele>
				<time>2024-04-10T04:24:23Z</time>
			</trkpt>
			<trkpt lat="33.243179" lon="103.838043">
				<ele>3353.000000</ele>
				<time>2024-04-10T04:24:23Z</time>
			</trkpt>
			<trkpt lat="33.243176" lon="103.837921">
				<ele>3353.000000</ele>
				<time>2024-04-10T04:24:23Z</time>
			</trkpt>
			<trkpt lat="33.243187" lon="103.837814">
				<ele>3348.000000</ele>
				<time>2024-04-10T04:24:23Z</time>
			</trkpt>
			<trkpt lat="33.243244" lon="103.837730">
				<ele>3342.000000</ele>
				<time>2024-04-10T04:24:23Z</time>
			</trkpt>
			<trkpt lat="33.243282" lon="103.837624">
				<ele>3334.000000</ele>
				<time>2024-04-10T04:24:23Z</time>
			</trkpt>
			<trkpt lat="33.243336" lon="103.837524">
				<ele>3334.000000</ele>
				<time>2024-04-10T04:24:23Z</time>
			</trkpt>
			<trkpt lat="33.243324" lon="103.837402">
				<ele>3334.000000</ele>
				<time>2024-04-10T04:24:23Z</time>
			</trkpt>
			<trkpt lat="33.243324" lon="103.837296">
				<ele>3326.000000</ele>
				<time>2024-04-10T04:24:23Z</time>
			</trkpt>
			<trkpt lat="33.243382" lon="103.837212">
				<ele>3326.000000</ele>
				<time>2024-04-10T04:24:23Z</time>
			</trkpt>
			<trkpt lat="33.243385" lon="103.837090">
				<ele>3326.000000</ele>
				<time>2024-04-10T04:24:23Z</time>
			</trkpt>
			<trkpt lat="33.243401" lon="103.836983">
				<ele>3321.000000</ele>
				<time>2024-04-10T04:24:23Z</time>
			</trkpt>
			<trkpt lat="33.243397" lon="103.836868">
				<ele>3321.000000</ele>
				<time>2024-04-10T04:24:23Z</time>
			</trkpt>
			<trkpt lat="33.243439" lon="103.836761">
				<ele>3324.000000</ele>
				<time>2024-04-10T04:24:23Z</time>
			</trkpt>
			<trkpt lat="33.243477" lon="103.836662">
				<ele>3318.000000</ele>
				<time>2024-04-10T04:24:23Z</time>
			</trkpt>
			<trkpt lat="33.243565" lon="103.836617">
				<ele>3318.000000</ele>
				<time>2024-04-10T04:24:23Z</time>
			</trkpt>
			<trkpt lat="33.243565" lon="103.836502">
				<ele>3309.000000</ele>
				<time>2024-04-10T04:24:23Z</time>
			</trkpt>
			<trkpt lat="33.243618" lon="103.836395">
				<ele>3309.000000</ele>
				<time>2024-04-10T04:24:23Z</time>
			</trkpt>
			<trkpt lat="33.243576" lon="103.836296">
				<ele>3309.000000</ele>
				<time>2024-04-10T04:24:23Z</time>
			</trkpt>
			<trkpt lat="33.243671" lon="103.836273">
				<ele>3309.000000</ele>
				<time>2024-04-10T04:24:23Z</time>
			</trkpt>
			<trkpt lat="33.243645" lon="103.836166">
				<ele>3302.000000</ele>
				<time>2024-04-10T04:24:23Z</time>
			</trkpt>
			<trkpt lat="33.243641" lon="103.836060">
				<ele>3302.000000</ele>
				<time>2024-04-10T04:24:23Z</time>
			</trkpt>
			<trkpt lat="33.243664" lon="103.835953">
				<ele>3291.000000</ele>
				<time>2024-04-10T04:24:23Z</time>
			</trkpt>
			<trkpt lat="33.243652" lon="103.835831">
				<ele>3291.000000</ele>
				<time>2024-04-10T04:24:23Z</time>
			</trkpt>
			<trkpt lat="33.243721" lon="103.835754">
				<ele>3291.000000</ele>
				<time>2024-04-10T04:24:23Z</time>
			</trkpt>
			<trkpt lat="33.243790" lon="103.835678">
				<ele>3275.000000</ele>
				<time>2024-04-10T04:24:23Z</time>
			</trkpt>
			<trkpt lat="33.243893" lon="103.835640">
				<ele>3275.000000</ele>
				<time>2024-04-10T04:24:23Z</time>
			</trkpt>
			<trkpt lat="33.243942" lon="103.835548">
				<ele>3275.000000</ele>
				<time>2024-04-10T04:24:23Z</time>
			</trkpt>
			<trkpt lat="33.244003" lon="103.835464">
				<ele>3275.000000</ele>
				<time>2024-04-10T04:24:23Z</time>
			</trkpt>
			<trkpt lat="33.244061" lon="103.835373">
				<ele>3266.000000</ele>
				<time>2024-04-10T04:24:23Z</time>
			</trkpt>
			<trkpt lat="33.244141" lon="103.835304">
				<ele>3266.000000</ele>
				<time>2024-04-10T04:24:23Z</time>
			</trkpt>
			<trkpt lat="33.244171" lon="103.835182">
				<ele>3266.000000</ele>
				<time>2024-04-10T04:24:23Z</time>
			</trkpt>
			<trkpt lat="33.244198" lon="103.835083">
				<ele>3268.000000</ele>
				<time>2024-04-10T04:24:23Z</time>
			</trkpt>
			<trkpt lat="33.244282" lon="103.835045">
				<ele>3268.000000</ele>
				<time>2024-04-10T04:24:23Z</time>
			</trkpt>
			<trkpt lat="33.244312" lon="103.834938">
				<ele>3254.000000</ele>
				<time>2024-04-10T04:24:23Z</time>
			</trkpt>
			<trkpt lat="33.244339" lon="103.834831">
				<ele>3254.000000</ele>
				<time>2024-04-10T04:24:23Z</time>
			</trkpt>
			<trkpt lat="33.244370" lon="103.834732">
				<ele>3254.000000</ele>
				<time>2024-04-10T04:24:23Z</time>
			</trkpt>
			<trkpt lat="33.244438" lon="103.834656">
				<ele>3254.000000</ele>
				<time>2024-04-10T04:24:23Z</time>
			</trkpt>
			<trkpt lat="33.244511" lon="103.834595">
				<ele>3254.000000</ele>
				<time>2024-04-10T04:24:23Z</time>
			</trkpt>
			<trkpt lat="33.244553" lon="103.834496">
				<ele>3243.000000</ele>
				<time>2024-04-10T04:24:23Z</time>
			</trkpt>
			<trkpt lat="33.244545" lon="103.834389">
				<ele>3243.000000</ele>
				<time>2024-04-10T04:24:23Z</time>
			</trkpt>
			<trkpt lat="33.244537" lon="103.834267">
				<ele>3238.000000</ele>
				<time>2024-04-10T04:24:23Z</time>
			</trkpt>
			<trkpt lat="33.244579" lon="103.834175">
				<ele>3238.000000</ele>
				<time>2024-04-10T04:24:23Z</time>
			</trkpt>
			<trkpt lat="33.244629" lon="103.834068">
				<ele>3227.000000</ele>
				<time>2024-04-10T04:24:23Z</time>
			</trkpt>
			<trkpt lat="33.244644" lon="103.833961">
				<ele>3212.000000</ele>
				<time>2024-04-10T04:24:23Z</time>
			</trkpt>
			<trkpt lat="33.244648" lon="103.833847">
				<ele>3212.000000</ele>
				<time>2024-04-10T04:24:23Z</time>
			</trkpt>
			<trkpt lat="33.244682" lon="103.833748">
				<ele>3206.000000</ele>
				<time>2024-04-10T04:24:23Z</time>
			</trkpt>
			<trkpt lat="33.244781" lon="103.833725">
				<ele>3206.000000</ele>
				<time>2024-04-10T04:24:23Z</time>
			</trkpt>
			<trkpt lat="33.244850" lon="103.833656">
				<ele>3206.000000</ele>
				<time>2024-04-10T04:24:23Z</time>
			</trkpt>
			<trkpt lat="33.244942" lon="103.833649">
				<ele>3207.000000</ele>
				<time>2024-04-10T04:24:23Z</time>
			</trkpt>
			<trkpt lat="33.245033" lon="103.833633">
				<ele>3207.000000</ele>
				<time>2024-04-10T04:24:23Z</time>
			</trkpt>
			<trkpt lat="33.245121" lon="103.833588">
				<ele>3207.000000</ele>
				<time>2024-04-10T04:24:23Z</time>
			</trkpt>
			<trkpt lat="33.245205" lon="103.833519">
				<ele>3209.000000</ele>
				<time>2024-04-10T04:24:23Z</time>
			</trkpt>
			<trkpt lat="33.245293" lon="103.833450">
				<ele>3199.000000</ele>
				<time>2024-04-10T04:24:23Z</time>
			</trkpt>
			<trkpt lat="33.245377" lon="103.833405">
				<ele>3199.000000</ele>
				<time>2024-04-10T04:24:23Z</time>
			</trkpt>
			<trkpt lat="33.245457" lon="103.833344">
				<ele>3188.000000</ele>
				<time>2024-04-10T04:24:23Z</time>
			</trkpt>
			<trkpt lat="33.245541" lon="103.833298">
				<ele>3188.000000</ele>
				<time>2024-04-10T04:24:23Z</time>
			</trkpt>
			<trkpt lat="33.245625" lon="103.833336">
				<ele>3188.000000</ele>
				<time>2024-04-10T04:24:23Z</time>
			</trkpt>
			<trkpt lat="33.245705" lon="103.833382">
				<ele>3177.000000</ele>
				<time>2024-04-10T04:24:23Z</time>
			</trkpt>
			<trkpt lat="33.245796" lon="103.833427">
				<ele>3177.000000</ele>
				<time>2024-04-10T04:24:23Z</time>
			</trkpt>
			<trkpt lat="33.245888" lon="103.833435">
				<ele>3177.000000</ele>
				<time>2024-04-10T04:24:23Z</time>
			</trkpt>
			<trkpt lat="33.245983" lon="103.833435">
				<ele>3168.000000</ele>
				<time>2024-04-10T04:24:23Z</time>
			</trkpt>
			<trkpt lat="33.246071" lon="103.833481">
				<ele>3174.000000</ele>
				<time>2024-04-10T04:24:23Z</time>
			</trkpt>
			<trkpt lat="33.246162" lon="103.833458">
				<ele>3168.000000</ele>
				<time>2024-04-10T04:24:23Z</time>
			</trkpt>
			<trkpt lat="33.246254" lon="103.833466">
				<ele>3159.000000</ele>
				<time>2024-04-10T04:24:23Z</time>
			</trkpt>
			<trkpt lat="33.246269" lon="103.833359">
				<ele>3159.000000</ele>
				<time>2024-04-10T04:24:23Z</time>
			</trkpt>
			<trkpt lat="33.246304" lon="103.833252">
				<ele>3159.000000</ele>
				<time>2024-04-10T04:24:23Z</time>
			</trkpt>
			<trkpt lat="33.246346" lon="103.833153">
				<ele>3150.000000</ele>
				<time>2024-04-10T04:24:23Z</time>
			</trkpt>
			<trkpt lat="33.246372" lon="103.833038">
				<ele>3150.000000</ele>
				<time>2024-04-10T04:24:23Z</time>
			</trkpt>
			<trkpt lat="33.246395" lon="103.832932">
				<ele>3150.000000</ele>
				<time>2024-04-10T04:24:23Z</time>
			</trkpt>
			<trkpt lat="33.246426" lon="103.832825">
				<ele>3145.000000</ele>
				<time>2024-04-10T04:24:23Z</time>
			</trkpt>
			<trkpt lat="33.246487" lon="103.832741">
				<ele>3145.000000</ele>
				<time>2024-04-10T04:24:23Z</time>
			</trkpt>
			<trkpt lat="33.246502" lon="103.832626">
				<ele>3143.000000</ele>
				<time>2024-04-10T04:24:23Z</time>
			</trkpt>
			<trkpt lat="33.246552" lon="103.832542">
				<ele>3142.000000</ele>
				<time>2024-04-10T04:24:23Z</time>
			</trkpt>
			<trkpt lat="33.246590" lon="103.832436">
				<ele>3142.000000</ele>
				<time>2024-04-10T04:24:23Z</time>
			</trkpt>
			<trkpt lat="33.246616" lon="103.832329">
				<ele>3137.000000</ele>
				<time>2024-04-10T04:24:23Z</time>
			</trkpt>
			<trkpt lat="33.246658" lon="103.832214">
				<ele>3137.000000</ele>
				<time>2024-04-10T04:24:23Z</time>
			</trkpt>
			<trkpt lat="33.246704" lon="103.832115">
				<ele>3137.000000</ele>
				<time>2024-04-10T04:24:23Z</time>
			</trkpt>
			<trkpt lat="33.246712" lon="103.832001">
				<ele>3131.000000</ele>
				<time>2024-04-10T04:24:23Z</time>
			</trkpt>
			<trkpt lat="33.246731" lon="103.831894">
				<ele>3131.000000</ele>
				<time>2024-04-10T04:24:23Z</time>
			</trkpt>
			<trkpt lat="33.246731" lon="103.831772">
				<ele>3125.000000</ele>
				<time>2024-04-10T04:24:23Z</time>
			</trkpt>
			<trkpt lat="33.246765" lon="103.831665">
				<ele>3125.000000</ele>
				<time>2024-04-10T04:24:23Z</time>
			</trkpt>
			<trkpt lat="33.246788" lon="103.831543">
				<ele>3125.000000</ele>
				<time>2024-04-10T04:24:23Z</time>
			</trkpt>
			<trkpt lat="33.246861" lon="103.831474">
				<ele>3119.000000</ele>
				<time>2024-04-10T04:24:23Z</time>
			</trkpt>
			<trkpt lat="33.246937" lon="103.831421">
				<ele>3119.000000</ele>
				<time>2024-04-10T04:24:23Z</time>
			</trkpt>
			<trkpt lat="33.246990" lon="103.831329">
				<ele>3119.000000</ele>
				<time>2024-04-10T04:24:23Z</time>
			</trkpt>
			<trkpt lat="33.247051" lon="103.831253">
				<ele>3119.000000</ele>
				<time>2024-04-10T04:24:23Z</time>
			</trkpt>
			<trkpt lat="33.247066" lon="103.831146">
				<ele>3113.000000</ele>
				<time>2024-04-10T04:24:23Z</time>
			</trkpt>
			<trkpt lat="33.247082" lon="103.831039">
				<ele>3113.000000</ele>
				<time>2024-04-10T04:24:23Z</time>
			</trkpt>
			<trkpt lat="33.247124" lon="103.830940">
				<ele>3101.000000</ele>
				<time>2024-04-10T04:24:23Z</time>
			</trkpt>
			<trkpt lat="33.247135" lon="103.830826">
				<ele>3101.000000</ele>
				<time>2024-04-10T04:24:23Z</time>
			</trkpt>
			<trkpt lat="33.247185" lon="103.830727">
				<ele>3101.000000</ele>
				<time>2024-04-10T04:24:23Z</time>
			</trkpt>
			<trkpt lat="33.247272" lon="103.830711">
				<ele>3101.000000</ele>
				<time>2024-04-10T04:24:23Z</time>
			</trkpt>
			<trkpt lat="33.247368" lon="103.830711">
				<ele>3098.000000</ele>
				<time>2024-04-10T04:24:23Z</time>
			</trkpt>
			<trkpt lat="33.247459" lon="103.830681">
				<ele>3096.000000</ele>
				<time>2024-04-10T04:24:23Z</time>
			</trkpt>
			<trkpt lat="33.247551" lon="103.830650">
				<ele>3096.000000</ele>
				<time>2024-04-10T04:24:23Z</time>
			</trkpt>
			<trkpt lat="33.247555" lon="103.830536">
				<ele>3096.000000</ele>
				<time>2024-04-10T04:24:23Z</time>
			</trkpt>
			<trkpt lat="33.247623" lon="103.830467">
				<ele>3096.000000</ele>
				<time>2024-04-10T04:24:23Z</time>
			</trkpt>
			<trkpt lat="33.247559" lon="103.830383">
				<ele>3093.000000</ele>
				<time>2024-04-10T04:24:23Z</time>
			</trkpt>
			<trkpt lat="33.247513" lon="103.830292">
				<ele>3093.000000</ele>
				<time>2024-04-10T04:24:23Z</time>
			</trkpt>
			<trkpt lat="33.247501" lon="103.830177">
				<ele>3093.000000</ele>
				<time>2024-04-10T04:24:23Z</time>
			</trkpt>
			<trkpt lat="33.247555" lon="103.830070">
				<ele>3089.000000</ele>
				<time>2024-04-10T04:24:23Z</time>
			</trkpt>
			<trkpt lat="33.247555" lon="103.829964">
				<ele>3089.000000</ele>
				<time>2024-04-10T04:24:23Z</time>
			</trkpt>
			<trkpt lat="33.247620" lon="103.829880">
				<ele>3089.000000</ele>
				<time>2024-04-10T04:24:23Z</time>
			</trkpt>
			<trkpt lat="33.247688" lon="103.829788">
				<ele>3077.000000</ele>
				<time>2024-04-10T04:24:23Z</time>
			</trkpt>
			<trkpt lat="33.247726" lon="103.829689">
				<ele>3077.000000</ele>
				<time>2024-04-10T04:24:23Z</time>
			</trkpt>
			<trkpt lat="33.247776" lon="103.829582">
				<ele>3070.000000</ele>
				<time>2024-04-10T04:24:23Z</time>
			</trkpt>
			<trkpt lat="33.247810" lon="103.829475">
				<ele>3070.000000</ele>
				<time>2024-04-10T04:24:23Z</time>
			</trkpt>
			<trkpt lat="33.247791" lon="103.829346">
				<ele>3070.000000</ele>
				<time>2024-04-10T04:24:23Z</time>
			</trkpt>
			<trkpt lat="33.247883" lon="103.829323">
				<ele>3070.000000</ele>
				<time>2024-04-10T04:24:23Z</time>
			</trkpt>
			<trkpt lat="33.247974" lon="103.829315">
				<ele>3068.000000</ele>
				<time>2024-04-10T04:24:23Z</time>
			</trkpt>
			<trkpt lat="33.248062" lon="103.829285">
				<ele>3065.000000</ele>
				<time>2024-04-10T04:24:23Z</time>
			</trkpt>
			<trkpt lat="33.248158" lon="103.829277">
				<ele>3065.000000</ele>
				<time>2024-04-10T04:24:23Z</time>
			</trkpt>
			<trkpt lat="33.248203" lon="103.829170">
				<ele>3053.000000</ele>
				<time>2024-04-10T04:24:23Z</time>
			</trkpt>
			<trkpt lat="33.248264" lon="103.829086">
				<ele>3053.000000</ele>
				<time>2024-04-10T04:24:23Z</time>
			</trkpt>
			<trkpt lat="33.248302" lon="103.828979">
				<ele>3052.000000</ele>
				<time>2024-04-10T04:24:23Z</time>
			</trkpt>
			<trkpt lat="33.248371" lon="103.828896">
				<ele>3052.000000</ele>
				<time>2024-04-10T04:24:23Z</time>
			</trkpt>
			<trkpt lat="33.248451" lon="103.828819">
				<ele>3052.000000</ele>
				<time>2024-04-10T04:24:23Z</time>
			</trkpt>
			<trkpt lat="33.248466" lon="103.828712">
				<ele>3041.000000</ele>
				<time>2024-04-10T04:24:23Z</time>
			</trkpt>
			<trkpt lat="33.248463" lon="103.828598">
				<ele>3041.000000</ele>
				<time>2024-04-10T04:24:23Z</time>
			</trkpt>
			<trkpt lat="33.248543" lon="103.828537">
				<ele>3035.000000</ele>
				<time>2024-04-10T04:24:23Z</time>
			</trkpt>
			<trkpt lat="33.248608" lon="103.828461">
				<ele>3028.000000</ele>
				<time>2024-04-10T04:24:23Z</time>
			</trkpt>
			<trkpt lat="33.248631" lon="103.828354">
				<ele>3028.000000</ele>
				<time>2024-04-10T04:24:23Z</time>
			</trkpt>
			<trkpt lat="33.248718" lon="103.828308">
				<ele>3028.000000</ele>
				<time>2024-04-10T04:24:23Z</time>
			</trkpt>
			<trkpt lat="33.248753" lon="103.828201">
				<ele>3021.000000</ele>
				<time>2024-04-10T04:24:23Z</time>
			</trkpt>
			<trkpt lat="33.248837" lon="103.828148">
				<ele>3013.000000</ele>
				<time>2024-04-10T04:24:23Z</time>
			</trkpt>
			<trkpt lat="33.248913" lon="103.828079">
				<ele>3013.000000</ele>
				<time>2024-04-10T04:24:23Z</time>
			</trkpt>
			<trkpt lat="33.249004" lon="103.828064">
				<ele>3013.000000</ele>
				<time>2024-04-10T04:24:23Z</time>
			</trkpt>
			<trkpt lat="33.249065" lon="103.827980">
				<ele>3015.000000</ele>
				<time>2024-04-10T04:24:23Z</time>
			</trkpt>
			<trkpt lat="33.249142" lon="103.827919">
				<ele>3015.000000</ele>
				<time>2024-04-10T04:24:23Z</time>
			</trkpt>
			<trkpt lat="33.249184" lon="103.827805">
				<ele>3003.000000</ele>
				<time>2024-04-10T04:24:23Z</time>
			</trkpt>
			<trkpt lat="33.249233" lon="103.827713">
				<ele>3003.000000</ele>
				<time>2024-04-10T04:24:23Z</time>
			</trkpt>
			<trkpt lat="33.249260" lon="103.827606">
				<ele>2994.000000</ele>
				<time>2024-04-10T04:24:23Z</time>
			</trkpt>
			<trkpt lat="33.249352" lon="103.827576">
				<ele>2994.000000</ele>
				<time>2024-04-10T04:24:23Z</time>
			</trkpt>
			<trkpt lat="33.249451" lon="103.827568">
				<ele>2994.000000</ele>
				<time>2024-04-10T04:24:23Z</time>
			</trkpt>
			<trkpt lat="33.249516" lon="103.827492">
				<ele>2994.000000</ele>
				<time>2024-04-10T04:24:23Z</time>
			</trkpt>
			<trkpt lat="33.249569" lon="103.827400">
				<ele>2994.000000</ele>
				<time>2024-04-10T04:24:23Z</time>
			</trkpt>
			<trkpt lat="33.249619" lon="103.827301">
				<ele>2993.000000</ele>
				<time>2024-04-10T04:24:23Z</time>
			</trkpt>
			<trkpt lat="33.249634" lon="103.827194">
				<ele>2993.000000</ele>
				<time>2024-04-10T04:24:23Z</time>
			</trkpt>
			<trkpt lat="33.249649" lon="103.827080">
				<ele>2987.000000</ele>
				<time>2024-04-10T04:24:23Z</time>
			</trkpt>
			<trkpt lat="33.249660" lon="103.826973">
				<ele>2987.000000</ele>
				<time>2024-04-10T04:24:23Z</time>
			</trkpt>
			<trkpt lat="33.249645" lon="103.826859">
				<ele>2987.000000</ele>
				<time>2024-04-10T04:24:23Z</time>
			</trkpt>
			<trkpt lat="33.249680" lon="103.826759">
				<ele>2978.000000</ele>
				<time>2024-04-10T04:24:23Z</time>
			</trkpt>
			<trkpt lat="33.249733" lon="103.826660">
				<ele>2978.000000</ele>
				<time>2024-04-10T04:24:23Z</time>
			</trkpt>
			<trkpt lat="33.249809" lon="103.826591">
				<ele>2978.000000</ele>
				<time>2024-04-10T04:24:23Z</time>
			</trkpt>
			<trkpt lat="33.249870" lon="103.826492">
				<ele>2959.000000</ele>
				<time>2024-04-10T04:24:23Z</time>
			</trkpt>
			<trkpt lat="33.249973" lon="103.826454">
				<ele>2959.000000</ele>
				<time>2024-04-10T04:24:23Z</time>
			</trkpt>
			<trkpt lat="33.250076" lon="103.826416">
				<ele>2959.000000</ele>
				<time>2024-04-10T04:24:23Z</time>
			</trkpt>
			<trkpt lat="33.250160" lon="103.826355">
				<ele>2954.000000</ele>
				<time>2024-04-10T04:24:23Z</time>
			</trkpt>
			<trkpt lat="33.250244" lon="103.826309">
				<ele>2954.000000</ele>
				<time>2024-04-10T04:24:23Z</time>
			</trkpt>
			<trkpt lat="33.250336" lon="103.826286">
				<ele>2954.000000</ele>
				<time>2024-04-10T04:24:23Z</time>
			</trkpt>
			<trkpt lat="33.250408" lon="103.826210">
				<ele>2945.000000</ele>
				<time>2024-04-10T04:24:23Z</time>
			</trkpt>
			<trkpt lat="33.250469" lon="103.826126">
				<ele>2944.000000</ele>
				<time>2024-04-10T04:24:23Z</time>
			</trkpt>
			<trkpt lat="33.250553" lon="103.826073">
				<ele>2944.000000</ele>
				<time>2024-04-10T04:24:23Z</time>
			</trkpt>
			<trkpt lat="33.250599" lon="103.825981">
				<ele>2944.000000</ele>
				<time>2024-04-10T04:24:23Z</time>
			</trkpt>
			<trkpt lat="33.250675" lon="103.825890">
				<ele>2938.000000</ele>
				<time>2024-04-10T04:24:23Z</time>
			</trkpt>
			<trkpt lat="33.250618" lon="103.825806">
				<ele>2938.000000</ele>
				<time>2024-04-10T04:24:23Z</time>
			</trkpt>
			<trkpt lat="33.250366" lon="103.825569">
				<ele>2936.000000</ele>
				<time>2024-04-10T04:24:23Z</time>
			</trkpt>
			<trkpt lat="33.250484" lon="103.825478">
				<ele>2936.000000</ele>
				<time>2024-04-10T04:24:23Z</time>
			</trkpt>
			<trkpt lat="33.250717" lon="103.825546">
				<ele>2931.000000</ele>
				<time>2024-04-10T04:24:23Z</time>
			</trkpt>
			<trkpt lat="33.250717" lon="103.825546">
				<ele>2931.000000</ele>
				<time>2024-04-10T04:24:23Z</time>
			</trkpt>
			<trkpt lat="33.250828" lon="103.825500">
				<ele>2931.000000</ele>
				<time>2024-04-10T04:24:23Z</time>
			</trkpt>
			<trkpt lat="33.250828" lon="103.825500">
				<ele>2931.000000</ele>
				<time>2024-04-10T04:24:23Z</time>
			</trkpt>
			<trkpt lat="33.250828" lon="103.825500">
				<ele>2931.000000</ele>
				<time>2024-04-10T04:24:23Z</time>
			</trkpt>
			<trkpt lat="33.250896" lon="103.825447">
				<ele>2931.000000</ele>
				<time>2024-04-10T04:24:23Z</time>
			</trkpt>
			<trkpt lat="33.250896" lon="103.825447">
				<ele>2931.000000</ele>
				<time>2024-04-10T04:24:23Z</time>
			</trkpt>
			<trkpt lat="33.250957" lon="103.825371">
				<ele>2926.000000</ele>
				<time>2024-04-10T04:24:23Z</time>
			</trkpt>
			<trkpt lat="33.251022" lon="103.825272">
				<ele>2925.000000</ele>
				<time>2024-04-10T04:24:23Z</time>
			</trkpt>
			<trkpt lat="33.251091" lon="103.825172">
				<ele>2925.000000</ele>
				<time>2024-04-10T04:24:23Z</time>
			</trkpt>
			<trkpt lat="33.251190" lon="103.825104">
				<ele>2926.000000</ele>
				<time>2024-04-10T04:24:23Z</time>
			</trkpt>
			<trkpt lat="33.251301" lon="103.825111">
				<ele>2922.000000</ele>
				<time>2024-04-10T04:24:23Z</time>
			</trkpt>
			<trkpt lat="33.251415" lon="103.825119">
				<ele>2922.000000</ele>
				<time>2024-04-10T04:24:23Z</time>
			</trkpt>
			<trkpt lat="33.251518" lon="103.825096">
				<ele>2922.000000</ele>
				<time>2024-04-10T04:24:23Z</time>
			</trkpt>
			<trkpt lat="33.251606" lon="103.825027">
				<ele>2917.000000</ele>
				<time>2024-04-10T04:24:23Z</time>
			</trkpt>
			<trkpt lat="33.251682" lon="103.824966">
				<ele>2917.000000</ele>
				<time>2024-04-10T04:24:23Z</time>
			</trkpt>
			<trkpt lat="33.251736" lon="103.824905">
				<ele>2917.000000</ele>
				<time>2024-04-10T04:24:23Z</time>
			</trkpt>
			<trkpt lat="33.251781" lon="103.824852">
				<ele>2913.000000</ele>
				<time>2024-04-10T04:24:23Z</time>
			</trkpt>
			<trkpt lat="33.251812" lon="103.824745">
				<ele>2906.000000</ele>
				<time>2024-04-10T04:24:23Z</time>
			</trkpt>
			<trkpt lat="33.251896" lon="103.824669">
				<ele>2906.000000</ele>
				<time>2024-04-10T04:24:23Z</time>
			</trkpt>
			<trkpt lat="33.251987" lon="103.824684">
				<ele>2906.000000</ele>
				<time>2024-04-10T04:24:23Z</time>
			</trkpt>
			<trkpt lat="33.252045" lon="103.824722">
				<ele>2906.000000</ele>
				<time>2024-04-10T04:24:23Z</time>
			</trkpt>
			<trkpt lat="33.252113" lon="103.824692">
				<ele>2904.000000</ele>
				<time>2024-04-10T04:24:23Z</time>
			</trkpt>
			<trkpt lat="33.252159" lon="103.824593">
				<ele>2904.000000</ele>
				<time>2024-04-10T04:24:23Z</time>
			</trkpt>
			<trkpt lat="33.252213" lon="103.824486">
				<ele>2900.000000</ele>
				<time>2024-04-10T04:24:23Z</time>
			</trkpt>
			<trkpt lat="33.252228" lon="103.824432">
				<ele>2900.000000</ele>
				<time>2024-04-10T04:24:23Z</time>
			</trkpt>
			<trkpt lat="33.252274" lon="103.824364">
				<ele>2900.000000</ele>
				<time>2024-04-10T04:24:23Z</time>
			</trkpt>
			<trkpt lat="33.252342" lon="103.824280">
				<ele>2898.000000</ele>
				<time>2024-04-10T04:24:23Z</time>
			</trkpt>
			<trkpt lat="33.252426" lon="103.824211">
				<ele>2897.000000</ele>
				<time>2024-04-10T04:24:23Z</time>
			</trkpt>
			<trkpt lat="33.252510" lon="103.824142">
				<ele>2897.000000</ele>
				<time>2024-04-10T04:24:23Z</time>
			</trkpt>
			<trkpt lat="33.252583" lon="103.824066">
				<ele>2897.000000</ele>
				<time>2024-04-10T04:24:23Z</time>
			</trkpt>
			<trkpt lat="33.252663" lon="103.824005">
				<ele>2891.000000</ele>
				<time>2024-04-10T04:24:23Z</time>
			</trkpt>
			<trkpt lat="33.252743" lon="103.823944">
				<ele>2891.000000</ele>
				<time>2024-04-10T04:24:23Z</time>
			</trkpt>
			<trkpt lat="33.252834" lon="103.823906">
				<ele>2891.000000</ele>
				<time>2024-04-10T04:24:23Z</time>
			</trkpt>
			<trkpt lat="33.252911" lon="103.823837">
				<ele>2891.000000</ele>
				<time>2024-04-10T04:24:23Z</time>
			</trkpt>
			<trkpt lat="33.252979" lon="103.823746">
				<ele>2896.000000</ele>
				<time>2024-04-10T04:24:23Z</time>
			</trkpt>
			<trkpt lat="33.253059" lon="103.823669">
				<ele>2896.000000</ele>
				<time>2024-04-10T04:24:23Z</time>
			</trkpt>
			<trkpt lat="33.253147" lon="103.823616">
				<ele>2896.000000</ele>
				<time>2024-04-10T04:24:23Z</time>
			</trkpt>
			<trkpt lat="33.253246" lon="103.823578">
				<ele>2896.000000</ele>
				<time>2024-04-10T04:24:23Z</time>
			</trkpt>
			<trkpt lat="33.253277" lon="103.823586">
				<ele>2896.000000</ele>
				<time>2024-04-10T04:24:23Z</time>
			</trkpt>
			<trkpt lat="33.253353" lon="103.823616">
				<ele>2896.000000</ele>
				<time>2024-04-10T04:24:23Z</time>
			</trkpt>
			<trkpt lat="33.253452" lon="103.823631">
				<ele>2896.000000</ele>
				<time>2024-04-10T04:24:23Z</time>
			</trkpt>
			<trkpt lat="33.253502" lon="103.823639">
				<ele>2898.000000</ele>
				<time>2024-04-10T04:24:23Z</time>
			</trkpt>
			<trkpt lat="33.253559" lon="103.823715">
				<ele>2898.000000</ele>
				<time>2024-04-10T04:24:23Z</time>
			</trkpt>
			<trkpt lat="33.253601" lon="103.823822">
				<ele>2897.000000</ele>
				<time>2024-04-10T04:24:23Z</time>
			</trkpt>
			<trkpt lat="33.253666" lon="103.823929">
				<ele>2897.000000</ele>
				<time>2024-04-10T04:24:23Z</time>
			</trkpt>
			<trkpt lat="33.253750" lon="103.823997">
				<ele>2897.000000</ele>
				<time>2024-04-10T04:24:23Z</time>
			</trkpt>
			<trkpt lat="33.253819" lon="103.824081">
				<ele>2895.000000</ele>
				<time>2024-04-10T04:24:23Z</time>
			</trkpt>
			<trkpt lat="33.253906" lon="103.824120">
				<ele>2895.000000</ele>
				<time>2024-04-10T04:24:23Z</time>
			</trkpt>
			<trkpt lat="33.253998" lon="103.824150">
				<ele>2895.000000</ele>
				<time>2024-04-10T04:24:23Z</time>
			</trkpt>
			<trkpt lat="33.254097" lon="103.824188">
				<ele>2899.000000</ele>
				<time>2024-04-10T04:24:23Z</time>
			</trkpt>
			<trkpt lat="33.254196" lon="103.824242">
				<ele>2899.000000</ele>
				<time>2024-04-10T04:24:23Z</time>
			</trkpt>
			<trkpt lat="33.254280" lon="103.824310">
				<ele>2898.000000</ele>
				<time>2024-04-10T04:24:23Z</time>
			</trkpt>
			<trkpt lat="33.254349" lon="103.824409">
				<ele>2914.000000</ele>
				<time>2024-04-10T04:24:23Z</time>
			</trkpt>
			<trkpt lat="33.254414" lon="103.824493">
				<ele>2914.000000</ele>
				<time>2024-04-10T04:24:23Z</time>
			</trkpt>
			<trkpt lat="33.254498" lon="103.824509">
				<ele>2914.000000</ele>
				<time>2024-04-10T04:24:23Z</time>
			</trkpt>
			<trkpt lat="33.254585" lon="103.824539">
				<ele>2929.000000</ele>
				<time>2024-04-10T04:24:23Z</time>
			</trkpt>
			<trkpt lat="33.254684" lon="103.824532">
				<ele>2929.000000</ele>
				<time>2024-04-10T04:24:23Z</time>
			</trkpt>
			<trkpt lat="33.254780" lon="103.824554">
				<ele>2929.000000</ele>
				<time>2024-04-10T04:24:23Z</time>
			</trkpt>
			<trkpt lat="33.254871" lon="103.824593">
				<ele>2939.000000</ele>
				<time>2024-04-10T04:24:23Z</time>
			</trkpt>
			<trkpt lat="33.254955" lon="103.824646">
				<ele>2939.000000</ele>
				<time>2024-04-10T04:24:23Z</time>
			</trkpt>
			<trkpt lat="33.255028" lon="103.824738">
				<ele>2939.000000</ele>
				<time>2024-04-10T04:24:23Z</time>
			</trkpt>
			<trkpt lat="33.255119" lon="103.824783">
				<ele>2939.000000</ele>
				<time>2024-04-10T04:24:23Z</time>
			</trkpt>
			<trkpt lat="33.255215" lon="103.824821">
				<ele>2943.000000</ele>
				<time>2024-04-10T04:24:23Z</time>
			</trkpt>
			<trkpt lat="33.255283" lon="103.824898">
				<ele>2945.000000</ele>
				<time>2024-04-10T04:24:23Z</time>
			</trkpt>
			<trkpt lat="33.255325" lon="103.825005">
				<ele>2945.000000</ele>
				<time>2024-04-10T04:24:23Z</time>
			</trkpt>
			<trkpt lat="33.255341" lon="103.825127">
				<ele>2945.000000</ele>
				<time>2024-04-10T04:24:23Z</time>
			</trkpt>
			<trkpt lat="33.255341" lon="103.825264">
				<ele>2954.000000</ele>
				<time>2024-04-10T04:24:23Z</time>
			</trkpt>
			<trkpt lat="33.255329" lon="103.825378">
				<ele>2954.000000</ele>
				<time>2024-04-10T04:24:23Z</time>
			</trkpt>
			<trkpt lat="33.255325" lon="103.825493">
				<ele>2962.000000</ele>
				<time>2024-04-10T04:24:23Z</time>
			</trkpt>
			<trkpt lat="33.255325" lon="103.825607">
				<ele>2962.000000</ele>
				<time>2024-04-10T04:24:23Z</time>
			</trkpt>
			<trkpt lat="33.255325" lon="103.825722">
				<ele>2970.000000</ele>
				<time>2024-04-10T04:24:23Z</time>
			</trkpt>
			<trkpt lat="33.255371" lon="103.825821">
				<ele>2970.000000</ele>
				<time>2024-04-10T04:24:23Z</time>
			</trkpt>
			<trkpt lat="33.255432" lon="103.825912">
				<ele>2972.000000</ele>
				<time>2024-04-10T04:24:23Z</time>
			</trkpt>
			<trkpt lat="33.255470" lon="103.826019">
				<ele>2975.000000</ele>
				<time>2024-04-10T04:24:23Z</time>
			</trkpt>
			<trkpt lat="33.255459" lon="103.826126">
				<ele>2975.000000</ele>
				<time>2024-04-10T04:24:23Z</time>
			</trkpt>
			<trkpt lat="33.255390" lon="103.826210">
				<ele>2977.000000</ele>
				<time>2024-04-10T04:24:23Z</time>
			</trkpt>
			<trkpt lat="33.255375" lon="103.826317">
				<ele>2983.000000</ele>
				<time>2024-04-10T04:24:23Z</time>
			</trkpt>
			<trkpt lat="33.255413" lon="103.826416">
				<ele>2983.000000</ele>
				<time>2024-04-10T04:24:23Z</time>
			</trkpt>
			<trkpt lat="33.255440" lon="103.826523">
				<ele>2978.000000</ele>
				<time>2024-04-10T04:24:23Z</time>
			</trkpt>
			<trkpt lat="33.255444" lon="103.826637">
				<ele>2982.000000</ele>
				<time>2024-04-10T04:24:23Z</time>
			</trkpt>
			<trkpt lat="33.255440" lon="103.826744">
				<ele>2982.000000</ele>
				<time>2024-04-10T04:24:23Z</time>
			</trkpt>
			<trkpt lat="33.255451" lon="103.826859">
				<ele>2993.000000</ele>
				<time>2024-04-10T04:24:23Z</time>
			</trkpt>
			<trkpt lat="33.255505" lon="103.826950">
				<ele>2993.000000</ele>
				<time>2024-04-10T04:24:23Z</time>
			</trkpt>
			<trkpt lat="33.255505" lon="103.826950">
				<ele>2993.000000</ele>
				<time>2024-04-10T04:24:23Z</time>
			</trkpt>
			<trkpt lat="33.255569" lon="103.827057">
				<ele>2993.000000</ele>
				<time>2024-04-10T04:24:23Z</time>
			</trkpt>
			<trkpt lat="33.255569" lon="103.827057">
				<ele>2993.000000</ele>
				<time>2024-04-10T04:24:23Z</time>
			</trkpt>
			<trkpt lat="33.255650" lon="103.827118">
				<ele>2996.000000</ele>
				<time>2024-04-10T04:24:23Z</time>
			</trkpt>
			<trkpt lat="33.255695" lon="103.827217">
				<ele>3002.000000</ele>
				<time>2024-04-10T04:24:23Z</time>
			</trkpt>
			<trkpt lat="33.255688" lon="103.827324">
				<ele>2996.000000</ele>
				<time>2024-04-10T04:24:23Z</time>
			</trkpt>
			<trkpt lat="33.255733" lon="103.827408">
				<ele>3010.000000</ele>
				<time>2024-04-10T04:24:23Z</time>
			</trkpt>
			<trkpt lat="33.255802" lon="103.827484">
				<ele>3010.000000</ele>
				<time>2024-04-10T04:24:23Z</time>
			</trkpt>
			<trkpt lat="33.255890" lon="103.827522">
				<ele>3010.000000</ele>
				<time>2024-04-10T04:24:23Z</time>
			</trkpt>
			<trkpt lat="33.255966" lon="103.827583">
				<ele>3010.000000</ele>
				<time>2024-04-10T04:24:23Z</time>
			</trkpt>
			<trkpt lat="33.256020" lon="103.827675">
				<ele>3023.000000</ele>
				<time>2024-04-10T04:24:23Z</time>
			</trkpt>
			<trkpt lat="33.256096" lon="103.827728">
				<ele>3023.000000</ele>
				<time>2024-04-10T04:24:23Z</time>
			</trkpt>
			<trkpt lat="33.256187" lon="103.827751">
				<ele>3023.000000</ele>
				<time>2024-04-10T04:24:23Z</time>
			</trkpt>
			<trkpt lat="33.256268" lon="103.827805">
				<ele>3032.000000</ele>
				<time>2024-04-10T04:24:23Z</time>
			</trkpt>
			<trkpt lat="33.256355" lon="103.827843">
				<ele>3032.000000</ele>
				<time>2024-04-10T04:24:23Z</time>
			</trkpt>
			<trkpt lat="33.256447" lon="103.827866">
				<ele>3032.000000</ele>
				<time>2024-04-10T04:24:23Z</time>
			</trkpt>
			<trkpt lat="33.256546" lon="103.827888">
				<ele>3033.000000</ele>
				<time>2024-04-10T04:24:23Z</time>
			</trkpt>
			<trkpt lat="33.256569" lon="103.827980">
				<ele>3044.000000</ele>
				<time>2024-04-10T04:24:23Z</time>
			</trkpt>
			<trkpt lat="33.256634" lon="103.827980">
				<ele>3044.000000</ele>
				<time>2024-04-10T04:24:23Z</time>
			</trkpt>
			<trkpt lat="33.256718" lon="103.827942">
				<ele>3044.000000</ele>
				<time>2024-04-10T04:24:23Z</time>
			</trkpt>
			<trkpt lat="33.256809" lon="103.827896">
				<ele>3028.000000</ele>
				<time>2024-04-10T04:24:23Z</time>
			</trkpt>
			<trkpt lat="33.256908" lon="103.827858">
				<ele>3028.000000</ele>
				<time>2024-04-10T04:24:23Z</time>
			</trkpt>
			<trkpt lat="33.257004" lon="103.827858">
				<ele>3028.000000</ele>
				<time>2024-04-10T04:24:23Z</time>
			</trkpt>
			<trkpt lat="33.257092" lon="103.827919">
				<ele>3034.000000</ele>
				<time>2024-04-10T04:24:23Z</time>
			</trkpt>
			<trkpt lat="33.257183" lon="103.827957">
				<ele>3034.000000</ele>
				<time>2024-04-10T04:24:23Z</time>
			</trkpt>
			<trkpt lat="33.257278" lon="103.827995">
				<ele>3034.000000</ele>
				<time>2024-04-10T04:24:23Z</time>
			</trkpt>
			<trkpt lat="33.257317" lon="103.828003">
				<ele>3034.000000</ele>
				<time>2024-04-10T04:24:23Z</time>
			</trkpt>
			<trkpt lat="33.257389" lon="103.827965">
				<ele>3034.000000</ele>
				<time>2024-04-10T04:24:23Z</time>
			</trkpt>
			<trkpt lat="33.257481" lon="103.827942">
				<ele>3034.000000</ele>
				<time>2024-04-10T04:24:23Z</time>
			</trkpt>
			<trkpt lat="33.257580" lon="103.827934">
				<ele>3034.000000</ele>
				<time>2024-04-10T04:24:23Z</time>
			</trkpt>
			<trkpt lat="33.257618" lon="103.827950">
				<ele>3034.000000</ele>
				<time>2024-04-10T04:24:23Z</time>
			</trkpt>
			<trkpt lat="33.257614" lon="103.828033">
				<ele>3034.000000</ele>
				<time>2024-04-10T04:24:23Z</time>
			</trkpt>
			<trkpt lat="33.257614" lon="103.828148">
				<ele>3034.000000</ele>
				<time>2024-04-10T04:24:23Z</time>
			</trkpt>
			<trkpt lat="33.257626" lon="103.828270">
				<ele>3042.000000</ele>
				<time>2024-04-10T04:24:23Z</time>
			</trkpt>
			<trkpt lat="33.257629" lon="103.828392">
				<ele>3042.000000</ele>
				<time>2024-04-10T04:24:23Z</time>
			</trkpt>
			<trkpt lat="33.257626" lon="103.828514">
				<ele>3049.000000</ele>
				<time>2024-04-10T04:24:23Z</time>
			</trkpt>
			<trkpt lat="33.257633" lon="103.828644">
				<ele>3049.000000</ele>
				<time>2024-04-10T04:24:23Z</time>
			</trkpt>
			<trkpt lat="33.257679" lon="103.828743">
				<ele>3042.000000</ele>
				<time>2024-04-10T04:24:23Z</time>
			</trkpt>
			<trkpt lat="33.257759" lon="103.828819">
				<ele>3046.000000</ele>
				<time>2024-04-10T04:24:23Z</time>
			</trkpt>
			<trkpt lat="33.257839" lon="103.828896">
				<ele>3046.000000</ele>
				<time>2024-04-10T04:24:23Z</time>
			</trkpt>
			<trkpt lat="33.257927" lon="103.828979">
				<ele>3035.000000</ele>
				<time>2024-04-10T04:24:23Z</time>
			</trkpt>
			<trkpt lat="33.258022" lon="103.829033">
				<ele>3043.000000</ele>
				<time>2024-04-10T04:24:23Z</time>
			</trkpt>
			<trkpt lat="33.258095" lon="103.829132">
				<ele>3043.000000</ele>
				<time>2024-04-10T04:24:23Z</time>
			</trkpt>
			<trkpt lat="33.258160" lon="103.829224">
				<ele>3043.000000</ele>
				<time>2024-04-10T04:24:23Z</time>
			</trkpt>
			<trkpt lat="33.258198" lon="103.829277">
				<ele>3036.000000</ele>
				<time>2024-04-10T04:24:23Z</time>
			</trkpt>
			<trkpt lat="33.258263" lon="103.829323">
				<ele>3041.000000</ele>
				<time>2024-04-10T04:24:23Z</time>
			</trkpt>
			<trkpt lat="33.258350" lon="103.829308">
				<ele>3041.000000</ele>
				<time>2024-04-10T04:24:23Z</time>
			</trkpt>
			<trkpt lat="33.258446" lon="103.829315">
				<ele>3041.000000</ele>
				<time>2024-04-10T04:24:23Z</time>
			</trkpt>
			<trkpt lat="33.258533" lon="103.829361">
				<ele>3034.000000</ele>
				<time>2024-04-10T04:24:23Z</time>
			</trkpt>
			<trkpt lat="33.258614" lon="103.829414">
				<ele>3034.000000</ele>
				<time>2024-04-10T04:24:23Z</time>
			</trkpt>
			<trkpt lat="33.258690" lon="103.829475">
				<ele>3034.000000</ele>
				<time>2024-04-10T04:24:23Z</time>
			</trkpt>
			<trkpt lat="33.258755" lon="103.829506">
				<ele>3023.000000</ele>
				<time>2024-04-10T04:24:23Z</time>
			</trkpt>
			<trkpt lat="33.258842" lon="103.829529">
				<ele>3023.000000</ele>
				<time>2024-04-10T04:24:23Z</time>
			</trkpt>
			<trkpt lat="33.258919" lon="103.829590">
				<ele>3039.000000</ele>
				<time>2024-04-10T04:24:23Z</time>
			</trkpt>
			<trkpt lat="33.258991" lon="103.829666">
				<ele>3039.000000</ele>
				<time>2024-04-10T04:24:23Z</time>
			</trkpt>
			<trkpt lat="33.259079" lon="103.829720">
				<ele>3028.000000</ele>
				<time>2024-04-10T04:24:23Z</time>
			</trkpt>
			<trkpt lat="33.259167" lon="103.829788">
				<ele>3028.000000</ele>
				<time>2024-04-10T04:24:23Z</time>
			</trkpt>
			<trkpt lat="33.259228" lon="103.829872">
				<ele>3043.000000</ele>
				<time>2024-04-10T04:24:23Z</time>
			</trkpt>
			<trkpt lat="33.259289" lon="103.829956">
				<ele>3043.000000</ele>
				<time>2024-04-10T04:24:23Z</time>
			</trkpt>
			<trkpt lat="33.259350" lon="103.830040">
				<ele>3033.000000</ele>
				<time>2024-04-10T04:24:23Z</time>
			</trkpt>
			<trkpt lat="33.259426" lon="103.830116">
				<ele>3033.000000</ele>
				<time>2024-04-10T04:24:23Z</time>
			</trkpt>
			<trkpt lat="33.259434" lon="103.830185">
				<ele>3054.000000</ele>
				<time>2024-04-10T04:24:23Z</time>
			</trkpt>
			<trkpt lat="33.259468" lon="103.830269">
				<ele>3054.000000</ele>
				<time>2024-04-10T04:24:23Z</time>
			</trkpt>
			<trkpt lat="33.259514" lon="103.830368">
				<ele>3054.000000</ele>
				<time>2024-04-10T04:24:23Z</time>
			</trkpt>
			<trkpt lat="33.259575" lon="103.830452">
				<ele>3055.000000</ele>
				<time>2024-04-10T04:24:23Z</time>
			</trkpt>
			<trkpt lat="33.259640" lon="103.830536">
				<ele>3051.000000</ele>
				<time>2024-04-10T04:24:23Z</time>
			</trkpt>
			<trkpt lat="33.259727" lon="103.830551">
				<ele>3051.000000</ele>
				<time>2024-04-10T04:24:23Z</time>
			</trkpt>
			<trkpt lat="33.259800" lon="103.830605">
				<ele>3051.000000</ele>
				<time>2024-04-10T04:24:23Z</time>
			</trkpt>
			<trkpt lat="33.259834" lon="103.830711">
				<ele>3065.000000</ele>
				<time>2024-04-10T04:24:23Z</time>
			</trkpt>
			<trkpt lat="33.259888" lon="103.830803">
				<ele>3054.000000</ele>
				<time>2024-04-10T04:24:23Z</time>
			</trkpt>
			<trkpt lat="33.259956" lon="103.830879">
				<ele>3054.000000</ele>
				<time>2024-04-10T04:24:23Z</time>
			</trkpt>
			<trkpt lat="33.260036" lon="103.830933">
				<ele>3054.000000</ele>
				<time>2024-04-10T04:24:23Z</time>
			</trkpt>
			<trkpt lat="33.260128" lon="103.830986">
				<ele>3063.000000</ele>
				<time>2024-04-10T04:24:23Z</time>
			</trkpt>
			<trkpt lat="33.260204" lon="103.831047">
				<ele>3051.000000</ele>
				<time>2024-04-10T04:24:23Z</time>
			</trkpt>
			<trkpt lat="33.260281" lon="103.831116">
				<ele>3051.000000</ele>
				<time>2024-04-10T04:24:23Z</time>
			</trkpt>
			<trkpt lat="33.260326" lon="103.831161">
				<ele>3051.000000</ele>
				<time>2024-04-10T04:24:23Z</time>
			</trkpt>
			<trkpt lat="33.260403" lon="103.831200">
				<ele>3051.000000</ele>
				<time>2024-04-10T04:24:23Z</time>
			</trkpt>
			<trkpt lat="33.260483" lon="103.831245">
				<ele>3032.000000</ele>
				<time>2024-04-10T04:24:23Z</time>
			</trkpt>
			<trkpt lat="33.260529" lon="103.831261">
				<ele>3052.000000</ele>
				<time>2024-04-10T04:24:23Z</time>
			</trkpt>
			<trkpt lat="33.260536" lon="103.831245">
				<ele>3032.000000</ele>
				<time>2024-04-10T04:24:23Z</time>
			</trkpt>
			<trkpt lat="33.260574" lon="103.831245">
				<ele>3032.000000</ele>
				<time>2024-04-10T04:24:23Z</time>
			</trkpt>
			<trkpt lat="33.260666" lon="103.831261">
				<ele>3052.000000</ele>
				<time>2024-04-10T04:24:23Z</time>
			</trkpt>
			<trkpt lat="33.260769" lon="103.831245">
				<ele>3021.000000</ele>
				<time>2024-04-10T04:24:23Z</time>
			</trkpt>
			<trkpt lat="33.260876" lon="103.831245">
				<ele>3021.000000</ele>
				<time>2024-04-10T04:24:23Z</time>
			</trkpt>
			<trkpt lat="33.260910" lon="103.831253">
				<ele>3032.000000</ele>
				<time>2024-04-10T04:24:23Z</time>
			</trkpt>
			<trkpt lat="33.260967" lon="103.831306">
				<ele>3032.000000</ele>
				<time>2024-04-10T04:24:23Z</time>
			</trkpt>
			<trkpt lat="33.261051" lon="103.831367">
				<ele>3015.000000</ele>
				<time>2024-04-10T04:24:23Z</time>
			</trkpt>
			<trkpt lat="33.261135" lon="103.831429">
				<ele>3015.000000</ele>
				<time>2024-04-10T04:24:23Z</time>
			</trkpt>
			<trkpt lat="33.261211" lon="103.831497">
				<ele>3015.000000</ele>
				<time>2024-04-10T04:24:23Z</time>
			</trkpt>
			<trkpt lat="33.261276" lon="103.831596">
				<ele>3007.000000</ele>
				<time>2024-04-10T04:24:23Z</time>
			</trkpt>
			<trkpt lat="33.261337" lon="103.831688">
				<ele>3007.000000</ele>
				<time>2024-04-10T04:24:23Z</time>
			</trkpt>
			<trkpt lat="33.261379" lon="103.831787">
				<ele>3007.000000</ele>
				<time>2024-04-10T04:24:23Z</time>
			</trkpt>
			<trkpt lat="33.261410" lon="103.831894">
				<ele>3025.000000</ele>
				<time>2024-04-10T04:24:23Z</time>
			</trkpt>
			<trkpt lat="33.261452" lon="103.832001">
				<ele>3025.000000</ele>
				<time>2024-04-10T04:24:23Z</time>
			</trkpt>
			<trkpt lat="33.261513" lon="103.832092">
				<ele>3039.000000</ele>
				<time>2024-04-10T04:24:23Z</time>
			</trkpt>
			<trkpt lat="33.261574" lon="103.832176">
				<ele>3025.000000</ele>
				<time>2024-04-10T04:24:23Z</time>
			</trkpt>
			<trkpt lat="33.261578" lon="103.832283">
				<ele>3025.000000</ele>
				<time>2024-04-10T04:24:23Z</time>
			</trkpt>
			<trkpt lat="33.261497" lon="103.832359">
				<ele>3039.000000</ele>
				<time>2024-04-10T04:24:23Z</time>
			</trkpt>
			<trkpt lat="33.261425" lon="103.832443">
				<ele>3037.000000</ele>
				<time>2024-04-10T04:24:23Z</time>
			</trkpt>
			<trkpt lat="33.261375" lon="103.832542">
				<ele>3037.000000</ele>
				<time>2024-04-10T04:24:23Z</time>
			</trkpt>
			<trkpt lat="33.261333" lon="103.832642">
				<ele>3030.000000</ele>
				<time>2024-04-10T04:24:23Z</time>
			</trkpt>
			<trkpt lat="33.261295" lon="103.832748">
				<ele>3030.000000</ele>
				<time>2024-04-10T04:24:23Z</time>
			</trkpt>
			<trkpt lat="33.261261" lon="103.832855">
				<ele>3030.000000</ele>
				<time>2024-04-10T04:24:23Z</time>
			</trkpt>
			<trkpt lat="33.261200" lon="103.832932">
				<ele>3036.000000</ele>
				<time>2024-04-10T04:24:23Z</time>
			</trkpt>
			<trkpt lat="33.261200" lon="103.832932">
				<ele>3036.000000</ele>
				<time>2024-04-10T04:24:23Z</time>
			</trkpt>
			<trkpt lat="33.261147" lon="103.833015">
				<ele>3036.000000</ele>
				<time>2024-04-10T04:24:23Z</time>
			</trkpt>
			<trkpt lat="33.261147" lon="103.833015">
				<ele>3036.000000</ele>
				<time>2024-04-10T04:24:23Z</time>
			</trkpt>
			<trkpt lat="33.261105" lon="103.833122">
				<ele>3036.000000</ele>
				<time>2024-04-10T04:24:23Z</time>
			</trkpt>
			<trkpt lat="33.261059" lon="103.833214">
				<ele>3033.000000</ele>
				<time>2024-04-10T04:24:23Z</time>
			</trkpt>
			<trkpt lat="33.261032" lon="103.833313">
				<ele>3033.000000</ele>
				<time>2024-04-10T04:24:23Z</time>
			</trkpt>
			<trkpt lat="33.260979" lon="103.833405">
				<ele>3033.000000</ele>
				<time>2024-04-10T04:24:23Z</time>
			</trkpt>
			<trkpt lat="33.260948" lon="103.833488">
				<ele>3051.000000</ele>
				<time>2024-04-10T04:24:23Z</time>
			</trkpt>
			<trkpt lat="33.260899" lon="103.833580">
				<ele>3051.000000</ele>
				<time>2024-04-10T04:24:23Z</time>
			</trkpt>
			<trkpt lat="33.260826" lon="103.833656">
				<ele>3051.000000</ele>
				<time>2024-04-10T04:24:23Z</time>
			</trkpt>
			<trkpt lat="33.260765" lon="103.833740">
				<ele>3051.000000</ele>
				<time>2024-04-10T04:24:23Z</time>
			</trkpt>
			<trkpt lat="33.260719" lon="103.833839">
				<ele>3048.000000</ele>
				<time>2024-04-10T04:24:23Z</time>
			</trkpt>
			<trkpt lat="33.260693" lon="103.833946">
				<ele>3069.000000</ele>
				<time>2024-04-10T04:24:23Z</time>
			</trkpt>
			<trkpt lat="33.260704" lon="103.834061">
				<ele>3054.000000</ele>
				<time>2024-04-10T04:24:23Z</time>
			</trkpt>
			<trkpt lat="33.260696" lon="103.834167">
				<ele>3054.000000</ele>
				<time>2024-04-10T04:24:23Z</time>
			</trkpt>
			<trkpt lat="33.260662" lon="103.834274">
				<ele>3066.000000</ele>
				<time>2024-04-10T04:24:23Z</time>
			</trkpt>
			<trkpt lat="33.260612" lon="103.834373">
				<ele>3067.000000</ele>
				<time>2024-04-10T04:24:23Z</time>
			</trkpt>
			<trkpt lat="33.260559" lon="103.834465">
				<ele>3067.000000</ele>
				<time>2024-04-10T04:24:23Z</time>
			</trkpt>
			<trkpt lat="33.260521" lon="103.834572">
				<ele>3067.000000</ele>
				<time>2024-04-10T04:24:23Z</time>
			</trkpt>
			<trkpt lat="33.260521" lon="103.834679">
				<ele>3059.000000</ele>
				<time>2024-04-10T04:24:23Z</time>
			</trkpt>
			<trkpt lat="33.260529" lon="103.834801">
				<ele>3059.000000</ele>
				<time>2024-04-10T04:24:23Z</time>
			</trkpt>
			<trkpt lat="33.260574" lon="103.834900">
				<ele>3052.000000</ele>
				<time>2024-04-10T04:24:23Z</time>
			</trkpt>
			<trkpt lat="33.260597" lon="103.835014">
				<ele>3052.000000</ele>
				<time>2024-04-10T04:24:23Z</time>
			</trkpt>
			<trkpt lat="33.260609" lon="103.835129">
				<ele>3052.000000</ele>
				<time>2024-04-10T04:24:23Z</time>
			</trkpt>
			<trkpt lat="33.260605" lon="103.835236">
				<ele>3045.000000</ele>
				<time>2024-04-10T04:24:23Z</time>
			</trkpt>
			<trkpt lat="33.260582" lon="103.835342">
				<ele>3045.000000</ele>
				<time>2024-04-10T04:24:23Z</time>
			</trkpt>
			<trkpt lat="33.260498" lon="103.835381">
				<ele>3045.000000</ele>
				<time>2024-04-10T04:24:23Z</time>
			</trkpt>
			<trkpt lat="33.260418" lon="103.835442">
				<ele>3054.000000</ele>
				<time>2024-04-10T04:24:23Z</time>
			</trkpt>
			<trkpt lat="33.260338" lon="103.835510">
				<ele>3068.000000</ele>
				<time>2024-04-10T04:24:23Z</time>
			</trkpt>
			<trkpt lat="33.260269" lon="103.835587">
				<ele>3068.000000</ele>
				<time>2024-04-10T04:24:23Z</time>
			</trkpt>
			<trkpt lat="33.260242" lon="103.835686">
				<ele>3068.000000</ele>
				<time>2024-04-10T04:24:23Z</time>
			</trkpt>
			<trkpt lat="33.260242" lon="103.835686">
				<ele>3068.000000</ele>
				<time>2024-04-10T04:24:23Z</time>
			</trkpt>
			<trkpt lat="33.260288" lon="103.835800">
				<ele>3080.000000</ele>
				<time>2024-04-10T04:24:23Z</time>
			</trkpt>
			<trkpt lat="33.260288" lon="103.835800">
				<ele>3080.000000</ele>
				<time>2024-04-10T04:24:23Z</time>
			</trkpt>
			<trkpt lat="33.260357" lon="103.835884">
				<ele>3080.000000</ele>
				<time>2024-04-10T04:24:23Z</time>
			</trkpt>
			<trkpt lat="33.260403" lon="103.835976">
				<ele>3084.000000</ele>
				<time>2024-04-10T04:24:23Z</time>
			</trkpt>
			<trkpt lat="33.260353" lon="103.836044">
				<ele>3084.000000</ele>
				<time>2024-04-10T04:24:23Z</time>
			</trkpt>
			<trkpt lat="33.260353" lon="103.836044">
				<ele>3084.000000</ele>
				<time>2024-04-10T04:24:23Z</time>
			</trkpt>
			<trkpt lat="33.260265" lon="103.836121">
				<ele>3084.000000</ele>
				<time>2024-04-10T04:24:23Z</time>
			</trkpt>
			<trkpt lat="33.260265" lon="103.836121">
				<ele>3084.000000</ele>
				<time>2024-04-10T04:24:23Z</time>
			</trkpt>
			<trkpt lat="33.260204" lon="103.836205">
				<ele>3084.000000</ele>
				<time>2024-04-10T04:24:23Z</time>
			</trkpt>
			<trkpt lat="33.260136" lon="103.836281">
				<ele>3088.000000</ele>
				<time>2024-04-10T04:24:23Z</time>
			</trkpt>
			<trkpt lat="33.260132" lon="103.836388">
				<ele>3088.000000</ele>
				<time>2024-04-10T04:24:23Z</time>
			</trkpt>
			<trkpt lat="33.260101" lon="103.836487">
				<ele>3088.000000</ele>
				<time>2024-04-10T04:24:23Z</time>
			</trkpt>
			<trkpt lat="33.260151" lon="103.836571">
				<ele>3087.000000</ele>
				<time>2024-04-10T04:24:23Z</time>
			</trkpt>
			<trkpt lat="33.260162" lon="103.836678">
				<ele>3087.000000</ele>
				<time>2024-04-10T04:24:23Z</time>
			</trkpt>
			<trkpt lat="33.260185" lon="103.836784">
				<ele>3087.000000</ele>
				<time>2024-04-10T04:24:23Z</time>
			</trkpt>
			<trkpt lat="33.260197" lon="103.836861">
				<ele>3086.000000</ele>
				<time>2024-04-10T04:24:23Z</time>
			</trkpt>
			<trkpt lat="33.260170" lon="103.836952">
				<ele>3086.000000</ele>
				<time>2024-04-10T04:24:23Z</time>
			</trkpt>
			<trkpt lat="33.260120" lon="103.837051">
				<ele>3094.000000</ele>
				<time>2024-04-10T04:24:23Z</time>
			</trkpt>
			<trkpt lat="33.260006" lon="103.837082">
				<ele>3094.000000</ele>
				<time>2024-04-10T04:24:23Z</time>
			</trkpt>
			<trkpt lat="33.259941" lon="103.837158">
				<ele>3096.000000</ele>
				<time>2024-04-10T04:24:23Z</time>
			</trkpt>
			<trkpt lat="33.259899" lon="103.837265">
				<ele>3096.000000</ele>
				<time>2024-04-10T04:24:23Z</time>
			</trkpt>
			<trkpt lat="33.259838" lon="103.837341">
				<ele>3108.000000</ele>
				<time>2024-04-10T04:24:23Z</time>
			</trkpt>
			<trkpt lat="33.259811" lon="103.837440">
				<ele>3114.000000</ele>
				<time>2024-04-10T04:24:23Z</time>
			</trkpt>
			<trkpt lat="33.259796" lon="103.837555">
				<ele>3114.000000</ele>
				<time>2024-04-10T04:24:23Z</time>
			</trkpt>
			<trkpt lat="33.259792" lon="103.837677">
				<ele>3118.000000</ele>
				<time>2024-04-10T04:24:23Z</time>
			</trkpt>
			<trkpt lat="33.259777" lon="103.837784">
				<ele>3118.000000</ele>
				<time>2024-04-10T04:24:23Z</time>
			</trkpt>
			<trkpt lat="33.259716" lon="103.837875">
				<ele>3118.000000</ele>
				<time>2024-04-10T04:24:23Z</time>
			</trkpt>
			<trkpt lat="33.259666" lon="103.837967">
				<ele>3114.000000</ele>
				<time>2024-04-10T04:24:23Z</time>
			</trkpt>
			<trkpt lat="33.259598" lon="103.838043">
				<ele>3114.000000</ele>
				<time>2024-04-10T04:24:23Z</time>
			</trkpt>
			<trkpt lat="33.259598" lon="103.838043">
				<ele>3114.000000</ele>
				<time>2024-04-10T04:24:23Z</time>
			</trkpt>
			<trkpt lat="33.259521" lon="103.838127">
				<ele>3126.000000</ele>
				<time>2024-04-10T04:24:23Z</time>
			</trkpt>
			<trkpt lat="33.259521" lon="103.838127">
				<ele>3126.000000</ele>
				<time>2024-04-10T04:24:23Z</time>
			</trkpt>
			<trkpt lat="33.259449" lon="103.838203">
				<ele>3125.000000</ele>
				<time>2024-04-10T04:24:23Z</time>
			</trkpt>
			<trkpt lat="33.259430" lon="103.838303">
				<ele>3125.000000</ele>
				<time>2024-04-10T04:24:23Z</time>
			</trkpt>
			<trkpt lat="33.259438" lon="103.838409">
				<ele>3125.000000</ele>
				<time>2024-04-10T04:24:23Z</time>
			</trkpt>
			<trkpt lat="33.259426" lon="103.838516">
				<ele>3135.000000</ele>
				<time>2024-04-10T04:24:23Z</time>
			</trkpt>
			<trkpt lat="33.259518" lon="103.838554">
				<ele>3135.000000</ele>
				<time>2024-04-10T04:24:23Z</time>
			</trkpt>
			<trkpt lat="33.259602" lon="103.838608">
				<ele>3114.000000</ele>
				<time>2024-04-10T04:24:23Z</time>
			</trkpt>
			<trkpt lat="33.259693" lon="103.838646">
				<ele>3114.000000</ele>
				<time>2024-04-10T04:24:23Z</time>
			</trkpt>
			<trkpt lat="33.259766" lon="103.838722">
				<ele>3114.000000</ele>
				<time>2024-04-10T04:24:23Z</time>
			</trkpt>
			<trkpt lat="33.259830" lon="103.838806">
				<ele>3118.000000</ele>
				<time>2024-04-10T04:24:23Z</time>
			</trkpt>
			<trkpt lat="33.259907" lon="103.838852">
				<ele>3103.000000</ele>
				<time>2024-04-10T04:24:23Z</time>
			</trkpt>
			<trkpt lat="33.259987" lon="103.838905">
				<ele>3103.000000</ele>
				<time>2024-04-10T04:24:23Z</time>
			</trkpt>
			<trkpt lat="33.260067" lon="103.838974">
				<ele>3103.000000</ele>
				<time>2024-04-10T04:24:23Z</time>
			</trkpt>
			<trkpt lat="33.260128" lon="103.839058">
				<ele>3110.000000</ele>
				<time>2024-04-10T04:24:23Z</time>
			</trkpt>
			<trkpt lat="33.260128" lon="103.839058">
				<ele>3110.000000</ele>
				<time>2024-04-10T04:24:23Z</time>
			</trkpt>
			<trkpt lat="33.260159" lon="103.839165">
				<ele>3105.000000</ele>
				<time>2024-04-10T04:24:23Z</time>
			</trkpt>
			<trkpt lat="33.260159" lon="103.839165">
				<ele>3105.000000</ele>
				<time>2024-04-10T04:24:23Z</time>
			</trkpt>
			<trkpt lat="33.260201" lon="103.839264">
				<ele>3105.000000</ele>
				<time>2024-04-10T04:24:23Z</time>
			</trkpt>
			<trkpt lat="33.260250" lon="103.839363">
				<ele>3112.000000</ele>
				<time>2024-04-10T04:24:23Z</time>
			</trkpt>
			<trkpt lat="33.260296" lon="103.839462">
				<ele>3112.000000</ele>
				<time>2024-04-10T04:24:23Z</time>
			</trkpt>
			<trkpt lat="33.260315" lon="103.839569">
				<ele>3112.000000</ele>
				<time>2024-04-10T04:24:23Z</time>
			</trkpt>
			<trkpt lat="33.260380" lon="103.839645">
				<ele>3124.000000</ele>
				<time>2024-04-10T04:24:23Z</time>
			</trkpt>
			<trkpt lat="33.260452" lon="103.839653">
				<ele>3110.000000</ele>
				<time>2024-04-10T04:24:23Z</time>
			</trkpt>
			<trkpt lat="33.260525" lon="103.839592">
				<ele>3110.000000</ele>
				<time>2024-04-10T04:24:23Z</time>
			</trkpt>
			<trkpt lat="33.260620" lon="103.839554">
				<ele>3104.000000</ele>
				<time>2024-04-10T04:24:23Z</time>
			</trkpt>
			<trkpt lat="33.260693" lon="103.839622">
				<ele>3110.000000</ele>
				<time>2024-04-10T04:24:23Z</time>
			</trkpt>
			<trkpt lat="33.260765" lon="103.839714">
				<ele>3112.000000</ele>
				<time>2024-04-10T04:24:23Z</time>
			</trkpt>
			<trkpt lat="33.260864" lon="103.839783">
				<ele>3112.000000</ele>
				<time>2024-04-10T04:24:23Z</time>
			</trkpt>
			<trkpt lat="33.260952" lon="103.839836">
				<ele>3112.000000</ele>
				<time>2024-04-10T04:24:23Z</time>
			</trkpt>
			<trkpt lat="33.261032" lon="103.839890">
				<ele>3130.000000</ele>
				<time>2024-04-10T04:24:23Z</time>
			</trkpt>
			<trkpt lat="33.261116" lon="103.839882">
				<ele>3130.000000</ele>
				<time>2024-04-10T04:24:23Z</time>
			</trkpt>
			<trkpt lat="33.261154" lon="103.839958">
				<ele>3130.000000</ele>
				<time>2024-04-10T04:24:23Z</time>
			</trkpt>
			<trkpt lat="33.261124" lon="103.840034">
				<ele>3130.000000</ele>
				<time>2024-04-10T04:24:23Z</time>
			</trkpt>
			<trkpt lat="33.261173" lon="103.840103">
				<ele>3130.000000</ele>
				<time>2024-04-10T04:24:23Z</time>
			</trkpt>
			<trkpt lat="33.261253" lon="103.840141">
				<ele>3137.000000</ele>
				<time>2024-04-10T04:24:23Z</time>
			</trkpt>
			<trkpt lat="33.261341" lon="103.840195">
				<ele>3137.000000</ele>
				<time>2024-04-10T04:24:23Z</time>
			</trkpt>
			<trkpt lat="33.261414" lon="103.840271">
				<ele>3137.000000</ele>
				<time>2024-04-10T04:24:23Z</time>
			</trkpt>
			<trkpt lat="33.261501" lon="103.840332">
				<ele>3137.000000</ele>
				<time>2024-04-10T04:24:23Z</time>
			</trkpt>
			<trkpt lat="33.261539" lon="103.840446">
				<ele>3149.000000</ele>
				<time>2024-04-10T04:24:23Z</time>
			</trkpt>
			<trkpt lat="33.261631" lon="103.840477">
				<ele>3149.000000</ele>
				<time>2024-04-10T04:24:23Z</time>
			</trkpt>
			<trkpt lat="33.261692" lon="103.840553">
				<ele>3149.000000</ele>
				<time>2024-04-10T04:24:23Z</time>
			</trkpt>
			<trkpt lat="33.261806" lon="103.840485">
				<ele>3143.000000</ele>
				<time>2024-04-10T04:24:23Z</time>
			</trkpt>
			<trkpt lat="33.261806" lon="103.840485">
				<ele>3143.000000</ele>
				<time>2024-04-10T04:24:23Z</time>
			</trkpt>
			<trkpt lat="33.261806" lon="103.840485">
				<ele>3143.000000</ele>
				<time>2024-04-10T04:24:23Z</time>
			</trkpt>
			<trkpt lat="33.261871" lon="103.840538">
				<ele>3143.000000</ele>
				<time>2024-04-10T04:24:23Z</time>
			</trkpt>
			<trkpt lat="33.261871" lon="103.840538">
				<ele>3143.000000</ele>
				<time>2024-04-10T04:24:23Z</time>
			</trkpt>
			<trkpt lat="33.261963" lon="103.840500">
				<ele>3143.000000</ele>
				<time>2024-04-10T04:24:23Z</time>
			</trkpt>
			<trkpt lat="33.262001" lon="103.840500">
				<ele>3143.000000</ele>
				<time>2024-04-10T04:24:23Z</time>
			</trkpt>
			<trkpt lat="33.262001" lon="103.840500">
				<ele>3143.000000</ele>
				<time>2024-04-10T04:24:23Z</time>
			</trkpt>
			<trkpt lat="33.262085" lon="103.840538">
				<ele>3144.000000</ele>
				<time>2024-04-10T04:24:23Z</time>
			</trkpt>
			<trkpt lat="33.262085" lon="103.840538">
				<ele>3144.000000</ele>
				<time>2024-04-10T04:24:23Z</time>
			</trkpt>
			<trkpt lat="33.262188" lon="103.840561">
				<ele>3144.000000</ele>
				<time>2024-04-10T04:24:23Z</time>
			</trkpt>
			<trkpt lat="33.262188" lon="103.840561">
				<ele>3144.000000</ele>
				<time>2024-04-10T04:24:23Z</time>
			</trkpt>
			<trkpt lat="33.262379" lon="103.840569">
				<ele>3147.000000</ele>
				<time>2024-04-10T04:24:23Z</time>
			</trkpt>
			<trkpt lat="33.262379" lon="103.840569">
				<ele>3147.000000</ele>
				<time>2024-04-10T04:24:23Z</time>
			</trkpt>
			<trkpt lat="33.262379" lon="103.840569">
				<ele>3147.000000</ele>
				<time>2024-04-10T04:24:23Z</time>
			</trkpt>
			<trkpt lat="33.262470" lon="103.840546">
				<ele>3147.000000</ele>
				<time>2024-04-10T04:24:23Z</time>
			</trkpt>
			<trkpt lat="33.262470" lon="103.840546">
				<ele>3147.000000</ele>
				<time>2024-04-10T04:24:23Z</time>
			</trkpt>
			<trkpt lat="33.262470" lon="103.840546">
				<ele>3147.000000</ele>
				<time>2024-04-10T04:24:23Z</time>
			</trkpt>
			<trkpt lat="33.262634" lon="103.840645">
				<ele>3147.000000</ele>
				<time>2024-04-10T04:24:23Z</time>
			</trkpt>
			<trkpt lat="33.262634" lon="103.840645">
				<ele>3147.000000</ele>
				<time>2024-04-10T04:24:23Z</time>
			</trkpt>
			<trkpt lat="33.262634" lon="103.840645">
				<ele>3147.000000</ele>
				<time>2024-04-10T04:24:23Z</time>
			</trkpt>
			<trkpt lat="33.262714" lon="103.840698">
				<ele>3171.000000</ele>
				<time>2024-04-10T04:24:23Z</time>
			</trkpt>
			<trkpt lat="33.262714" lon="103.840698">
				<ele>3171.000000</ele>
				<time>2024-04-10T04:24:23Z</time>
			</trkpt>
			<trkpt lat="33.262714" lon="103.840698">
				<ele>3171.000000</ele>
				<time>2024-04-10T04:24:23Z</time>
			</trkpt>
			<trkpt lat="33.262871" lon="103.840828">
				<ele>3171.000000</ele>
				<time>2024-04-10T04:24:23Z</time>
			</trkpt>
			<trkpt lat="33.262871" lon="103.840828">
				<ele>3171.000000</ele>
				<time>2024-04-10T04:24:23Z</time>
			</trkpt>
			<trkpt lat="33.262955" lon="103.840889">
				<ele>3166.000000</ele>
				<time>2024-04-10T04:24:23Z</time>
			</trkpt>
			<trkpt lat="33.262955" lon="103.840889">
				<ele>3166.000000</ele>
				<time>2024-04-10T04:24:23Z</time>
			</trkpt>
			<trkpt lat="33.263020" lon="103.840988">
				<ele>3182.000000</ele>
				<time>2024-04-10T04:24:23Z</time>
			</trkpt>
			<trkpt lat="33.263020" lon="103.840988">
				<ele>3182.000000</ele>
				<time>2024-04-10T04:24:23Z</time>
			</trkpt>
			<trkpt lat="33.263020" lon="103.840988">
				<ele>3182.000000</ele>
				<time>2024-04-10T04:24:23Z</time>
			</trkpt>
			<trkpt lat="33.263107" lon="103.841034">
				<ele>3182.000000</ele>
				<time>2024-04-10T04:24:23Z</time>
			</trkpt>
			<trkpt lat="33.263107" lon="103.841034">
				<ele>3182.000000</ele>
				<time>2024-04-10T04:24:23Z</time>
			</trkpt>
			<trkpt lat="33.263107" lon="103.841034">
				<ele>3182.000000</ele>
				<time>2024-04-10T04:24:23Z</time>
			</trkpt>
			<trkpt lat="33.263168" lon="103.841141">
				<ele>3182.000000</ele>
				<time>2024-04-10T04:24:23Z</time>
			</trkpt>
			<trkpt lat="33.263168" lon="103.841141">
				<ele>3182.000000</ele>
				<time>2024-04-10T04:24:23Z</time>
			</trkpt>
			<trkpt lat="33.263168" lon="103.841141">
				<ele>3182.000000</ele>
				<time>2024-04-10T04:24:23Z</time>
			</trkpt>
			<trkpt lat="33.263248" lon="103.841194">
				<ele>3177.000000</ele>
				<time>2024-04-10T04:24:23Z</time>
			</trkpt>
			<trkpt lat="33.263248" lon="103.841194">
				<ele>3177.000000</ele>
				<time>2024-04-10T04:24:23Z</time>
			</trkpt>
			<trkpt lat="33.263248" lon="103.841194">
				<ele>3177.000000</ele>
				<time>2024-04-10T04:24:23Z</time>
			</trkpt>
			<trkpt lat="33.263348" lon="103.841263">
				<ele>3182.000000</ele>
				<time>2024-04-10T04:24:23Z</time>
			</trkpt>
			<trkpt lat="33.263348" lon="103.841263">
				<ele>3182.000000</ele>
				<time>2024-04-10T04:24:23Z</time>
			</trkpt>
			<trkpt lat="33.263348" lon="103.841263">
				<ele>3182.000000</ele>
				<time>2024-04-10T04:24:23Z</time>
			</trkpt>
			<trkpt lat="33.263439" lon="103.841347">
				<ele>3182.000000</ele>
				<time>2024-04-10T04:24:23Z</time>
			</trkpt>
			<trkpt lat="33.263439" lon="103.841347">
				<ele>3182.000000</ele>
				<time>2024-04-10T04:24:23Z</time>
			</trkpt>
			<trkpt lat="33.263439" lon="103.841347">
				<ele>3182.000000</ele>
				<time>2024-04-10T04:24:23Z</time>
			</trkpt>
			<trkpt lat="33.263523" lon="103.841377">
				<ele>3171.000000</ele>
				<time>2024-04-10T04:24:23Z</time>
			</trkpt>
			<trkpt lat="33.263523" lon="103.841377">
				<ele>3171.000000</ele>
				<time>2024-04-10T04:24:23Z</time>
			</trkpt>
			<trkpt lat="33.263523" lon="103.841377">
				<ele>3171.000000</ele>
				<time>2024-04-10T04:24:23Z</time>
			</trkpt>
			<trkpt lat="33.263523" lon="103.841377">
				<ele>3171.000000</ele>
				<time>2024-04-10T04:24:23Z</time>
			</trkpt>
			<trkpt lat="33.263523" lon="103.841377">
				<ele>3171.000000</ele>
				<time>2024-04-10T04:24:23Z</time>
			</trkpt>
			<trkpt lat="33.263641" lon="103.841354">
				<ele>3171.000000</ele>
				<time>2024-04-10T04:24:23Z</time>
			</trkpt>
			<trkpt lat="33.263641" lon="103.841354">
				<ele>3171.000000</ele>
				<time>2024-04-10T04:24:23Z</time>
			</trkpt>
			<trkpt lat="33.263729" lon="103.841385">
				<ele>3171.000000</ele>
				<time>2024-04-10T04:24:23Z</time>
			</trkpt>
			<trkpt lat="33.263729" lon="103.841385">
				<ele>3171.000000</ele>
				<time>2024-04-10T04:24:23Z</time>
			</trkpt>
			<trkpt lat="33.263847" lon="103.841415">
				<ele>3160.000000</ele>
				<time>2024-04-10T04:24:23Z</time>
			</trkpt>
			<trkpt lat="33.263847" lon="103.841415">
				<ele>3160.000000</ele>
				<time>2024-04-10T04:24:23Z</time>
			</trkpt>
			<trkpt lat="33.263916" lon="103.841484">
				<ele>3160.000000</ele>
				<time>2024-04-10T04:24:23Z</time>
			</trkpt>
			<trkpt lat="33.263916" lon="103.841484">
				<ele>3160.000000</ele>
				<time>2024-04-10T04:24:23Z</time>
			</trkpt>
			<trkpt lat="33.263996" lon="103.841545">
				<ele>3187.000000</ele>
				<time>2024-04-10T04:24:23Z</time>
			</trkpt>
			<trkpt lat="33.263996" lon="103.841545">
				<ele>3187.000000</ele>
				<time>2024-04-10T04:24:23Z</time>
			</trkpt>
			<trkpt lat="33.264088" lon="103.841583">
				<ele>3180.000000</ele>
				<time>2024-04-10T04:24:23Z</time>
			</trkpt>
			<trkpt lat="33.264145" lon="103.841660">
				<ele>3180.000000</ele>
				<time>2024-04-10T04:24:23Z</time>
			</trkpt>
			<trkpt lat="33.264145" lon="103.841660">
				<ele>3180.000000</ele>
				<time>2024-04-10T04:24:23Z</time>
			</trkpt>
			<trkpt lat="33.264240" lon="103.841766">
				<ele>3180.000000</ele>
				<time>2024-04-10T04:24:23Z</time>
			</trkpt>
			<trkpt lat="33.264240" lon="103.841766">
				<ele>3180.000000</ele>
				<time>2024-04-10T04:24:23Z</time>
			</trkpt>
			<trkpt lat="33.264275" lon="103.841820">
				<ele>3196.000000</ele>
				<time>2024-04-10T04:24:23Z</time>
			</trkpt>
			<trkpt lat="33.264275" lon="103.841820">
				<ele>3196.000000</ele>
				<time>2024-04-10T04:24:23Z</time>
			</trkpt>
			<trkpt lat="33.264374" lon="103.841866">
				<ele>3201.000000</ele>
				<time>2024-04-10T04:24:23Z</time>
			</trkpt>
			<trkpt lat="33.264374" lon="103.841866">
				<ele>3201.000000</ele>
				<time>2024-04-10T04:24:23Z</time>
			</trkpt>
			<trkpt lat="33.264465" lon="103.841866">
				<ele>3201.000000</ele>
				<time>2024-04-10T04:24:23Z</time>
			</trkpt>
			<trkpt lat="33.264465" lon="103.841866">
				<ele>3201.000000</ele>
				<time>2024-04-10T04:24:23Z</time>
			</trkpt>
			<trkpt lat="33.264565" lon="103.841888">
				<ele>3201.000000</ele>
				<time>2024-04-10T04:24:23Z</time>
			</trkpt>
			<trkpt lat="33.264565" lon="103.841888">
				<ele>3201.000000</ele>
				<time>2024-04-10T04:24:23Z</time>
			</trkpt>
			<trkpt lat="33.264671" lon="103.841927">
				<ele>3204.000000</ele>
				<time>2024-04-10T04:24:23Z</time>
			</trkpt>
			<trkpt lat="33.264671" lon="103.841927">
				<ele>3204.000000</ele>
				<time>2024-04-10T04:24:23Z</time>
			</trkpt>
			<trkpt lat="33.264771" lon="103.841980">
				<ele>3204.000000</ele>
				<time>2024-04-10T04:24:23Z</time>
			</trkpt>
			<trkpt lat="33.264771" lon="103.841980">
				<ele>3204.000000</ele>
				<time>2024-04-10T04:24:23Z</time>
			</trkpt>
			<trkpt lat="33.264839" lon="103.842056">
				<ele>3204.000000</ele>
				<time>2024-04-10T04:24:23Z</time>
			</trkpt>
			<trkpt lat="33.264923" lon="103.842102">
				<ele>3228.000000</ele>
				<time>2024-04-10T04:24:23Z</time>
			</trkpt>
			<trkpt lat="33.264923" lon="103.842102">
				<ele>3228.000000</ele>
				<time>2024-04-10T04:24:23Z</time>
			</trkpt>
			<trkpt lat="33.265045" lon="103.842140">
				<ele>3228.000000</ele>
				<time>2024-04-10T04:24:23Z</time>
			</trkpt>
			<trkpt lat="33.265045" lon="103.842140">
				<ele>3228.000000</ele>
				<time>2024-04-10T04:24:23Z</time>
			</trkpt>
			<trkpt lat="33.265141" lon="103.842155">
				<ele>3233.000000</ele>
				<time>2024-04-10T04:24:23Z</time>
			</trkpt>
			<trkpt lat="33.265141" lon="103.842155">
				<ele>3233.000000</ele>
				<time>2024-04-10T04:24:23Z</time>
			</trkpt>
			<trkpt lat="33.265236" lon="103.842171">
				<ele>3233.000000</ele>
				<time>2024-04-10T04:24:23Z</time>
			</trkpt>
			<trkpt lat="33.265236" lon="103.842171">
				<ele>3233.000000</ele>
				<time>2024-04-10T04:24:23Z</time>
			</trkpt>
			<trkpt lat="33.265327" lon="103.842186">
				<ele>3233.000000</ele>
				<time>2024-04-10T04:24:23Z</time>
			</trkpt>
			<trkpt lat="33.265327" lon="103.842186">
				<ele>3233.000000</ele>
				<time>2024-04-10T04:24:23Z</time>
			</trkpt>
			<trkpt lat="33.265427" lon="103.842163">
				<ele>3226.000000</ele>
				<time>2024-04-10T04:24:23Z</time>
			</trkpt>
			<trkpt lat="33.265427" lon="103.842163">
				<ele>3226.000000</ele>
				<time>2024-04-10T04:24:23Z</time>
			</trkpt>
			<trkpt lat="33.265427" lon="103.842163">
				<ele>3226.000000</ele>
				<time>2024-04-10T04:24:23Z</time>
			</trkpt>
			<trkpt lat="33.265503" lon="103.842102">
				<ele>3226.000000</ele>
				<time>2024-04-10T04:24:23Z</time>
			</trkpt>
			<trkpt lat="33.265503" lon="103.842102">
				<ele>3226.000000</ele>
				<time>2024-04-10T04:24:23Z</time>
			</trkpt>
			<trkpt lat="33.265503" lon="103.842102">
				<ele>3226.000000</ele>
				<time>2024-04-10T04:24:23Z</time>
			</trkpt>
			<trkpt lat="33.265594" lon="103.842041">
				<ele>3205.000000</ele>
				<time>2024-04-10T04:24:23Z</time>
			</trkpt>
			<trkpt lat="33.265594" lon="103.842041">
				<ele>3205.000000</ele>
				<time>2024-04-10T04:24:23Z</time>
			</trkpt>
			<trkpt lat="33.265503" lon="103.842026">
				<ele>3205.000000</ele>
				<time>2024-04-10T04:24:23Z</time>
			</trkpt>
			<trkpt lat="33.265553" lon="103.842079">
				<ele>3205.000000</ele>
				<time>2024-04-10T04:24:23Z</time>
			</trkpt>
			<trkpt lat="33.265553" lon="103.842079">
				<ele>3205.000000</ele>
				<time>2024-04-10T04:24:23Z</time>
			</trkpt>
			<trkpt lat="33.265553" lon="103.842079">
				<ele>3205.000000</ele>
				<time>2024-04-10T04:24:23Z</time>
			</trkpt>
			<trkpt lat="33.265553" lon="103.842079">
				<ele>3205.000000</ele>
				<time>2024-04-10T04:24:23Z</time>
			</trkpt>
			<trkpt lat="33.265553" lon="103.842079">
				<ele>3205.000000</ele>
				<time>2024-04-10T04:24:23Z</time>
			</trkpt>
			<trkpt lat="33.265553" lon="103.842079">
				<ele>3205.000000</ele>
				<time>2024-04-10T04:24:23Z</time>
			</trkpt>
			<trkpt lat="33.265553" lon="103.842079">
				<ele>3205.000000</ele>
				<time>2024-04-10T04:24:23Z</time>
			</trkpt>
			<trkpt lat="33.265553" lon="103.842079">
				<ele>3205.000000</ele>
				<time>2024-04-10T04:24:23Z</time>
			</trkpt>
			<trkpt lat="33.265553" lon="103.842079">
				<ele>3205.000000</ele>
				<time>2024-04-10T04:24:23Z</time>
			</trkpt>
			<trkpt lat="33.265553" lon="103.842079">
				<ele>3205.000000</ele>
				<time>2024-04-10T04:24:23Z</time>
			</trkpt>
			<trkpt lat="33.265553" lon="103.842079">
				<ele>3205.000000</ele>
				<time>2024-04-10T04:24:23Z</time>
			</trkpt>
			<trkpt lat="33.265553" lon="103.842079">
				<ele>3205.000000</ele>
				<time>2024-04-10T04:24:23Z</time>
			</trkpt>
			<trkpt lat="33.265671" lon="103.842072">
				<ele>3205.000000</ele>
				<time>2024-04-10T04:24:23Z</time>
			</trkpt>
			<trkpt lat="33.265671" lon="103.842072">
				<ele>3205.000000</ele>
				<time>2024-04-10T04:24:23Z</time>
			</trkpt>
			<trkpt lat="33.265728" lon="103.841980">
				<ele>3212.000000</ele>
				<time>2024-04-10T04:24:23Z</time>
			</trkpt>
			<trkpt lat="33.265747" lon="103.841949">
				<ele>3212.000000</ele>
				<time>2024-04-10T04:24:23Z</time>
			</trkpt>
			<trkpt lat="33.265804" lon="103.841881">
				<ele>3212.000000</ele>
				<time>2024-04-10T04:24:23Z</time>
			</trkpt>
			<trkpt lat="33.265842" lon="103.841835">
				<ele>3212.000000</ele>
				<time>2024-04-10T04:24:23Z</time>
			</trkpt>
			<trkpt lat="33.265896" lon="103.841759">
				<ele>3201.000000</ele>
				<time>2024-04-10T04:24:23Z</time>
			</trkpt>
			<trkpt lat="33.265907" lon="103.841736">
				<ele>3201.000000</ele>
				<time>2024-04-10T04:24:23Z</time>
			</trkpt>
			<trkpt lat="33.265976" lon="103.841698">
				<ele>3208.000000</ele>
				<time>2024-04-10T04:24:23Z</time>
			</trkpt>
			<trkpt lat="33.266079" lon="103.841751">
				<ele>3208.000000</ele>
				<time>2024-04-10T04:24:23Z</time>
			</trkpt>
			<trkpt lat="33.266079" lon="103.841751">
				<ele>3208.000000</ele>
				<time>2024-04-10T04:24:23Z</time>
			</trkpt>
			<trkpt lat="33.266079" lon="103.841751">
				<ele>3208.000000</ele>
				<time>2024-04-10T04:24:23Z</time>
			</trkpt>
			<trkpt lat="33.266079" lon="103.841751">
				<ele>3208.000000</ele>
				<time>2024-04-10T04:24:23Z</time>
			</trkpt>
			<trkpt lat="33.266079" lon="103.841751">
				<ele>3208.000000</ele>
				<time>2024-04-10T04:24:23Z</time>
			</trkpt>
			<trkpt lat="33.266079" lon="103.841751">
				<ele>3208.000000</ele>
				<time>2024-04-10T04:24:23Z</time>
			</trkpt>
			<trkpt lat="33.266155" lon="103.841835">
				<ele>3230.000000</ele>
				<time>2024-04-10T04:24:23Z</time>
			</trkpt>
			<trkpt lat="33.266155" lon="103.841835">
				<ele>3230.000000</ele>
				<time>2024-04-10T04:24:23Z</time>
			</trkpt>
			<trkpt lat="33.266216" lon="103.841942">
				<ele>3230.000000</ele>
				<time>2024-04-10T04:24:23Z</time>
			</trkpt>
			<trkpt lat="33.266300" lon="103.841988">
				<ele>3223.000000</ele>
				<time>2024-04-10T04:24:23Z</time>
			</trkpt>
			<trkpt lat="33.266399" lon="103.842018">
				<ele>3223.000000</ele>
				<time>2024-04-10T04:24:23Z</time>
			</trkpt>
			<trkpt lat="33.266491" lon="103.842072">
				<ele>3223.000000</ele>
				<time>2024-04-10T04:24:23Z</time>
			</trkpt>
			<trkpt lat="33.266590" lon="103.842087">
				<ele>3234.000000</ele>
				<time>2024-04-10T04:24:23Z</time>
			</trkpt>
			<trkpt lat="33.266682" lon="103.842148">
				<ele>3234.000000</ele>
				<time>2024-04-10T04:24:23Z</time>
			</trkpt>
			<trkpt lat="33.266773" lon="103.842155">
				<ele>3234.000000</ele>
				<time>2024-04-10T04:24:23Z</time>
			</trkpt>
			<trkpt lat="33.266865" lon="103.842148">
				<ele>3232.000000</ele>
				<time>2024-04-10T04:24:23Z</time>
			</trkpt>
			<trkpt lat="33.266865" lon="103.842148">
				<ele>3232.000000</ele>
				<time>2024-04-10T04:24:23Z</time>
			</trkpt>
			<trkpt lat="33.266895" lon="103.842239">
				<ele>3232.000000</ele>
				<time>2024-04-10T04:24:23Z</time>
			</trkpt>
			<trkpt lat="33.266895" lon="103.842239">
				<ele>3232.000000</ele>
				<time>2024-04-10T04:24:23Z</time>
			</trkpt>
			<trkpt lat="33.266926" lon="103.842346">
				<ele>3232.000000</ele>
				<time>2024-04-10T04:24:23Z</time>
			</trkpt>
			<trkpt lat="33.267006" lon="103.842384">
				<ele>3247.000000</ele>
				<time>2024-04-10T04:24:23Z</time>
			</trkpt>
			<trkpt lat="33.267094" lon="103.842361">
				<ele>3255.000000</ele>
				<time>2024-04-10T04:24:23Z</time>
			</trkpt>
			<trkpt lat="33.267151" lon="103.842422">
				<ele>3255.000000</ele>
				<time>2024-04-10T04:24:23Z</time>
			</trkpt>
			<trkpt lat="33.267231" lon="103.842461">
				<ele>3255.000000</ele>
				<time>2024-04-10T04:24:23Z</time>
			</trkpt>
			<trkpt lat="33.267216" lon="103.842545">
				<ele>3255.000000</ele>
				<time>2024-04-10T04:24:23Z</time>
			</trkpt>
			<trkpt lat="33.267181" lon="103.842651">
				<ele>3267.000000</ele>
				<time>2024-04-10T04:24:23Z</time>
			</trkpt>
			<trkpt lat="33.267208" lon="103.842773">
				<ele>3267.000000</ele>
				<time>2024-04-10T04:24:23Z</time>
			</trkpt>
			<trkpt lat="33.267143" lon="103.842850">
				<ele>3267.000000</ele>
				<time>2024-04-10T04:24:23Z</time>
			</trkpt>
			<trkpt lat="33.267136" lon="103.842957">
				<ele>3279.000000</ele>
				<time>2024-04-10T04:24:23Z</time>
			</trkpt>
			<trkpt lat="33.267124" lon="103.843063">
				<ele>3279.000000</ele>
				<time>2024-04-10T04:24:23Z</time>
			</trkpt>
			<trkpt lat="33.267216" lon="103.843102">
				<ele>3279.000000</ele>
				<time>2024-04-10T04:24:23Z</time>
			</trkpt>
			<trkpt lat="33.267311" lon="103.843109">
				<ele>3279.000000</ele>
				<time>2024-04-10T04:24:23Z</time>
			</trkpt>
			<trkpt lat="33.267399" lon="103.843163">
				<ele>3282.000000</ele>
				<time>2024-04-10T04:24:23Z</time>
			</trkpt>
			<trkpt lat="33.267494" lon="103.843163">
				<ele>3282.000000</ele>
				<time>2024-04-10T04:24:23Z</time>
			</trkpt>
			<trkpt lat="33.267593" lon="103.843163">
				<ele>3282.000000</ele>
				<time>2024-04-10T04:24:23Z</time>
			</trkpt>
			<trkpt lat="33.267681" lon="103.843132">
				<ele>3287.000000</ele>
				<time>2024-04-10T04:24:23Z</time>
			</trkpt>
			<trkpt lat="33.267776" lon="103.843117">
				<ele>3287.000000</ele>
				<time>2024-04-10T04:24:23Z</time>
			</trkpt>
			<trkpt lat="33.267872" lon="103.843140">
				<ele>3287.000000</ele>
				<time>2024-04-10T04:24:23Z</time>
			</trkpt>
			<trkpt lat="33.267960" lon="103.843117">
				<ele>3287.000000</ele>
				<time>2024-04-10T04:24:23Z</time>
			</trkpt>
			<trkpt lat="33.268055" lon="103.843132">
				<ele>3287.000000</ele>
				<time>2024-04-10T04:24:23Z</time>
			</trkpt>
			<trkpt lat="33.268074" lon="103.843254">
				<ele>3301.000000</ele>
				<time>2024-04-10T04:24:23Z</time>
			</trkpt>
			<trkpt lat="33.268024" lon="103.843361">
				<ele>3301.000000</ele>
				<time>2024-04-10T04:24:23Z</time>
			</trkpt>
			<trkpt lat="33.267982" lon="103.843384">
				<ele>3301.000000</ele>
				<time>2024-04-10T04:24:23Z</time>
			</trkpt>
			<trkpt lat="33.267929" lon="103.843460">
				<ele>3301.000000</ele>
				<time>2024-04-10T04:24:23Z</time>
			</trkpt>
			<trkpt lat="33.267879" lon="103.843552">
				<ele>3317.000000</ele>
				<time>2024-04-10T04:24:23Z</time>
			</trkpt>
			<trkpt lat="33.267815" lon="103.843636">
				<ele>3317.000000</ele>
				<time>2024-04-10T04:24:23Z</time>
			</trkpt>
			<trkpt lat="33.267742" lon="103.843704">
				<ele>3317.000000</ele>
				<time>2024-04-10T04:24:23Z</time>
			</trkpt>
			<trkpt lat="33.267666" lon="103.843773">
				<ele>3327.000000</ele>
				<time>2024-04-10T04:24:23Z</time>
			</trkpt>
			<trkpt lat="33.267666" lon="103.843773">
				<ele>3327.000000</ele>
				<time>2024-04-10T04:24:23Z</time>
			</trkpt>
			<trkpt lat="33.267597" lon="103.843849">
				<ele>3315.000000</ele>
				<time>2024-04-10T04:24:23Z</time>
			</trkpt>
			<trkpt lat="33.267597" lon="103.843849">
				<ele>3315.000000</ele>
				<time>2024-04-10T04:24:23Z</time>
			</trkpt>
			<trkpt lat="33.267643" lon="103.843956">
				<ele>3327.000000</ele>
				<time>2024-04-10T04:24:23Z</time>
			</trkpt>
			<trkpt lat="33.267654" lon="103.844070">
				<ele>3336.000000</ele>
				<time>2024-04-10T04:24:23Z</time>
			</trkpt>
			<trkpt lat="33.267593" lon="103.844154">
				<ele>3321.000000</ele>
				<time>2024-04-10T04:24:23Z</time>
			</trkpt>
			<trkpt lat="33.267509" lon="103.844223">
				<ele>3321.000000</ele>
				<time>2024-04-10T04:24:23Z</time>
			</trkpt>
			<trkpt lat="33.267441" lon="103.844307">
				<ele>3332.000000</ele>
				<time>2024-04-10T04:24:23Z</time>
			</trkpt>
			<trkpt lat="33.267452" lon="103.844414">
				<ele>3332.000000</ele>
				<time>2024-04-10T04:24:23Z</time>
			</trkpt>
			<trkpt lat="33.267456" lon="103.844460">
				<ele>3332.000000</ele>
				<time>2024-04-10T04:24:23Z</time>
			</trkpt>
			<trkpt lat="33.267529" lon="103.844452">
				<ele>3332.000000</ele>
				<time>2024-04-10T04:24:23Z</time>
			</trkpt>
			<trkpt lat="33.267601" lon="103.844444">
				<ele>3332.000000</ele>
				<time>2024-04-10T04:24:23Z</time>
			</trkpt>
			<trkpt lat="33.267696" lon="103.844429">
				<ele>3345.000000</ele>
				<time>2024-04-10T04:24:23Z</time>
			</trkpt>
			<trkpt lat="33.267784" lon="103.844467">
				<ele>3345.000000</ele>
				<time>2024-04-10T04:24:23Z</time>
			</trkpt>
			<trkpt lat="33.267879" lon="103.844482">
				<ele>3345.000000</ele>
				<time>2024-04-10T04:24:23Z</time>
			</trkpt>
			<trkpt lat="33.267975" lon="103.844490">
				<ele>3351.000000</ele>
				<time>2024-04-10T04:24:23Z</time>
			</trkpt>
			<trkpt lat="33.268070" lon="103.844513">
				<ele>3351.000000</ele>
				<time>2024-04-10T04:24:23Z</time>
			</trkpt>
			<trkpt lat="33.268154" lon="103.844574">
				<ele>3351.000000</ele>
				<time>2024-04-10T04:24:23Z</time>
			</trkpt>
			<trkpt lat="33.268250" lon="103.844589">
				<ele>3351.000000</ele>
				<time>2024-04-10T04:24:23Z</time>
			</trkpt>
			<trkpt lat="33.268326" lon="103.844658">
				<ele>3351.000000</ele>
				<time>2024-04-10T04:24:23Z</time>
			</trkpt>
			<trkpt lat="33.268414" lon="103.844681">
				<ele>3351.000000</ele>
				<time>2024-04-10T04:24:23Z</time>
			</trkpt>
			<trkpt lat="33.268456" lon="103.844696">
				<ele>3351.000000</ele>
				<time>2024-04-10T04:24:23Z</time>
			</trkpt>
			<trkpt lat="33.268456" lon="103.844696">
				<ele>3351.000000</ele>
				<time>2024-04-10T04:24:23Z</time>
			</trkpt>
			<trkpt lat="33.268456" lon="103.844696">
				<ele>3351.000000</ele>
				<time>2024-04-10T04:24:23Z</time>
			</trkpt>
			<trkpt lat="33.268456" lon="103.844696">
				<ele>3351.000000</ele>
				<time>2024-04-10T04:24:23Z</time>
			</trkpt>
			<trkpt lat="33.268425" lon="103.844810">
				<ele>3351.000000</ele>
				<time>2024-04-10T04:24:23Z</time>
			</trkpt>
			<trkpt lat="33.268425" lon="103.844810">
				<ele>3351.000000</ele>
				<time>2024-04-10T04:24:23Z</time>
			</trkpt>
			<trkpt lat="33.268520" lon="103.844856">
				<ele>3351.000000</ele>
				<time>2024-04-10T04:24:23Z</time>
			</trkpt>
			<trkpt lat="33.268623" lon="103.844864">
				<ele>3352.000000</ele>
				<time>2024-04-10T04:24:23Z</time>
			</trkpt>
			<trkpt lat="33.268692" lon="103.844940">
				<ele>3352.000000</ele>
				<time>2024-04-10T04:24:23Z</time>
			</trkpt>
			<trkpt lat="33.268776" lon="103.845016">
				<ele>3345.000000</ele>
				<time>2024-04-10T04:24:23Z</time>
			</trkpt>
			<trkpt lat="33.268860" lon="103.845078">
				<ele>3345.000000</ele>
				<time>2024-04-10T04:24:23Z</time>
			</trkpt>
			<trkpt lat="33.268940" lon="103.845154">
				<ele>3343.000000</ele>
				<time>2024-04-10T04:24:23Z</time>
			</trkpt>
			<trkpt lat="33.269005" lon="103.845146">
				<ele>3343.000000</ele>
				<time>2024-04-10T04:24:23Z</time>
			</trkpt>
			<trkpt lat="33.269039" lon="103.845253">
				<ele>3343.000000</ele>
				<time>2024-04-10T04:24:23Z</time>
			</trkpt>
			<trkpt lat="33.269093" lon="103.845352">
				<ele>3343.000000</ele>
				<time>2024-04-10T04:24:23Z</time>
			</trkpt>
			<trkpt lat="33.269157" lon="103.845459">
				<ele>3338.000000</ele>
				<time>2024-04-10T04:24:23Z</time>
			</trkpt>
			<trkpt lat="33.269184" lon="103.845512">
				<ele>3338.000000</ele>
				<time>2024-04-10T04:24:23Z</time>
			</trkpt>
			<trkpt lat="33.269215" lon="103.845612">
				<ele>3338.000000</ele>
				<time>2024-04-10T04:24:23Z</time>
			</trkpt>
			<trkpt lat="33.269241" lon="103.845711">
				<ele>3335.000000</ele>
				<time>2024-04-10T04:24:23Z</time>
			</trkpt>
			<trkpt lat="33.269276" lon="103.845795">
				<ele>3335.000000</ele>
				<time>2024-04-10T04:24:23Z</time>
			</trkpt>
			<trkpt lat="33.269325" lon="103.845863">
				<ele>3347.000000</ele>
				<time>2024-04-10T04:24:23Z</time>
			</trkpt>
			<trkpt lat="33.269413" lon="103.845863">
				<ele>3347.000000</ele>
				<time>2024-04-10T04:24:23Z</time>
			</trkpt>
			<trkpt lat="33.269409" lon="103.845871">
				<ele>3347.000000</ele>
				<time>2024-04-10T04:24:23Z</time>
			</trkpt>
			<trkpt lat="33.269459" lon="103.845955">
				<ele>3347.000000</ele>
				<time>2024-04-10T04:24:23Z</time>
			</trkpt>
			<trkpt lat="33.269478" lon="103.846039">
				<ele>3338.000000</ele>
				<time>2024-04-10T04:24:23Z</time>
			</trkpt>
			<trkpt lat="33.269539" lon="103.846100">
				<ele>3338.000000</ele>
				<time>2024-04-10T04:24:23Z</time>
			</trkpt>
			<trkpt lat="33.269638" lon="103.846161">
				<ele>3343.000000</ele>
				<time>2024-04-10T04:24:23Z</time>
			</trkpt>
			<trkpt lat="33.269726" lon="103.846237">
				<ele>3343.000000</ele>
				<time>2024-04-10T04:24:23Z</time>
			</trkpt>
			<trkpt lat="33.269798" lon="103.846313">
				<ele>3332.000000</ele>
				<time>2024-04-10T04:24:23Z</time>
			</trkpt>
			<trkpt lat="33.269848" lon="103.846390">
				<ele>3332.000000</ele>
				<time>2024-04-10T04:24:23Z</time>
			</trkpt>
			<trkpt lat="33.269928" lon="103.846405">
				<ele>3333.000000</ele>
				<time>2024-04-10T04:24:23Z</time>
			</trkpt>
			<trkpt lat="33.270012" lon="103.846375">
				<ele>3333.000000</ele>
				<time>2024-04-10T04:24:23Z</time>
			</trkpt>
			<trkpt lat="33.270012" lon="103.846375">
				<ele>3333.000000</ele>
				<time>2024-04-10T04:24:23Z</time>
			</trkpt>
			<trkpt lat="33.270115" lon="103.846375">
				<ele>3333.000000</ele>
				<time>2024-04-10T04:24:23Z</time>
			</trkpt>
			<trkpt lat="33.270115" lon="103.846375">
				<ele>3333.000000</ele>
				<time>2024-04-10T04:24:23Z</time>
			</trkpt>
			<trkpt lat="33.270199" lon="103.846420">
				<ele>3333.000000</ele>
				<time>2024-04-10T04:24:23Z</time>
			</trkpt>
			<trkpt lat="33.270294" lon="103.846458">
				<ele>3333.000000</ele>
				<time>2024-04-10T04:24:23Z</time>
			</trkpt>
			<trkpt lat="33.270317" lon="103.846466">
				<ele>3333.000000</ele>
				<time>2024-04-10T04:24:23Z</time>
			</trkpt>
			<trkpt lat="33.270386" lon="103.846489">
				<ele>3333.000000</ele>
				<time>2024-04-10T04:24:23Z</time>
			</trkpt>
			<trkpt lat="33.270481" lon="103.846504">
				<ele>3339.000000</ele>
				<time>2024-04-10T04:24:23Z</time>
			</trkpt>
			<trkpt lat="33.270573" lon="103.846458">
				<ele>3339.000000</ele>
				<time>2024-04-10T04:24:23Z</time>
			</trkpt>
			<trkpt lat="33.270676" lon="103.846428">
				<ele>3339.000000</ele>
				<time>2024-04-10T04:24:23Z</time>
			</trkpt>
			<trkpt lat="33.270775" lon="103.846405">
				<ele>3336.000000</ele>
				<time>2024-04-10T04:24:23Z</time>
			</trkpt>
			<trkpt lat="33.270863" lon="103.846329">
				<ele>3336.000000</ele>
				<time>2024-04-10T04:24:23Z</time>
			</trkpt>
			<trkpt lat="33.270878" lon="103.846306">
				<ele>3336.000000</ele>
				<time>2024-04-10T04:24:23Z</time>
			</trkpt>
			<trkpt lat="33.270802" lon="103.846336">
				<ele>3336.000000</ele>
				<time>2024-04-10T04:24:23Z</time>
			</trkpt>
			<trkpt lat="33.270691" lon="103.846375">
				<ele>3339.000000</ele>
				<time>2024-04-10T04:24:23Z</time>
			</trkpt>
			<trkpt lat="33.270691" lon="103.846375">
				<ele>3339.000000</ele>
				<time>2024-04-10T04:24:23Z</time>
			</trkpt>
			<trkpt lat="33.270653" lon="103.846275">
				<ele>3339.000000</ele>
				<time>2024-04-10T04:24:23Z</time>
			</trkpt>
			<trkpt lat="33.270653" lon="103.846275">
				<ele>3339.000000</ele>
				<time>2024-04-10T04:24:23Z</time>
			</trkpt>
			<trkpt lat="33.270653" lon="103.846275">
				<ele>3339.000000</ele>
				<time>2024-04-10T04:24:23Z</time>
			</trkpt>
			<trkpt lat="33.270744" lon="103.846252">
				<ele>3336.000000</ele>
				<time>2024-04-10T04:24:23Z</time>
			</trkpt>
			<trkpt lat="33.270744" lon="103.846252">
				<ele>3336.000000</ele>
				<time>2024-04-10T04:24:23Z</time>
			</trkpt>
			<trkpt lat="33.270744" lon="103.846252">
				<ele>3336.000000</ele>
				<time>2024-04-10T04:24:23Z</time>
			</trkpt>
			<trkpt lat="33.270847" lon="103.846191">
				<ele>3333.000000</ele>
				<time>2024-04-10T04:24:23Z</time>
			</trkpt>
			<trkpt lat="33.270847" lon="103.846191">
				<ele>3333.000000</ele>
				<time>2024-04-10T04:24:23Z</time>
			</trkpt>
			<trkpt lat="33.270943" lon="103.846153">
				<ele>3333.000000</ele>
				<time>2024-04-10T04:24:23Z</time>
			</trkpt>
			<trkpt lat="33.271038" lon="103.846115">
				<ele>3334.000000</ele>
				<time>2024-04-10T04:24:23Z</time>
			</trkpt>
			<trkpt lat="33.271072" lon="103.846100">
				<ele>3334.000000</ele>
				<time>2024-04-10T04:24:23Z</time>
			</trkpt>
			<trkpt lat="33.271133" lon="103.846054">
				<ele>3334.000000</ele>
				<time>2024-04-10T04:24:23Z</time>
			</trkpt>
			<trkpt lat="33.271149" lon="103.846039">
				<ele>3334.000000</ele>
				<time>2024-04-10T04:24:23Z</time>
			</trkpt>
			<trkpt lat="33.271221" lon="103.846046">
				<ele>3334.000000</ele>
				<time>2024-04-10T04:24:23Z</time>
			</trkpt>
			<trkpt lat="33.271328" lon="103.846077">
				<ele>3331.000000</ele>
				<time>2024-04-10T04:24:23Z</time>
			</trkpt>
			<trkpt lat="33.271427" lon="103.846115">
				<ele>3331.000000</ele>
				<time>2024-04-10T04:24:23Z</time>
			</trkpt>
			<trkpt lat="33.271526" lon="103.846138">
				<ele>3331.000000</ele>
				<time>2024-04-10T04:24:23Z</time>
			</trkpt>
			<trkpt lat="33.271614" lon="103.846176">
				<ele>3334.000000</ele>
				<time>2024-04-10T04:24:23Z</time>
			</trkpt>
			<trkpt lat="33.271706" lon="103.846169">
				<ele>3334.000000</ele>
				<time>2024-04-10T04:24:23Z</time>
			</trkpt>
			<trkpt lat="33.271725" lon="103.846161">
				<ele>3334.000000</ele>
				<time>2024-04-10T04:24:23Z</time>
			</trkpt>
			<trkpt lat="33.271790" lon="103.846207">
				<ele>3334.000000</ele>
				<time>2024-04-10T04:24:23Z</time>
			</trkpt>
			<trkpt lat="33.271835" lon="103.846214">
				<ele>3340.000000</ele>
				<time>2024-04-10T04:24:23Z</time>
			</trkpt>
			<trkpt lat="33.271919" lon="103.846230">
				<ele>3340.000000</ele>
				<time>2024-04-10T04:24:23Z</time>
			</trkpt>
			<trkpt lat="33.272022" lon="103.846230">
				<ele>3340.000000</ele>
				<time>2024-04-10T04:24:23Z</time>
			</trkpt>
			<trkpt lat="33.272091" lon="103.846230">
				<ele>3343.000000</ele>
				<time>2024-04-10T04:24:23Z</time>
			</trkpt>
			<trkpt lat="33.272175" lon="103.846283">
				<ele>3346.000000</ele>
				<time>2024-04-10T04:24:23Z</time>
			</trkpt>
			<trkpt lat="33.272221" lon="103.846329">
				<ele>3346.000000</ele>
				<time>2024-04-10T04:24:23Z</time>
			</trkpt>
			<trkpt lat="33.272221" lon="103.846329">
				<ele>3346.000000</ele>
				<time>2024-04-10T04:24:23Z</time>
			</trkpt>
			<trkpt lat="33.272312" lon="103.846321">
				<ele>3346.000000</ele>
				<time>2024-04-10T04:24:23Z</time>
			</trkpt>
			<trkpt lat="33.272312" lon="103.846321">
				<ele>3346.000000</ele>
				<time>2024-04-10T04:24:23Z</time>
			</trkpt>
			<trkpt lat="33.272404" lon="103.846359">
				<ele>3353.000000</ele>
				<time>2024-04-10T04:24:23Z</time>
			</trkpt>
			<trkpt lat="33.272499" lon="103.846336">
				<ele>3353.000000</ele>
				<time>2024-04-10T04:24:23Z</time>
			</trkpt>
			<trkpt lat="33.272575" lon="103.846329">
				<ele>3353.000000</ele>
				<time>2024-04-10T04:24:23Z</time>
			</trkpt>
			<trkpt lat="33.272663" lon="103.846298">
				<ele>3365.000000</ele>
				<time>2024-04-10T04:24:23Z</time>
			</trkpt>
			<trkpt lat="33.272739" lon="103.846260">
				<ele>3365.000000</ele>
				<time>2024-04-10T04:24:23Z</time>
			</trkpt>
			<trkpt lat="33.272831" lon="103.846245">
				<ele>3351.000000</ele>
				<time>2024-04-10T04:24:23Z</time>
			</trkpt>
			<trkpt lat="33.272919" lon="103.846199">
				<ele>3365.000000</ele>
				<time>2024-04-10T04:24:23Z</time>
			</trkpt>
			<trkpt lat="33.272980" lon="103.846169">
				<ele>3365.000000</ele>
				<time>2024-04-10T04:24:23Z</time>
			</trkpt>
			<trkpt lat="33.273045" lon="103.846100">
				<ele>3365.000000</ele>
				<time>2024-04-10T04:24:23Z</time>
			</trkpt>
			<trkpt lat="33.273087" lon="103.846001">
				<ele>3365.000000</ele>
				<time>2024-04-10T04:24:23Z</time>
			</trkpt>
			<trkpt lat="33.273163" lon="103.845947">
				<ele>3352.000000</ele>
				<time>2024-04-10T04:24:23Z</time>
			</trkpt>
			<trkpt lat="33.273251" lon="103.845917">
				<ele>3347.000000</ele>
				<time>2024-04-10T04:24:23Z</time>
			</trkpt>
			<trkpt lat="33.273335" lon="103.845856">
				<ele>3347.000000</ele>
				<time>2024-04-10T04:24:23Z</time>
			</trkpt>
			<trkpt lat="33.273365" lon="103.845787">
				<ele>3347.000000</ele>
				<time>2024-04-10T04:24:23Z</time>
			</trkpt>
			<trkpt lat="33.273449" lon="103.845757">
				<ele>3347.000000</ele>
				<time>2024-04-10T04:24:23Z</time>
			</trkpt>
			<trkpt lat="33.273472" lon="103.845703">
				<ele>3347.000000</ele>
				<time>2024-04-10T04:24:23Z</time>
			</trkpt>
			<trkpt lat="33.273533" lon="103.845642">
				<ele>3335.000000</ele>
				<time>2024-04-10T04:24:23Z</time>
			</trkpt>
			<trkpt lat="33.273582" lon="103.845551">
				<ele>3335.000000</ele>
				<time>2024-04-10T04:24:23Z</time>
			</trkpt>
			<trkpt lat="33.273575" lon="103.845436">
				<ele>3335.000000</ele>
				<time>2024-04-10T04:24:23Z</time>
			</trkpt>
			<trkpt lat="33.273586" lon="103.845367">
				<ele>3331.000000</ele>
				<time>2024-04-10T04:24:23Z</time>
			</trkpt>
			<trkpt lat="33.273636" lon="103.845299">
				<ele>3331.000000</ele>
				<time>2024-04-10T04:24:23Z</time>
			</trkpt>
			<trkpt lat="33.273712" lon="103.845230">
				<ele>3331.000000</ele>
				<time>2024-04-10T04:24:23Z</time>
			</trkpt>
			<trkpt lat="33.273727" lon="103.845177">
				<ele>3331.000000</ele>
				<time>2024-04-10T04:24:23Z</time>
			</trkpt>
			<trkpt lat="33.273693" lon="103.845062">
				<ele>3319.000000</ele>
				<time>2024-04-10T04:24:23Z</time>
			</trkpt>
			<trkpt lat="33.273678" lon="103.844940">
				<ele>3319.000000</ele>
				<time>2024-04-10T04:24:23Z</time>
			</trkpt>
			<trkpt lat="33.273670" lon="103.844818">
				<ele>3310.000000</ele>
				<time>2024-04-10T04:24:23Z</time>
			</trkpt>
			<trkpt lat="33.273682" lon="103.844765">
				<ele>3310.000000</ele>
				<time>2024-04-10T04:24:23Z</time>
			</trkpt>
			<trkpt lat="33.273678" lon="103.844658">
				<ele>3310.000000</ele>
				<time>2024-04-10T04:24:23Z</time>
			</trkpt>
			<trkpt lat="33.273647" lon="103.844612">
				<ele>3310.000000</ele>
				<time>2024-04-10T04:24:23Z</time>
			</trkpt>
			<trkpt lat="33.273647" lon="103.844612">
				<ele>3310.000000</ele>
				<time>2024-04-10T04:24:23Z</time>
			</trkpt>
			<trkpt lat="33.273647" lon="103.844612">
				<ele>3310.000000</ele>
				<time>2024-04-10T04:24:23Z</time>
			</trkpt>
			<trkpt lat="33.273647" lon="103.844612">
				<ele>3310.000000</ele>
				<time>2024-04-10T04:24:23Z</time>
			</trkpt>
			<trkpt lat="33.273647" lon="103.844490">
				<ele>3298.000000</ele>
				<time>2024-04-10T04:24:23Z</time>
			</trkpt>
			<trkpt lat="33.273647" lon="103.844490">
				<ele>3298.000000</ele>
				<time>2024-04-10T04:24:23Z</time>
			</trkpt>
			<trkpt lat="33.273602" lon="103.844482">
				<ele>3298.000000</ele>
				<time>2024-04-10T04:24:23Z</time>
			</trkpt>
			<trkpt lat="33.273537" lon="103.844391">
				<ele>3298.000000</ele>
				<time>2024-04-10T04:24:23Z</time>
			</trkpt>
			<trkpt lat="33.273514" lon="103.844276">
				<ele>3288.000000</ele>
				<time>2024-04-10T04:24:23Z</time>
			</trkpt>
			<trkpt lat="33.273457" lon="103.844185">
				<ele>3297.000000</ele>
				<time>2024-04-10T04:24:23Z</time>
			</trkpt>
			<trkpt lat="33.273415" lon="103.844078">
				<ele>3297.000000</ele>
				<time>2024-04-10T04:24:23Z</time>
			</trkpt>
			<trkpt lat="33.273438" lon="103.843971">
				<ele>3283.000000</ele>
				<time>2024-04-10T04:24:23Z</time>
			</trkpt>
			<trkpt lat="33.273434" lon="103.843857">
				<ele>3283.000000</ele>
				<time>2024-04-10T04:24:23Z</time>
			</trkpt>
			<trkpt lat="33.273540" lon="103.843864">
				<ele>3271.000000</ele>
				<time>2024-04-10T04:24:23Z</time>
			</trkpt>
			<trkpt lat="33.273632" lon="103.843872">
				<ele>3271.000000</ele>
				<time>2024-04-10T04:24:23Z</time>
			</trkpt>
			<trkpt lat="33.273724" lon="103.843918">
				<ele>3271.000000</ele>
				<time>2024-04-10T04:24:23Z</time>
			</trkpt>
			<trkpt lat="33.273724" lon="103.843842">
				<ele>3271.000000</ele>
				<time>2024-04-10T04:24:23Z</time>
			</trkpt>
			<trkpt lat="33.273727" lon="103.843735">
				<ele>3261.000000</ele>
				<time>2024-04-10T04:24:23Z</time>
			</trkpt>
			<trkpt lat="33.273735" lon="103.843613">
				<ele>3261.000000</ele>
				<time>2024-04-10T04:24:23Z</time>
			</trkpt>
			<trkpt lat="33.273731" lon="103.843498">
				<ele>3261.000000</ele>
				<time>2024-04-10T04:24:23Z</time>
			</trkpt>
			<trkpt lat="33.273708" lon="103.843376">
				<ele>3254.000000</ele>
				<time>2024-04-10T04:24:23Z</time>
			</trkpt>
			<trkpt lat="33.273670" lon="103.843269">
				<ele>3254.000000</ele>
				<time>2024-04-10T04:24:23Z</time>
			</trkpt>
			<trkpt lat="33.273659" lon="103.843155">
				<ele>3239.000000</ele>
				<time>2024-04-10T04:24:23Z</time>
			</trkpt>
			<trkpt lat="33.273632" lon="103.843033">
				<ele>3239.000000</ele>
				<time>2024-04-10T04:24:23Z</time>
			</trkpt>
			<trkpt lat="33.273586" lon="103.842926">
				<ele>3239.000000</ele>
				<time>2024-04-10T04:24:23Z</time>
			</trkpt>
			<trkpt lat="33.273529" lon="103.842834">
				<ele>3219.000000</ele>
				<time>2024-04-10T04:24:23Z</time>
			</trkpt>
			<trkpt lat="33.273537" lon="103.842842">
				<ele>3219.000000</ele>
				<time>2024-04-10T04:24:23Z</time>
			</trkpt>
			<trkpt lat="33.273533" lon="103.842735">
				<ele>3219.000000</ele>
				<time>2024-04-10T04:24:23Z</time>
			</trkpt>
			<trkpt lat="33.273567" lon="103.842667">
				<ele>3219.000000</ele>
				<time>2024-04-10T04:24:23Z</time>
			</trkpt>
			<trkpt lat="33.273540" lon="103.842575">
				<ele>3205.000000</ele>
				<time>2024-04-10T04:24:23Z</time>
			</trkpt>
			<trkpt lat="33.273506" lon="103.842506">
				<ele>3205.000000</ele>
				<time>2024-04-10T04:24:23Z</time>
			</trkpt>
			<trkpt lat="33.273434" lon="103.842453">
				<ele>3215.000000</ele>
				<time>2024-04-10T04:24:23Z</time>
			</trkpt>
			<trkpt lat="33.273338" lon="103.842415">
				<ele>3215.000000</ele>
				<time>2024-04-10T04:24:23Z</time>
			</trkpt>
			<trkpt lat="33.273285" lon="103.842331">
				<ele>3204.000000</ele>
				<time>2024-04-10T04:24:23Z</time>
			</trkpt>
			<trkpt lat="33.273235" lon="103.842232">
				<ele>3204.000000</ele>
				<time>2024-04-10T04:24:23Z</time>
			</trkpt>
			<trkpt lat="33.273228" lon="103.842094">
				<ele>3204.000000</ele>
				<time>2024-04-10T04:24:23Z</time>
			</trkpt>
			<trkpt lat="33.273235" lon="103.842041">
				<ele>3195.000000</ele>
				<time>2024-04-10T04:24:23Z</time>
			</trkpt>
			<trkpt lat="33.273304" lon="103.842072">
				<ele>3195.000000</ele>
				<time>2024-04-10T04:24:23Z</time>
			</trkpt>
			<trkpt lat="33.273342" lon="103.842026">
				<ele>3195.000000</ele>
				<time>2024-04-10T04:24:23Z</time>
			</trkpt>
			<trkpt lat="33.273323" lon="103.841934">
				<ele>3195.000000</ele>
				<time>2024-04-10T04:24:23Z</time>
			</trkpt>
			<trkpt lat="33.273266" lon="103.841835">
				<ele>3195.000000</ele>
				<time>2024-04-10T04:24:23Z</time>
			</trkpt>
			<trkpt lat="33.273277" lon="103.841736">
				<ele>3177.000000</ele>
				<time>2024-04-10T04:24:23Z</time>
			</trkpt>
			<trkpt lat="33.273312" lon="103.841621">
				<ele>3177.000000</ele>
				<time>2024-04-10T04:24:23Z</time>
			</trkpt>
			<trkpt lat="33.273293" lon="103.841537">
				<ele>3177.000000</ele>
				<time>2024-04-10T04:24:23Z</time>
			</trkpt>
			<trkpt lat="33.273251" lon="103.841446">
				<ele>3166.000000</ele>
				<time>2024-04-10T04:24:23Z</time>
			</trkpt>
			<trkpt lat="33.273232" lon="103.841339">
				<ele>3166.000000</ele>
				<time>2024-04-10T04:24:23Z</time>
			</trkpt>
			<trkpt lat="33.273254" lon="103.841225">
				<ele>3165.000000</ele>
				<time>2024-04-10T04:24:23Z</time>
			</trkpt>
			<trkpt lat="33.273277" lon="103.841103">
				<ele>3165.000000</ele>
				<time>2024-04-10T04:24:23Z</time>
			</trkpt>
			<trkpt lat="33.273304" lon="103.840981">
				<ele>3165.000000</ele>
				<time>2024-04-10T04:24:23Z</time>
			</trkpt>
			<trkpt lat="33.273327" lon="103.840866">
				<ele>3161.000000</ele>
				<time>2024-04-10T04:24:23Z</time>
			</trkpt>
			<trkpt lat="33.273403" lon="103.840836">
				<ele>3161.000000</ele>
				<time>2024-04-10T04:24:23Z</time>
			</trkpt>
			<trkpt lat="33.273476" lon="103.840775">
				<ele>3148.000000</ele>
				<time>2024-04-10T04:24:23Z</time>
			</trkpt>
			<trkpt lat="33.273502" lon="103.840744">
				<ele>3148.000000</ele>
				<time>2024-04-10T04:24:23Z</time>
			</trkpt>
			<trkpt lat="33.273579" lon="103.840721">
				<ele>3148.000000</ele>
				<time>2024-04-10T04:24:23Z</time>
			</trkpt>
			<trkpt lat="33.273624" lon="103.840645">
				<ele>3155.000000</ele>
				<time>2024-04-10T04:24:23Z</time>
			</trkpt>
			<trkpt lat="33.273666" lon="103.840530">
				<ele>3155.000000</ele>
				<time>2024-04-10T04:24:23Z</time>
			</trkpt>
			<trkpt lat="33.273769" lon="103.840477">
				<ele>3147.000000</ele>
				<time>2024-04-10T04:24:23Z</time>
			</trkpt>
			<trkpt lat="33.273834" lon="103.840385">
				<ele>3159.000000</ele>
				<time>2024-04-10T04:24:23Z</time>
			</trkpt>
			<trkpt lat="33.273903" lon="103.840309">
				<ele>3159.000000</ele>
				<time>2024-04-10T04:24:23Z</time>
			</trkpt>
			<trkpt lat="33.273895" lon="103.840279">
				<ele>3159.000000</ele>
				<time>2024-04-10T04:24:23Z</time>
			</trkpt>
			<trkpt lat="33.273952" lon="103.840240">
				<ele>3159.000000</ele>
				<time>2024-04-10T04:24:23Z</time>
			</trkpt>
			<trkpt lat="33.274002" lon="103.840157">
				<ele>3159.000000</ele>
				<time>2024-04-10T04:24:23Z</time>
			</trkpt>
			<trkpt lat="33.274036" lon="103.840057">
				<ele>3146.000000</ele>
				<time>2024-04-10T04:24:23Z</time>
			</trkpt>
			<trkpt lat="33.274036" lon="103.839943">
				<ele>3146.000000</ele>
				<time>2024-04-10T04:24:23Z</time>
			</trkpt>
			<trkpt lat="33.274025" lon="103.839813">
				<ele>3166.000000</ele>
				<time>2024-04-10T04:24:23Z</time>
			</trkpt>
			<trkpt lat="33.273994" lon="103.839783">
				<ele>3166.000000</ele>
				<time>2024-04-10T04:24:23Z</time>
			</trkpt>
			<trkpt lat="33.273930" lon="103.839729">
				<ele>3166.000000</ele>
				<time>2024-04-10T04:24:23Z</time>
			</trkpt>
			<trkpt lat="33.273895" lon="103.839622">
				<ele>3166.000000</ele>
				<time>2024-04-10T04:24:23Z</time>
			</trkpt>
			<trkpt lat="33.273891" lon="103.839577">
				<ele>3170.000000</ele>
				<time>2024-04-10T04:24:23Z</time>
			</trkpt>
			<trkpt lat="33.273907" lon="103.839493">
				<ele>3170.000000</ele>
				<time>2024-04-10T04:24:23Z</time>
			</trkpt>
			<trkpt lat="33.273903" lon="103.839378">
				<ele>3170.000000</ele>
				<time>2024-04-10T04:24:23Z</time>
			</trkpt>
			<trkpt lat="33.273876" lon="103.839256">
				<ele>3167.000000</ele>
				<time>2024-04-10T04:24:23Z</time>
			</trkpt>
			<trkpt lat="33.273884" lon="103.839134">
				<ele>3167.000000</ele>
				<time>2024-04-10T04:24:23Z</time>
			</trkpt>
			<trkpt lat="33.273914" lon="103.839027">
				<ele>3162.000000</ele>
				<time>2024-04-10T04:24:23Z</time>
			</trkpt>
			<trkpt lat="33.274002" lon="103.838959">
				<ele>3162.000000</ele>
				<time>2024-04-10T04:24:23Z</time>
			</trkpt>
			<trkpt lat="33.274006" lon="103.838951">
				<ele>3162.000000</ele>
				<time>2024-04-10T04:24:23Z</time>
			</trkpt>
			<trkpt lat="33.274078" lon="103.838943">
				<ele>3152.000000</ele>
				<time>2024-04-10T04:24:23Z</time>
			</trkpt>
			<trkpt lat="33.274113" lon="103.838882">
				<ele>3152.000000</ele>
				<time>2024-04-10T04:24:23Z</time>
			</trkpt>
			<trkpt lat="33.274097" lon="103.838783">
				<ele>3152.000000</ele>
				<time>2024-04-10T04:24:23Z</time>
			</trkpt>
			<trkpt lat="33.274063" lon="103.838669">
				<ele>3159.000000</ele>
				<time>2024-04-10T04:24:23Z</time>
			</trkpt>
			<trkpt lat="33.274117" lon="103.838585">
				<ele>3159.000000</ele>
				<time>2024-04-10T04:24:23Z</time>
			</trkpt>
			<trkpt lat="33.274151" lon="103.838547">
				<ele>3159.000000</ele>
				<time>2024-04-10T04:24:23Z</time>
			</trkpt>
			<trkpt lat="33.274189" lon="103.838470">
				<ele>3160.000000</ele>
				<time>2024-04-10T04:24:23Z</time>
			</trkpt>
			<trkpt lat="33.274246" lon="103.838387">
				<ele>3160.000000</ele>
				<time>2024-04-10T04:24:23Z</time>
			</trkpt>
			<trkpt lat="33.274288" lon="103.838364">
				<ele>3160.000000</ele>
				<time>2024-04-10T04:24:23Z</time>
			</trkpt>
			<trkpt lat="33.274364" lon="103.838394">
				<ele>3152.000000</ele>
				<time>2024-04-10T04:24:23Z</time>
			</trkpt>
			<trkpt lat="33.274441" lon="103.838356">
				<ele>3152.000000</ele>
				<time>2024-04-10T04:24:23Z</time>
			</trkpt>
			<trkpt lat="33.274540" lon="103.838326">
				<ele>3152.000000</ele>
				<time>2024-04-10T04:24:23Z</time>
			</trkpt>
			<trkpt lat="33.274563" lon="103.838326">
				<ele>3152.000000</ele>
				<time>2024-04-10T04:24:23Z</time>
			</trkpt>
			<trkpt lat="33.274647" lon="103.838310">
				<ele>3150.000000</ele>
				<time>2024-04-10T04:24:23Z</time>
			</trkpt>
			<trkpt lat="33.274757" lon="103.838310">
				<ele>3150.000000</ele>
				<time>2024-04-10T04:24:23Z</time>
			</trkpt>
			<trkpt lat="33.274757" lon="103.838318">
				<ele>3150.000000</ele>
				<time>2024-04-10T04:24:23Z</time>
			</trkpt>
			<trkpt lat="33.274822" lon="103.838280">
				<ele>3150.000000</ele>
				<time>2024-04-10T04:24:23Z</time>
			</trkpt>
			<trkpt lat="33.274845" lon="103.838264">
				<ele>3150.000000</ele>
				<time>2024-04-10T04:24:23Z</time>
			</trkpt>
			<trkpt lat="33.274925" lon="103.838242">
				<ele>3148.000000</ele>
				<time>2024-04-10T04:24:23Z</time>
			</trkpt>
			<trkpt lat="33.274975" lon="103.838226">
				<ele>3148.000000</ele>
				<time>2024-04-10T04:24:23Z</time>
			</trkpt>
			<trkpt lat="33.275143" lon="103.838196">
				<ele>3148.000000</ele>
				<time>2024-04-10T04:24:23Z</time>
			</trkpt>
			<trkpt lat="33.275143" lon="103.838196">
				<ele>3148.000000</ele>
				<time>2024-04-10T04:24:23Z</time>
			</trkpt>
			<trkpt lat="33.275253" lon="103.838211">
				<ele>3148.000000</ele>
				<time>2024-04-10T04:24:23Z</time>
			</trkpt>
			<trkpt lat="33.275349" lon="103.838158">
				<ele>3150.000000</ele>
				<time>2024-04-10T04:24:23Z</time>
			</trkpt>
			<trkpt lat="33.275444" lon="103.838104">
				<ele>3144.000000</ele>
				<time>2024-04-10T04:24:23Z</time>
			</trkpt>
			<trkpt lat="33.275547" lon="103.838097">
				<ele>3144.000000</ele>
				<time>2024-04-10T04:24:23Z</time>
			</trkpt>
			<trkpt lat="33.275658" lon="103.838112">
				<ele>3144.000000</ele>
				<time>2024-04-10T04:24:23Z</time>
			</trkpt>
			<trkpt lat="33.275764" lon="103.838135">
				<ele>3133.000000</ele>
				<time>2024-04-10T04:24:23Z</time>
			</trkpt>
			<trkpt lat="33.275875" lon="103.838142">
				<ele>3133.000000</ele>
				<time>2024-04-10T04:24:23Z</time>
			</trkpt>
			<trkpt lat="33.275986" lon="103.838142">
				<ele>3122.000000</ele>
				<time>2024-04-10T04:24:23Z</time>
			</trkpt>
			<trkpt lat="33.276100" lon="103.838104">
				<ele>3122.000000</ele>
				<time>2024-04-10T04:24:23Z</time>
			</trkpt>
			<trkpt lat="33.276211" lon="103.838066">
				<ele>3122.000000</ele>
				<time>2024-04-10T04:24:23Z</time>
			</trkpt>
			<trkpt lat="33.276325" lon="103.838028">
				<ele>3109.000000</ele>
				<time>2024-04-10T04:24:23Z</time>
			</trkpt>
			<trkpt lat="33.276428" lon="103.837990">
				<ele>3109.000000</ele>
				<time>2024-04-10T04:24:23Z</time>
			</trkpt>
			<trkpt lat="33.276531" lon="103.837952">
				<ele>3103.000000</ele>
				<time>2024-04-10T04:24:23Z</time>
			</trkpt>
			<trkpt lat="33.276627" lon="103.837914">
				<ele>3104.000000</ele>
				<time>2024-04-10T04:24:23Z</time>
			</trkpt>
			<trkpt lat="33.276642" lon="103.837898">
				<ele>3104.000000</ele>
				<time>2024-04-10T04:24:23Z</time>
			</trkpt>
			<trkpt lat="33.276714" lon="103.837914">
				<ele>3104.000000</ele>
				<time>2024-04-10T04:24:23Z</time>
			</trkpt>
			<trkpt lat="33.276787" lon="103.837891">
				<ele>3104.000000</ele>
				<time>2024-04-10T04:24:23Z</time>
			</trkpt>
			<trkpt lat="33.276848" lon="103.837807">
				<ele>3102.000000</ele>
				<time>2024-04-10T04:24:23Z</time>
			</trkpt>
			<trkpt lat="33.276920" lon="103.837730">
				<ele>3102.000000</ele>
				<time>2024-04-10T04:24:23Z</time>
			</trkpt>
			<trkpt lat="33.276993" lon="103.837654">
				<ele>3102.000000</ele>
				<time>2024-04-10T04:24:23Z</time>
			</trkpt>
			<trkpt lat="33.277061" lon="103.837570">
				<ele>3102.000000</ele>
				<time>2024-04-10T04:24:23Z</time>
			</trkpt>
			<trkpt lat="33.277149" lon="103.837524">
				<ele>3101.000000</ele>
				<time>2024-04-10T04:24:23Z</time>
			</trkpt>
			<trkpt lat="33.277245" lon="103.837433">
				<ele>3101.000000</ele>
				<time>2024-04-10T04:24:23Z</time>
			</trkpt>
			<trkpt lat="33.277317" lon="103.837341">
				<ele>3097.000000</ele>
				<time>2024-04-10T04:24:23Z</time>
			</trkpt>
			<trkpt lat="33.277340" lon="103.837280">
				<ele>3097.000000</ele>
				<time>2024-04-10T04:24:23Z</time>
			</trkpt>
			<trkpt lat="33.277393" lon="103.837212">
				<ele>3097.000000</ele>
				<time>2024-04-10T04:24:23Z</time>
			</trkpt>
			<trkpt lat="33.277458" lon="103.837120">
				<ele>3097.000000</ele>
				<time>2024-04-10T04:24:23Z</time>
			</trkpt>
			<trkpt lat="33.277534" lon="103.837044">
				<ele>3093.000000</ele>
				<time>2024-04-10T04:24:23Z</time>
			</trkpt>
			<trkpt lat="33.277626" lon="103.836990">
				<ele>3093.000000</ele>
				<time>2024-04-10T04:24:23Z</time>
			</trkpt>
			<trkpt lat="33.277733" lon="103.836937">
				<ele>3089.000000</ele>
				<time>2024-04-10T04:24:23Z</time>
			</trkpt>
			<trkpt lat="33.277813" lon="103.836876">
				<ele>3089.000000</ele>
				<time>2024-04-10T04:24:23Z</time>
			</trkpt>
			<trkpt lat="33.277878" lon="103.836838">
				<ele>3089.000000</ele>
				<time>2024-04-10T04:24:23Z</time>
			</trkpt>
			<trkpt lat="33.277962" lon="103.836845">
				<ele>3084.000000</ele>
				<time>2024-04-10T04:24:23Z</time>
			</trkpt>
			<trkpt lat="33.278057" lon="103.836838">
				<ele>3084.000000</ele>
				<time>2024-04-10T04:24:23Z</time>
			</trkpt>
			<trkpt lat="33.278160" lon="103.836815">
				<ele>3084.000000</ele>
				<time>2024-04-10T04:24:23Z</time>
			</trkpt>
			<trkpt lat="33.278252" lon="103.836784">
				<ele>3087.000000</ele>
				<time>2024-04-10T04:24:23Z</time>
			</trkpt>
			<trkpt lat="33.278355" lon="103.836754">
				<ele>3087.000000</ele>
				<time>2024-04-10T04:24:23Z</time>
			</trkpt>
			<trkpt lat="33.278454" lon="103.836739">
				<ele>3087.000000</ele>
				<time>2024-04-10T04:24:23Z</time>
			</trkpt>
			<trkpt lat="33.278553" lon="103.836754">
				<ele>3078.000000</ele>
				<time>2024-04-10T04:24:23Z</time>
			</trkpt>
			<trkpt lat="33.278648" lon="103.836761">
				<ele>3078.000000</ele>
				<time>2024-04-10T04:24:23Z</time>
			</trkpt>
			<trkpt lat="33.278748" lon="103.836739">
				<ele>3078.000000</ele>
				<time>2024-04-10T04:24:23Z</time>
			</trkpt>
			<trkpt lat="33.278851" lon="103.836716">
				<ele>3075.000000</ele>
				<time>2024-04-10T04:24:23Z</time>
			</trkpt>
			<trkpt lat="33.278946" lon="103.836685">
				<ele>3075.000000</ele>
				<time>2024-04-10T04:24:23Z</time>
			</trkpt>
			<trkpt lat="33.279049" lon="103.836700">
				<ele>3072.000000</ele>
				<time>2024-04-10T04:24:23Z</time>
			</trkpt>
			<trkpt lat="33.279140" lon="103.836716">
				<ele>3072.000000</ele>
				<time>2024-04-10T04:24:23Z</time>
			</trkpt>
			<trkpt lat="33.279243" lon="103.836693">
				<ele>3072.000000</ele>
				<time>2024-04-10T04:24:23Z</time>
			</trkpt>
			<trkpt lat="33.279335" lon="103.836685">
				<ele>3070.000000</ele>
				<time>2024-04-10T04:24:23Z</time>
			</trkpt>
			<trkpt lat="33.279430" lon="103.836662">
				<ele>3070.000000</ele>
				<time>2024-04-10T04:24:23Z</time>
			</trkpt>
			<trkpt lat="33.279518" lon="103.836624">
				<ele>3070.000000</ele>
				<time>2024-04-10T04:24:23Z</time>
			</trkpt>
			<trkpt lat="33.279610" lon="103.836601">
				<ele>3072.000000</ele>
				<time>2024-04-10T04:24:23Z</time>
			</trkpt>
			<trkpt lat="33.279705" lon="103.836594">
				<ele>3072.000000</ele>
				<time>2024-04-10T04:24:23Z</time>
			</trkpt>
			<trkpt lat="33.279808" lon="103.836624">
				<ele>3072.000000</ele>
				<time>2024-04-10T04:24:23Z</time>
			</trkpt>
			<trkpt lat="33.279903" lon="103.836609">
				<ele>3070.000000</ele>
				<time>2024-04-10T04:24:23Z</time>
			</trkpt>
			<trkpt lat="33.279949" lon="103.836517">
				<ele>3067.000000</ele>
				<time>2024-04-10T04:24:23Z</time>
			</trkpt>
			<trkpt lat="33.280022" lon="103.836426">
				<ele>3067.000000</ele>
				<time>2024-04-10T04:24:23Z</time>
			</trkpt>
			<trkpt lat="33.280102" lon="103.836365">
				<ele>3067.000000</ele>
				<time>2024-04-10T04:24:23Z</time>
			</trkpt>
			<trkpt lat="33.280182" lon="103.836304">
				<ele>3066.000000</ele>
				<time>2024-04-10T04:24:23Z</time>
			</trkpt>
			<trkpt lat="33.280243" lon="103.836243">
				<ele>3056.000000</ele>
				<time>2024-04-10T04:24:23Z</time>
			</trkpt>
			<trkpt lat="33.280334" lon="103.836212">
				<ele>3056.000000</ele>
				<time>2024-04-10T04:24:23Z</time>
			</trkpt>
			<trkpt lat="33.280441" lon="103.836166">
				<ele>3055.000000</ele>
				<time>2024-04-10T04:24:23Z</time>
			</trkpt>
			<trkpt lat="33.280529" lon="103.836121">
				<ele>3055.000000</ele>
				<time>2024-04-10T04:24:23Z</time>
			</trkpt>
			<trkpt lat="33.280560" lon="103.836121">
				<ele>3055.000000</ele>
				<time>2024-04-10T04:24:23Z</time>
			</trkpt>
			<trkpt lat="33.280613" lon="103.836067">
				<ele>3055.000000</ele>
				<time>2024-04-10T04:24:23Z</time>
			</trkpt>
			<trkpt lat="33.280678" lon="103.835983">
				<ele>3055.000000</ele>
				<time>2024-04-10T04:24:23Z</time>
			</trkpt>
			<trkpt lat="33.280739" lon="103.835884">
				<ele>3042.000000</ele>
				<time>2024-04-10T04:24:23Z</time>
			</trkpt>
			<trkpt lat="33.280830" lon="103.835831">
				<ele>3042.000000</ele>
				<time>2024-04-10T04:24:23Z</time>
			</trkpt>
			<trkpt lat="33.280930" lon="103.835831">
				<ele>3042.000000</ele>
				<time>2024-04-10T04:24:23Z</time>
			</trkpt>
			<trkpt lat="33.281033" lon="103.835846">
				<ele>3038.000000</ele>
				<time>2024-04-10T04:24:23Z</time>
			</trkpt>
			<trkpt lat="33.281136" lon="103.835876">
				<ele>3038.000000</ele>
				<time>2024-04-10T04:24:23Z</time>
			</trkpt>
			<trkpt lat="33.281242" lon="103.835892">
				<ele>3038.000000</ele>
				<time>2024-04-10T04:24:23Z</time>
			</trkpt>
			<trkpt lat="33.281330" lon="103.835930">
				<ele>3039.000000</ele>
				<time>2024-04-10T04:24:23Z</time>
			</trkpt>
			<trkpt lat="33.281433" lon="103.835953">
				<ele>3039.000000</ele>
				<time>2024-04-10T04:24:23Z</time>
			</trkpt>
			<trkpt lat="33.281536" lon="103.835968">
				<ele>3022.000000</ele>
				<time>2024-04-10T04:24:23Z</time>
			</trkpt>
			<trkpt lat="33.281635" lon="103.835991">
				<ele>3031.000000</ele>
				<time>2024-04-10T04:24:23Z</time>
			</trkpt>
			<trkpt lat="33.281734" lon="103.836014">
				<ele>3031.000000</ele>
				<time>2024-04-10T04:24:23Z</time>
			</trkpt>
			<trkpt lat="33.281834" lon="103.836014">
				<ele>3018.000000</ele>
				<time>2024-04-10T04:24:23Z</time>
			</trkpt>
			<trkpt lat="33.281895" lon="103.836014">
				<ele>3018.000000</ele>
				<time>2024-04-10T04:24:23Z</time>
			</trkpt>
			<trkpt lat="33.281971" lon="103.836029">
				<ele>3018.000000</ele>
				<time>2024-04-10T04:24:23Z</time>
			</trkpt>
			<trkpt lat="33.282070" lon="103.836044">
				<ele>3018.000000</ele>
				<time>2024-04-10T04:24:23Z</time>
			</trkpt>
			<trkpt lat="33.282173" lon="103.836021">
				<ele>3012.000000</ele>
				<time>2024-04-10T04:24:23Z</time>
			</trkpt>
			<trkpt lat="33.282204" lon="103.835999">
				<ele>3012.000000</ele>
				<time>2024-04-10T04:24:23Z</time>
			</trkpt>
			<trkpt lat="33.282276" lon="103.835983">
				<ele>3012.000000</ele>
				<time>2024-04-10T04:24:23Z</time>
			</trkpt>
			<trkpt lat="33.282360" lon="103.835976">
				<ele>3012.000000</ele>
				<time>2024-04-10T04:24:23Z</time>
			</trkpt>
			<trkpt lat="33.282467" lon="103.835983">
				<ele>3009.000000</ele>
				<time>2024-04-10T04:24:23Z</time>
			</trkpt>
			<trkpt lat="33.282490" lon="103.835983">
				<ele>3009.000000</ele>
				<time>2024-04-10T04:24:23Z</time>
			</trkpt>
			<trkpt lat="33.282555" lon="103.835915">
				<ele>2997.000000</ele>
				<time>2024-04-10T04:24:23Z</time>
			</trkpt>
			<trkpt lat="33.282627" lon="103.835823">
				<ele>2997.000000</ele>
				<time>2024-04-10T04:24:23Z</time>
			</trkpt>
			<trkpt lat="33.282665" lon="103.835785">
				<ele>2997.000000</ele>
				<time>2024-04-10T04:24:23Z</time>
			</trkpt>
			<trkpt lat="33.282745" lon="103.835762">
				<ele>2997.000000</ele>
				<time>2024-04-10T04:24:23Z</time>
			</trkpt>
			<trkpt lat="33.282780" lon="103.835732">
				<ele>2997.000000</ele>
				<time>2024-04-10T04:24:23Z</time>
			</trkpt>
			<trkpt lat="33.282852" lon="103.835693">
				<ele>2984.000000</ele>
				<time>2024-04-10T04:24:23Z</time>
			</trkpt>
			<trkpt lat="33.282944" lon="103.835678">
				<ele>2989.000000</ele>
				<time>2024-04-10T04:24:23Z</time>
			</trkpt>
			<trkpt lat="33.283031" lon="103.835602">
				<ele>2989.000000</ele>
				<time>2024-04-10T04:24:23Z</time>
			</trkpt>
			<trkpt lat="33.283131" lon="103.835541">
				<ele>2989.000000</ele>
				<time>2024-04-10T04:24:23Z</time>
			</trkpt>
			<trkpt lat="33.283234" lon="103.835533">
				<ele>2988.000000</ele>
				<time>2024-04-10T04:24:23Z</time>
			</trkpt>
			<trkpt lat="33.283329" lon="103.835487">
				<ele>2988.000000</ele>
				<time>2024-04-10T04:24:23Z</time>
			</trkpt>
			<trkpt lat="33.283428" lon="103.835480">
				<ele>2988.000000</ele>
				<time>2024-04-10T04:24:23Z</time>
			</trkpt>
			<trkpt lat="33.283531" lon="103.835510">
				<ele>2979.000000</ele>
				<time>2024-04-10T04:24:23Z</time>
			</trkpt>
			<trkpt lat="33.283634" lon="103.835533">
				<ele>2979.000000</ele>
				<time>2024-04-10T04:24:23Z</time>
			</trkpt>
			<trkpt lat="33.283699" lon="103.835526">
				<ele>2979.000000</ele>
				<time>2024-04-10T04:24:23Z</time>
			</trkpt>
			<trkpt lat="33.283783" lon="103.835548">
				<ele>2975.000000</ele>
				<time>2024-04-10T04:24:23Z</time>
			</trkpt>
			<trkpt lat="33.283878" lon="103.835594">
				<ele>2975.000000</ele>
				<time>2024-04-10T04:24:23Z</time>
			</trkpt>
			<trkpt lat="33.283966" lon="103.835655">
				<ele>2975.000000</ele>
				<time>2024-04-10T04:24:23Z</time>
			</trkpt>
			<trkpt lat="33.284050" lon="103.835716">
				<ele>2973.000000</ele>
				<time>2024-04-10T04:24:23Z</time>
			</trkpt>
			<trkpt lat="33.284157" lon="103.835770">
				<ele>2973.000000</ele>
				<time>2024-04-10T04:24:23Z</time>
			</trkpt>
			<trkpt lat="33.284256" lon="103.835838">
				<ele>2973.000000</ele>
				<time>2024-04-10T04:24:23Z</time>
			</trkpt>
			<trkpt lat="33.284351" lon="103.835884">
				<ele>2969.000000</ele>
				<time>2024-04-10T04:24:23Z</time>
			</trkpt>
			<trkpt lat="33.284443" lon="103.835907">
				<ele>2969.000000</ele>
				<time>2024-04-10T04:24:23Z</time>
			</trkpt>
			<trkpt lat="33.284538" lon="103.835869">
				<ele>2969.000000</ele>
				<time>2024-04-10T04:24:23Z</time>
			</trkpt>
			<trkpt lat="33.284634" lon="103.835861">
				<ele>2969.000000</ele>
				<time>2024-04-10T04:24:23Z</time>
			</trkpt>
			<trkpt lat="33.284725" lon="103.835815">
				<ele>2969.000000</ele>
				<time>2024-04-10T04:24:23Z</time>
			</trkpt>
			<trkpt lat="33.284779" lon="103.835770">
				<ele>2969.000000</ele>
				<time>2024-04-10T04:24:23Z</time>
			</trkpt>
			<trkpt lat="33.284859" lon="103.835747">
				<ele>2969.000000</ele>
				<time>2024-04-10T04:24:23Z</time>
			</trkpt>
			<trkpt lat="33.284927" lon="103.835663">
				<ele>2951.000000</ele>
				<time>2024-04-10T04:24:23Z</time>
			</trkpt>
			<trkpt lat="33.285019" lon="103.835670">
				<ele>2951.000000</ele>
				<time>2024-04-10T04:24:23Z</time>
			</trkpt>
			<trkpt lat="33.285114" lon="103.835686">
				<ele>2951.000000</ele>
				<time>2024-04-10T04:24:23Z</time>
			</trkpt>
			<trkpt lat="33.285217" lon="103.835655">
				<ele>2946.000000</ele>
				<time>2024-04-10T04:24:23Z</time>
			</trkpt>
			<trkpt lat="33.285294" lon="103.835609">
				<ele>2946.000000</ele>
				<time>2024-04-10T04:24:23Z</time>
			</trkpt>
			<trkpt lat="33.285381" lon="103.835602">
				<ele>2946.000000</ele>
				<time>2024-04-10T04:24:23Z</time>
			</trkpt>
			<trkpt lat="33.285419" lon="103.835510">
				<ele>2944.000000</ele>
				<time>2024-04-10T04:24:23Z</time>
			</trkpt>
			<trkpt lat="33.285488" lon="103.835442">
				<ele>2944.000000</ele>
				<time>2024-04-10T04:24:23Z</time>
			</trkpt>
			<trkpt lat="33.285580" lon="103.835411">
				<ele>2942.000000</ele>
				<time>2024-04-10T04:24:23Z</time>
			</trkpt>
			<trkpt lat="33.285675" lon="103.835419">
				<ele>2944.000000</ele>
				<time>2024-04-10T04:24:23Z</time>
			</trkpt>
			<trkpt lat="33.285793" lon="103.835434">
				<ele>2942.000000</ele>
				<time>2024-04-10T04:24:23Z</time>
			</trkpt>
			<trkpt lat="33.285877" lon="103.835419">
				<ele>2942.000000</ele>
				<time>2024-04-10T04:24:23Z</time>
			</trkpt>
			<trkpt lat="33.285954" lon="103.835365">
				<ele>2943.000000</ele>
				<time>2024-04-10T04:24:23Z</time>
			</trkpt>
			<trkpt lat="33.286041" lon="103.835297">
				<ele>2932.000000</ele>
				<time>2024-04-10T04:24:23Z</time>
			</trkpt>
			<trkpt lat="33.286125" lon="103.835228">
				<ele>2932.000000</ele>
				<time>2024-04-10T04:24:23Z</time>
			</trkpt>
			<trkpt lat="33.286224" lon="103.835182">
				<ele>2932.000000</ele>
				<time>2024-04-10T04:24:23Z</time>
			</trkpt>
			<trkpt lat="33.286316" lon="103.835121">
				<ele>2930.000000</ele>
				<time>2024-04-10T04:24:23Z</time>
			</trkpt>
			<trkpt lat="33.286415" lon="103.835114">
				<ele>2930.000000</ele>
				<time>2024-04-10T04:24:23Z</time>
			</trkpt>
			<trkpt lat="33.286518" lon="103.835114">
				<ele>2930.000000</ele>
				<time>2024-04-10T04:24:23Z</time>
			</trkpt>
			<trkpt lat="33.286621" lon="103.835129">
				<ele>2922.000000</ele>
				<time>2024-04-10T04:24:23Z</time>
			</trkpt>
			<trkpt lat="33.286732" lon="103.835190">
				<ele>2923.000000</ele>
				<time>2024-04-10T04:24:23Z</time>
			</trkpt>
			<trkpt lat="33.286808" lon="103.835213">
				<ele>2919.000000</ele>
				<time>2024-04-10T04:24:23Z</time>
			</trkpt>
			<trkpt lat="33.286892" lon="103.835190">
				<ele>2919.000000</ele>
				<time>2024-04-10T04:24:23Z</time>
			</trkpt>
			<trkpt lat="33.286983" lon="103.835152">
				<ele>2919.000000</ele>
				<time>2024-04-10T04:24:23Z</time>
			</trkpt>
			<trkpt lat="33.287075" lon="103.835083">
				<ele>2919.000000</ele>
				<time>2024-04-10T04:24:23Z</time>
			</trkpt>
			<trkpt lat="33.287159" lon="103.834999">
				<ele>2916.000000</ele>
				<time>2024-04-10T04:24:23Z</time>
			</trkpt>
			<trkpt lat="33.287247" lon="103.834930">
				<ele>2916.000000</ele>
				<time>2024-04-10T04:24:23Z</time>
			</trkpt>
			<trkpt lat="33.287334" lon="103.834885">
				<ele>2916.000000</ele>
				<time>2024-04-10T04:24:23Z</time>
			</trkpt>
			<trkpt lat="33.287422" lon="103.834824">
				<ele>2919.000000</ele>
				<time>2024-04-10T04:24:23Z</time>
			</trkpt>
			<trkpt lat="33.287704" lon="103.834991">
				<ele>2915.000000</ele>
				<time>2024-04-10T04:24:23Z</time>
			</trkpt>
			<trkpt lat="33.287704" lon="103.834991">
				<ele>2915.000000</ele>
				<time>2024-04-10T04:24:23Z</time>
			</trkpt>
			<trkpt lat="33.287704" lon="103.834991">
				<ele>2915.000000</ele>
				<time>2024-04-10T04:24:23Z</time>
			</trkpt>
			<trkpt lat="33.287701" lon="103.834999">
				<ele>2915.000000</ele>
				<time>2024-04-10T04:24:23Z</time>
			</trkpt>
			<trkpt lat="33.287746" lon="103.835075">
				<ele>2915.000000</ele>
				<time>2024-04-10T04:24:23Z</time>
			</trkpt>
			<trkpt lat="33.287807" lon="103.835167">
				<ele>2919.000000</ele>
				<time>2024-04-10T04:24:23Z</time>
			</trkpt>
			<trkpt lat="33.287888" lon="103.835205">
				<ele>2919.000000</ele>
				<time>2024-04-10T04:24:23Z</time>
			</trkpt>
			<trkpt lat="33.287979" lon="103.835236">
				<ele>2919.000000</ele>
				<time>2024-04-10T04:24:23Z</time>
			</trkpt>
			<trkpt lat="33.288059" lon="103.835289">
				<ele>2919.000000</ele>
				<time>2024-04-10T04:24:23Z</time>
			</trkpt>
			<trkpt lat="33.288086" lon="103.835274">
				<ele>2919.000000</ele>
				<time>2024-04-10T04:24:23Z</time>
			</trkpt>
			<trkpt lat="33.288170" lon="103.835243">
				<ele>2919.000000</ele>
				<time>2024-04-10T04:24:23Z</time>
			</trkpt>
			<trkpt lat="33.288254" lon="103.835297">
				<ele>2920.000000</ele>
				<time>2024-04-10T04:24:23Z</time>
			</trkpt>
			<trkpt lat="33.288303" lon="103.835388">
				<ele>2920.000000</ele>
				<time>2024-04-10T04:24:23Z</time>
			</trkpt>
			<trkpt lat="33.288349" lon="103.835411">
				<ele>2920.000000</ele>
				<time>2024-04-10T04:24:23Z</time>
			</trkpt>
			<trkpt lat="33.288422" lon="103.835434">
				<ele>2917.000000</ele>
				<time>2024-04-10T04:24:23Z</time>
			</trkpt>
			<trkpt lat="33.288513" lon="103.835472">
				<ele>2917.000000</ele>
				<time>2024-04-10T04:24:23Z</time>
			</trkpt>
			<trkpt lat="33.288605" lon="103.835503">
				<ele>2917.000000</ele>
				<time>2024-04-10T04:24:23Z</time>
			</trkpt>
			<trkpt lat="33.288708" lon="103.835503">
				<ele>2917.000000</ele>
				<time>2024-04-10T04:24:23Z</time>
			</trkpt>
			<trkpt lat="33.288811" lon="103.835487">
				<ele>2917.000000</ele>
				<time>2024-04-10T04:24:23Z</time>
			</trkpt>
			<trkpt lat="33.288910" lon="103.835510">
				<ele>2917.000000</ele>
				<time>2024-04-10T04:24:23Z</time>
			</trkpt>
			<trkpt lat="33.289013" lon="103.835518">
				<ele>2917.000000</ele>
				<time>2024-04-10T04:24:23Z</time>
			</trkpt>
			<trkpt lat="33.289120" lon="103.835503">
				<ele>2915.000000</ele>
				<time>2024-04-10T04:24:23Z</time>
			</trkpt>
			<trkpt lat="33.289188" lon="103.835503">
				<ele>2915.000000</ele>
				<time>2024-04-10T04:24:23Z</time>
			</trkpt>
			<trkpt lat="33.289276" lon="103.835518">
				<ele>2915.000000</ele>
				<time>2024-04-10T04:24:23Z</time>
			</trkpt>
			<trkpt lat="33.289368" lon="103.835518">
				<ele>2909.000000</ele>
				<time>2024-04-10T04:24:23Z</time>
			</trkpt>
			<trkpt lat="33.289455" lon="103.835487">
				<ele>2909.000000</ele>
				<time>2024-04-10T04:24:23Z</time>
			</trkpt>
			<trkpt lat="33.289566" lon="103.835464">
				<ele>2909.000000</ele>
				<time>2024-04-10T04:24:23Z</time>
			</trkpt>
			<trkpt lat="33.289677" lon="103.835457">
				<ele>2900.000000</ele>
				<time>2024-04-10T04:24:23Z</time>
			</trkpt>
			<trkpt lat="33.289772" lon="103.835442">
				<ele>2900.000000</ele>
				<time>2024-04-10T04:24:23Z</time>
			</trkpt>
			<trkpt lat="33.289875" lon="103.835419">
				<ele>2890.000000</ele>
				<time>2024-04-10T04:24:23Z</time>
			</trkpt>
			<trkpt lat="33.289974" lon="103.835396">
				<ele>2894.000000</ele>
				<time>2024-04-10T04:24:23Z</time>
			</trkpt>
			<trkpt lat="33.290062" lon="103.835335">
				<ele>2894.000000</ele>
				<time>2024-04-10T04:24:23Z</time>
			</trkpt>
			<trkpt lat="33.290108" lon="103.835289">
				<ele>2894.000000</ele>
				<time>2024-04-10T04:24:23Z</time>
			</trkpt>
			<trkpt lat="33.290199" lon="103.835281">
				<ele>2895.000000</ele>
				<time>2024-04-10T04:24:23Z</time>
			</trkpt>
			<trkpt lat="33.290302" lon="103.835274">
				<ele>2895.000000</ele>
				<time>2024-04-10T04:24:23Z</time>
			</trkpt>
			<trkpt lat="33.290413" lon="103.835266">
				<ele>2895.000000</ele>
				<time>2024-04-10T04:24:23Z</time>
			</trkpt>
			<trkpt lat="33.290527" lon="103.835251">
				<ele>2895.000000</ele>
				<time>2024-04-10T04:24:23Z</time>
			</trkpt>
			<trkpt lat="33.290630" lon="103.835258">
				<ele>2895.000000</ele>
				<time>2024-04-10T04:24:23Z</time>
			</trkpt>
			<trkpt lat="33.290733" lon="103.835274">
				<ele>2896.000000</ele>
				<time>2024-04-10T04:24:23Z</time>
			</trkpt>
			<trkpt lat="33.290833" lon="103.835304">
				<ele>2896.000000</ele>
				<time>2024-04-10T04:24:23Z</time>
			</trkpt>
			<trkpt lat="33.290920" lon="103.835289">
				<ele>2896.000000</ele>
				<time>2024-04-10T04:24:23Z</time>
			</trkpt>
			<trkpt lat="33.291019" lon="103.835243">
				<ele>2886.000000</ele>
				<time>2024-04-10T04:24:23Z</time>
			</trkpt>
			<trkpt lat="33.291111" lon="103.835197">
				<ele>2886.000000</ele>
				<time>2024-04-10T04:24:23Z</time>
			</trkpt>
			<trkpt lat="33.291191" lon="103.835129">
				<ele>2895.000000</ele>
				<time>2024-04-10T04:24:23Z</time>
			</trkpt>
			<trkpt lat="33.291260" lon="103.835045">
				<ele>2896.000000</ele>
				<time>2024-04-10T04:24:23Z</time>
			</trkpt>
			<trkpt lat="33.291264" lon="103.834930">
				<ele>2896.000000</ele>
				<time>2024-04-10T04:24:23Z</time>
			</trkpt>
			<trkpt lat="33.291248" lon="103.834801">
				<ele>2896.000000</ele>
				<time>2024-04-10T04:24:23Z</time>
			</trkpt>
			<trkpt lat="33.291260" lon="103.834663">
				<ele>2896.000000</ele>
				<time>2024-04-10T04:24:23Z</time>
			</trkpt>
			<trkpt lat="33.291279" lon="103.834526">
				<ele>2893.000000</ele>
				<time>2024-04-10T04:24:23Z</time>
			</trkpt>
			<trkpt lat="33.291309" lon="103.834396">
				<ele>2893.000000</ele>
				<time>2024-04-10T04:24:23Z</time>
			</trkpt>
			<trkpt lat="33.291325" lon="103.834274">
				<ele>2892.000000</ele>
				<time>2024-04-10T04:24:23Z</time>
			</trkpt>
			<trkpt lat="33.291321" lon="103.834160">
				<ele>2892.000000</ele>
				<time>2024-04-10T04:24:23Z</time>
			</trkpt>
			<trkpt lat="33.291363" lon="103.834053">
				<ele>2892.000000</ele>
				<time>2024-04-10T04:24:23Z</time>
			</trkpt>
			<trkpt lat="33.291409" lon="103.833954">
				<ele>2886.000000</ele>
				<time>2024-04-10T04:24:23Z</time>
			</trkpt>
			<trkpt lat="33.291435" lon="103.833839">
				<ele>2886.000000</ele>
				<time>2024-04-10T04:24:23Z</time>
			</trkpt>
			<trkpt lat="33.291451" lon="103.833725">
				<ele>2882.000000</ele>
				<time>2024-04-10T04:24:23Z</time>
			</trkpt>
			<trkpt lat="33.291492" lon="103.833618">
				<ele>2882.000000</ele>
				<time>2024-04-10T04:24:23Z</time>
			</trkpt>
			<trkpt lat="33.291523" lon="103.833504">
				<ele>2882.000000</ele>
				<time>2024-04-10T04:24:23Z</time>
			</trkpt>
			<trkpt lat="33.291538" lon="103.833473">
				<ele>2887.000000</ele>
				<time>2024-04-10T04:24:23Z</time>
			</trkpt>
			<trkpt lat="33.291599" lon="103.833412">
				<ele>2881.000000</ele>
				<time>2024-04-10T04:24:23Z</time>
			</trkpt>
			<trkpt lat="33.291630" lon="103.833389">
				<ele>2881.000000</ele>
				<time>2024-04-10T04:24:23Z</time>
			</trkpt>
			<trkpt lat="33.291710" lon="103.833351">
				<ele>2881.000000</ele>
				<time>2024-04-10T04:24:23Z</time>
			</trkpt>
			<trkpt lat="33.291801" lon="103.833290">
				<ele>2881.000000</ele>
				<time>2024-04-10T04:24:23Z</time>
			</trkpt>
			<trkpt lat="33.291889" lon="103.833206">
				<ele>2887.000000</ele>
				<time>2024-04-10T04:24:23Z</time>
			</trkpt>
			<trkpt lat="33.291958" lon="103.833084">
				<ele>2882.000000</ele>
				<time>2024-04-10T04:24:23Z</time>
			</trkpt>
			<trkpt lat="33.291946" lon="103.832962">
				<ele>2882.000000</ele>
				<time>2024-04-10T04:24:23Z</time>
			</trkpt>
			<trkpt lat="33.291931" lon="103.832848">
				<ele>2870.000000</ele>
				<time>2024-04-10T04:24:23Z</time>
			</trkpt>
			<trkpt lat="33.291939" lon="103.832733">
				<ele>2870.000000</ele>
				<time>2024-04-10T04:24:23Z</time>
			</trkpt>
			<trkpt lat="33.291973" lon="103.832634">
				<ele>2862.000000</ele>
				<time>2024-04-10T04:24:23Z</time>
			</trkpt>
			<trkpt lat="33.291977" lon="103.832520">
				<ele>2862.000000</ele>
				<time>2024-04-10T04:24:23Z</time>
			</trkpt>
			<trkpt lat="33.291992" lon="103.832405">
				<ele>2862.000000</ele>
				<time>2024-04-10T04:24:23Z</time>
			</trkpt>
			<trkpt lat="33.291969" lon="103.832291">
				<ele>2856.000000</ele>
				<time>2024-04-10T04:24:23Z</time>
			</trkpt>
			<trkpt lat="33.291943" lon="103.832176">
				<ele>2856.000000</ele>
				<time>2024-04-10T04:24:23Z</time>
			</trkpt>
			<trkpt lat="33.291885" lon="103.832092">
				<ele>2856.000000</ele>
				<time>2024-04-10T04:24:23Z</time>
			</trkpt>
			<trkpt lat="33.291824" lon="103.832008">
				<ele>2851.000000</ele>
				<time>2024-04-10T04:24:23Z</time>
			</trkpt>
			<trkpt lat="33.291756" lon="103.831917">
				<ele>2841.000000</ele>
				<time>2024-04-10T04:24:23Z</time>
			</trkpt>
			<trkpt lat="33.291721" lon="103.831841">
				<ele>2841.000000</ele>
				<time>2024-04-10T04:24:23Z</time>
			</trkpt>
			<trkpt lat="33.291656" lon="103.831764">
				<ele>2836.000000</ele>
				<time>2024-04-10T04:24:23Z</time>
			</trkpt>
			<trkpt lat="33.291599" lon="103.831665">
				<ele>2836.000000</ele>
				<time>2024-04-10T04:24:23Z</time>
			</trkpt>
			<trkpt lat="33.291576" lon="103.831635">
				<ele>2836.000000</ele>
				<time>2024-04-10T04:24:23Z</time>
			</trkpt>
			<trkpt lat="33.291527" lon="103.831566">
				<ele>2830.000000</ele>
				<time>2024-04-10T04:24:23Z</time>
			</trkpt>
			<trkpt lat="33.291512" lon="103.831520">
				<ele>2818.000000</ele>
				<time>2024-04-10T04:24:23Z</time>
			</trkpt>
			<trkpt lat="33.291504" lon="103.831421">
				<ele>2818.000000</ele>
				<time>2024-04-10T04:24:23Z</time>
			</trkpt>
			<trkpt lat="33.291504" lon="103.831390">
				<ele>2818.000000</ele>
				<time>2024-04-10T04:24:23Z</time>
			</trkpt>
			<trkpt lat="33.291515" lon="103.831306">
				<ele>2818.000000</ele>
				<time>2024-04-10T04:24:23Z</time>
			</trkpt>
			<trkpt lat="33.291550" lon="103.831184">
				<ele>2807.000000</ele>
				<time>2024-04-10T04:24:23Z</time>
			</trkpt>
			<trkpt lat="33.291599" lon="103.831070">
				<ele>2807.000000</ele>
				<time>2024-04-10T04:24:23Z</time>
			</trkpt>
			<trkpt lat="33.291660" lon="103.830971">
				<ele>2797.000000</ele>
				<time>2024-04-10T04:24:23Z</time>
			</trkpt>
			<trkpt lat="33.291706" lon="103.830894">
				<ele>2797.000000</ele>
				<time>2024-04-10T04:24:23Z</time>
			</trkpt>
			<trkpt lat="33.291763" lon="103.830818">
				<ele>2797.000000</ele>
				<time>2024-04-10T04:24:23Z</time>
			</trkpt>
			<trkpt lat="33.291798" lon="103.830765">
				<ele>2797.000000</ele>
				<time>2024-04-10T04:24:23Z</time>
			</trkpt>
			<trkpt lat="33.291840" lon="103.830681">
				<ele>2788.000000</ele>
				<time>2024-04-10T04:24:23Z</time>
			</trkpt>
			<trkpt lat="33.291912" lon="103.830620">
				<ele>2788.000000</ele>
				<time>2024-04-10T04:24:23Z</time>
			</trkpt>
			<trkpt lat="33.291969" lon="103.830528">
				<ele>2788.000000</ele>
				<time>2024-04-10T04:24:23Z</time>
			</trkpt>
			<trkpt lat="33.292030" lon="103.830429">
				<ele>2788.000000</ele>
				<time>2024-04-10T04:24:23Z</time>
			</trkpt>
			<trkpt lat="33.292095" lon="103.830338">
				<ele>2782.000000</ele>
				<time>2024-04-10T04:24:23Z</time>
			</trkpt>
			<trkpt lat="33.292156" lon="103.830246">
				<ele>2782.000000</ele>
				<time>2024-04-10T04:24:23Z</time>
			</trkpt>
			<trkpt lat="33.292183" lon="103.830208">
				<ele>2782.000000</ele>
				<time>2024-04-10T04:24:23Z</time>
			</trkpt>
			<trkpt lat="33.292206" lon="103.830116">
				<ele>2771.000000</ele>
				<time>2024-04-10T04:24:23Z</time>
			</trkpt>
			<trkpt lat="33.292244" lon="103.830009">
				<ele>2771.000000</ele>
				<time>2024-04-10T04:24:23Z</time>
			</trkpt>
			<trkpt lat="33.292240" lon="103.829880">
				<ele>2771.000000</ele>
				<time>2024-04-10T04:24:23Z</time>
			</trkpt>
			<trkpt lat="33.292252" lon="103.829758">
				<ele>2765.000000</ele>
				<time>2024-04-10T04:24:23Z</time>
			</trkpt>
			<trkpt lat="33.292259" lon="103.829620">
				<ele>2765.000000</ele>
				<time>2024-04-10T04:24:23Z</time>
			</trkpt>
			<trkpt lat="33.292263" lon="103.829498">
				<ele>2757.000000</ele>
				<time>2024-04-10T04:24:23Z</time>
			</trkpt>
			<trkpt lat="33.292290" lon="103.829391">
				<ele>2757.000000</ele>
				<time>2024-04-10T04:24:23Z</time>
			</trkpt>
			<trkpt lat="33.292362" lon="103.829330">
				<ele>2754.000000</ele>
				<time>2024-04-10T04:24:23Z</time>
			</trkpt>
			<trkpt lat="33.292465" lon="103.829323">
				<ele>2754.000000</ele>
				<time>2024-04-10T04:24:23Z</time>
			</trkpt>
			<trkpt lat="33.292568" lon="103.829338">
				<ele>2754.000000</ele>
				<time>2024-04-10T04:24:23Z</time>
			</trkpt>
			<trkpt lat="33.292675" lon="103.829315">
				<ele>2766.000000</ele>
				<time>2024-04-10T04:24:23Z</time>
			</trkpt>
			<trkpt lat="33.292759" lon="103.829231">
				<ele>2732.000000</ele>
				<time>2024-04-10T04:24:23Z</time>
			</trkpt>
			<trkpt lat="33.292828" lon="103.829147">
				<ele>2732.000000</ele>
				<time>2024-04-10T04:24:23Z</time>
			</trkpt>
			<trkpt lat="33.292896" lon="103.829071">
				<ele>2732.000000</ele>
				<time>2024-04-10T04:24:23Z</time>
			</trkpt>
			<trkpt lat="33.292973" lon="103.828987">
				<ele>2731.000000</ele>
				<time>2024-04-10T04:24:23Z</time>
			</trkpt>
			<trkpt lat="33.293045" lon="103.828896">
				<ele>2731.000000</ele>
				<time>2024-04-10T04:24:23Z</time>
			</trkpt>
			<trkpt lat="33.293129" lon="103.828812">
				<ele>2731.000000</ele>
				<time>2024-04-10T04:24:23Z</time>
			</trkpt>
			<trkpt lat="33.293163" lon="103.828773">
				<ele>2731.000000</ele>
				<time>2024-04-10T04:24:23Z</time>
			</trkpt>
			<trkpt lat="33.293198" lon="103.828697">
				<ele>2738.000000</ele>
				<time>2024-04-10T04:24:23Z</time>
			</trkpt>
			<trkpt lat="33.293194" lon="103.828590">
				<ele>2730.000000</ele>
				<time>2024-04-10T04:24:23Z</time>
			</trkpt>
			<trkpt lat="33.293201" lon="103.828545">
				<ele>2738.000000</ele>
				<time>2024-04-10T04:24:23Z</time>
			</trkpt>
			<trkpt lat="33.293201" lon="103.828545">
				<ele>2738.000000</ele>
				<time>2024-04-10T04:24:23Z</time>
			</trkpt>
			<trkpt lat="33.293221" lon="103.828438">
				<ele>2715.000000</ele>
				<time>2024-04-10T04:24:23Z</time>
			</trkpt>
			<trkpt lat="33.293221" lon="103.828438">
				<ele>2715.000000</ele>
				<time>2024-04-10T04:24:23Z</time>
			</trkpt>
			<trkpt lat="33.293266" lon="103.828323">
				<ele>2715.000000</ele>
				<time>2024-04-10T04:24:23Z</time>
			</trkpt>
			<trkpt lat="33.293282" lon="103.828201">
				<ele>2715.000000</ele>
				<time>2024-04-10T04:24:23Z</time>
			</trkpt>
			<trkpt lat="33.293304" lon="103.828087">
				<ele>2700.000000</ele>
				<time>2024-04-10T04:24:23Z</time>
			</trkpt>
			<trkpt lat="33.293312" lon="103.827957">
				<ele>2700.000000</ele>
				<time>2024-04-10T04:24:23Z</time>
			</trkpt>
			<trkpt lat="33.293301" lon="103.827843">
				<ele>2697.000000</ele>
				<time>2024-04-10T04:24:23Z</time>
			</trkpt>
			<trkpt lat="33.293285" lon="103.827721">
				<ele>2697.000000</ele>
				<time>2024-04-10T04:24:23Z</time>
			</trkpt>
			<trkpt lat="33.293297" lon="103.827606">
				<ele>2682.000000</ele>
				<time>2024-04-10T04:24:23Z</time>
			</trkpt>
			<trkpt lat="33.293354" lon="103.827515">
				<ele>2682.000000</ele>
				<time>2024-04-10T04:24:23Z</time>
			</trkpt>
			<trkpt lat="33.293392" lon="103.827385">
				<ele>2682.000000</ele>
				<time>2024-04-10T04:24:23Z</time>
			</trkpt>
			<trkpt lat="33.293472" lon="103.827309">
				<ele>2668.000000</ele>
				<time>2024-04-10T04:24:23Z</time>
			</trkpt>
			<trkpt lat="33.293579" lon="103.827263">
				<ele>2668.000000</ele>
				<time>2024-04-10T04:24:23Z</time>
			</trkpt>
			<trkpt lat="33.293694" lon="103.827209">
				<ele>2668.000000</ele>
				<time>2024-04-10T04:24:23Z</time>
			</trkpt>
			<trkpt lat="33.293678" lon="103.827126">
				<ele>2668.000000</ele>
				<time>2024-04-10T04:24:23Z</time>
			</trkpt>
			<trkpt lat="33.293594" lon="103.827057">
				<ele>2657.000000</ele>
				<time>2024-04-10T04:24:23Z</time>
			</trkpt>
			<trkpt lat="33.293518" lon="103.827026">
				<ele>2657.000000</ele>
				<time>2024-04-10T04:24:23Z</time>
			</trkpt>
			<trkpt lat="33.293407" lon="103.826988">
				<ele>2657.000000</ele>
				<time>2024-04-10T04:24:23Z</time>
			</trkpt>
			<trkpt lat="33.293285" lon="103.826935">
				<ele>2657.000000</ele>
				<time>2024-04-10T04:24:23Z</time>
			</trkpt>
			<trkpt lat="33.293175" lon="103.826965">
				<ele>2656.000000</ele>
				<time>2024-04-10T04:24:23Z</time>
			</trkpt>
			<trkpt lat="33.293079" lon="103.827026">
				<ele>2656.000000</ele>
				<time>2024-04-10T04:24:23Z</time>
			</trkpt>
			<trkpt lat="33.292980" lon="103.827049">
				<ele>2656.000000</ele>
				<time>2024-04-10T04:24:23Z</time>
			</trkpt>
			<trkpt lat="33.292881" lon="103.827057">
				<ele>2646.000000</ele>
				<time>2024-04-10T04:24:23Z</time>
			</trkpt>
			<trkpt lat="33.292789" lon="103.827034">
				<ele>2646.000000</ele>
				<time>2024-04-10T04:24:23Z</time>
			</trkpt>
			<trkpt lat="33.292690" lon="103.827026">
				<ele>2646.000000</ele>
				<time>2024-04-10T04:24:23Z</time>
			</trkpt>
			<trkpt lat="33.292652" lon="103.826996">
				<ele>2646.000000</ele>
				<time>2024-04-10T04:24:23Z</time>
			</trkpt>
			<trkpt lat="33.292580" lon="103.826927">
				<ele>2640.000000</ele>
				<time>2024-04-10T04:24:23Z</time>
			</trkpt>
			<trkpt lat="33.292545" lon="103.826897">
				<ele>2640.000000</ele>
				<time>2024-04-10T04:24:23Z</time>
			</trkpt>
			<trkpt lat="33.292484" lon="103.826805">
				<ele>2628.000000</ele>
				<time>2024-04-10T04:24:23Z</time>
			</trkpt>
			<trkpt lat="33.292450" lon="103.826683">
				<ele>2628.000000</ele>
				<time>2024-04-10T04:24:23Z</time>
			</trkpt>
			<trkpt lat="33.292473" lon="103.826569">
				<ele>2628.000000</ele>
				<time>2024-04-10T04:24:23Z</time>
			</trkpt>
			<trkpt lat="33.292500" lon="103.826439">
				<ele>2619.000000</ele>
				<time>2024-04-10T04:24:23Z</time>
			</trkpt>
			<trkpt lat="33.292549" lon="103.826324">
				<ele>2619.000000</ele>
				<time>2024-04-10T04:24:23Z</time>
			</trkpt>
			<trkpt lat="33.292572" lon="103.826271">
				<ele>2619.000000</ele>
				<time>2024-04-10T04:24:23Z</time>
			</trkpt>
			<trkpt lat="33.292572" lon="103.826271">
				<ele>2619.000000</ele>
				<time>2024-04-10T04:24:23Z</time>
			</trkpt>
			<trkpt lat="33.292603" lon="103.826180">
				<ele>2613.000000</ele>
				<time>2024-04-10T04:24:23Z</time>
			</trkpt>
			<trkpt lat="33.292603" lon="103.826180">
				<ele>2613.000000</ele>
				<time>2024-04-10T04:24:23Z</time>
			</trkpt>
			<trkpt lat="33.292606" lon="103.826141">
				<ele>2613.000000</ele>
				<time>2024-04-10T04:24:23Z</time>
			</trkpt>
			<trkpt lat="33.292622" lon="103.826042">
				<ele>2613.000000</ele>
				<time>2024-04-10T04:24:23Z</time>
			</trkpt>
			<trkpt lat="33.292583" lon="103.825928">
				<ele>2608.000000</ele>
				<time>2024-04-10T04:24:23Z</time>
			</trkpt>
			<trkpt lat="33.292542" lon="103.825821">
				<ele>2608.000000</ele>
				<time>2024-04-10T04:24:23Z</time>
			</trkpt>
			<trkpt lat="33.292503" lon="103.825790">
				<ele>2608.000000</ele>
				<time>2024-04-10T04:24:23Z</time>
			</trkpt>
			<trkpt lat="33.292446" lon="103.825729">
				<ele>2608.000000</ele>
				<time>2024-04-10T04:24:23Z</time>
			</trkpt>
			<trkpt lat="33.292416" lon="103.825691">
				<ele>2603.000000</ele>
				<time>2024-04-10T04:24:23Z</time>
			</trkpt>
			<trkpt lat="33.292362" lon="103.825630">
				<ele>2603.000000</ele>
				<time>2024-04-10T04:24:23Z</time>
			</trkpt>
			<trkpt lat="33.292320" lon="103.825531">
				<ele>2606.000000</ele>
				<time>2024-04-10T04:24:23Z</time>
			</trkpt>
			<trkpt lat="33.292332" lon="103.825424">
				<ele>2606.000000</ele>
				<time>2024-04-10T04:24:23Z</time>
			</trkpt>
			<trkpt lat="33.292351" lon="103.825378">
				<ele>2597.000000</ele>
				<time>2024-04-10T04:24:23Z</time>
			</trkpt>
			<trkpt lat="33.292400" lon="103.825294">
				<ele>2598.000000</ele>
				<time>2024-04-10T04:24:23Z</time>
			</trkpt>
			<trkpt lat="33.292442" lon="103.825195">
				<ele>2598.000000</ele>
				<time>2024-04-10T04:24:23Z</time>
			</trkpt>
			<trkpt lat="33.292484" lon="103.825073">
				<ele>2588.000000</ele>
				<time>2024-04-10T04:24:23Z</time>
			</trkpt>
			<trkpt lat="33.292500" lon="103.825035">
				<ele>2588.000000</ele>
				<time>2024-04-10T04:24:23Z</time>
			</trkpt>
			<trkpt lat="33.292519" lon="103.824936">
				<ele>2588.000000</ele>
				<time>2024-04-10T04:24:23Z</time>
			</trkpt>
			<trkpt lat="33.292549" lon="103.824821">
				<ele>2579.000000</ele>
				<time>2024-04-10T04:24:23Z</time>
			</trkpt>
			<trkpt lat="33.292557" lon="103.824768">
				<ele>2579.000000</ele>
				<time>2024-04-10T04:24:23Z</time>
			</trkpt>
			<trkpt lat="33.292599" lon="103.824677">
				<ele>2579.000000</ele>
				<time>2024-04-10T04:24:23Z</time>
			</trkpt>
			<trkpt lat="33.292648" lon="103.824554">
				<ele>2572.000000</ele>
				<time>2024-04-10T04:24:23Z</time>
			</trkpt>
			<trkpt lat="33.292698" lon="103.824455">
				<ele>2572.000000</ele>
				<time>2024-04-10T04:24:23Z</time>
			</trkpt>
			<trkpt lat="33.292774" lon="103.824440">
				<ele>2572.000000</ele>
				<time>2024-04-10T04:24:23Z</time>
			</trkpt>
			<trkpt lat="33.292866" lon="103.824448">
				<ele>2572.000000</ele>
				<time>2024-04-10T04:24:23Z</time>
			</trkpt>
			<trkpt lat="33.292965" lon="103.824394">
				<ele>2570.000000</ele>
				<time>2024-04-10T04:24:23Z</time>
			</trkpt>
			<trkpt lat="33.293049" lon="103.824310">
				<ele>2570.000000</ele>
				<time>2024-04-10T04:24:23Z</time>
			</trkpt>
			<trkpt lat="33.293125" lon="103.824203">
				<ele>2558.000000</ele>
				<time>2024-04-10T04:24:23Z</time>
			</trkpt>
			<trkpt lat="33.293175" lon="103.824104">
				<ele>2558.000000</ele>
				<time>2024-04-10T04:24:23Z</time>
			</trkpt>
			<trkpt lat="33.293213" lon="103.824043">
				<ele>2557.000000</ele>
				<time>2024-04-10T04:24:23Z</time>
			</trkpt>
			<trkpt lat="33.293278" lon="103.823975">
				<ele>2553.000000</ele>
				<time>2024-04-10T04:24:23Z</time>
			</trkpt>
			<trkpt lat="33.293362" lon="103.823898">
				<ele>2553.000000</ele>
				<time>2024-04-10T04:24:23Z</time>
			</trkpt>
			<trkpt lat="33.293453" lon="103.823830">
				<ele>2553.000000</ele>
				<time>2024-04-10T04:24:23Z</time>
			</trkpt>
			<trkpt lat="33.293552" lon="103.823769">
				<ele>2562.000000</ele>
				<time>2024-04-10T04:24:23Z</time>
			</trkpt>
			<trkpt lat="33.293598" lon="103.823692">
				<ele>2559.000000</ele>
				<time>2024-04-10T04:24:23Z</time>
			</trkpt>
			<trkpt lat="33.293652" lon="103.823601">
				<ele>2559.000000</ele>
				<time>2024-04-10T04:24:23Z</time>
			</trkpt>
			<trkpt lat="33.293633" lon="103.823486">
				<ele>2559.000000</ele>
				<time>2024-04-10T04:24:23Z</time>
			</trkpt>
			<trkpt lat="33.293533" lon="103.823456">
				<ele>2555.000000</ele>
				<time>2024-04-10T04:24:23Z</time>
			</trkpt>
			<trkpt lat="33.293411" lon="103.823463">
				<ele>2552.000000</ele>
				<time>2024-04-10T04:24:23Z</time>
			</trkpt>
			<trkpt lat="33.293304" lon="103.823441">
				<ele>2552.000000</ele>
				<time>2024-04-10T04:24:23Z</time>
			</trkpt>
			<trkpt lat="33.293213" lon="103.823395">
				<ele>2552.000000</ele>
				<time>2024-04-10T04:24:23Z</time>
			</trkpt>
			<trkpt lat="33.293125" lon="103.823349">
				<ele>2544.000000</ele>
				<time>2024-04-10T04:24:23Z</time>
			</trkpt>
			<trkpt lat="33.293034" lon="103.823311">
				<ele>2544.000000</ele>
				<time>2024-04-10T04:24:23Z</time>
			</trkpt>
			<trkpt lat="33.292923" lon="103.823280">
				<ele>2544.000000</ele>
				<time>2024-04-10T04:24:23Z</time>
			</trkpt>
			<trkpt lat="33.292870" lon="103.823280">
				<ele>2538.000000</ele>
				<time>2024-04-10T04:24:23Z</time>
			</trkpt>
			<trkpt lat="33.292824" lon="103.823196">
				<ele>2538.000000</ele>
				<time>2024-04-10T04:24:23Z</time>
			</trkpt>
			<trkpt lat="33.292805" lon="103.823074">
				<ele>2533.000000</ele>
				<time>2024-04-10T04:24:23Z</time>
			</trkpt>
			<trkpt lat="33.292767" lon="103.822945">
				<ele>2533.000000</ele>
				<time>2024-04-10T04:24:23Z</time>
			</trkpt>
			<trkpt lat="33.292728" lon="103.822807">
				<ele>2526.000000</ele>
				<time>2024-04-10T04:24:23Z</time>
			</trkpt>
			<trkpt lat="33.292706" lon="103.822670">
				<ele>2526.000000</ele>
				<time>2024-04-10T04:24:23Z</time>
			</trkpt>
			<trkpt lat="33.292706" lon="103.822548">
				<ele>2517.000000</ele>
				<time>2024-04-10T04:24:23Z</time>
			</trkpt>
			<trkpt lat="33.292728" lon="103.822495">
				<ele>2517.000000</ele>
				<time>2024-04-10T04:24:23Z</time>
			</trkpt>
			<trkpt lat="33.292751" lon="103.822403">
				<ele>2517.000000</ele>
				<time>2024-04-10T04:24:23Z</time>
			</trkpt>
			<trkpt lat="33.292763" lon="103.822296">
				<ele>2508.000000</ele>
				<time>2024-04-10T04:24:23Z</time>
			</trkpt>
			<trkpt lat="33.292763" lon="103.822182">
				<ele>2508.000000</ele>
				<time>2024-04-10T04:24:23Z</time>
			</trkpt>
			<trkpt lat="33.292717" lon="103.822075">
				<ele>2502.000000</ele>
				<time>2024-04-10T04:24:23Z</time>
			</trkpt>
			<trkpt lat="33.292683" lon="103.821960">
				<ele>2502.000000</ele>
				<time>2024-04-10T04:24:23Z</time>
			</trkpt>
			<trkpt lat="33.292637" lon="103.821861">
				<ele>2504.000000</ele>
				<time>2024-04-10T04:24:23Z</time>
			</trkpt>
			<trkpt lat="33.292591" lon="103.821747">
				<ele>2497.000000</ele>
				<time>2024-04-10T04:24:23Z</time>
			</trkpt>
			<trkpt lat="33.292553" lon="103.821617">
				<ele>2497.000000</ele>
				<time>2024-04-10T04:24:23Z</time>
			</trkpt>
			<trkpt lat="33.292542" lon="103.821564">
				<ele>2497.000000</ele>
				<time>2024-04-10T04:24:23Z</time>
			</trkpt>
			<trkpt lat="33.292507" lon="103.821487">
				<ele>2491.000000</ele>
				<time>2024-04-10T04:24:23Z</time>
			</trkpt>
			<trkpt lat="33.292454" lon="103.821381">
				<ele>2491.000000</ele>
				<time>2024-04-10T04:24:23Z</time>
			</trkpt>
			<trkpt lat="33.292393" lon="103.821289">
				<ele>2491.000000</ele>
				<time>2024-04-10T04:24:23Z</time>
			</trkpt>
			<trkpt lat="33.292316" lon="103.821198">
				<ele>2481.000000</ele>
				<time>2024-04-10T04:24:23Z</time>
			</trkpt>
			<trkpt lat="33.292240" lon="103.821159">
				<ele>2481.000000</ele>
				<time>2024-04-10T04:24:23Z</time>
			</trkpt>
			<trkpt lat="33.292171" lon="103.821091">
				<ele>2481.000000</ele>
				<time>2024-04-10T04:24:23Z</time>
			</trkpt>
			<trkpt lat="33.292080" lon="103.821053">
				<ele>2482.000000</ele>
				<time>2024-04-10T04:24:23Z</time>
			</trkpt>
			<trkpt lat="33.291985" lon="103.821037">
				<ele>2482.000000</ele>
				<time>2024-04-10T04:24:23Z</time>
			</trkpt>
			<trkpt lat="33.291889" lon="103.821014">
				<ele>2482.000000</ele>
				<time>2024-04-10T04:24:23Z</time>
			</trkpt>
			<trkpt lat="33.291794" lon="103.820976">
				<ele>2482.000000</ele>
				<time>2024-04-10T04:24:23Z</time>
			</trkpt>
			<trkpt lat="33.291710" lon="103.820915">
				<ele>2479.000000</ele>
				<time>2024-04-10T04:24:23Z</time>
			</trkpt>
			<trkpt lat="33.291626" lon="103.820831">
				<ele>2479.000000</ele>
				<time>2024-04-10T04:24:23Z</time>
			</trkpt>
			<trkpt lat="33.291565" lon="103.820747">
				<ele>2479.000000</ele>
				<time>2024-04-10T04:24:23Z</time>
			</trkpt>
			<trkpt lat="33.291519" lon="103.820656">
				<ele>2484.000000</ele>
				<time>2024-04-10T04:24:23Z</time>
			</trkpt>
			<trkpt lat="33.291481" lon="103.820549">
				<ele>2484.000000</ele>
				<time>2024-04-10T04:24:23Z</time>
			</trkpt>
			<trkpt lat="33.291454" lon="103.820427">
				<ele>2484.000000</ele>
				<time>2024-04-10T04:24:23Z</time>
			</trkpt>
			<trkpt lat="33.291458" lon="103.820366">
				<ele>2480.000000</ele>
				<time>2024-04-10T04:24:23Z</time>
			</trkpt>
			<trkpt lat="33.291561" lon="103.820427">
				<ele>2475.000000</ele>
				<time>2024-04-10T04:24:23Z</time>
			</trkpt>
			<trkpt lat="33.291653" lon="103.820450">
				<ele>2475.000000</ele>
				<time>2024-04-10T04:24:23Z</time>
			</trkpt>
			<trkpt lat="33.291752" lon="103.820450">
				<ele>2475.000000</ele>
				<time>2024-04-10T04:24:23Z</time>
			</trkpt>
			<trkpt lat="33.291843" lon="103.820473">
				<ele>2467.000000</ele>
				<time>2024-04-10T04:24:23Z</time>
			</trkpt>
			<trkpt lat="33.291927" lon="103.820511">
				<ele>2467.000000</ele>
				<time>2024-04-10T04:24:23Z</time>
			</trkpt>
			<trkpt lat="33.292019" lon="103.820541">
				<ele>2467.000000</ele>
				<time>2024-04-10T04:24:23Z</time>
			</trkpt>
			<trkpt lat="33.292122" lon="103.820541">
				<ele>2459.000000</ele>
				<time>2024-04-10T04:24:23Z</time>
			</trkpt>
			<trkpt lat="33.292217" lon="103.820534">
				<ele>2459.000000</ele>
				<time>2024-04-10T04:24:23Z</time>
			</trkpt>
			<trkpt lat="33.292240" lon="103.820511">
				<ele>2459.000000</ele>
				<time>2024-04-10T04:24:23Z</time>
			</trkpt>
			<trkpt lat="33.292240" lon="103.820511">
				<ele>2459.000000</ele>
				<time>2024-04-10T04:24:23Z</time>
			</trkpt>
			<trkpt lat="33.292240" lon="103.820511">
				<ele>2459.000000</ele>
				<time>2024-04-10T04:24:23Z</time>
			</trkpt>
			<trkpt lat="33.292336" lon="103.820473">
				<ele>2459.000000</ele>
				<time>2024-04-10T04:24:23Z</time>
			</trkpt>
			<trkpt lat="33.292423" lon="103.820419">
				<ele>2459.000000</ele>
				<time>2024-04-10T04:24:23Z</time>
			</trkpt>
			<trkpt lat="33.292511" lon="103.820389">
				<ele>2451.000000</ele>
				<time>2024-04-10T04:24:23Z</time>
			</trkpt>
			<trkpt lat="33.292603" lon="103.820358">
				<ele>2451.000000</ele>
				<time>2024-04-10T04:24:23Z</time>
			</trkpt>
			<trkpt lat="33.292694" lon="103.820358">
				<ele>2456.000000</ele>
				<time>2024-04-10T04:24:23Z</time>
			</trkpt>
			<trkpt lat="33.292786" lon="103.820374">
				<ele>2456.000000</ele>
				<time>2024-04-10T04:24:23Z</time>
			</trkpt>
			<trkpt lat="33.292881" lon="103.820358">
				<ele>2456.000000</ele>
				<time>2024-04-10T04:24:23Z</time>
			</trkpt>
			<trkpt lat="33.292973" lon="103.820351">
				<ele>2446.000000</ele>
				<time>2024-04-10T04:24:23Z</time>
			</trkpt>
			<trkpt lat="33.293072" lon="103.820358">
				<ele>2446.000000</ele>
				<time>2024-04-10T04:24:23Z</time>
			</trkpt>
			<trkpt lat="33.293167" lon="103.820351">
				<ele>2446.000000</ele>
				<time>2024-04-10T04:24:23Z</time>
			</trkpt>
			<trkpt lat="33.293266" lon="103.820351">
				<ele>2436.000000</ele>
				<time>2024-04-10T04:24:23Z</time>
			</trkpt>
			<trkpt lat="33.293354" lon="103.820297">
				<ele>2436.000000</ele>
				<time>2024-04-10T04:24:23Z</time>
			</trkpt>
			<trkpt lat="33.293415" lon="103.820213">
				<ele>2436.000000</ele>
				<time>2024-04-10T04:24:23Z</time>
			</trkpt>
			<trkpt lat="33.293446" lon="103.820107">
				<ele>2433.000000</ele>
				<time>2024-04-10T04:24:23Z</time>
			</trkpt>
			<trkpt lat="33.293484" lon="103.820000">
				<ele>2432.000000</ele>
				<time>2024-04-10T04:24:23Z</time>
			</trkpt>
			<trkpt lat="33.293510" lon="103.819901">
				<ele>2432.000000</ele>
				<time>2024-04-10T04:24:23Z</time>
			</trkpt>
			<trkpt lat="33.293545" lon="103.819794">
				<ele>2429.000000</ele>
				<time>2024-04-10T04:24:23Z</time>
			</trkpt>
			<trkpt lat="33.293598" lon="103.819672">
				<ele>2429.000000</ele>
				<time>2024-04-10T04:24:23Z</time>
			</trkpt>
			<trkpt lat="33.293598" lon="103.819672">
				<ele>2429.000000</ele>
				<time>2024-04-10T04:24:23Z</time>
			</trkpt>
			<trkpt lat="33.293636" lon="103.819679">
				<ele>2429.000000</ele>
				<time>2024-04-10T04:24:23Z</time>
			</trkpt>
			<trkpt lat="33.293671" lon="103.819786">
				<ele>2429.000000</ele>
				<time>2024-04-10T04:24:23Z</time>
			</trkpt>
			<trkpt lat="33.293674" lon="103.819916">
				<ele>2432.000000</ele>
				<time>2024-04-10T04:24:23Z</time>
			</trkpt>
			<trkpt lat="33.293697" lon="103.820045">
				<ele>2432.000000</ele>
				<time>2024-04-10T04:24:23Z</time>
			</trkpt>
			<trkpt lat="33.293736" lon="103.820152">
				<ele>2434.000000</ele>
				<time>2024-04-10T04:24:23Z</time>
			</trkpt>
			<trkpt lat="33.293823" lon="103.820206">
				<ele>2433.000000</ele>
				<time>2024-04-10T04:24:23Z</time>
			</trkpt>
			<trkpt lat="33.293922" lon="103.820206">
				<ele>2433.000000</ele>
				<time>2024-04-10T04:24:23Z</time>
			</trkpt>
			<trkpt lat="33.294022" lon="103.820213">
				<ele>2433.000000</ele>
				<time>2024-04-10T04:24:23Z</time>
			</trkpt>
			<trkpt lat="33.294117" lon="103.820198">
				<ele>2429.000000</ele>
				<time>2024-04-10T04:24:23Z</time>
			</trkpt>
			<trkpt lat="33.294216" lon="103.820213">
				<ele>2429.000000</ele>
				<time>2024-04-10T04:24:23Z</time>
			</trkpt>
			<trkpt lat="33.294266" lon="103.820251">
				<ele>2429.000000</ele>
				<time>2024-04-10T04:24:23Z</time>
			</trkpt>
			<trkpt lat="33.294308" lon="103.820229">
				<ele>2427.000000</ele>
				<time>2024-04-10T04:24:23Z</time>
			</trkpt>
			<trkpt lat="33.294388" lon="103.820206">
				<ele>2427.000000</ele>
				<time>2024-04-10T04:24:23Z</time>
			</trkpt>
			<trkpt lat="33.294487" lon="103.820206">
				<ele>2427.000000</ele>
				<time>2024-04-10T04:24:23Z</time>
			</trkpt>
			<trkpt lat="33.294590" lon="103.820213">
				<ele>2430.000000</ele>
				<time>2024-04-10T04:24:23Z</time>
			</trkpt>
			<trkpt lat="33.294697" lon="103.820183">
				<ele>2430.000000</ele>
				<time>2024-04-10T04:24:23Z</time>
			</trkpt>
			<trkpt lat="33.294796" lon="103.820160">
				<ele>2430.000000</ele>
				<time>2024-04-10T04:24:23Z</time>
			</trkpt>
			<trkpt lat="33.294884" lon="103.820129">
				<ele>2419.000000</ele>
				<time>2024-04-10T04:24:23Z</time>
			</trkpt>
			<trkpt lat="33.294971" lon="103.820145">
				<ele>2432.000000</ele>
				<time>2024-04-10T04:24:23Z</time>
			</trkpt>
			<trkpt lat="33.295074" lon="103.820160">
				<ele>2432.000000</ele>
				<time>2024-04-10T04:24:23Z</time>
			</trkpt>
			<trkpt lat="33.295170" lon="103.820175">
				<ele>2431.000000</ele>
				<time>2024-04-10T04:24:23Z</time>
			</trkpt>
			<trkpt lat="33.295265" lon="103.820190">
				<ele>2431.000000</ele>
				<time>2024-04-10T04:24:23Z</time>
			</trkpt>
			<trkpt lat="33.295345" lon="103.820145">
				<ele>2431.000000</ele>
				<time>2024-04-10T04:24:23Z</time>
			</trkpt>
			<trkpt lat="33.295433" lon="103.820099">
				<ele>2425.000000</ele>
				<time>2024-04-10T04:24:23Z</time>
			</trkpt>
			<trkpt lat="33.295521" lon="103.820030">
				<ele>2425.000000</ele>
				<time>2024-04-10T04:24:23Z</time>
			</trkpt>
			<trkpt lat="33.295609" lon="103.820038">
				<ele>2425.000000</ele>
				<time>2024-04-10T04:24:23Z</time>
			</trkpt>
			<trkpt lat="33.295700" lon="103.820053">
				<ele>2432.000000</ele>
				<time>2024-04-10T04:24:23Z</time>
			</trkpt>
			<trkpt lat="33.295788" lon="103.820030">
				<ele>2432.000000</ele>
				<time>2024-04-10T04:24:23Z</time>
			</trkpt>
			<trkpt lat="33.295887" lon="103.819992">
				<ele>2432.000000</ele>
				<time>2024-04-10T04:24:23Z</time>
			</trkpt>
			<trkpt lat="33.295979" lon="103.819992">
				<ele>2438.000000</ele>
				<time>2024-04-10T04:24:23Z</time>
			</trkpt>
			<trkpt lat="33.296070" lon="103.819969">
				<ele>2438.000000</ele>
				<time>2024-04-10T04:24:23Z</time>
			</trkpt>
			<trkpt lat="33.296158" lon="103.819946">
				<ele>2438.000000</ele>
				<time>2024-04-10T04:24:23Z</time>
			</trkpt>
			<trkpt lat="33.296249" lon="103.819931">
				<ele>2438.000000</ele>
				<time>2024-04-10T04:24:23Z</time>
			</trkpt>
			<trkpt lat="33.296341" lon="103.819901">
				<ele>2440.000000</ele>
				<time>2024-04-10T04:24:23Z</time>
			</trkpt>
			<trkpt lat="33.296379" lon="103.819870">
				<ele>2440.000000</ele>
				<time>2024-04-10T04:24:23Z</time>
			</trkpt>
			<trkpt lat="33.296452" lon="103.819855">
				<ele>2422.000000</ele>
				<time>2024-04-10T04:24:23Z</time>
			</trkpt>
			<trkpt lat="33.296543" lon="103.819839">
				<ele>2425.000000</ele>
				<time>2024-04-10T04:24:23Z</time>
			</trkpt>
			<trkpt lat="33.296635" lon="103.819817">
				<ele>2425.000000</ele>
				<time>2024-04-10T04:24:23Z</time>
			</trkpt>
			<trkpt lat="33.296719" lon="103.819756">
				<ele>2425.000000</ele>
				<time>2024-04-10T04:24:23Z</time>
			</trkpt>
			<trkpt lat="33.296791" lon="103.819664">
				<ele>2425.000000</ele>
				<time>2024-04-10T04:24:23Z</time>
			</trkpt>
			<trkpt lat="33.296825" lon="103.819572">
				<ele>2417.000000</ele>
				<time>2024-04-10T04:24:23Z</time>
			</trkpt>
			<trkpt lat="33.296898" lon="103.819565">
				<ele>2417.000000</ele>
				<time>2024-04-10T04:24:23Z</time>
			</trkpt>
			<trkpt lat="33.296989" lon="103.819588">
				<ele>2427.000000</ele>
				<time>2024-04-10T04:24:23Z</time>
			</trkpt>
			<trkpt lat="33.297104" lon="103.819641">
				<ele>2421.000000</ele>
				<time>2024-04-10T04:24:23Z</time>
			</trkpt>
			<trkpt lat="33.297199" lon="103.819626">
				<ele>2421.000000</ele>
				<time>2024-04-10T04:24:23Z</time>
			</trkpt>
			<trkpt lat="33.297298" lon="103.819611">
				<ele>2421.000000</ele>
				<time>2024-04-10T04:24:23Z</time>
			</trkpt>
			<trkpt lat="33.297398" lon="103.819603">
				<ele>2423.000000</ele>
				<time>2024-04-10T04:24:23Z</time>
			</trkpt>
			<trkpt lat="33.297485" lon="103.819633">
				<ele>2423.000000</ele>
				<time>2024-04-10T04:24:23Z</time>
			</trkpt>
			<trkpt lat="33.297577" lon="103.819633">
				<ele>2423.000000</ele>
				<time>2024-04-10T04:24:23Z</time>
			</trkpt>
			<trkpt lat="33.297668" lon="103.819611">
				<ele>2425.000000</ele>
				<time>2024-04-10T04:24:23Z</time>
			</trkpt>
			<trkpt lat="33.297756" lon="103.819565">
				<ele>2412.000000</ele>
				<time>2024-04-10T04:24:23Z</time>
			</trkpt>
			<trkpt lat="33.297836" lon="103.819496">
				<ele>2412.000000</ele>
				<time>2024-04-10T04:24:23Z</time>
			</trkpt>
			<trkpt lat="33.297935" lon="103.819458">
				<ele>2412.000000</ele>
				<time>2024-04-10T04:24:23Z</time>
			</trkpt>
			<trkpt lat="33.298027" lon="103.819435">
				<ele>2412.000000</ele>
				<time>2024-04-10T04:24:23Z</time>
			</trkpt>
			<trkpt lat="33.298119" lon="103.819405">
				<ele>2412.000000</ele>
				<time>2024-04-10T04:24:23Z</time>
			</trkpt>
			<trkpt lat="33.298222" lon="103.819420">
				<ele>2418.000000</ele>
				<time>2024-04-10T04:24:23Z</time>
			</trkpt>
			<trkpt lat="33.298306" lon="103.819473">
				<ele>2418.000000</ele>
				<time>2024-04-10T04:24:23Z</time>
			</trkpt>
			<trkpt lat="33.298389" lon="103.819534">
				<ele>2418.000000</ele>
				<time>2024-04-10T04:24:23Z</time>
			</trkpt>
			<trkpt lat="33.298389" lon="103.819534">
				<ele>2418.000000</ele>
				<time>2024-04-10T04:24:23Z</time>
			</trkpt>
			<trkpt lat="33.298473" lon="103.819588">
				<ele>2426.000000</ele>
				<time>2024-04-10T04:24:23Z</time>
			</trkpt>
			<trkpt lat="33.298473" lon="103.819588">
				<ele>2426.000000</ele>
				<time>2024-04-10T04:24:23Z</time>
			</trkpt>
			<trkpt lat="33.298542" lon="103.819656">
				<ele>2426.000000</ele>
				<time>2024-04-10T04:24:23Z</time>
			</trkpt>
			<trkpt lat="33.298584" lon="103.819756">
				<ele>2426.000000</ele>
				<time>2024-04-10T04:24:23Z</time>
			</trkpt>
			<trkpt lat="33.298664" lon="103.819786">
				<ele>2426.000000</ele>
				<time>2024-04-10T04:24:23Z</time>
			</trkpt>
			<trkpt lat="33.298763" lon="103.819817">
				<ele>2424.000000</ele>
				<time>2024-04-10T04:24:23Z</time>
			</trkpt>
			<trkpt lat="33.298866" lon="103.819817">
				<ele>2424.000000</ele>
				<time>2024-04-10T04:24:23Z</time>
			</trkpt>
			<trkpt lat="33.298973" lon="103.819794">
				<ele>2424.000000</ele>
				<time>2024-04-10T04:24:23Z</time>
			</trkpt>
			<trkpt lat="33.299080" lon="103.819771">
				<ele>2418.000000</ele>
				<time>2024-04-10T04:24:23Z</time>
			</trkpt>
			<trkpt lat="33.299168" lon="103.819702">
				<ele>2418.000000</ele>
				<time>2024-04-10T04:24:23Z</time>
			</trkpt>
			<trkpt lat="33.299255" lon="103.819672">
				<ele>2418.000000</ele>
				<time>2024-04-10T04:24:23Z</time>
			</trkpt>
			<trkpt lat="33.299351" lon="103.819664">
				<ele>2418.000000</ele>
				<time>2024-04-10T04:24:23Z</time>
			</trkpt>
			<trkpt lat="33.299446" lon="103.819641">
				<ele>2418.000000</ele>
				<time>2024-04-10T04:24:23Z</time>
			</trkpt>
			<trkpt lat="33.299538" lon="103.819672">
				<ele>2418.000000</ele>
				<time>2024-04-10T04:24:23Z</time>
			</trkpt>
			<trkpt lat="33.299629" lon="103.819687">
				<ele>2420.000000</ele>
				<time>2024-04-10T04:24:23Z</time>
			</trkpt>
			<trkpt lat="33.299721" lon="103.819733">
				<ele>2420.000000</ele>
				<time>2024-04-10T04:24:23Z</time>
			</trkpt>
			<trkpt lat="33.299809" lon="103.819771">
				<ele>2420.000000</ele>
				<time>2024-04-10T04:24:23Z</time>
			</trkpt>
			<trkpt lat="33.299911" lon="103.819786">
				<ele>2414.000000</ele>
				<time>2024-04-10T04:24:23Z</time>
			</trkpt>
			<trkpt lat="33.299988" lon="103.819717">
				<ele>2414.000000</ele>
				<time>2024-04-10T04:24:23Z</time>
			</trkpt>
			<trkpt lat="33.300068" lon="103.819664">
				<ele>2414.000000</ele>
				<time>2024-04-10T04:24:23Z</time>
			</trkpt>
			<trkpt lat="33.300159" lon="103.819664">
				<ele>2406.000000</ele>
				<time>2024-04-10T04:24:23Z</time>
			</trkpt>
			<trkpt lat="33.300255" lon="103.819656">
				<ele>2406.000000</ele>
				<time>2024-04-10T04:24:23Z</time>
			</trkpt>
			<trkpt lat="33.300346" lon="103.819672">
				<ele>2406.000000</ele>
				<time>2024-04-10T04:24:23Z</time>
			</trkpt>
			<trkpt lat="33.300438" lon="103.819672">
				<ele>2408.000000</ele>
				<time>2024-04-10T04:24:23Z</time>
			</trkpt>
			<trkpt lat="33.300529" lon="103.819695">
				<ele>2408.000000</ele>
				<time>2024-04-10T04:24:23Z</time>
			</trkpt>
			<trkpt lat="33.300625" lon="103.819687">
				<ele>2408.000000</ele>
				<time>2024-04-10T04:24:23Z</time>
			</trkpt>
			<trkpt lat="33.300713" lon="103.819656">
				<ele>2404.000000</ele>
				<time>2024-04-10T04:24:23Z</time>
			</trkpt>
			<trkpt lat="33.300770" lon="103.819565">
				<ele>2391.000000</ele>
				<time>2024-04-10T04:24:23Z</time>
			</trkpt>
			<trkpt lat="33.300835" lon="103.819481">
				<ele>2391.000000</ele>
				<time>2024-04-10T04:24:23Z</time>
			</trkpt>
			<trkpt lat="33.300919" lon="103.819427">
				<ele>2391.000000</ele>
				<time>2024-04-10T04:24:23Z</time>
			</trkpt>
			<trkpt lat="33.301018" lon="103.819420">
				<ele>2384.000000</ele>
				<time>2024-04-10T04:24:23Z</time>
			</trkpt>
			<trkpt lat="33.301109" lon="103.819405">
				<ele>2384.000000</ele>
				<time>2024-04-10T04:24:23Z</time>
			</trkpt>
			<trkpt lat="33.301186" lon="103.819336">
				<ele>2384.000000</ele>
				<time>2024-04-10T04:24:23Z</time>
			</trkpt>
			<trkpt lat="33.301186" lon="103.819336">
				<ele>2384.000000</ele>
				<time>2024-04-10T04:24:23Z</time>
			</trkpt>
			<trkpt lat="33.301228" lon="103.819237">
				<ele>2375.000000</ele>
				<time>2024-04-10T04:24:23Z</time>
			</trkpt>
			<trkpt lat="33.301228" lon="103.819237">
				<ele>2375.000000</ele>
				<time>2024-04-10T04:24:23Z</time>
			</trkpt>
			<trkpt lat="33.301281" lon="103.819130">
				<ele>2373.000000</ele>
				<time>2024-04-10T04:24:23Z</time>
			</trkpt>
			<trkpt lat="33.301373" lon="103.819092">
				<ele>2373.000000</ele>
				<time>2024-04-10T04:24:23Z</time>
			</trkpt>
			<trkpt lat="33.301414" lon="103.819000">
				<ele>2367.000000</ele>
				<time>2024-04-10T04:24:23Z</time>
			</trkpt>
			<trkpt lat="33.301453" lon="103.818901">
				<ele>2367.000000</ele>
				<time>2024-04-10T04:24:23Z</time>
			</trkpt>
			<trkpt lat="33.301525" lon="103.818848">
				<ele>2367.000000</ele>
				<time>2024-04-10T04:24:23Z</time>
			</trkpt>
			<trkpt lat="33.301605" lon="103.818787">
				<ele>2374.000000</ele>
				<time>2024-04-10T04:24:23Z</time>
			</trkpt>
			<trkpt lat="33.301651" lon="103.818695">
				<ele>2365.000000</ele>
				<time>2024-04-10T04:24:23Z</time>
			</trkpt>
			<trkpt lat="33.301712" lon="103.818604">
				<ele>2365.000000</ele>
				<time>2024-04-10T04:24:23Z</time>
			</trkpt>
			<trkpt lat="33.301773" lon="103.818512">
				<ele>2365.000000</ele>
				<time>2024-04-10T04:24:23Z</time>
			</trkpt>
			<trkpt lat="33.301815" lon="103.818413">
				<ele>2357.000000</ele>
				<time>2024-04-10T04:24:23Z</time>
			</trkpt>
			<trkpt lat="33.301884" lon="103.818344">
				<ele>2357.000000</ele>
				<time>2024-04-10T04:24:23Z</time>
			</trkpt>
			<trkpt lat="33.301884" lon="103.818344">
				<ele>2357.000000</ele>
				<time>2024-04-10T04:24:23Z</time>
			</trkpt>
			<trkpt lat="33.301884" lon="103.818344">
				<ele>2357.000000</ele>
				<time>2024-04-10T04:24:23Z</time>
			</trkpt>
			<trkpt lat="33.301884" lon="103.818344">
				<ele>2357.000000</ele>
				<time>2024-04-10T04:24:23Z</time>
			</trkpt>
			<trkpt lat="33.301884" lon="103.818344">
				<ele>2357.000000</ele>
				<time>2024-04-10T04:24:23Z</time>
			</trkpt>
			<trkpt lat="33.301884" lon="103.818344">
				<ele>2357.000000</ele>
				<time>2024-04-10T04:24:23Z</time>
			</trkpt>
			<trkpt lat="33.301884" lon="103.818344">
				<ele>2357.000000</ele>
				<time>2024-04-10T04:24:23Z</time>
			</trkpt>
			<trkpt lat="33.301884" lon="103.818344">
				<ele>2357.000000</ele>
				<time>2024-04-10T04:24:23Z</time>
			</trkpt>
			<trkpt lat="33.301926" lon="103.818352">
				<ele>2357.000000</ele>
				<time>2024-04-10T04:24:23Z</time>
			</trkpt>
			<trkpt lat="33.302002" lon="103.818375">
				<ele>2357.000000</ele>
				<time>2024-04-10T04:24:23Z</time>
			</trkpt>
			<trkpt lat="33.302094" lon="103.818405">
				<ele>2359.000000</ele>
				<time>2024-04-10T04:24:23Z</time>
			</trkpt>
			<trkpt lat="33.302189" lon="103.818428">
				<ele>2359.000000</ele>
				<time>2024-04-10T04:24:23Z</time>
			</trkpt>
			<trkpt lat="33.302284" lon="103.818398">
				<ele>2359.000000</ele>
				<time>2024-04-10T04:24:23Z</time>
			</trkpt>
			<trkpt lat="33.302368" lon="103.818459">
				<ele>2358.000000</ele>
				<time>2024-04-10T04:24:23Z</time>
			</trkpt>
			<trkpt lat="33.302460" lon="103.818459">
				<ele>2358.000000</ele>
				<time>2024-04-10T04:24:23Z</time>
			</trkpt>
			<trkpt lat="33.302525" lon="103.818527">
				<ele>2374.000000</ele>
				<time>2024-04-10T04:24:23Z</time>
			</trkpt>
			<trkpt lat="33.302628" lon="103.818565">
				<ele>2374.000000</ele>
				<time>2024-04-10T04:24:23Z</time>
			</trkpt>
			<trkpt lat="33.302628" lon="103.818565">
				<ele>2374.000000</ele>
				<time>2024-04-10T04:24:23Z</time>
			</trkpt>
			<trkpt lat="33.302628" lon="103.818565">
				<ele>2374.000000</ele>
				<time>2024-04-10T04:24:23Z</time>
			</trkpt>
			<trkpt lat="33.302628" lon="103.818565">
				<ele>2374.000000</ele>
				<time>2024-04-10T04:24:23Z</time>
			</trkpt>
			<trkpt lat="33.302628" lon="103.818565">
				<ele>2374.000000</ele>
				<time>2024-04-10T04:24:23Z</time>
			</trkpt>
			<trkpt lat="33.302628" lon="103.818565">
				<ele>2374.000000</ele>
				<time>2024-04-10T04:24:23Z</time>
			</trkpt>
			<trkpt lat="33.302628" lon="103.818565">
				<ele>2374.000000</ele>
				<time>2024-04-10T04:24:23Z</time>
			</trkpt>
			<trkpt lat="33.302628" lon="103.818565">
				<ele>2374.000000</ele>
				<time>2024-04-10T04:24:23Z</time>
			</trkpt>
			<trkpt lat="33.302628" lon="103.818565">
				<ele>2374.000000</ele>
				<time>2024-04-10T04:24:23Z</time>
			</trkpt>
			<trkpt lat="33.302628" lon="103.818565">
				<ele>2374.000000</ele>
				<time>2024-04-10T04:24:23Z</time>
			</trkpt>
			<trkpt lat="33.302723" lon="103.818619">
				<ele>2376.000000</ele>
				<time>2024-04-10T04:24:23Z</time>
			</trkpt>
			<trkpt lat="33.302723" lon="103.818619">
				<ele>2376.000000</ele>
				<time>2024-04-10T04:24:23Z</time>
			</trkpt>
			<trkpt lat="33.302830" lon="103.818649">
				<ele>2376.000000</ele>
				<time>2024-04-10T04:24:23Z</time>
			</trkpt>
			<trkpt lat="33.302921" lon="103.818695">
				<ele>2375.000000</ele>
				<time>2024-04-10T04:24:23Z</time>
			</trkpt>
			<trkpt lat="33.303009" lon="103.818733">
				<ele>2375.000000</ele>
				<time>2024-04-10T04:24:23Z</time>
			</trkpt>
			<trkpt lat="33.303089" lon="103.818672">
				<ele>2375.000000</ele>
				<time>2024-04-10T04:24:23Z</time>
			</trkpt>
			<trkpt lat="33.303169" lon="103.818604">
				<ele>2375.000000</ele>
				<time>2024-04-10T04:24:23Z</time>
			</trkpt>
			<trkpt lat="33.303257" lon="103.818626">
				<ele>2363.000000</ele>
				<time>2024-04-10T04:24:23Z</time>
			</trkpt>
			<trkpt lat="33.303345" lon="103.818604">
				<ele>2363.000000</ele>
				<time>2024-04-10T04:24:23Z</time>
			</trkpt>
			<trkpt lat="33.303429" lon="103.818550">
				<ele>2363.000000</ele>
				<time>2024-04-10T04:24:23Z</time>
			</trkpt>
			<trkpt lat="33.303505" lon="103.818459">
				<ele>2348.000000</ele>
				<time>2024-04-10T04:24:23Z</time>
			</trkpt>
			<trkpt lat="33.303593" lon="103.818413">
				<ele>2348.000000</ele>
				<time>2024-04-10T04:24:23Z</time>
			</trkpt>
			<trkpt lat="33.303658" lon="103.818336">
				<ele>2348.000000</ele>
				<time>2024-04-10T04:24:23Z</time>
			</trkpt>
			<trkpt lat="33.303707" lon="103.818245">
				<ele>2348.000000</ele>
				<time>2024-04-10T04:24:23Z</time>
			</trkpt>
			<trkpt lat="33.303772" lon="103.818153">
				<ele>2323.000000</ele>
				<time>2024-04-10T04:24:23Z</time>
			</trkpt>
			<trkpt lat="33.303833" lon="103.818077">
				<ele>2323.000000</ele>
				<time>2024-04-10T04:24:23Z</time>
			</trkpt>
			<trkpt lat="33.303848" lon="103.817955">
				<ele>2323.000000</ele>
				<time>2024-04-10T04:24:23Z</time>
			</trkpt>
			<trkpt lat="33.303913" lon="103.817879">
				<ele>2312.000000</ele>
				<time>2024-04-10T04:24:23Z</time>
			</trkpt>
			<trkpt lat="33.303886" lon="103.817764">
				<ele>2312.000000</ele>
				<time>2024-04-10T04:24:23Z</time>
			</trkpt>
			<trkpt lat="33.303802" lon="103.817688">
				<ele>2312.000000</ele>
				<time>2024-04-10T04:24:23Z</time>
			</trkpt>
			<trkpt lat="33.303719" lon="103.817642">
				<ele>2319.000000</ele>
				<time>2024-04-10T04:24:23Z</time>
			</trkpt>
			<trkpt lat="33.303638" lon="103.817574">
				<ele>2302.000000</ele>
				<time>2024-04-10T04:24:23Z</time>
			</trkpt>
			<trkpt lat="33.303608" lon="103.817467">
				<ele>2302.000000</ele>
				<time>2024-04-10T04:24:23Z</time>
			</trkpt>
			<trkpt lat="33.303711" lon="103.817421">
				<ele>2302.000000</ele>
				<time>2024-04-10T04:24:23Z</time>
			</trkpt>
			<trkpt lat="33.303787" lon="103.817352">
				<ele>2282.000000</ele>
				<time>2024-04-10T04:24:23Z</time>
			</trkpt>
			<trkpt lat="33.303852" lon="103.817268">
				<ele>2282.000000</ele>
				<time>2024-04-10T04:24:23Z</time>
			</trkpt>
			<trkpt lat="33.303913" lon="103.817192">
				<ele>2282.000000</ele>
				<time>2024-04-10T04:24:23Z</time>
			</trkpt>
			<trkpt lat="33.303982" lon="103.817108">
				<ele>2282.000000</ele>
				<time>2024-04-10T04:24:23Z</time>
			</trkpt>
			<trkpt lat="33.304058" lon="103.817039">
				<ele>2260.000000</ele>
				<time>2024-04-10T04:24:23Z</time>
			</trkpt>
			<trkpt lat="33.304127" lon="103.816940">
				<ele>2260.000000</ele>
				<time>2024-04-10T04:24:23Z</time>
			</trkpt>
			<trkpt lat="33.304195" lon="103.816856">
				<ele>2260.000000</ele>
				<time>2024-04-10T04:24:23Z</time>
			</trkpt>
			<trkpt lat="33.304211" lon="103.816757">
				<ele>2250.000000</ele>
				<time>2024-04-10T04:24:23Z</time>
			</trkpt>
			<trkpt lat="33.304184" lon="103.816643">
				<ele>2250.000000</ele>
				<time>2024-04-10T04:24:23Z</time>
			</trkpt>
			<trkpt lat="33.304165" lon="103.816528">
				<ele>2250.000000</ele>
				<time>2024-04-10T04:24:23Z</time>
			</trkpt>
			<trkpt lat="33.304146" lon="103.816414">
				<ele>2238.000000</ele>
				<time>2024-04-10T04:24:23Z</time>
			</trkpt>
			<trkpt lat="33.304150" lon="103.816307">
				<ele>2238.000000</ele>
				<time>2024-04-10T04:24:23Z</time>
			</trkpt>
			<trkpt lat="33.304134" lon="103.816200">
				<ele>2223.000000</ele>
				<time>2024-04-10T04:24:23Z</time>
			</trkpt>
			<trkpt lat="33.304214" lon="103.816124">
				<ele>2223.000000</ele>
				<time>2024-04-10T04:24:23Z</time>
			</trkpt>
			<trkpt lat="33.304298" lon="103.816063">
				<ele>2223.000000</ele>
				<time>2024-04-10T04:24:23Z</time>
			</trkpt>
			<trkpt lat="33.304398" lon="103.816017">
				<ele>2228.000000</ele>
				<time>2024-04-10T04:24:23Z</time>
			</trkpt>
			<trkpt lat="33.304493" lon="103.816002">
				<ele>2228.000000</ele>
				<time>2024-04-10T04:24:23Z</time>
			</trkpt>
			<trkpt lat="33.304592" lon="103.815979">
				<ele>2222.000000</ele>
				<time>2024-04-10T04:24:23Z</time>
			</trkpt>
			<trkpt lat="33.304588" lon="103.815948">
				<ele>2205.000000</ele>
				<time>2024-04-10T04:24:23Z</time>
			</trkpt>
			<trkpt lat="33.304485" lon="103.815918">
				<ele>2212.000000</ele>
				<time>2024-04-10T04:24:23Z</time>
			</trkpt>
			<trkpt lat="33.304382" lon="103.815872">
				<ele>2212.000000</ele>
				<time>2024-04-10T04:24:23Z</time>
			</trkpt>
			<trkpt lat="33.304291" lon="103.815857">
				<ele>2213.000000</ele>
				<time>2024-04-10T04:24:23Z</time>
			</trkpt>
			<trkpt lat="33.304203" lon="103.815819">
				<ele>2213.000000</ele>
				<time>2024-04-10T04:24:23Z</time>
			</trkpt>
			<trkpt lat="33.304142" lon="103.815742">
				<ele>2213.000000</ele>
				<time>2024-04-10T04:24:23Z</time>
			</trkpt>
			<trkpt lat="33.304157" lon="103.815643">
				<ele>2208.000000</ele>
				<time>2024-04-10T04:24:23Z</time>
			</trkpt>
			<trkpt lat="33.304264" lon="103.815559">
				<ele>2208.000000</ele>
				<time>2024-04-10T04:24:23Z</time>
			</trkpt>
			<trkpt lat="33.304356" lon="103.815552">
				<ele>2206.000000</ele>
				<time>2024-04-10T04:24:23Z</time>
			</trkpt>
			<trkpt lat="33.304451" lon="103.815536">
				<ele>2206.000000</ele>
				<time>2024-04-10T04:24:23Z</time>
			</trkpt>
			<trkpt lat="33.304565" lon="103.815529">
				<ele>2206.000000</ele>
				<time>2024-04-10T04:24:23Z</time>
			</trkpt>
			<trkpt lat="33.304657" lon="103.815498">
				<ele>2207.000000</ele>
				<time>2024-04-10T04:24:23Z</time>
			</trkpt>
			<trkpt lat="33.304752" lon="103.815491">
				<ele>2207.000000</ele>
				<time>2024-04-10T04:24:23Z</time>
			</trkpt>
			<trkpt lat="33.304859" lon="103.815460">
				<ele>2207.000000</ele>
				<time>2024-04-10T04:24:23Z</time>
			</trkpt>
			<trkpt lat="33.304970" lon="103.815445">
				<ele>2202.000000</ele>
				<time>2024-04-10T04:24:23Z</time>
			</trkpt>
			<trkpt lat="33.305073" lon="103.815437">
				<ele>2202.000000</ele>
				<time>2024-04-10T04:24:23Z</time>
			</trkpt>
			<trkpt lat="33.305168" lon="103.815445">
				<ele>2202.000000</ele>
				<time>2024-04-10T04:24:23Z</time>
			</trkpt>
			<trkpt lat="33.305279" lon="103.815468">
				<ele>2202.000000</ele>
				<time>2024-04-10T04:24:23Z</time>
			</trkpt>
			<trkpt lat="33.305389" lon="103.815437">
				<ele>2202.000000</ele>
				<time>2024-04-10T04:24:23Z</time>
			</trkpt>
			<trkpt lat="33.305492" lon="103.815422">
				<ele>2199.000000</ele>
				<time>2024-04-10T04:24:23Z</time>
			</trkpt>
			<trkpt lat="33.305599" lon="103.815399">
				<ele>2202.000000</ele>
				<time>2024-04-10T04:24:23Z</time>
			</trkpt>
			<trkpt lat="33.305698" lon="103.815369">
				<ele>2202.000000</ele>
				<time>2024-04-10T04:24:23Z</time>
			</trkpt>
			<trkpt lat="33.305790" lon="103.815331">
				<ele>2202.000000</ele>
				<time>2024-04-10T04:24:23Z</time>
			</trkpt>
			<trkpt lat="33.305882" lon="103.815292">
				<ele>2202.000000</ele>
				<time>2024-04-10T04:24:23Z</time>
			</trkpt>
			<trkpt lat="33.305973" lon="103.815247">
				<ele>2204.000000</ele>
				<time>2024-04-10T04:24:23Z</time>
			</trkpt>
			<trkpt lat="33.306061" lon="103.815201">
				<ele>2204.000000</ele>
				<time>2024-04-10T04:24:23Z</time>
			</trkpt>
			<trkpt lat="33.306061" lon="103.815201">
				<ele>2204.000000</ele>
				<time>2024-04-10T04:24:23Z</time>
			</trkpt>
			<trkpt lat="33.306061" lon="103.815201">
				<ele>2204.000000</ele>
				<time>2024-04-10T04:24:23Z</time>
			</trkpt>
			<trkpt lat="33.306061" lon="103.815201">
				<ele>2204.000000</ele>
				<time>2024-04-10T04:24:23Z</time>
			</trkpt>
			<trkpt lat="33.306061" lon="103.815201">
				<ele>2204.000000</ele>
				<time>2024-04-10T04:24:23Z</time>
			</trkpt>
			<trkpt lat="33.306061" lon="103.815201">
				<ele>2204.000000</ele>
				<time>2024-04-10T04:24:23Z</time>
			</trkpt>
			<trkpt lat="33.306061" lon="103.815201">
				<ele>2204.000000</ele>
				<time>2024-04-10T04:24:23Z</time>
			</trkpt>
			<trkpt lat="33.306061" lon="103.815201">
				<ele>2204.000000</ele>
				<time>2024-04-10T04:24:23Z</time>
			</trkpt>
			<trkpt lat="33.306152" lon="103.815186">
				<ele>2204.000000</ele>
				<time>2024-04-10T04:24:23Z</time>
			</trkpt>
			<trkpt lat="33.306152" lon="103.815186">
				<ele>2204.000000</ele>
				<time>2024-04-10T04:24:23Z</time>
			</trkpt>
			<trkpt lat="33.306152" lon="103.815186">
				<ele>2204.000000</ele>
				<time>2024-04-10T04:24:23Z</time>
			</trkpt>
			<trkpt lat="33.306244" lon="103.815102">
				<ele>2203.000000</ele>
				<time>2024-04-10T04:24:23Z</time>
			</trkpt>
			<trkpt lat="33.306244" lon="103.815102">
				<ele>2203.000000</ele>
				<time>2024-04-10T04:24:23Z</time>
			</trkpt>
			<trkpt lat="33.306351" lon="103.815086">
				<ele>2204.000000</ele>
				<time>2024-04-10T04:24:23Z</time>
			</trkpt>
			<trkpt lat="33.306446" lon="103.815079">
				<ele>2204.000000</ele>
				<time>2024-04-10T04:24:23Z</time>
			</trkpt>
			<trkpt lat="33.306641" lon="103.815056">
				<ele>2204.000000</ele>
				<time>2024-04-10T04:24:23Z</time>
			</trkpt>
			<trkpt lat="33.306732" lon="103.815041">
				<ele>2204.000000</ele>
				<time>2024-04-10T04:24:23Z</time>
			</trkpt>
			<trkpt lat="33.306831" lon="103.815010">
				<ele>2204.000000</ele>
				<time>2024-04-10T04:24:23Z</time>
			</trkpt>
			<trkpt lat="33.306934" lon="103.814995">
				<ele>2204.000000</ele>
				<time>2024-04-10T04:24:23Z</time>
			</trkpt>
		</trkseg>
	</trk>
</gpx>
